<?xml version='1.0' encoding='UTF-8'?><gpx version="1.1" creator="JPX - https://github.com/jenetics/jpx" xmlns="http://www.topografix.com/GPX/1/1"><trk><trkseg><trkpt lat="44.185095" lon="12.1147183"><ele>28.000000000000004</ele><time>2026-05-06T12:18:38Z</time></trkpt><trkpt lat="44.185125" lon="12.1146383"><ele>28.0</ele><time>2026-05-06T12:18:40Z</time></trkpt><trkpt lat="44.1851617" lon="12.1145367"><ele>28.0</ele><time>2026-05-06T12:18:43.999Z</time></trkpt><trkpt lat="44.1850683" lon="12.1144583"><ele>28.0</ele><time>2026-05-06T12:18:46.999Z</time></trkpt><trkpt lat="44.18502" lon="12.114375"><ele>28.000000000000004</ele><time>2026-05-06T12:18:48.999Z</time></trkpt><trkpt lat="44.1850217" lon="12.1142867"><ele>28.0</ele><time>2026-05-06T12:18:51Z</time></trkpt><trkpt lat="44.1850517" lon="12.114185"><ele>27.857142857142858</ele><time>2026-05-06T12:18:54Z</time></trkpt><trkpt lat="44.1850767" lon="12.1140633"><ele>27.714285714285715</ele><time>2026-05-06T12:18:56.999Z</time></trkpt><trkpt lat="44.1851017" lon="12.1139817"><ele>27.57142857142857</ele><time>2026-05-06T12:19:00Z</time></trkpt><trkpt lat="44.1851133" lon="12.1138867"><ele>27.42857142857143</ele><time>2026-05-06T12:19:02.999Z</time></trkpt><trkpt lat="44.1850867" lon="12.1138033"><ele>27.285714285714285</ele><time>2026-05-06T12:19:05Z</time></trkpt><trkpt lat="44.185035" lon="12.1137283"><ele>27.142857142857142</ele><time>2026-05-06T12:19:06.999Z</time></trkpt><trkpt lat="44.1849683" lon="12.1136667"><ele>27.0</ele><time>2026-05-06T12:19:08.999Z</time></trkpt><trkpt lat="44.1848417" lon="12.1135967"><ele>27.0</ele><time>2026-05-06T12:19:13.497Z</time></trkpt><trkpt lat="44.1847217" lon="12.11351"><ele>27.000000000000004</ele><time>2026-05-06T12:19:15.997Z</time></trkpt><trkpt lat="44.1846417" lon="12.11344"><ele>27.000000000000004</ele><time>2026-05-06T12:19:17.997Z</time></trkpt><trkpt lat="44.1845583" lon="12.1133667"><ele>27.0</ele><time>2026-05-06T12:19:19.997Z</time></trkpt><trkpt lat="44.1844833" lon="12.1132933"><ele>27.0</ele><time>2026-05-06T12:19:21.996Z</time></trkpt><trkpt lat="44.1844167" lon="12.11323"><ele>27.0</ele><time>2026-05-06T12:19:23.996Z</time></trkpt><trkpt lat="44.184355" lon="12.1131733"><ele>27.0</ele><time>2026-05-06T12:19:25.997Z</time></trkpt><trkpt lat="44.184295" lon="12.1131167"><ele>27.0</ele><time>2026-05-06T12:19:27.997Z</time></trkpt><trkpt lat="44.1842233" lon="12.11308"><ele>27.0</ele><time>2026-05-06T12:19:29.996Z</time></trkpt><trkpt lat="44.1841417" lon="12.1130817"><ele>27.0</ele><time>2026-05-06T12:19:31.997Z</time></trkpt><trkpt lat="44.1840583" lon="12.1131033"><ele>27.0</ele><time>2026-05-06T12:19:33.996Z</time></trkpt><trkpt lat="44.18397" lon="12.1131133"><ele>27.0</ele><time>2026-05-06T12:19:35.996Z</time></trkpt><trkpt lat="44.1838833" lon="12.11312"><ele>27.0</ele><time>2026-05-06T12:19:37.996Z</time></trkpt><trkpt lat="44.1837983" lon="12.1131317"><ele>27.0</ele><time>2026-05-06T12:19:39.997Z</time></trkpt><trkpt lat="44.183715" lon="12.1131417"><ele>27.0</ele><time>2026-05-06T12:19:41.996Z</time></trkpt><trkpt lat="44.18363" lon="12.1131583"><ele>27.0</ele><time>2026-05-06T12:19:43.996Z</time></trkpt><trkpt lat="44.183545" lon="12.113175"><ele>27.0</ele><time>2026-05-06T12:19:45.996Z</time></trkpt><trkpt lat="44.1834583" lon="12.11319"><ele>27.0</ele><time>2026-05-06T12:19:47.997Z</time></trkpt><trkpt lat="44.1833667" lon="12.1132"><ele>27.000000000000004</ele><time>2026-05-06T12:19:49.996Z</time></trkpt><trkpt lat="44.1832733" lon="12.1132117"><ele>27.000000000000004</ele><time>2026-05-06T12:19:51.997Z</time></trkpt><trkpt lat="44.1831733" lon="12.1132283"><ele>27.0</ele><time>2026-05-06T12:19:53.996Z</time></trkpt><trkpt lat="44.1830783" lon="12.1132467"><ele>27.0</ele><time>2026-05-06T12:19:55.996Z</time></trkpt><trkpt lat="44.18299" lon="12.1132783"><ele>27.166666666666668</ele><time>2026-05-06T12:19:57.997Z</time></trkpt><trkpt lat="44.1829117" lon="12.1133233"><ele>27.333333333333336</ele><time>2026-05-06T12:19:59.997Z</time></trkpt><trkpt lat="44.1828367" lon="12.1133883"><ele>27.5</ele><time>2026-05-06T12:20:01.997Z</time></trkpt><trkpt lat="44.18277" lon="12.1134683"><ele>27.666666666666668</ele><time>2026-05-06T12:20:03.997Z</time></trkpt><trkpt lat="44.1827133" lon="12.1135733"><ele>27.833333333333336</ele><time>2026-05-06T12:20:05.996Z</time></trkpt><trkpt lat="44.1826683" lon="12.113685"><ele>28.0</ele><time>2026-05-06T12:20:07.996Z</time></trkpt><trkpt lat="44.1826233" lon="12.1137967"><ele>28.0</ele><time>2026-05-06T12:20:09.996Z</time></trkpt><trkpt lat="44.182575" lon="12.1139167"><ele>27.999999999999996</ele><time>2026-05-06T12:20:11.996Z</time></trkpt><trkpt lat="44.1825367" lon="12.1140317"><ele>27.999999999999996</ele><time>2026-05-06T12:20:13.996Z</time></trkpt><trkpt lat="44.1824983" lon="12.1141483"><ele>28.0</ele><time>2026-05-06T12:20:15.996Z</time></trkpt><trkpt lat="44.18245" lon="12.1142683"><ele>28.0</ele><time>2026-05-06T12:20:17.997Z</time></trkpt><trkpt lat="44.1824017" lon="12.114385"><ele>28.0</ele><time>2026-05-06T12:20:19.997Z</time></trkpt><trkpt lat="44.1823617" lon="12.11451"><ele>27.999999999999996</ele><time>2026-05-06T12:20:21.996Z</time></trkpt><trkpt lat="44.1823167" lon="12.11464"><ele>27.999999999999996</ele><time>2026-05-06T12:20:23.996Z</time></trkpt><trkpt lat="44.1822717" lon="12.1147667"><ele>28.0</ele><time>2026-05-06T12:20:25.997Z</time></trkpt><trkpt lat="44.1822267" lon="12.1148867"><ele>28.0</ele><time>2026-05-06T12:20:27.996Z</time></trkpt><trkpt lat="44.182185" lon="12.11501"><ele>27.799999999999997</ele><time>2026-05-06T12:20:29.997Z</time></trkpt><trkpt lat="44.1821417" lon="12.1151333"><ele>27.599999999999998</ele><time>2026-05-06T12:20:31.996Z</time></trkpt><trkpt lat="44.1820967" lon="12.115265"><ele>27.400000000000002</ele><time>2026-05-06T12:20:33.996Z</time></trkpt><trkpt lat="44.1820583" lon="12.1153817"><ele>27.200000000000003</ele><time>2026-05-06T12:20:35.996Z</time></trkpt><trkpt lat="44.182015" lon="12.1155017"><ele>27.0</ele><time>2026-05-06T12:20:37.996Z</time></trkpt><trkpt lat="44.1819667" lon="12.11562"><ele>27.0</ele><time>2026-05-06T12:20:39.997Z</time></trkpt><trkpt lat="44.1819217" lon="12.1157317"><ele>27.000000000000004</ele><time>2026-05-06T12:20:41.997Z</time></trkpt><trkpt lat="44.18188" lon="12.1158483"><ele>27.000000000000004</ele><time>2026-05-06T12:20:43.997Z</time></trkpt><trkpt lat="44.181835" lon="12.1159567"><ele>27.0</ele><time>2026-05-06T12:20:45.997Z</time></trkpt><trkpt lat="44.1817967" lon="12.1160683"><ele>27.0</ele><time>2026-05-06T12:20:47.996Z</time></trkpt><trkpt lat="44.181755" lon="12.116175"><ele>27.400000000000002</ele><time>2026-05-06T12:20:49.996Z</time></trkpt><trkpt lat="44.18171" lon="12.116275"><ele>27.800000000000004</ele><time>2026-05-06T12:20:51.997Z</time></trkpt><trkpt lat="44.1816767" lon="12.1163767"><ele>28.2</ele><time>2026-05-06T12:20:53.997Z</time></trkpt><trkpt lat="44.1816333" lon="12.116485"><ele>28.6</ele><time>2026-05-06T12:20:55.997Z</time></trkpt><trkpt lat="44.1815917" lon="12.116615"><ele>29.0</ele><time>2026-05-06T12:20:57.996Z</time></trkpt><trkpt lat="44.1815767" lon="12.1167617"><ele>29.2</ele><time>2026-05-06T12:20:59.996Z</time></trkpt><trkpt lat="44.1816133" lon="12.1168867"><ele>29.4</ele><time>2026-05-06T12:21:01.997Z</time></trkpt><trkpt lat="44.1816917" lon="12.1169817"><ele>29.6</ele><time>2026-05-06T12:21:03.996Z</time></trkpt><trkpt lat="44.1817767" lon="12.1170783"><ele>29.8</ele><time>2026-05-06T12:21:05.997Z</time></trkpt><trkpt lat="44.1818667" lon="12.11716"><ele>30.0</ele><time>2026-05-06T12:21:07.996Z</time></trkpt><trkpt lat="44.1819417" lon="12.1172583"><ele>30.0</ele><time>2026-05-06T12:21:09.996Z</time></trkpt><trkpt lat="44.18197" lon="12.1173833"><ele>30.0</ele><time>2026-05-06T12:21:11.996Z</time></trkpt><trkpt lat="44.18193" lon="12.117515"><ele>30.0</ele><time>2026-05-06T12:21:13.996Z</time></trkpt><trkpt lat="44.18187" lon="12.1176367"><ele>30.0</ele><time>2026-05-06T12:21:15.997Z</time></trkpt><trkpt lat="44.18181" lon="12.1177533"><ele>30.0</ele><time>2026-05-06T12:21:17.997Z</time></trkpt><trkpt lat="44.1817617" lon="12.117875"><ele>30.2</ele><time>2026-05-06T12:21:19.996Z</time></trkpt><trkpt lat="44.181715" lon="12.1180017"><ele>30.4</ele><time>2026-05-06T12:21:21.996Z</time></trkpt><trkpt lat="44.18167" lon="12.1181267"><ele>30.6</ele><time>2026-05-06T12:21:23.997Z</time></trkpt><trkpt lat="44.181625" lon="12.1182583"><ele>30.8</ele><time>2026-05-06T12:21:25.996Z</time></trkpt><trkpt lat="44.1815667" lon="12.1183883"><ele>31.0</ele><time>2026-05-06T12:21:27.997Z</time></trkpt><trkpt lat="44.1815033" lon="12.11851"><ele>31.25</ele><time>2026-05-06T12:21:29.997Z</time></trkpt><trkpt lat="44.1814433" lon="12.1186383"><ele>31.5</ele><time>2026-05-06T12:21:31.997Z</time></trkpt><trkpt lat="44.181385" lon="12.1187683"><ele>31.75</ele><time>2026-05-06T12:21:33.997Z</time></trkpt><trkpt lat="44.1813233" lon="12.1189067"><ele>32.0</ele><time>2026-05-06T12:21:35.997Z</time></trkpt><trkpt lat="44.1812667" lon="12.119045"><ele>31.75</ele><time>2026-05-06T12:21:37.997Z</time></trkpt><trkpt lat="44.181215" lon="12.1191867"><ele>31.5</ele><time>2026-05-06T12:21:39.996Z</time></trkpt><trkpt lat="44.1811567" lon="12.1193283"><ele>31.25</ele><time>2026-05-06T12:21:41.996Z</time></trkpt><trkpt lat="44.1811017" lon="12.1194633"><ele>31.0</ele><time>2026-05-06T12:21:43.997Z</time></trkpt><trkpt lat="44.18106" lon="12.1196033"><ele>31.0</ele><time>2026-05-06T12:21:45.996Z</time></trkpt><trkpt lat="44.18101" lon="12.11974"><ele>31.0</ele><time>2026-05-06T12:21:47.996Z</time></trkpt><trkpt lat="44.1809683" lon="12.1198783"><ele>31.0</ele><time>2026-05-06T12:21:49.997Z</time></trkpt><trkpt lat="44.180915" lon="12.1200133"><ele>31.0</ele><time>2026-05-06T12:21:51.997Z</time></trkpt><trkpt lat="44.1808583" lon="12.1201417"><ele>31.0</ele><time>2026-05-06T12:21:53.996Z</time></trkpt><trkpt lat="44.180815" lon="12.1202667"><ele>31.166666666666668</ele><time>2026-05-06T12:21:55.996Z</time></trkpt><trkpt lat="44.18077" lon="12.1203783"><ele>31.333333333333336</ele><time>2026-05-06T12:21:57.997Z</time></trkpt><trkpt lat="44.1807267" lon="12.1204817"><ele>31.5</ele><time>2026-05-06T12:21:59.996Z</time></trkpt><trkpt lat="44.18069" lon="12.1205767"><ele>31.666666666666664</ele><time>2026-05-06T12:22:01.997Z</time></trkpt><trkpt lat="44.180655" lon="12.1206517"><ele>31.833333333333332</ele><time>2026-05-06T12:22:04.997Z</time></trkpt><trkpt lat="44.180585" lon="12.1206217"><ele>32.0</ele><time>2026-05-06T12:22:09.997Z</time></trkpt><trkpt lat="44.1805267" lon="12.120575"><ele>31.999999999999996</ele><time>2026-05-06T12:22:12.996Z</time></trkpt><trkpt lat="44.1804667" lon="12.1205217"><ele>32.0</ele><time>2026-05-06T12:22:14.996Z</time></trkpt><trkpt lat="44.1803917" lon="12.1204533"><ele>32.0</ele><time>2026-05-06T12:22:16.996Z</time></trkpt><trkpt lat="44.1803267" lon="12.1203867"><ele>32.0</ele><time>2026-05-06T12:22:18.996Z</time></trkpt><trkpt lat="44.18027" lon="12.1203183"><ele>31.999999999999996</ele><time>2026-05-06T12:22:20.996Z</time></trkpt><trkpt lat="44.1801933" lon="12.12026"><ele>32.0</ele><time>2026-05-06T12:22:22.997Z</time></trkpt><trkpt lat="44.1801167" lon="12.1202083"><ele>32.0</ele><time>2026-05-06T12:22:24.997Z</time></trkpt><trkpt lat="44.18004" lon="12.120155"><ele>32.0</ele><time>2026-05-06T12:22:26.997Z</time></trkpt><trkpt lat="44.179965" lon="12.1200967"><ele>32.0</ele><time>2026-05-06T12:22:28.997Z</time></trkpt><trkpt lat="44.1798833" lon="12.12003"><ele>32.0</ele><time>2026-05-06T12:22:30.996Z</time></trkpt><trkpt lat="44.1797917" lon="12.11996"><ele>32.0</ele><time>2026-05-06T12:22:32.996Z</time></trkpt><trkpt lat="44.1796933" lon="12.1198883"><ele>32.0</ele><time>2026-05-06T12:22:34.996Z</time></trkpt><trkpt lat="44.1795967" lon="12.11981"><ele>32.0</ele><time>2026-05-06T12:22:36.996Z</time></trkpt><trkpt lat="44.179485" lon="12.1197433"><ele>32.0</ele><time>2026-05-06T12:22:38.996Z</time></trkpt><trkpt lat="44.179375" lon="12.1196833"><ele>32.0</ele><time>2026-05-06T12:22:40.996Z</time></trkpt><trkpt lat="44.1792833" lon="12.1196267"><ele>32.0</ele><time>2026-05-06T12:22:42.996Z</time></trkpt><trkpt lat="44.1791967" lon="12.1195733"><ele>32.0</ele><time>2026-05-06T12:22:44.997Z</time></trkpt><trkpt lat="44.1791017" lon="12.1195183"><ele>32.0</ele><time>2026-05-06T12:22:46.996Z</time></trkpt><trkpt lat="44.1789933" lon="12.11954"><ele>32.0</ele><time>2026-05-06T12:22:48.997Z</time></trkpt><trkpt lat="44.1789033" lon="12.1196283"><ele>32.0</ele><time>2026-05-06T12:22:50.996Z</time></trkpt><trkpt lat="44.178835" lon="12.1197317"><ele>32.2</ele><time>2026-05-06T12:22:52.996Z</time></trkpt><trkpt lat="44.1787683" lon="12.119825"><ele>32.400000000000006</ele><time>2026-05-06T12:22:54.996Z</time></trkpt><trkpt lat="44.1786983" lon="12.1199167"><ele>32.599999999999994</ele><time>2026-05-06T12:22:56.996Z</time></trkpt><trkpt lat="44.1786267" lon="12.1199883"><ele>32.8</ele><time>2026-05-06T12:22:58.996Z</time></trkpt><trkpt lat="44.1785417" lon="12.1200433"><ele>33.0</ele><time>2026-05-06T12:23:00.996Z</time></trkpt><trkpt lat="44.178455" lon="12.12009"><ele>33.0</ele><time>2026-05-06T12:23:02.996Z</time></trkpt><trkpt lat="44.178365" lon="12.1201217"><ele>33.0</ele><time>2026-05-06T12:23:04.997Z</time></trkpt><trkpt lat="44.1782767" lon="12.1201533"><ele>33.0</ele><time>2026-05-06T12:23:06.997Z</time></trkpt><trkpt lat="44.17818" lon="12.120165"><ele>33.0</ele><time>2026-05-06T12:23:08.997Z</time></trkpt><trkpt lat="44.17808" lon="12.1201567"><ele>33.0</ele><time>2026-05-06T12:23:10.996Z</time></trkpt><trkpt lat="44.177985" lon="12.1201383"><ele>33.0</ele><time>2026-05-06T12:23:12.997Z</time></trkpt><trkpt lat="44.1778833" lon="12.1201133"><ele>33.0</ele><time>2026-05-06T12:23:14.997Z</time></trkpt><trkpt lat="44.1777833" lon="12.12007"><ele>33.0</ele><time>2026-05-06T12:23:16.997Z</time></trkpt><trkpt lat="44.1776867" lon="12.1200167"><ele>33.0</ele><time>2026-05-06T12:23:18.996Z</time></trkpt><trkpt lat="44.1775933" lon="12.1199583"><ele>33.0</ele><time>2026-05-06T12:23:20.996Z</time></trkpt><trkpt lat="44.1775" lon="12.1198933"><ele>33.0</ele><time>2026-05-06T12:23:22.997Z</time></trkpt><trkpt lat="44.1773967" lon="12.1198317"><ele>33.0</ele><time>2026-05-06T12:23:24.996Z</time></trkpt><trkpt lat="44.1773017" lon="12.1197667"><ele>33.0</ele><time>2026-05-06T12:23:26.996Z</time></trkpt><trkpt lat="44.1772067" lon="12.1197033"><ele>33.0</ele><time>2026-05-06T12:23:28.996Z</time></trkpt><trkpt lat="44.177115" lon="12.1196417"><ele>33.0</ele><time>2026-05-06T12:23:30.996Z</time></trkpt><trkpt lat="44.1770283" lon="12.1195733"><ele>32.4</ele><time>2026-05-06T12:23:32.997Z</time></trkpt><trkpt lat="44.1769283" lon="12.1195117"><ele>31.799999999999997</ele><time>2026-05-06T12:23:34.996Z</time></trkpt><trkpt lat="44.1768317" lon="12.1194483"><ele>31.2</ele><time>2026-05-06T12:23:36.997Z</time></trkpt><trkpt lat="44.1767367" lon="12.1193783"><ele>30.6</ele><time>2026-05-06T12:23:38.997Z</time></trkpt><trkpt lat="44.1766417" lon="12.1193117"><ele>30.0</ele><time>2026-05-06T12:23:40.996Z</time></trkpt><trkpt lat="44.1765517" lon="12.11924"><ele>30.2</ele><time>2026-05-06T12:23:42.996Z</time></trkpt><trkpt lat="44.1764617" lon="12.1191767"><ele>30.4</ele><time>2026-05-06T12:23:44.996Z</time></trkpt><trkpt lat="44.1763667" lon="12.1191133"><ele>30.6</ele><time>2026-05-06T12:23:46.996Z</time></trkpt><trkpt lat="44.176275" lon="12.1190467"><ele>30.8</ele><time>2026-05-06T12:23:48.997Z</time></trkpt><trkpt lat="44.1761817" lon="12.1189783"><ele>31.0</ele><time>2026-05-06T12:23:50.997Z</time></trkpt><trkpt lat="44.1760917" lon="12.1189133"><ele>31.200000000000003</ele><time>2026-05-06T12:23:52.996Z</time></trkpt><trkpt lat="44.176" lon="12.1188483"><ele>31.400000000000002</ele><time>2026-05-06T12:23:54.997Z</time></trkpt><trkpt lat="44.17591" lon="12.1187833"><ele>31.6</ele><time>2026-05-06T12:23:56.997Z</time></trkpt><trkpt lat="44.1758117" lon="12.118715"><ele>31.8</ele><time>2026-05-06T12:23:58.997Z</time></trkpt><trkpt lat="44.1757183" lon="12.1186483"><ele>32.0</ele><time>2026-05-06T12:24:00.996Z</time></trkpt><trkpt lat="44.1756167" lon="12.118585"><ele>32.6</ele><time>2026-05-06T12:24:02.996Z</time></trkpt><trkpt lat="44.175525" lon="12.1185117"><ele>33.2</ele><time>2026-05-06T12:24:04.997Z</time></trkpt><trkpt lat="44.1754283" lon="12.1184483"><ele>33.8</ele><time>2026-05-06T12:24:06.996Z</time></trkpt><trkpt lat="44.175335" lon="12.1183933"><ele>34.4</ele><time>2026-05-06T12:24:08.997Z</time></trkpt><trkpt lat="44.17523" lon="12.1183583"><ele>35.0</ele><time>2026-05-06T12:24:10.997Z</time></trkpt><trkpt lat="44.175115" lon="12.11835"><ele>35.0</ele><time>2026-05-06T12:24:12.996Z</time></trkpt><trkpt lat="44.17501" lon="12.1183433"><ele>35.0</ele><time>2026-05-06T12:24:14.996Z</time></trkpt><trkpt lat="44.1749017" lon="12.11835"><ele>35.0</ele><time>2026-05-06T12:24:16.996Z</time></trkpt><trkpt lat="44.1747983" lon="12.1183683"><ele>35.0</ele><time>2026-05-06T12:24:18.996Z</time></trkpt><trkpt lat="44.1747017" lon="12.1184"><ele>35.0</ele><time>2026-05-06T12:24:20.997Z</time></trkpt><trkpt lat="44.1746" lon="12.118455"><ele>34.8</ele><time>2026-05-06T12:24:22.996Z</time></trkpt><trkpt lat="44.174505" lon="12.1185283"><ele>34.6</ele><time>2026-05-06T12:24:24.997Z</time></trkpt><trkpt lat="44.1744067" lon="12.118605"><ele>34.4</ele><time>2026-05-06T12:24:26.997Z</time></trkpt><trkpt lat="44.1743083" lon="12.1186767"><ele>34.2</ele><time>2026-05-06T12:24:28.997Z</time></trkpt><trkpt lat="44.1741983" lon="12.1187267"><ele>34.0</ele><time>2026-05-06T12:24:30.997Z</time></trkpt><trkpt lat="44.1740917" lon="12.1187717"><ele>33.75</ele><time>2026-05-06T12:24:32.997Z</time></trkpt><trkpt lat="44.17398" lon="12.118805"><ele>33.5</ele><time>2026-05-06T12:24:34.996Z</time></trkpt><trkpt lat="44.1738667" lon="12.118835"><ele>33.25</ele><time>2026-05-06T12:24:36.997Z</time></trkpt><trkpt lat="44.173755" lon="12.1188633"><ele>33.0</ele><time>2026-05-06T12:24:38.996Z</time></trkpt><trkpt lat="44.1736467" lon="12.1188983"><ele>33.0</ele><time>2026-05-06T12:24:40.996Z</time></trkpt><trkpt lat="44.173535" lon="12.1189317"><ele>33.0</ele><time>2026-05-06T12:24:42.996Z</time></trkpt><trkpt lat="44.1734233" lon="12.1189583"><ele>33.0</ele><time>2026-05-06T12:24:44.996Z</time></trkpt><trkpt lat="44.1733117" lon="12.1189733"><ele>33.0</ele><time>2026-05-06T12:24:46.996Z</time></trkpt><trkpt lat="44.1731917" lon="12.1189667"><ele>33.4</ele><time>2026-05-06T12:24:48.996Z</time></trkpt><trkpt lat="44.173075" lon="12.1189517"><ele>33.8</ele><time>2026-05-06T12:24:50.997Z</time></trkpt><trkpt lat="44.1729583" lon="12.1189333"><ele>34.2</ele><time>2026-05-06T12:24:52.997Z</time></trkpt><trkpt lat="44.17285" lon="12.1189133"><ele>34.6</ele><time>2026-05-06T12:24:54.996Z</time></trkpt><trkpt lat="44.1727467" lon="12.118905"><ele>35.0</ele><time>2026-05-06T12:24:56.997Z</time></trkpt><trkpt lat="44.1726383" lon="12.1188867"><ele>35.0</ele><time>2026-05-06T12:24:58.996Z</time></trkpt><trkpt lat="44.1725317" lon="12.11888"><ele>35.0</ele><time>2026-05-06T12:25:00.997Z</time></trkpt><trkpt lat="44.1724283" lon="12.1188617"><ele>35.0</ele><time>2026-05-06T12:25:02.996Z</time></trkpt><trkpt lat="44.17232" lon="12.1188633"><ele>35.0</ele><time>2026-05-06T12:25:04.996Z</time></trkpt><trkpt lat="44.1722217" lon="12.1188483"><ele>35.0</ele><time>2026-05-06T12:25:06.996Z</time></trkpt><trkpt lat="44.1721017" lon="12.11884"><ele>35.25</ele><time>2026-05-06T12:25:08.997Z</time></trkpt><trkpt lat="44.1719867" lon="12.1188233"><ele>35.5</ele><time>2026-05-06T12:25:10.996Z</time></trkpt><trkpt lat="44.1718767" lon="12.1188067"><ele>35.75</ele><time>2026-05-06T12:25:12.996Z</time></trkpt><trkpt lat="44.1717567" lon="12.1187933"><ele>36.0</ele><time>2026-05-06T12:25:14.997Z</time></trkpt><trkpt lat="44.17164" lon="12.1187933"><ele>36.0</ele><time>2026-05-06T12:25:16.996Z</time></trkpt><trkpt lat="44.1715333" lon="12.118785"><ele>36.0</ele><time>2026-05-06T12:25:18.996Z</time></trkpt><trkpt lat="44.1714267" lon="12.1187733"><ele>36.0</ele><time>2026-05-06T12:25:20.996Z</time></trkpt><trkpt lat="44.1713167" lon="12.1187667"><ele>36.0</ele><time>2026-05-06T12:25:22.996Z</time></trkpt><trkpt lat="44.1712033" lon="12.11876"><ele>36.0</ele><time>2026-05-06T12:25:24.997Z</time></trkpt><trkpt lat="44.171095" lon="12.1187567"><ele>36.0</ele><time>2026-05-06T12:25:26.996Z</time></trkpt><trkpt lat="44.170975" lon="12.1187517"><ele>36.0</ele><time>2026-05-06T12:25:28.996Z</time></trkpt><trkpt lat="44.170855" lon="12.1187467"><ele>36.0</ele><time>2026-05-06T12:25:30.996Z</time></trkpt><trkpt lat="44.1707467" lon="12.1187417"><ele>36.0</ele><time>2026-05-06T12:25:32.996Z</time></trkpt><trkpt lat="44.1706367" lon="12.118745"><ele>36.6</ele><time>2026-05-06T12:25:34.996Z</time></trkpt><trkpt lat="44.1705333" lon="12.1187367"><ele>37.2</ele><time>2026-05-06T12:25:36.997Z</time></trkpt><trkpt lat="44.1704183" lon="12.1187317"><ele>37.8</ele><time>2026-05-06T12:25:38.996Z</time></trkpt><trkpt lat="44.1703017" lon="12.1187283"><ele>38.4</ele><time>2026-05-06T12:25:40.996Z</time></trkpt><trkpt lat="44.1702033" lon="12.1187267"><ele>39.0</ele><time>2026-05-06T12:25:42.997Z</time></trkpt><trkpt lat="44.17009" lon="12.118715"><ele>39.0</ele><time>2026-05-06T12:25:44.996Z</time></trkpt><trkpt lat="44.169985" lon="12.1187067"><ele>39.0</ele><time>2026-05-06T12:25:46.997Z</time></trkpt><trkpt lat="44.1698717" lon="12.1187"><ele>39.0</ele><time>2026-05-06T12:25:48.996Z</time></trkpt><trkpt lat="44.1697617" lon="12.11869"><ele>39.0</ele><time>2026-05-06T12:25:50.997Z</time></trkpt><trkpt lat="44.1696417" lon="12.1186817"><ele>39.0</ele><time>2026-05-06T12:25:52.997Z</time></trkpt><trkpt lat="44.169535" lon="12.1186767"><ele>38.8</ele><time>2026-05-06T12:25:54.996Z</time></trkpt><trkpt lat="44.1694283" lon="12.1186717"><ele>38.599999999999994</ele><time>2026-05-06T12:25:56.996Z</time></trkpt><trkpt lat="44.1693267" lon="12.1186633"><ele>38.4</ele><time>2026-05-06T12:25:58.996Z</time></trkpt><trkpt lat="44.1692217" lon="12.1186567"><ele>38.199999999999996</ele><time>2026-05-06T12:26:00.997Z</time></trkpt><trkpt lat="44.1691133" lon="12.1186533"><ele>38.0</ele><time>2026-05-06T12:26:02.996Z</time></trkpt><trkpt lat="44.169005" lon="12.11865"><ele>38.0</ele><time>2026-05-06T12:26:04.997Z</time></trkpt><trkpt lat="44.1689033" lon="12.1186533"><ele>38.0</ele><time>2026-05-06T12:26:06.996Z</time></trkpt><trkpt lat="44.1687917" lon="12.1186567"><ele>38.0</ele><time>2026-05-06T12:26:08.996Z</time></trkpt><trkpt lat="44.16868" lon="12.118655"><ele>38.0</ele><time>2026-05-06T12:26:10.997Z</time></trkpt><trkpt lat="44.1685667" lon="12.1186517"><ele>38.0</ele><time>2026-05-06T12:26:12.996Z</time></trkpt><trkpt lat="44.1684533" lon="12.1186533"><ele>38.0</ele><time>2026-05-06T12:26:14.997Z</time></trkpt><trkpt lat="44.1683383" lon="12.118665"><ele>38.0</ele><time>2026-05-06T12:26:16.996Z</time></trkpt><trkpt lat="44.168235" lon="12.118665"><ele>38.0</ele><time>2026-05-06T12:26:18.996Z</time></trkpt><trkpt lat="44.1681267" lon="12.11867"><ele>38.0</ele><time>2026-05-06T12:26:20.997Z</time></trkpt><trkpt lat="44.1680183" lon="12.1186683"><ele>38.0</ele><time>2026-05-06T12:26:22.998Z</time></trkpt><trkpt lat="44.1679017" lon="12.1186667"><ele>38.0</ele><time>2026-05-06T12:26:24.997Z</time></trkpt><trkpt lat="44.1677883" lon="12.11867"><ele>38.0</ele><time>2026-05-06T12:26:26.998Z</time></trkpt><trkpt lat="44.1676683" lon="12.1186683"><ele>38.0</ele><time>2026-05-06T12:26:28.997Z</time></trkpt><trkpt lat="44.1675583" lon="12.11867"><ele>38.0</ele><time>2026-05-06T12:26:30.998Z</time></trkpt><trkpt lat="44.16745" lon="12.1186633"><ele>38.199999999999996</ele><time>2026-05-06T12:26:32.997Z</time></trkpt><trkpt lat="44.16734" lon="12.1186567"><ele>38.4</ele><time>2026-05-06T12:26:34.998Z</time></trkpt><trkpt lat="44.16724" lon="12.1186517"><ele>38.599999999999994</ele><time>2026-05-06T12:26:36.997Z</time></trkpt><trkpt lat="44.1671267" lon="12.1186583"><ele>38.8</ele><time>2026-05-06T12:26:38.997Z</time></trkpt><trkpt lat="44.167015" lon="12.11866"><ele>39.0</ele><time>2026-05-06T12:26:40.997Z</time></trkpt><trkpt lat="44.1669017" lon="12.1186683"><ele>39.0</ele><time>2026-05-06T12:26:42.997Z</time></trkpt><trkpt lat="44.16679" lon="12.118665"><ele>39.0</ele><time>2026-05-06T12:26:44.997Z</time></trkpt><trkpt lat="44.1666717" lon="12.1186617"><ele>39.0</ele><time>2026-05-06T12:26:46.997Z</time></trkpt><trkpt lat="44.1665533" lon="12.1186617"><ele>39.0</ele><time>2026-05-06T12:26:48.997Z</time></trkpt><trkpt lat="44.1664367" lon="12.1186633"><ele>38.75</ele><time>2026-05-06T12:26:50.997Z</time></trkpt><trkpt lat="44.1663217" lon="12.1186683"><ele>38.5</ele><time>2026-05-06T12:26:52.997Z</time></trkpt><trkpt lat="44.1662067" lon="12.1186683"><ele>38.25</ele><time>2026-05-06T12:26:54.997Z</time></trkpt><trkpt lat="44.16609" lon="12.1186667"><ele>38.0</ele><time>2026-05-06T12:26:56.997Z</time></trkpt><trkpt lat="44.1659733" lon="12.118665"><ele>38.0</ele><time>2026-05-06T12:26:58.998Z</time></trkpt><trkpt lat="44.1659067" lon="12.1186667"><ele>38.0</ele><time>2026-05-06T12:26:59.997Z</time></trkpt><trkpt lat="44.16584" lon="12.118665"><ele>38.0</ele><time>2026-05-06T12:27:00.998Z</time></trkpt><trkpt lat="44.1657233" lon="12.1186633"><ele>38.0</ele><time>2026-05-06T12:27:02.998Z</time></trkpt><trkpt lat="44.1656083" lon="12.11866"><ele>38.0</ele><time>2026-05-06T12:27:04.998Z</time></trkpt><trkpt lat="44.1654933" lon="12.11866"><ele>38.5</ele><time>2026-05-06T12:27:06.997Z</time></trkpt><trkpt lat="44.16538" lon="12.1186617"><ele>39.0</ele><time>2026-05-06T12:27:08.998Z</time></trkpt><trkpt lat="44.1652717" lon="12.1186733"><ele>39.5</ele><time>2026-05-06T12:27:10.998Z</time></trkpt><trkpt lat="44.1651583" lon="12.1187"><ele>40.0</ele><time>2026-05-06T12:27:12.998Z</time></trkpt><trkpt lat="44.1650483" lon="12.1187367"><ele>40.0</ele><time>2026-05-06T12:27:14.998Z</time></trkpt><trkpt lat="44.1649483" lon="12.1187933"><ele>40.0</ele><time>2026-05-06T12:27:16.998Z</time></trkpt><trkpt lat="44.1648467" lon="12.1188583"><ele>40.0</ele><time>2026-05-06T12:27:18.997Z</time></trkpt><trkpt lat="44.1647367" lon="12.11895"><ele>40.0</ele><time>2026-05-06T12:27:20.997Z</time></trkpt><trkpt lat="44.1646383" lon="12.11903"><ele>39.8</ele><time>2026-05-06T12:27:22.997Z</time></trkpt><trkpt lat="44.1645433" lon="12.1191083"><ele>39.6</ele><time>2026-05-06T12:27:24.997Z</time></trkpt><trkpt lat="44.1644567" lon="12.1191867"><ele>39.4</ele><time>2026-05-06T12:27:26.997Z</time></trkpt><trkpt lat="44.16436" lon="12.119265"><ele>39.2</ele><time>2026-05-06T12:27:28.997Z</time></trkpt><trkpt lat="44.1642533" lon="12.1193467"><ele>39.0</ele><time>2026-05-06T12:27:30.998Z</time></trkpt><trkpt lat="44.1641517" lon="12.1194167"><ele>39.0</ele><time>2026-05-06T12:27:32.997Z</time></trkpt><trkpt lat="44.1640433" lon="12.1195033"><ele>39.0</ele><time>2026-05-06T12:27:34.997Z</time></trkpt><trkpt lat="44.1639883" lon="12.11955"><ele>39.0</ele><time>2026-05-06T12:27:35.997Z</time></trkpt><trkpt lat="44.1638833" lon="12.1196483"><ele>39.0</ele><time>2026-05-06T12:27:37.997Z</time></trkpt><trkpt lat="44.16378" lon="12.1197383"><ele>39.0</ele><time>2026-05-06T12:27:39.998Z</time></trkpt><trkpt lat="44.1636767" lon="12.1198183"><ele>39.0</ele><time>2026-05-06T12:27:41.997Z</time></trkpt><trkpt lat="44.1635683" lon="12.1198867"><ele>39.0</ele><time>2026-05-06T12:27:43.998Z</time></trkpt><trkpt lat="44.1634533" lon="12.1199217"><ele>39.0</ele><time>2026-05-06T12:27:45.998Z</time></trkpt><trkpt lat="44.1633883" lon="12.1199333"><ele>39.0</ele><time>2026-05-06T12:27:46.997Z</time></trkpt><trkpt lat="44.1632717" lon="12.11994"><ele>39.0</ele><time>2026-05-06T12:27:48.997Z</time></trkpt><trkpt lat="44.1631583" lon="12.1199433"><ele>39.25</ele><time>2026-05-06T12:27:50.997Z</time></trkpt><trkpt lat="44.1630433" lon="12.1199467"><ele>39.5</ele><time>2026-05-06T12:27:52.997Z</time></trkpt><trkpt lat="44.16293" lon="12.1199483"><ele>39.75</ele><time>2026-05-06T12:27:54.998Z</time></trkpt><trkpt lat="44.1628117" lon="12.1199517"><ele>40.0</ele><time>2026-05-06T12:27:56.997Z</time></trkpt><trkpt lat="44.1626983" lon="12.1199567"><ele>40.0</ele><time>2026-05-06T12:27:58.997Z</time></trkpt><trkpt lat="44.1625817" lon="12.1199617"><ele>40.0</ele><time>2026-05-06T12:28:00.997Z</time></trkpt><trkpt lat="44.1624667" lon="12.1199667"><ele>40.0</ele><time>2026-05-06T12:28:02.998Z</time></trkpt><trkpt lat="44.1623517" lon="12.1199683"><ele>40.0</ele><time>2026-05-06T12:28:04.997Z</time></trkpt><trkpt lat="44.1622367" lon="12.1199767"><ele>40.5</ele><time>2026-05-06T12:28:06.997Z</time></trkpt><trkpt lat="44.16212" lon="12.11998"><ele>41.0</ele><time>2026-05-06T12:28:08.998Z</time></trkpt><trkpt lat="44.1620067" lon="12.1199817"><ele>41.5</ele><time>2026-05-06T12:28:10.998Z</time></trkpt><trkpt lat="44.1618933" lon="12.119985"><ele>42.0</ele><time>2026-05-06T12:28:12.997Z</time></trkpt><trkpt lat="44.161785" lon="12.119985"><ele>42.0</ele><time>2026-05-06T12:28:14.997Z</time></trkpt><trkpt lat="44.16168" lon="12.1199867"><ele>42.0</ele><time>2026-05-06T12:28:16.997Z</time></trkpt><trkpt lat="44.161585" lon="12.1199767"><ele>42.0</ele><time>2026-05-06T12:28:18.997Z</time></trkpt><trkpt lat="44.1615083" lon="12.1199133"><ele>42.0</ele><time>2026-05-06T12:28:20.998Z</time></trkpt><trkpt lat="44.1614883" lon="12.1197867"><ele>42.0</ele><time>2026-05-06T12:28:22.997Z</time></trkpt><trkpt lat="44.1614817" lon="12.1196433"><ele>42.400000000000006</ele><time>2026-05-06T12:28:24.998Z</time></trkpt><trkpt lat="44.1614683" lon="12.11951"><ele>42.800000000000004</ele><time>2026-05-06T12:28:26.998Z</time></trkpt><trkpt lat="44.1614483" lon="12.1193733"><ele>43.2</ele><time>2026-05-06T12:28:28.997Z</time></trkpt><trkpt lat="44.16144" lon="12.1192483"><ele>43.6</ele><time>2026-05-06T12:28:33.184Z</time></trkpt><trkpt lat="44.1614267" lon="12.119075"><ele>44.0</ele><time>2026-05-06T12:28:34.498Z</time></trkpt><trkpt lat="44.1614117" lon="12.1189833"><ele>44.2</ele><time>2026-05-06T12:28:35.499Z</time></trkpt><trkpt lat="44.16139" lon="12.1188933"><ele>44.400000000000006</ele><time>2026-05-06T12:28:36.498Z</time></trkpt><trkpt lat="44.16137" lon="12.11878"><ele>44.6</ele><time>2026-05-06T12:28:37.998Z</time></trkpt><trkpt lat="44.1613417" lon="12.1186233"><ele>44.8</ele><time>2026-05-06T12:28:39.998Z</time></trkpt><trkpt lat="44.161325" lon="12.1184767"><ele>45.0</ele><time>2026-05-06T12:28:41.999Z</time></trkpt><trkpt lat="44.161305" lon="12.1183433"><ele>46.2</ele><time>2026-05-06T12:28:43.998Z</time></trkpt><trkpt lat="44.1612917" lon="12.118215"><ele>47.4</ele><time>2026-05-06T12:28:45.998Z</time></trkpt><trkpt lat="44.16128" lon="12.11807"><ele>48.599999999999994</ele><time>2026-05-06T12:28:47.998Z</time></trkpt><trkpt lat="44.161275" lon="12.117935"><ele>49.8</ele><time>2026-05-06T12:28:49.999Z</time></trkpt><trkpt lat="44.1612717" lon="12.1178167"><ele>51.0</ele><time>2026-05-06T12:28:51.999Z</time></trkpt><trkpt lat="44.1612833" lon="12.1177083"><ele>51.0</ele><time>2026-05-06T12:28:53.998Z</time></trkpt><trkpt lat="44.1613367" lon="12.1176383"><ele>51.0</ele><time>2026-05-06T12:28:55.998Z</time></trkpt><trkpt lat="44.1614133" lon="12.1175667"><ele>51.0</ele><time>2026-05-06T12:28:57.999Z</time></trkpt><trkpt lat="44.1614967" lon="12.11749"><ele>51.0</ele><time>2026-05-06T12:28:59.999Z</time></trkpt><trkpt lat="44.1615733" lon="12.1174133"><ele>51.0</ele><time>2026-05-06T12:29:01.998Z</time></trkpt><trkpt lat="44.1616467" lon="12.1173267"><ele>51.0</ele><time>2026-05-06T12:29:03.999Z</time></trkpt><trkpt lat="44.1617183" lon="12.1172417"><ele>51.0</ele><time>2026-05-06T12:29:05.998Z</time></trkpt><trkpt lat="44.161785" lon="12.1171483"><ele>51.0</ele><time>2026-05-06T12:29:07.998Z</time></trkpt><trkpt lat="44.1618467" lon="12.1170517"><ele>51.0</ele><time>2026-05-06T12:29:09.999Z</time></trkpt><trkpt lat="44.1619" lon="12.1169533"><ele>51.0</ele><time>2026-05-06T12:29:11.998Z</time></trkpt><trkpt lat="44.16196" lon="12.1168567"><ele>51.0</ele><time>2026-05-06T12:29:13.999Z</time></trkpt><trkpt lat="44.16202" lon="12.1167467"><ele>51.0</ele><time>2026-05-06T12:29:15.998Z</time></trkpt><trkpt lat="44.1620783" lon="12.1166467"><ele>51.0</ele><time>2026-05-06T12:29:17.998Z</time></trkpt><trkpt lat="44.162135" lon="12.1165417"><ele>51.0</ele><time>2026-05-06T12:29:19.999Z</time></trkpt><trkpt lat="44.162175" lon="12.1164417"><ele>51.0</ele><time>2026-05-06T12:29:21.999Z</time></trkpt><trkpt lat="44.16222" lon="12.1163383"><ele>51.0</ele><time>2026-05-06T12:29:23.998Z</time></trkpt><trkpt lat="44.1622617" lon="12.1162333"><ele>51.0</ele><time>2026-05-06T12:29:25.998Z</time></trkpt><trkpt lat="44.1623" lon="12.1161183"><ele>51.0</ele><time>2026-05-06T12:29:27.999Z</time></trkpt><trkpt lat="44.1623317" lon="12.1159967"><ele>51.0</ele><time>2026-05-06T12:29:29.999Z</time></trkpt><trkpt lat="44.1623533" lon="12.1158667"><ele>51.0</ele><time>2026-05-06T12:29:31.998Z</time></trkpt><trkpt lat="44.1623683" lon="12.1157433"><ele>51.5</ele><time>2026-05-06T12:29:33.998Z</time></trkpt><trkpt lat="44.16238" lon="12.115625"><ele>52.0</ele><time>2026-05-06T12:29:35.998Z</time></trkpt><trkpt lat="44.1623933" lon="12.1155083"><ele>52.5</ele><time>2026-05-06T12:29:37.999Z</time></trkpt><trkpt lat="44.1624083" lon="12.1153933"><ele>53.0</ele><time>2026-05-06T12:29:39.999Z</time></trkpt><trkpt lat="44.1624233" lon="12.1152783"><ele>53.5</ele><time>2026-05-06T12:29:41.998Z</time></trkpt><trkpt lat="44.1624333" lon="12.1151683"><ele>54.0</ele><time>2026-05-06T12:29:43.998Z</time></trkpt><trkpt lat="44.16244" lon="12.1150583"><ele>54.0</ele><time>2026-05-06T12:29:45.998Z</time></trkpt><trkpt lat="44.162445" lon="12.1149533"><ele>54.0</ele><time>2026-05-06T12:29:47.998Z</time></trkpt><trkpt lat="44.16245" lon="12.11484"><ele>54.0</ele><time>2026-05-06T12:29:49.999Z</time></trkpt><trkpt lat="44.1624567" lon="12.1147233"><ele>54.0</ele><time>2026-05-06T12:29:51.999Z</time></trkpt><trkpt lat="44.1624633" lon="12.1146217"><ele>54.0</ele><time>2026-05-06T12:29:53.998Z</time></trkpt><trkpt lat="44.1624733" lon="12.1144983"><ele>54.0</ele><time>2026-05-06T12:29:55.998Z</time></trkpt><trkpt lat="44.1624817" lon="12.11439"><ele>54.0</ele><time>2026-05-06T12:29:57.999Z</time></trkpt><trkpt lat="44.16249" lon="12.114285"><ele>54.0</ele><time>2026-05-06T12:29:59.998Z</time></trkpt><trkpt lat="44.1624967" lon="12.1141867"><ele>54.0</ele><time>2026-05-06T12:30:01.998Z</time></trkpt><trkpt lat="44.16251" lon="12.1140767"><ele>54.0</ele><time>2026-05-06T12:30:03.999Z</time></trkpt><trkpt lat="44.16251" lon="12.1139867"><ele>54.0</ele><time>2026-05-06T12:30:05.999Z</time></trkpt><trkpt lat="44.1625083" lon="12.113895"><ele>54.0</ele><time>2026-05-06T12:30:07.999Z</time></trkpt><trkpt lat="44.16251" lon="12.1137883"><ele>54.0</ele><time>2026-05-06T12:30:09.998Z</time></trkpt><trkpt lat="44.1625" lon="12.1136483"><ele>54.0</ele><time>2026-05-06T12:30:11.998Z</time></trkpt><trkpt lat="44.162485" lon="12.11355"><ele>54.00000000000001</ele><time>2026-05-06T12:30:12.998Z</time></trkpt><trkpt lat="44.1624733" lon="12.113445"><ele>54.00000000000001</ele><time>2026-05-06T12:30:13.998Z</time></trkpt><trkpt lat="44.1624567" lon="12.1133017"><ele>54.0</ele><time>2026-05-06T12:30:14.999Z</time></trkpt><trkpt lat="44.1624383" lon="12.1131667"><ele>54.0</ele><time>2026-05-06T12:30:15.998Z</time></trkpt><trkpt lat="44.1624117" lon="12.1130283"><ele>54.6</ele><time>2026-05-06T12:30:16.998Z</time></trkpt><trkpt lat="44.16238" lon="12.1128867"><ele>55.2</ele><time>2026-05-06T12:30:17.998Z</time></trkpt><trkpt lat="44.1623367" lon="12.1127483"><ele>55.800000000000004</ele><time>2026-05-06T12:30:18.998Z</time></trkpt><trkpt lat="44.162295" lon="12.1126067"><ele>56.400000000000006</ele><time>2026-05-06T12:30:19.999Z</time></trkpt><trkpt lat="44.1622417" lon="12.1124583"><ele>57.0</ele><time>2026-05-06T12:30:20.999Z</time></trkpt><trkpt lat="44.1621983" lon="12.112305"><ele>55.0</ele><time>2026-05-06T12:30:21.999Z</time></trkpt><trkpt lat="44.1621583" lon="12.1121433"><ele>53.0</ele><time>2026-05-06T12:30:22.999Z</time></trkpt><trkpt lat="44.1621117" lon="12.1119817"><ele>51.0</ele><time>2026-05-06T12:30:23.998Z</time></trkpt><trkpt lat="44.162075" lon="12.111825"><ele>49.0</ele><time>2026-05-06T12:30:24.998Z</time></trkpt><trkpt lat="44.1620433" lon="12.111675"><ele>47.6</ele><time>2026-05-06T12:30:25.998Z</time></trkpt><trkpt lat="44.1620233" lon="12.1115267"><ele>46.2</ele><time>2026-05-06T12:30:26.998Z</time></trkpt><trkpt lat="44.16202" lon="12.1113883"><ele>44.800000000000004</ele><time>2026-05-06T12:30:27.999Z</time></trkpt><trkpt lat="44.16205" lon="12.1112683"><ele>43.400000000000006</ele><time>2026-05-06T12:30:28.999Z</time></trkpt><trkpt lat="44.1621033" lon="12.1111567"><ele>42.0</ele><time>2026-05-06T12:30:29.999Z</time></trkpt><trkpt lat="44.1621533" lon="12.11104"><ele>42.0</ele><time>2026-05-06T12:30:30.998Z</time></trkpt><trkpt lat="44.1622067" lon="12.110925"><ele>42.0</ele><time>2026-05-06T12:30:31.999Z</time></trkpt><trkpt lat="44.162255" lon="12.1108117"><ele>42.0</ele><time>2026-05-06T12:30:32.998Z</time></trkpt><trkpt lat="44.162305" lon="12.1107067"><ele>42.0</ele><time>2026-05-06T12:30:33.998Z</time></trkpt><trkpt lat="44.1623583" lon="12.110595"><ele>42.0</ele><time>2026-05-06T12:30:34.998Z</time></trkpt><trkpt lat="44.1624033" lon="12.1104833"><ele>41.5</ele><time>2026-05-06T12:30:35.998Z</time></trkpt><trkpt lat="44.1624383" lon="12.1103633"><ele>41.0</ele><time>2026-05-06T12:30:36.998Z</time></trkpt><trkpt lat="44.1624617" lon="12.1102417"><ele>40.5</ele><time>2026-05-06T12:30:37.998Z</time></trkpt><trkpt lat="44.1624717" lon="12.1101217"><ele>40.0</ele><time>2026-05-06T12:30:38.999Z</time></trkpt><trkpt lat="44.162475" lon="12.110005"><ele>39.5</ele><time>2026-05-06T12:30:39.998Z</time></trkpt><trkpt lat="44.1624667" lon="12.109895"><ele>39.0</ele><time>2026-05-06T12:30:40.998Z</time></trkpt><trkpt lat="44.162455" lon="12.109785"><ele>39.0</ele><time>2026-05-06T12:30:41.998Z</time></trkpt><trkpt lat="44.162445" lon="12.1096817"><ele>39.0</ele><time>2026-05-06T12:30:42.999Z</time></trkpt><trkpt lat="44.1624317" lon="12.10958"><ele>39.0</ele><time>2026-05-06T12:30:43.998Z</time></trkpt><trkpt lat="44.1624133" lon="12.1094783"><ele>39.0</ele><time>2026-05-06T12:30:44.998Z</time></trkpt><trkpt lat="44.1624" lon="12.1093783"><ele>39.0</ele><time>2026-05-06T12:30:45.999Z</time></trkpt><trkpt lat="44.1623867" lon="12.10929"><ele>39.0</ele><time>2026-05-06T12:30:46.998Z</time></trkpt><trkpt lat="44.1623483" lon="12.1091317"><ele>38.8</ele><time>2026-05-06T12:30:48.998Z</time></trkpt><trkpt lat="44.16228" lon="12.1090133"><ele>38.599999999999994</ele><time>2026-05-06T12:30:50.998Z</time></trkpt><trkpt lat="44.162195" lon="12.1089133"><ele>38.4</ele><time>2026-05-06T12:30:52.998Z</time></trkpt><trkpt lat="44.1621083" lon="12.108825"><ele>38.199999999999996</ele><time>2026-05-06T12:30:54.998Z</time></trkpt><trkpt lat="44.16202" lon="12.10873"><ele>38.0</ele><time>2026-05-06T12:30:56.998Z</time></trkpt><trkpt lat="44.161935" lon="12.108645"><ele>38.0</ele><time>2026-05-06T12:30:58.999Z</time></trkpt><trkpt lat="44.1618417" lon="12.1085383"><ele>38.0</ele><time>2026-05-06T12:31:00.999Z</time></trkpt><trkpt lat="44.1617483" lon="12.10844"><ele>38.0</ele><time>2026-05-06T12:31:02.998Z</time></trkpt><trkpt lat="44.16166" lon="12.10834"><ele>38.0</ele><time>2026-05-06T12:31:04.999Z</time></trkpt><trkpt lat="44.1615667" lon="12.1082367"><ele>38.0</ele><time>2026-05-06T12:31:06.998Z</time></trkpt><trkpt lat="44.1615167" lon="12.1081817"><ele>38.0</ele><time>2026-05-06T12:31:07.998Z</time></trkpt><trkpt lat="44.1614317" lon="12.1080733"><ele>38.0</ele><time>2026-05-06T12:31:09.998Z</time></trkpt><trkpt lat="44.16138" lon="12.1080167"><ele>38.0</ele><time>2026-05-06T12:31:10.999Z</time></trkpt><trkpt lat="44.1612783" lon="12.1079133"><ele>38.0</ele><time>2026-05-06T12:31:12.999Z</time></trkpt><trkpt lat="44.1612283" lon="12.1078567"><ele>38.0</ele><time>2026-05-06T12:31:13.998Z</time></trkpt><trkpt lat="44.1611767" lon="12.1078017"><ele>38.0</ele><time>2026-05-06T12:31:14.999Z</time></trkpt><trkpt lat="44.161085" lon="12.107695"><ele>38.0</ele><time>2026-05-06T12:31:16.999Z</time></trkpt><trkpt lat="44.160985" lon="12.10759"><ele>38.0</ele><time>2026-05-06T12:31:18.999Z</time></trkpt><trkpt lat="44.16093" lon="12.1075383"><ele>38.0</ele><time>2026-05-06T12:31:19.998Z</time></trkpt><trkpt lat="44.160835" lon="12.10746"><ele>38.0</ele><time>2026-05-06T12:31:21.999Z</time></trkpt><trkpt lat="44.160745" lon="12.1073767"><ele>38.25</ele><time>2026-05-06T12:31:23.998Z</time></trkpt><trkpt lat="44.160645" lon="12.1073083"><ele>38.5</ele><time>2026-05-06T12:31:25.999Z</time></trkpt><trkpt lat="44.160545" lon="12.10722"><ele>38.75</ele><time>2026-05-06T12:31:27.999Z</time></trkpt><trkpt lat="44.1604417" lon="12.10715"><ele>39.0</ele><time>2026-05-06T12:31:29.998Z</time></trkpt><trkpt lat="44.1603367" lon="12.1070767"><ele>39.0</ele><time>2026-05-06T12:31:31.998Z</time></trkpt><trkpt lat="44.1602267" lon="12.1070083"><ele>39.0</ele><time>2026-05-06T12:31:33.999Z</time></trkpt><trkpt lat="44.160115" lon="12.1069383"><ele>39.0</ele><time>2026-05-06T12:31:35.998Z</time></trkpt><trkpt lat="44.1600083" lon="12.10688"><ele>39.0</ele><time>2026-05-06T12:31:37.999Z</time></trkpt><trkpt lat="44.159905" lon="12.106825"><ele>39.25</ele><time>2026-05-06T12:31:39.998Z</time></trkpt><trkpt lat="44.1597967" lon="12.1067733"><ele>39.5</ele><time>2026-05-06T12:31:41.998Z</time></trkpt><trkpt lat="44.159685" lon="12.10672"><ele>39.75</ele><time>2026-05-06T12:31:43.998Z</time></trkpt><trkpt lat="44.1595717" lon="12.1066667"><ele>40.0</ele><time>2026-05-06T12:31:45.998Z</time></trkpt><trkpt lat="44.1594567" lon="12.10662"><ele>39.75</ele><time>2026-05-06T12:31:47.999Z</time></trkpt><trkpt lat="44.1593383" lon="12.106575"><ele>39.5</ele><time>2026-05-06T12:31:49.998Z</time></trkpt><trkpt lat="44.1592183" lon="12.1065283"><ele>39.25</ele><time>2026-05-06T12:31:51.999Z</time></trkpt><trkpt lat="44.1591" lon="12.1064833"><ele>39.0</ele><time>2026-05-06T12:31:53.998Z</time></trkpt><trkpt lat="44.1589833" lon="12.10644"><ele>39.0</ele><time>2026-05-06T12:31:55.999Z</time></trkpt><trkpt lat="44.1588683" lon="12.1063983"><ele>39.0</ele><time>2026-05-06T12:31:57.998Z</time></trkpt><trkpt lat="44.1587533" lon="12.10636"><ele>39.0</ele><time>2026-05-06T12:31:59.998Z</time></trkpt><trkpt lat="44.1586367" lon="12.1063167"><ele>39.0</ele><time>2026-05-06T12:32:01.999Z</time></trkpt><trkpt lat="44.15852" lon="12.1062733"><ele>39.0</ele><time>2026-05-06T12:32:03.999Z</time></trkpt><trkpt lat="44.158405" lon="12.10623"><ele>39.0</ele><time>2026-05-06T12:32:05.998Z</time></trkpt><trkpt lat="44.1582883" lon="12.1061917"><ele>39.0</ele><time>2026-05-06T12:32:07.999Z</time></trkpt><trkpt lat="44.15818" lon="12.1061467"><ele>39.0</ele><time>2026-05-06T12:32:09.999Z</time></trkpt><trkpt lat="44.1580717" lon="12.1061083"><ele>39.0</ele><time>2026-05-06T12:32:11.998Z</time></trkpt><trkpt lat="44.15796" lon="12.10607"><ele>39.0</ele><time>2026-05-06T12:32:13.998Z</time></trkpt><trkpt lat="44.15785" lon="12.1060233"><ele>39.0</ele><time>2026-05-06T12:32:15.998Z</time></trkpt><trkpt lat="44.1577333" lon="12.1059783"><ele>39.0</ele><time>2026-05-06T12:32:17.999Z</time></trkpt><trkpt lat="44.157625" lon="12.1059333"><ele>39.0</ele><time>2026-05-06T12:32:19.999Z</time></trkpt><trkpt lat="44.15752" lon="12.105885"><ele>39.0</ele><time>2026-05-06T12:32:21.998Z</time></trkpt><trkpt lat="44.157415" lon="12.1058383"><ele>39.0</ele><time>2026-05-06T12:32:23.999Z</time></trkpt><trkpt lat="44.1573117" lon="12.1057867"><ele>39.0</ele><time>2026-05-06T12:32:25.998Z</time></trkpt><trkpt lat="44.1572017" lon="12.105725"><ele>39.0</ele><time>2026-05-06T12:32:27.999Z</time></trkpt><trkpt lat="44.1570983" lon="12.1056717"><ele>38.75</ele><time>2026-05-06T12:32:29.998Z</time></trkpt><trkpt lat="44.1569917" lon="12.1056233"><ele>38.5</ele><time>2026-05-06T12:32:31.998Z</time></trkpt><trkpt lat="44.156885" lon="12.1055783"><ele>38.25</ele><time>2026-05-06T12:32:33.999Z</time></trkpt><trkpt lat="44.1567733" lon="12.1055317"><ele>38.0</ele><time>2026-05-06T12:32:35.998Z</time></trkpt><trkpt lat="44.1566667" lon="12.1054883"><ele>38.0</ele><time>2026-05-06T12:32:37.998Z</time></trkpt><trkpt lat="44.156555" lon="12.105445"><ele>38.0</ele><time>2026-05-06T12:32:39.999Z</time></trkpt><trkpt lat="44.156435" lon="12.1054133"><ele>38.0</ele><time>2026-05-06T12:32:41.998Z</time></trkpt><trkpt lat="44.1563133" lon="12.1053783"><ele>38.0</ele><time>2026-05-06T12:32:43.999Z</time></trkpt><trkpt lat="44.1562483" lon="12.1053617"><ele>38.0</ele><time>2026-05-06T12:32:44.998Z</time></trkpt><trkpt lat="44.1561333" lon="12.10533"><ele>38.25</ele><time>2026-05-06T12:32:46.998Z</time></trkpt><trkpt lat="44.1560117" lon="12.1053017"><ele>38.5</ele><time>2026-05-06T12:32:48.999Z</time></trkpt><trkpt lat="44.1558933" lon="12.1052633"><ele>38.75</ele><time>2026-05-06T12:32:50.999Z</time></trkpt><trkpt lat="44.15578" lon="12.1052283"><ele>39.0</ele><time>2026-05-06T12:32:52.998Z</time></trkpt><trkpt lat="44.1556667" lon="12.1052"><ele>39.4</ele><time>2026-05-06T12:32:54.998Z</time></trkpt><trkpt lat="44.1555517" lon="12.105165"><ele>39.8</ele><time>2026-05-06T12:32:56.999Z</time></trkpt><trkpt lat="44.155425" lon="12.105135"><ele>40.199999999999996</ele><time>2026-05-06T12:32:58.998Z</time></trkpt><trkpt lat="44.15536" lon="12.10512"><ele>40.599999999999994</ele><time>2026-05-06T12:32:59.998Z</time></trkpt><trkpt lat="44.155235" lon="12.1050883"><ele>41.0</ele><time>2026-05-06T12:33:01.998Z</time></trkpt><trkpt lat="44.1551183" lon="12.1050667"><ele>41.0</ele><time>2026-05-06T12:33:03.998Z</time></trkpt><trkpt lat="44.154995" lon="12.1050417"><ele>41.0</ele><time>2026-05-06T12:33:05.999Z</time></trkpt><trkpt lat="44.1549267" lon="12.1050367"><ele>41.0</ele><time>2026-05-06T12:33:06.998Z</time></trkpt><trkpt lat="44.1548633" lon="12.1050317"><ele>41.0</ele><time>2026-05-06T12:33:07.998Z</time></trkpt><trkpt lat="44.15475" lon="12.1050183"><ele>41.0</ele><time>2026-05-06T12:33:09.998Z</time></trkpt><trkpt lat="44.1546383" lon="12.1050167"><ele>41.25</ele><time>2026-05-06T12:33:11.998Z</time></trkpt><trkpt lat="44.1545233" lon="12.1050133"><ele>41.5</ele><time>2026-05-06T12:33:13.999Z</time></trkpt><trkpt lat="44.15441" lon="12.1050167"><ele>41.75</ele><time>2026-05-06T12:33:15.998Z</time></trkpt><trkpt lat="44.1542933" lon="12.1050267"><ele>42.0</ele><time>2026-05-06T12:33:17.998Z</time></trkpt><trkpt lat="44.1541767" lon="12.10503"><ele>42.0</ele><time>2026-05-06T12:33:19.998Z</time></trkpt><trkpt lat="44.1540617" lon="12.105025"><ele>42.0</ele><time>2026-05-06T12:33:21.999Z</time></trkpt><trkpt lat="44.15395" lon="12.105005"><ele>42.0</ele><time>2026-05-06T12:33:23.998Z</time></trkpt><trkpt lat="44.1538383" lon="12.1049583"><ele>42.0</ele><time>2026-05-06T12:33:25.998Z</time></trkpt><trkpt lat="44.1537283" lon="12.1049017"><ele>42.0</ele><time>2026-05-06T12:33:27.999Z</time></trkpt><trkpt lat="44.1536267" lon="12.1048233"><ele>42.0</ele><time>2026-05-06T12:33:29.999Z</time></trkpt><trkpt lat="44.15353" lon="12.1047217"><ele>42.0</ele><time>2026-05-06T12:33:31.999Z</time></trkpt><trkpt lat="44.1534467" lon="12.1045983"><ele>42.0</ele><time>2026-05-06T12:33:33.999Z</time></trkpt><trkpt lat="44.1533667" lon="12.1044633"><ele>42.0</ele><time>2026-05-06T12:33:35.999Z</time></trkpt><trkpt lat="44.153325" lon="12.1043933"><ele>42.0</ele><time>2026-05-06T12:33:36.998Z</time></trkpt><trkpt lat="44.15325" lon="12.1042617"><ele>42.0</ele><time>2026-05-06T12:33:38.998Z</time></trkpt><trkpt lat="44.1531883" lon="12.1041233"><ele>42.0</ele><time>2026-05-06T12:33:40.999Z</time></trkpt><trkpt lat="44.15312" lon="12.1039917"><ele>42.0</ele><time>2026-05-06T12:33:42.998Z</time></trkpt><trkpt lat="44.1530617" lon="12.1038617"><ele>42.25</ele><time>2026-05-06T12:33:44.998Z</time></trkpt><trkpt lat="44.152995" lon="12.1037283"><ele>42.5</ele><time>2026-05-06T12:33:46.998Z</time></trkpt><trkpt lat="44.1529283" lon="12.1035933"><ele>42.75</ele><time>2026-05-06T12:33:48.998Z</time></trkpt><trkpt lat="44.1528617" lon="12.1034533"><ele>43.0</ele><time>2026-05-06T12:33:50.998Z</time></trkpt><trkpt lat="44.1528" lon="12.103315"><ele>42.8</ele><time>2026-05-06T12:33:52.998Z</time></trkpt><trkpt lat="44.1527367" lon="12.1031983"><ele>42.599999999999994</ele><time>2026-05-06T12:33:54.999Z</time></trkpt><trkpt lat="44.152685" lon="12.1030817"><ele>42.400000000000006</ele><time>2026-05-06T12:33:56.998Z</time></trkpt><trkpt lat="44.1526283" lon="12.1029717"><ele>42.2</ele><time>2026-05-06T12:33:58.998Z</time></trkpt><trkpt lat="44.152565" lon="12.1028617"><ele>42.0</ele><time>2026-05-06T12:34:00.998Z</time></trkpt><trkpt lat="44.1524917" lon="12.1027583"><ele>42.0</ele><time>2026-05-06T12:34:02.998Z</time></trkpt><trkpt lat="44.1524083" lon="12.102655"><ele>42.0</ele><time>2026-05-06T12:34:04.999Z</time></trkpt><trkpt lat="44.15232" lon="12.102555"><ele>42.0</ele><time>2026-05-06T12:34:06.999Z</time></trkpt><trkpt lat="44.1522317" lon="12.102465"><ele>42.0</ele><time>2026-05-06T12:34:08.999Z</time></trkpt><trkpt lat="44.1521333" lon="12.102395"><ele>42.0</ele><time>2026-05-06T12:34:10.998Z</time></trkpt><trkpt lat="44.1520433" lon="12.1023133"><ele>42.2</ele><time>2026-05-06T12:34:12.998Z</time></trkpt><trkpt lat="44.1519483" lon="12.102235"><ele>42.400000000000006</ele><time>2026-05-06T12:34:14.998Z</time></trkpt><trkpt lat="44.1518533" lon="12.1021633"><ele>42.599999999999994</ele><time>2026-05-06T12:34:16.999Z</time></trkpt><trkpt lat="44.1517717" lon="12.1020933"><ele>42.8</ele><time>2026-05-06T12:34:18.998Z</time></trkpt><trkpt lat="44.1516783" lon="12.102025"><ele>43.0</ele><time>2026-05-06T12:34:20.999Z</time></trkpt><trkpt lat="44.1515817" lon="12.1019517"><ele>43.0</ele><time>2026-05-06T12:34:23Z</time></trkpt><trkpt lat="44.15148" lon="12.1018767"><ele>43.0</ele><time>2026-05-06T12:34:24.999Z</time></trkpt><trkpt lat="44.151385" lon="12.101795"><ele>43.0</ele><time>2026-05-06T12:34:26.999Z</time></trkpt><trkpt lat="44.1513067" lon="12.101735"><ele>43.0</ele><time>2026-05-06T12:34:28.999Z</time></trkpt><trkpt lat="44.15122" lon="12.101665"><ele>43.0</ele><time>2026-05-06T12:34:31Z</time></trkpt><trkpt lat="44.1511433" lon="12.1015733"><ele>43.0</ele><time>2026-05-06T12:34:33Z</time></trkpt><trkpt lat="44.151035" lon="12.101515"><ele>43.0</ele><time>2026-05-06T12:34:34.999Z</time></trkpt><trkpt lat="44.1509317" lon="12.1014317"><ele>43.0</ele><time>2026-05-06T12:34:36.999Z</time></trkpt><trkpt lat="44.1508267" lon="12.1013617"><ele>43.0</ele><time>2026-05-06T12:34:38.999Z</time></trkpt><trkpt lat="44.1507183" lon="12.1012867"><ele>43.2</ele><time>2026-05-06T12:34:40.999Z</time></trkpt><trkpt lat="44.1506217" lon="12.101215"><ele>43.4</ele><time>2026-05-06T12:34:43Z</time></trkpt><trkpt lat="44.15053" lon="12.1011267"><ele>43.6</ele><time>2026-05-06T12:34:44.999Z</time></trkpt><trkpt lat="44.15047" lon="12.1010883"><ele>43.800000000000004</ele><time>2026-05-06T12:34:45.999Z</time></trkpt><trkpt lat="44.150365" lon="12.1010167"><ele>44.0</ele><time>2026-05-06T12:34:48Z</time></trkpt><trkpt lat="44.1502583" lon="12.100955"><ele>44.0</ele><time>2026-05-06T12:34:50Z</time></trkpt><trkpt lat="44.1501517" lon="12.1008817"><ele>44.0</ele><time>2026-05-06T12:34:52Z</time></trkpt><trkpt lat="44.1500483" lon="12.100805"><ele>44.0</ele><time>2026-05-06T12:34:53.999Z</time></trkpt><trkpt lat="44.1499417" lon="12.1007367"><ele>44.0</ele><time>2026-05-06T12:34:55.999Z</time></trkpt><trkpt lat="44.14984" lon="12.1006633"><ele>44.2</ele><time>2026-05-06T12:34:58Z</time></trkpt><trkpt lat="44.1497533" lon="12.1006"><ele>44.400000000000006</ele><time>2026-05-06T12:34:59.999Z</time></trkpt><trkpt lat="44.1496583" lon="12.1005267"><ele>44.6</ele><time>2026-05-06T12:35:02Z</time></trkpt><trkpt lat="44.1495567" lon="12.100465"><ele>44.8</ele><time>2026-05-06T12:35:03.999Z</time></trkpt><trkpt lat="44.1494517" lon="12.1003933"><ele>45.0</ele><time>2026-05-06T12:35:05.999Z</time></trkpt><trkpt lat="44.1493617" lon="12.1003283"><ele>45.0</ele><time>2026-05-06T12:35:08Z</time></trkpt><trkpt lat="44.1492633" lon="12.1002517"><ele>45.0</ele><time>2026-05-06T12:35:10Z</time></trkpt><trkpt lat="44.149165" lon="12.1001783"><ele>45.0</ele><time>2026-05-06T12:35:12Z</time></trkpt><trkpt lat="44.149075" lon="12.100115"><ele>45.0</ele><time>2026-05-06T12:35:14Z</time></trkpt><trkpt lat="44.14898" lon="12.1000583"><ele>45.0</ele><time>2026-05-06T12:35:16Z</time></trkpt><trkpt lat="44.1488667" lon="12.10002"><ele>44.8</ele><time>2026-05-06T12:35:18Z</time></trkpt><trkpt lat="44.148765" lon="12.099995"><ele>44.6</ele><time>2026-05-06T12:35:20Z</time></trkpt><trkpt lat="44.1486567" lon="12.0999833"><ele>44.400000000000006</ele><time>2026-05-06T12:35:21.999Z</time></trkpt><trkpt lat="44.1485617" lon="12.099985"><ele>44.2</ele><time>2026-05-06T12:35:23.999Z</time></trkpt><trkpt lat="44.1484517" lon="12.0999933"><ele>44.0</ele><time>2026-05-06T12:35:25.999Z</time></trkpt><trkpt lat="44.14835" lon="12.1000067"><ele>44.0</ele><time>2026-05-06T12:35:28Z</time></trkpt><trkpt lat="44.1482417" lon="12.10003"><ele>44.0</ele><time>2026-05-06T12:35:30Z</time></trkpt><trkpt lat="44.1481333" lon="12.1000567"><ele>44.0</ele><time>2026-05-06T12:35:31.999Z</time></trkpt><trkpt lat="44.1480183" lon="12.10009"><ele>44.0</ele><time>2026-05-06T12:35:34Z</time></trkpt><trkpt lat="44.1479083" lon="12.1001267"><ele>44.0</ele><time>2026-05-06T12:35:36Z</time></trkpt><trkpt lat="44.1477967" lon="12.1001567"><ele>44.0</ele><time>2026-05-06T12:35:38Z</time></trkpt><trkpt lat="44.1476983" lon="12.1001867"><ele>44.0</ele><time>2026-05-06T12:35:39.999Z</time></trkpt><trkpt lat="44.1475967" lon="12.1002217"><ele>44.0</ele><time>2026-05-06T12:35:41.999Z</time></trkpt><trkpt lat="44.1475033" lon="12.10026"><ele>44.0</ele><time>2026-05-06T12:35:43.999Z</time></trkpt><trkpt lat="44.1474183" lon="12.100305"><ele>44.2</ele><time>2026-05-06T12:35:45.999Z</time></trkpt><trkpt lat="44.1473283" lon="12.1003483"><ele>44.400000000000006</ele><time>2026-05-06T12:35:47.999Z</time></trkpt><trkpt lat="44.147255" lon="12.10044"><ele>44.6</ele><time>2026-05-06T12:35:49.999Z</time></trkpt><trkpt lat="44.14726" lon="12.1005667"><ele>44.8</ele><time>2026-05-06T12:35:51.999Z</time></trkpt><trkpt lat="44.1472733" lon="12.1006817"><ele>45.0</ele><time>2026-05-06T12:35:53.999Z</time></trkpt><trkpt lat="44.1472733" lon="12.1008033"><ele>45.666666666666664</ele><time>2026-05-06T12:35:55.999Z</time></trkpt><trkpt lat="44.1472567" lon="12.1009117"><ele>46.33333333333333</ele><time>2026-05-06T12:35:57.999Z</time></trkpt><trkpt lat="44.1472467" lon="12.1010233"><ele>47.0</ele><time>2026-05-06T12:36:00Z</time></trkpt><trkpt lat="44.1472417" lon="12.10114"><ele>47.666666666666664</ele><time>2026-05-06T12:36:01.999Z</time></trkpt><trkpt lat="44.147235" lon="12.101255"><ele>48.33333333333333</ele><time>2026-05-06T12:36:04Z</time></trkpt><trkpt lat="44.1472183" lon="12.1013717"><ele>49.0</ele><time>2026-05-06T12:36:06Z</time></trkpt><trkpt lat="44.1472033" lon="12.1014767"><ele>49.166666666666664</ele><time>2026-05-06T12:36:08Z</time></trkpt><trkpt lat="44.1471967" lon="12.101585"><ele>49.33333333333333</ele><time>2026-05-06T12:36:09.999Z</time></trkpt><trkpt lat="44.1471783" lon="12.101685"><ele>49.5</ele><time>2026-05-06T12:36:12Z</time></trkpt><trkpt lat="44.14717" lon="12.1017917"><ele>49.66666666666667</ele><time>2026-05-06T12:36:13.999Z</time></trkpt><trkpt lat="44.1471633" lon="12.1019083"><ele>49.833333333333336</ele><time>2026-05-06T12:36:15.999Z</time></trkpt><trkpt lat="44.1471067" lon="12.1019733"><ele>50.0</ele><time>2026-05-06T12:36:18Z</time></trkpt><trkpt lat="44.1470317" lon="12.102025"><ele>50.00000000000001</ele><time>2026-05-06T12:36:20Z</time></trkpt><trkpt lat="44.1469517" lon="12.1020667"><ele>50.0</ele><time>2026-05-06T12:36:22Z</time></trkpt><trkpt lat="44.1468733" lon="12.10211"><ele>50.0</ele><time>2026-05-06T12:36:23.999Z</time></trkpt><trkpt lat="44.14679" lon="12.1021667"><ele>50.0</ele><time>2026-05-06T12:36:25.999Z</time></trkpt><trkpt lat="44.1467067" lon="12.1022117"><ele>50.00000000000001</ele><time>2026-05-06T12:36:27.999Z</time></trkpt><trkpt lat="44.1466217" lon="12.1022583"><ele>50.0</ele><time>2026-05-06T12:36:30Z</time></trkpt><trkpt lat="44.146525" lon="12.10231"><ele>49.8</ele><time>2026-05-06T12:36:31.999Z</time></trkpt><trkpt lat="44.14643" lon="12.1023533"><ele>49.6</ele><time>2026-05-06T12:36:33.999Z</time></trkpt><trkpt lat="44.146325" lon="12.1023883"><ele>49.400000000000006</ele><time>2026-05-06T12:36:36Z</time></trkpt><trkpt lat="44.1462267" lon="12.1024317"><ele>49.2</ele><time>2026-05-06T12:36:37.999Z</time></trkpt><trkpt lat="44.1461317" lon="12.1024717"><ele>49.0</ele><time>2026-05-06T12:36:39.999Z</time></trkpt><trkpt lat="44.14603" lon="12.1025217"><ele>49.33333333333333</ele><time>2026-05-06T12:36:41.999Z</time></trkpt><trkpt lat="44.1459533" lon="12.10256"><ele>49.666666666666664</ele><time>2026-05-06T12:36:44Z</time></trkpt><trkpt lat="44.1458783" lon="12.1026"><ele>50.0</ele><time>2026-05-06T12:36:45.999Z</time></trkpt><trkpt lat="44.1457983" lon="12.1026333"><ele>50.33333333333333</ele><time>2026-05-06T12:36:48Z</time></trkpt><trkpt lat="44.1457067" lon="12.1026633"><ele>50.666666666666664</ele><time>2026-05-06T12:36:49.999Z</time></trkpt><trkpt lat="44.1456067" lon="12.1027133"><ele>51.0</ele><time>2026-05-06T12:36:52Z</time></trkpt><trkpt lat="44.1455033" lon="12.102765"><ele>51.166666666666664</ele><time>2026-05-06T12:36:54Z</time></trkpt><trkpt lat="44.145415" lon="12.1028017"><ele>51.33333333333333</ele><time>2026-05-06T12:36:55.999Z</time></trkpt><trkpt lat="44.1453333" lon="12.10284"><ele>51.5</ele><time>2026-05-06T12:36:58Z</time></trkpt><trkpt lat="44.14526" lon="12.1028717"><ele>51.666666666666664</ele><time>2026-05-06T12:36:59.999Z</time></trkpt><trkpt lat="44.145185" lon="12.1029033"><ele>51.83333333333333</ele><time>2026-05-06T12:37:02Z</time></trkpt><trkpt lat="44.1451233" lon="12.1029283"><ele>52.0</ele><time>2026-05-06T12:37:04Z</time></trkpt><trkpt lat="44.1450617" lon="12.1029533"><ele>51.99999999999999</ele><time>2026-05-06T12:37:06Z</time></trkpt><trkpt lat="44.1449917" lon="12.1029717"><ele>52.0</ele><time>2026-05-06T12:37:08Z</time></trkpt><trkpt lat="44.144915" lon="12.1029933"><ele>52.0</ele><time>2026-05-06T12:37:10Z</time></trkpt><trkpt lat="44.1448383" lon="12.1030183"><ele>52.0</ele><time>2026-05-06T12:37:12Z</time></trkpt><trkpt lat="44.1447617" lon="12.1030383"><ele>51.99999999999999</ele><time>2026-05-06T12:37:14Z</time></trkpt><trkpt lat="44.1446833" lon="12.1030617"><ele>52.0</ele><time>2026-05-06T12:37:15.999Z</time></trkpt><trkpt lat="44.14461" lon="12.103075"><ele>52.166666666666664</ele><time>2026-05-06T12:37:17.999Z</time></trkpt><trkpt lat="44.144535" lon="12.1030983"><ele>52.33333333333333</ele><time>2026-05-06T12:37:19.999Z</time></trkpt><trkpt lat="44.1444567" lon="12.10311"><ele>52.5</ele><time>2026-05-06T12:37:22Z</time></trkpt><trkpt lat="44.1443633" lon="12.1031167"><ele>52.66666666666667</ele><time>2026-05-06T12:37:23.999Z</time></trkpt><trkpt lat="44.1442817" lon="12.1031317"><ele>52.833333333333336</ele><time>2026-05-06T12:37:26Z</time></trkpt><trkpt lat="44.1442" lon="12.1031417"><ele>53.0</ele><time>2026-05-06T12:37:28Z</time></trkpt><trkpt lat="44.144115" lon="12.1031517"><ele>53.50000000000001</ele><time>2026-05-06T12:37:30Z</time></trkpt><trkpt lat="44.14404" lon="12.1031667"><ele>54.0</ele><time>2026-05-06T12:37:32Z</time></trkpt><trkpt lat="44.1439567" lon="12.1031767"><ele>54.5</ele><time>2026-05-06T12:37:33.999Z</time></trkpt><trkpt lat="44.1438733" lon="12.1031783"><ele>55.0</ele><time>2026-05-06T12:37:35.999Z</time></trkpt><trkpt lat="44.1437833" lon="12.103155"><ele>55.50000000000001</ele><time>2026-05-06T12:37:38Z</time></trkpt><trkpt lat="44.1436917" lon="12.1031283"><ele>56.0</ele><time>2026-05-06T12:37:40Z</time></trkpt><trkpt lat="44.14361" lon="12.10308"><ele>56.0</ele><time>2026-05-06T12:37:42Z</time></trkpt><trkpt lat="44.14353" lon="12.1030383"><ele>55.99999999999999</ele><time>2026-05-06T12:37:43.999Z</time></trkpt><trkpt lat="44.143455" lon="12.1029917"><ele>55.99999999999999</ele><time>2026-05-06T12:37:45.999Z</time></trkpt><trkpt lat="44.143375" lon="12.1029433"><ele>56.0</ele><time>2026-05-06T12:37:48Z</time></trkpt><trkpt lat="44.14329" lon="12.1028783"><ele>56.0</ele><time>2026-05-06T12:37:49.999Z</time></trkpt><trkpt lat="44.14319" lon="12.1028183"><ele>57.199999999999996</ele><time>2026-05-06T12:37:52Z</time></trkpt><trkpt lat="44.1430917" lon="12.1027633"><ele>58.39999999999999</ele><time>2026-05-06T12:37:54Z</time></trkpt><trkpt lat="44.1429967" lon="12.1027067"><ele>59.6</ele><time>2026-05-06T12:37:56Z</time></trkpt><trkpt lat="44.1428983" lon="12.1026533"><ele>60.8</ele><time>2026-05-06T12:37:57.999Z</time></trkpt><trkpt lat="44.142805" lon="12.102595"><ele>62.0</ele><time>2026-05-06T12:37:59.999Z</time></trkpt><trkpt lat="44.1427017" lon="12.1025517"><ele>62.0</ele><time>2026-05-06T12:38:01.999Z</time></trkpt><trkpt lat="44.142605" lon="12.1025183"><ele>62.0</ele><time>2026-05-06T12:38:03.999Z</time></trkpt><trkpt lat="44.142505" lon="12.10248"><ele>62.0</ele><time>2026-05-06T12:38:05.999Z</time></trkpt><trkpt lat="44.14241" lon="12.1024367"><ele>62.0</ele><time>2026-05-06T12:38:07.999Z</time></trkpt><trkpt lat="44.142325" lon="12.1023983"><ele>62.0</ele><time>2026-05-06T12:38:09.999Z</time></trkpt><trkpt lat="44.142255" lon="12.1023567"><ele>62.2</ele><time>2026-05-06T12:38:11.999Z</time></trkpt><trkpt lat="44.14226" lon="12.1022367"><ele>62.400000000000006</ele><time>2026-05-06T12:38:14.999Z</time></trkpt><trkpt lat="44.1423067" lon="12.10211"><ele>62.599999999999994</ele><time>2026-05-06T12:38:16.999Z</time></trkpt><trkpt lat="44.1423483" lon="12.10195"><ele>62.8</ele><time>2026-05-06T12:38:18.999Z</time></trkpt><trkpt lat="44.1424017" lon="12.1017933"><ele>63.0</ele><time>2026-05-06T12:38:20.999Z</time></trkpt><trkpt lat="44.1424217" lon="12.1017"><ele>61.666666666666664</ele><time>2026-05-06T12:38:21.999Z</time></trkpt><trkpt lat="44.14244" lon="12.1016067"><ele>60.33333333333333</ele><time>2026-05-06T12:38:23Z</time></trkpt><trkpt lat="44.1424583" lon="12.101515"><ele>59.0</ele><time>2026-05-06T12:38:23.999Z</time></trkpt><trkpt lat="44.1425017" lon="12.101365"><ele>57.666666666666664</ele><time>2026-05-06T12:38:25.999Z</time></trkpt><trkpt lat="44.1425367" lon="12.1012517"><ele>56.33333333333333</ele><time>2026-05-06T12:38:28Z</time></trkpt><trkpt lat="44.1425317" lon="12.1011617"><ele>55.0</ele><time>2026-05-06T12:38:31Z</time></trkpt><trkpt lat="44.1424867" lon="12.1010867"><ele>54.83333333333333</ele><time>2026-05-06T12:38:33.999Z</time></trkpt><trkpt lat="44.1424033" lon="12.1010233"><ele>54.666666666666664</ele><time>2026-05-06T12:38:36.999Z</time></trkpt><trkpt lat="44.142345" lon="12.100975"><ele>54.5</ele><time>2026-05-06T12:38:39Z</time></trkpt><trkpt lat="44.1422583" lon="12.10092"><ele>54.33333333333333</ele><time>2026-05-06T12:38:40.999Z</time></trkpt><trkpt lat="44.142185" lon="12.1008667"><ele>54.166666666666664</ele><time>2026-05-06T12:38:42.999Z</time></trkpt><trkpt lat="44.1421" lon="12.1008067"><ele>54.0</ele><time>2026-05-06T12:38:45Z</time></trkpt><trkpt lat="44.142015" lon="12.100765"><ele>54.0</ele><time>2026-05-06T12:38:46.999Z</time></trkpt><trkpt lat="44.141925" lon="12.1007317"><ele>54.0</ele><time>2026-05-06T12:38:49Z</time></trkpt><trkpt lat="44.1418433" lon="12.1006967"><ele>54.0</ele><time>2026-05-06T12:38:50.999Z</time></trkpt><trkpt lat="44.1417717" lon="12.1006617"><ele>54.0</ele><time>2026-05-06T12:38:52.999Z</time></trkpt><trkpt lat="44.1416917" lon="12.1006217"><ele>54.0</ele><time>2026-05-06T12:38:54.999Z</time></trkpt><trkpt lat="44.141605" lon="12.1005833"><ele>54.0</ele><time>2026-05-06T12:38:56.999Z</time></trkpt><trkpt lat="44.1415033" lon="12.100545"><ele>54.0</ele><time>2026-05-06T12:38:59Z</time></trkpt><trkpt lat="44.1414" lon="12.1005067"><ele>54.00000000000001</ele><time>2026-05-06T12:39:00.999Z</time></trkpt><trkpt lat="44.141295" lon="12.10048"><ele>54.00000000000001</ele><time>2026-05-06T12:39:02.999Z</time></trkpt><trkpt lat="44.141185" lon="12.1004517"><ele>54.0</ele><time>2026-05-06T12:39:04.999Z</time></trkpt><trkpt lat="44.1410867" lon="12.1004217"><ele>54.0</ele><time>2026-05-06T12:39:06.999Z</time></trkpt><trkpt lat="44.1409917" lon="12.1003833"><ele>54.0</ele><time>2026-05-06T12:39:09Z</time></trkpt><trkpt lat="44.140905" lon="12.1003683"><ele>54.0</ele><time>2026-05-06T12:39:11Z</time></trkpt><trkpt lat="44.140825" lon="12.1003467"><ele>54.0</ele><time>2026-05-06T12:39:12.999Z</time></trkpt><trkpt lat="44.1407417" lon="12.1003333"><ele>54.0</ele><time>2026-05-06T12:39:15Z</time></trkpt><trkpt lat="44.1406517" lon="12.100315"><ele>54.0</ele><time>2026-05-06T12:39:17Z</time></trkpt><trkpt lat="44.1405683" lon="12.100295"><ele>54.0</ele><time>2026-05-06T12:39:18.999Z</time></trkpt><trkpt lat="44.1404867" lon="12.100275"><ele>54.166666666666664</ele><time>2026-05-06T12:39:20.999Z</time></trkpt><trkpt lat="44.140395" lon="12.1002633"><ele>54.33333333333333</ele><time>2026-05-06T12:39:22.999Z</time></trkpt><trkpt lat="44.1403183" lon="12.10025"><ele>54.5</ele><time>2026-05-06T12:39:24.999Z</time></trkpt><trkpt lat="44.1402317" lon="12.1002433"><ele>54.666666666666664</ele><time>2026-05-06T12:39:27Z</time></trkpt><trkpt lat="44.1401417" lon="12.100245"><ele>54.83333333333333</ele><time>2026-05-06T12:39:29Z</time></trkpt><trkpt lat="44.14005" lon="12.1002483"><ele>55.0</ele><time>2026-05-06T12:39:30.999Z</time></trkpt><trkpt lat="44.1399667" lon="12.10027"><ele>55.0</ele><time>2026-05-06T12:39:33Z</time></trkpt><trkpt lat="44.1398833" lon="12.10031"><ele>55.0</ele><time>2026-05-06T12:39:35Z</time></trkpt><trkpt lat="44.1397967" lon="12.1003567"><ele>55.0</ele><time>2026-05-06T12:39:36.999Z</time></trkpt><trkpt lat="44.1396983" lon="12.10041"><ele>55.0</ele><time>2026-05-06T12:39:38.999Z</time></trkpt><trkpt lat="44.1396033" lon="12.1004583"><ele>55.0</ele><time>2026-05-06T12:39:41Z</time></trkpt><trkpt lat="44.13951" lon="12.1005133"><ele>55.0</ele><time>2026-05-06T12:39:42.999Z</time></trkpt><trkpt lat="44.1394233" lon="12.1005867"><ele>55.0</ele><time>2026-05-06T12:39:44.999Z</time></trkpt><trkpt lat="44.1393333" lon="12.1006667"><ele>55.0</ele><time>2026-05-06T12:39:47Z</time></trkpt><trkpt lat="44.1392483" lon="12.100745"><ele>55.0</ele><time>2026-05-06T12:39:48.999Z</time></trkpt><trkpt lat="44.139175" lon="12.1008333"><ele>55.0</ele><time>2026-05-06T12:39:51Z</time></trkpt><trkpt lat="44.1391033" lon="12.1009283"><ele>54.6</ele><time>2026-05-06T12:39:52.999Z</time></trkpt><trkpt lat="44.139025" lon="12.1010283"><ele>54.2</ele><time>2026-05-06T12:39:54.999Z</time></trkpt><trkpt lat="44.1389617" lon="12.1011383"><ele>53.8</ele><time>2026-05-06T12:39:57Z</time></trkpt><trkpt lat="44.1389017" lon="12.1012533"><ele>53.4</ele><time>2026-05-06T12:39:58.999Z</time></trkpt><trkpt lat="44.138845" lon="12.1013667"><ele>53.0</ele><time>2026-05-06T12:40:00.999Z</time></trkpt><trkpt lat="44.1387933" lon="12.1014767"><ele>53.0</ele><time>2026-05-06T12:40:03Z</time></trkpt><trkpt lat="44.1387567" lon="12.10161"><ele>53.0</ele><time>2026-05-06T12:40:05Z</time></trkpt><trkpt lat="44.138715" lon="12.101755"><ele>53.0</ele><time>2026-05-06T12:40:07Z</time></trkpt><trkpt lat="44.1386767" lon="12.1018983"><ele>53.0</ele><time>2026-05-06T12:40:08.999Z</time></trkpt><trkpt lat="44.1386383" lon="12.1020367"><ele>53.0</ele><time>2026-05-06T12:40:10.999Z</time></trkpt><trkpt lat="44.138595" lon="12.1021667"><ele>53.0</ele><time>2026-05-06T12:40:12.999Z</time></trkpt><trkpt lat="44.1385483" lon="12.1023117"><ele>53.0</ele><time>2026-05-06T12:40:15Z</time></trkpt><trkpt lat="44.1384917" lon="12.10245"><ele>53.0</ele><time>2026-05-06T12:40:17Z</time></trkpt><trkpt lat="44.1384383" lon="12.102605"><ele>53.0</ele><time>2026-05-06T12:40:18.999Z</time></trkpt><trkpt lat="44.1384083" lon="12.102685"><ele>53.0</ele><time>2026-05-06T12:40:20Z</time></trkpt><trkpt lat="44.138355" lon="12.1028333"><ele>53.2</ele><time>2026-05-06T12:40:21.999Z</time></trkpt><trkpt lat="44.13831" lon="12.102965"><ele>53.4</ele><time>2026-05-06T12:40:23.999Z</time></trkpt><trkpt lat="44.13827" lon="12.1031033"><ele>53.60000000000001</ele><time>2026-05-06T12:40:26Z</time></trkpt><trkpt lat="44.1382217" lon="12.103235"><ele>53.800000000000004</ele><time>2026-05-06T12:40:27.999Z</time></trkpt><trkpt lat="44.1381717" lon="12.103365"><ele>54.0</ele><time>2026-05-06T12:40:29.999Z</time></trkpt><trkpt lat="44.13813" lon="12.1035017"><ele>54.0</ele><time>2026-05-06T12:40:31.999Z</time></trkpt><trkpt lat="44.138085" lon="12.1036433"><ele>54.00000000000001</ele><time>2026-05-06T12:40:33.999Z</time></trkpt><trkpt lat="44.138035" lon="12.1037583"><ele>54.00000000000001</ele><time>2026-05-06T12:40:36Z</time></trkpt><trkpt lat="44.1379833" lon="12.1038917"><ele>54.0</ele><time>2026-05-06T12:40:38Z</time></trkpt><trkpt lat="44.137945" lon="12.104015"><ele>54.0</ele><time>2026-05-06T12:40:40Z</time></trkpt><trkpt lat="44.1379" lon="12.1041383"><ele>54.400000000000006</ele><time>2026-05-06T12:40:41.999Z</time></trkpt><trkpt lat="44.137855" lon="12.10427"><ele>54.800000000000004</ele><time>2026-05-06T12:40:43.999Z</time></trkpt><trkpt lat="44.1378083" lon="12.1044083"><ele>55.199999999999996</ele><time>2026-05-06T12:40:45.999Z</time></trkpt><trkpt lat="44.1377633" lon="12.1045283"><ele>55.599999999999994</ele><time>2026-05-06T12:40:48Z</time></trkpt><trkpt lat="44.1377217" lon="12.1046367"><ele>56.0</ele><time>2026-05-06T12:40:49.999Z</time></trkpt><trkpt lat="44.1376867" lon="12.10476"><ele>56.0</ele><time>2026-05-06T12:40:51.999Z</time></trkpt><trkpt lat="44.137645" lon="12.1048967"><ele>55.99999999999999</ele><time>2026-05-06T12:40:54Z</time></trkpt><trkpt lat="44.137605" lon="12.1050133"><ele>55.99999999999999</ele><time>2026-05-06T12:40:55.999Z</time></trkpt><trkpt lat="44.1375783" lon="12.1051383"><ele>56.0</ele><time>2026-05-06T12:40:58Z</time></trkpt><trkpt lat="44.137565" lon="12.1053217"><ele>56.0</ele><time>2026-05-06T12:41:01Z</time></trkpt><trkpt lat="44.137565" lon="12.1054417"><ele>56.0</ele><time>2026-05-06T12:41:02.999Z</time></trkpt><trkpt lat="44.1375617" lon="12.1055567"><ele>55.99999999999999</ele><time>2026-05-06T12:41:05Z</time></trkpt><trkpt lat="44.1375667" lon="12.1056883"><ele>55.99999999999999</ele><time>2026-05-06T12:41:07Z</time></trkpt><trkpt lat="44.1375733" lon="12.1058183"><ele>56.0</ele><time>2026-05-06T12:41:09Z</time></trkpt><trkpt lat="44.137565" lon="12.10594"><ele>56.0</ele><time>2026-05-06T12:41:10.999Z</time></trkpt><trkpt lat="44.137565" lon="12.106075"><ele>56.199999999999996</ele><time>2026-05-06T12:41:12.999Z</time></trkpt><trkpt lat="44.137575" lon="12.1062133"><ele>56.39999999999999</ele><time>2026-05-06T12:41:14.999Z</time></trkpt><trkpt lat="44.1375917" lon="12.1063633"><ele>56.6</ele><time>2026-05-06T12:41:16.999Z</time></trkpt><trkpt lat="44.13759" lon="12.1065067"><ele>56.8</ele><time>2026-05-06T12:41:19Z</time></trkpt><trkpt lat="44.137595" lon="12.10663"><ele>57.0</ele><time>2026-05-06T12:41:20.999Z</time></trkpt><trkpt lat="44.1376033" lon="12.1067467"><ele>57.166666666666664</ele><time>2026-05-06T12:41:22.999Z</time></trkpt><trkpt lat="44.1376033" lon="12.10686"><ele>57.33333333333333</ele><time>2026-05-06T12:41:24.999Z</time></trkpt><trkpt lat="44.137605" lon="12.1069717"><ele>57.5</ele><time>2026-05-06T12:41:27Z</time></trkpt><trkpt lat="44.1376067" lon="12.107095"><ele>57.666666666666664</ele><time>2026-05-06T12:41:28.999Z</time></trkpt><trkpt lat="44.1376167" lon="12.1072117"><ele>57.83333333333333</ele><time>2026-05-06T12:41:30.999Z</time></trkpt><trkpt lat="44.13763" lon="12.1073083"><ele>58.0</ele><time>2026-05-06T12:41:32.999Z</time></trkpt><trkpt lat="44.1376367" lon="12.1074217"><ele>58.33333333333333</ele><time>2026-05-06T12:41:35Z</time></trkpt><trkpt lat="44.1376417" lon="12.1075317"><ele>58.666666666666664</ele><time>2026-05-06T12:41:36.999Z</time></trkpt><trkpt lat="44.1376517" lon="12.10764"><ele>59.0</ele><time>2026-05-06T12:41:38.999Z</time></trkpt><trkpt lat="44.13767" lon="12.1077633"><ele>59.33333333333333</ele><time>2026-05-06T12:41:40.999Z</time></trkpt><trkpt lat="44.1376883" lon="12.1078767"><ele>59.666666666666664</ele><time>2026-05-06T12:41:43Z</time></trkpt><trkpt lat="44.137695" lon="12.1079867"><ele>60.0</ele><time>2026-05-06T12:41:45Z</time></trkpt><trkpt lat="44.137705" lon="12.1080983"><ele>60.0</ele><time>2026-05-06T12:41:46.999Z</time></trkpt><trkpt lat="44.1377183" lon="12.108205"><ele>60.0</ele><time>2026-05-06T12:41:48.999Z</time></trkpt><trkpt lat="44.1377283" lon="12.10831"><ele>60.0</ele><time>2026-05-06T12:41:51Z</time></trkpt><trkpt lat="44.1377267" lon="12.10841"><ele>60.0</ele><time>2026-05-06T12:41:53Z</time></trkpt><trkpt lat="44.1377317" lon="12.108515"><ele>60.0</ele><time>2026-05-06T12:41:54.999Z</time></trkpt><trkpt lat="44.13774" lon="12.108615"><ele>60.0</ele><time>2026-05-06T12:41:57Z</time></trkpt><trkpt lat="44.13775" lon="12.10872"><ele>60.0</ele><time>2026-05-06T12:41:58.999Z</time></trkpt><trkpt lat="44.1377583" lon="12.1088133"><ele>60.142857142857146</ele><time>2026-05-06T12:42:01Z</time></trkpt><trkpt lat="44.1377667" lon="12.10891"><ele>60.28571428571428</ele><time>2026-05-06T12:42:02.999Z</time></trkpt><trkpt lat="44.1377717" lon="12.10901"><ele>60.42857142857142</ele><time>2026-05-06T12:42:05Z</time></trkpt><trkpt lat="44.137775" lon="12.1091133"><ele>60.57142857142857</ele><time>2026-05-06T12:42:07Z</time></trkpt><trkpt lat="44.13778" lon="12.10921"><ele>60.71428571428571</ele><time>2026-05-06T12:42:08.999Z</time></trkpt><trkpt lat="44.1377833" lon="12.10931"><ele>60.85714285714285</ele><time>2026-05-06T12:42:10.999Z</time></trkpt><trkpt lat="44.137795" lon="12.1093983"><ele>60.99999999999999</ele><time>2026-05-06T12:42:13Z</time></trkpt><trkpt lat="44.137805" lon="12.109495"><ele>61.14285714285714</ele><time>2026-05-06T12:42:15Z</time></trkpt><trkpt lat="44.137805" lon="12.1096017"><ele>61.285714285714285</ele><time>2026-05-06T12:42:16.999Z</time></trkpt><trkpt lat="44.1378" lon="12.1097033"><ele>61.42857142857143</ele><time>2026-05-06T12:42:18.999Z</time></trkpt><trkpt lat="44.13779" lon="12.1098"><ele>61.57142857142857</ele><time>2026-05-06T12:42:21Z</time></trkpt><trkpt lat="44.1377683" lon="12.1098967"><ele>61.71428571428572</ele><time>2026-05-06T12:42:23Z</time></trkpt><trkpt lat="44.137735" lon="12.1099933"><ele>61.85714285714286</ele><time>2026-05-06T12:42:25Z</time></trkpt><trkpt lat="44.137705" lon="12.11009"><ele>62.0</ele><time>2026-05-06T12:42:27Z</time></trkpt><trkpt lat="44.1376767" lon="12.1101867"><ele>62.333333333333336</ele><time>2026-05-06T12:42:29Z</time></trkpt><trkpt lat="44.1376467" lon="12.110285"><ele>62.66666666666667</ele><time>2026-05-06T12:42:31Z</time></trkpt><trkpt lat="44.13762" lon="12.1103883"><ele>63.0</ele><time>2026-05-06T12:42:32.999Z</time></trkpt><trkpt lat="44.13759" lon="12.1104883"><ele>63.33333333333333</ele><time>2026-05-06T12:42:35Z</time></trkpt><trkpt lat="44.1375683" lon="12.1105867"><ele>63.666666666666664</ele><time>2026-05-06T12:42:36.999Z</time></trkpt><trkpt lat="44.1375483" lon="12.1106917"><ele>64.0</ele><time>2026-05-06T12:42:39Z</time></trkpt><trkpt lat="44.1375117" lon="12.1108"><ele>64.28571428571428</ele><time>2026-05-06T12:42:40.999Z</time></trkpt><trkpt lat="44.1374817" lon="12.1108967"><ele>64.57142857142857</ele><time>2026-05-06T12:42:42.999Z</time></trkpt><trkpt lat="44.1374533" lon="12.1109917"><ele>64.85714285714286</ele><time>2026-05-06T12:42:44.999Z</time></trkpt><trkpt lat="44.13743" lon="12.1110883"><ele>65.14285714285714</ele><time>2026-05-06T12:42:46.999Z</time></trkpt><trkpt lat="44.137415" lon="12.1111917"><ele>65.42857142857143</ele><time>2026-05-06T12:42:48.999Z</time></trkpt><trkpt lat="44.1374067" lon="12.1112867"><ele>65.71428571428571</ele><time>2026-05-06T12:42:50.999Z</time></trkpt><trkpt lat="44.1374117" lon="12.1113767"><ele>66.0</ele><time>2026-05-06T12:42:53Z</time></trkpt><trkpt lat="44.1374317" lon="12.111505"><ele>66.57142857142857</ele><time>2026-05-06T12:42:55.999Z</time></trkpt><trkpt lat="44.1374717" lon="12.111615"><ele>67.14285714285714</ele><time>2026-05-06T12:42:58.999Z</time></trkpt><trkpt lat="44.1375" lon="12.1117067"><ele>67.71428571428572</ele><time>2026-05-06T12:43:01.999Z</time></trkpt><trkpt lat="44.1375333" lon="12.1117883"><ele>68.28571428571428</ele><time>2026-05-06T12:43:04.999Z</time></trkpt><trkpt lat="44.1375733" lon="12.1118633"><ele>68.85714285714286</ele><time>2026-05-06T12:43:08Z</time></trkpt><trkpt lat="44.1376217" lon="12.1119417"><ele>69.42857142857143</ele><time>2026-05-06T12:43:11Z</time></trkpt><trkpt lat="44.1376667" lon="12.112035"><ele>70.0</ele><time>2026-05-06T12:43:14.999Z</time></trkpt><trkpt lat="44.13771" lon="12.1121033"><ele>70.0</ele><time>2026-05-06T12:43:17.999Z</time></trkpt><trkpt lat="44.1377517" lon="12.1121833"><ele>70.0</ele><time>2026-05-06T12:43:21.999Z</time></trkpt><trkpt lat="44.1377783" lon="12.1122633"><ele>70.0</ele><time>2026-05-06T12:43:26Z</time></trkpt><trkpt lat="44.1378017" lon="12.112355"><ele>70.0</ele><time>2026-05-06T12:43:29.999Z</time></trkpt><trkpt lat="44.1378217" lon="12.11246"><ele>70.0</ele><time>2026-05-06T12:43:34Z</time></trkpt><trkpt lat="44.137845" lon="12.1125517"><ele>70.0</ele><time>2026-05-06T12:43:37.999Z</time></trkpt><trkpt lat="44.137875" lon="12.1126367"><ele>70.0</ele><time>2026-05-06T12:43:42Z</time></trkpt><trkpt lat="44.1379017" lon="12.1127367"><ele>71.14285714285714</ele><time>2026-05-06T12:43:45.999Z</time></trkpt><trkpt lat="44.137915" lon="12.1128233"><ele>72.28571428571428</ele><time>2026-05-06T12:43:50Z</time></trkpt><trkpt lat="44.137935" lon="12.1129267"><ele>73.42857142857143</ele><time>2026-05-06T12:43:54Z</time></trkpt><trkpt lat="44.1379567" lon="12.1130217"><ele>74.57142857142857</ele><time>2026-05-06T12:43:58Z</time></trkpt><trkpt lat="44.13793" lon="12.1131133"><ele>75.71428571428571</ele><time>2026-05-06T12:44:01.999Z</time></trkpt><trkpt lat="44.1378883" lon="12.1131883"><ele>76.85714285714286</ele><time>2026-05-06T12:44:05.999Z</time></trkpt><trkpt lat="44.137835" lon="12.113235"><ele>78.0</ele><time>2026-05-06T12:44:09.999Z</time></trkpt><trkpt lat="44.1377717" lon="12.113265"><ele>79.14285714285715</ele><time>2026-05-06T12:44:13.999Z</time></trkpt><trkpt lat="44.137705" lon="12.1132917"><ele>80.28571428571428</ele><time>2026-05-06T12:44:18Z</time></trkpt><trkpt lat="44.1376383" lon="12.1133167"><ele>81.42857142857143</ele><time>2026-05-06T12:44:22Z</time></trkpt><trkpt lat="44.13758" lon="12.11335"><ele>82.57142857142858</ele><time>2026-05-06T12:44:25.999Z</time></trkpt><trkpt lat="44.137515" lon="12.1133767"><ele>83.71428571428572</ele><time>2026-05-06T12:44:30Z</time></trkpt><trkpt lat="44.137445" lon="12.1134033"><ele>84.85714285714286</ele><time>2026-05-06T12:44:33.999Z</time></trkpt><trkpt lat="44.13738" lon="12.113435"><ele>86.0</ele><time>2026-05-06T12:44:38Z</time></trkpt><trkpt lat="44.1373167" lon="12.1134633"><ele>86.00000000000001</ele><time>2026-05-06T12:44:41.999Z</time></trkpt><trkpt lat="44.137255" lon="12.1134933"><ele>86.0</ele><time>2026-05-06T12:44:45.999Z</time></trkpt><trkpt lat="44.1371883" lon="12.1135183"><ele>86.0</ele><time>2026-05-06T12:44:49.999Z</time></trkpt><trkpt lat="44.1371217" lon="12.1135717"><ele>86.0</ele><time>2026-05-06T12:44:54.999Z</time></trkpt><trkpt lat="44.13706" lon="12.113635"><ele>86.0</ele><time>2026-05-06T12:44:58.999Z</time></trkpt><trkpt lat="44.1370333" lon="12.1137383"><ele>86.00000000000001</ele><time>2026-05-06T12:45:03.999Z</time></trkpt><trkpt lat="44.13703" lon="12.1138367"><ele>86.0</ele><time>2026-05-06T12:45:07.999Z</time></trkpt><trkpt lat="44.1370467" lon="12.113925"><ele>86.00000000000001</ele><time>2026-05-06T12:45:11.999Z</time></trkpt><trkpt lat="44.1370733" lon="12.1140183"><ele>86.0</ele><time>2026-05-06T12:45:15.999Z</time></trkpt><trkpt lat="44.13711" lon="12.114115"><ele>86.0</ele><time>2026-05-06T12:45:20Z</time></trkpt><trkpt lat="44.13715" lon="12.1142033"><ele>86.0</ele><time>2026-05-06T12:45:23.999Z</time></trkpt><trkpt lat="44.1371833" lon="12.1143033"><ele>86.0</ele><time>2026-05-06T12:45:27.999Z</time></trkpt><trkpt lat="44.1372133" lon="12.1143917"><ele>86.00000000000001</ele><time>2026-05-06T12:45:31.999Z</time></trkpt><trkpt lat="44.1372367" lon="12.11448"><ele>86.0</ele><time>2026-05-06T12:45:35.999Z</time></trkpt><trkpt lat="44.1372467" lon="12.1145833"><ele>87.42857142857143</ele><time>2026-05-06T12:45:40Z</time></trkpt><trkpt lat="44.137245" lon="12.1146767"><ele>88.85714285714286</ele><time>2026-05-06T12:45:43.999Z</time></trkpt><trkpt lat="44.13722" lon="12.1147833"><ele>90.28571428571428</ele><time>2026-05-06T12:45:48Z</time></trkpt><trkpt lat="44.1371983" lon="12.1148817"><ele>91.71428571428572</ele><time>2026-05-06T12:45:52.999Z</time></trkpt><trkpt lat="44.1371667" lon="12.1149817"><ele>93.14285714285714</ele><time>2026-05-06T12:45:56.999Z</time></trkpt><trkpt lat="44.1371417" lon="12.115075"><ele>94.57142857142857</ele><time>2026-05-06T12:46:00.999Z</time></trkpt><trkpt lat="44.1371283" lon="12.1151633"><ele>96.0</ele><time>2026-05-06T12:46:05Z</time></trkpt><trkpt lat="44.137095" lon="12.1152633"><ele>97.42857142857142</ele><time>2026-05-06T12:46:09.999Z</time></trkpt><trkpt lat="44.1370733" lon="12.1153583"><ele>98.85714285714286</ele><time>2026-05-06T12:46:14Z</time></trkpt><trkpt lat="44.1370467" lon="12.1154483"><ele>100.28571428571428</ele><time>2026-05-06T12:46:18Z</time></trkpt><trkpt lat="44.1370283" lon="12.11554"><ele>101.71428571428571</ele><time>2026-05-06T12:46:22Z</time></trkpt><trkpt lat="44.136995" lon="12.1156383"><ele>103.14285714285714</ele><time>2026-05-06T12:46:27.999Z</time></trkpt><trkpt lat="44.136965" lon="12.115735"><ele>104.57142857142857</ele><time>2026-05-06T12:46:32Z</time></trkpt><trkpt lat="44.1369333" lon="12.115835"><ele>106.0</ele><time>2026-05-06T12:46:35.999Z</time></trkpt><trkpt lat="44.13691" lon="12.1159217"><ele>106.57142857142857</ele><time>2026-05-06T12:46:39.999Z</time></trkpt><trkpt lat="44.1368883" lon="12.1160067"><ele>107.14285714285714</ele><time>2026-05-06T12:46:43.999Z</time></trkpt><trkpt lat="44.1368633" lon="12.1161033"><ele>107.71428571428571</ele><time>2026-05-06T12:46:48Z</time></trkpt><trkpt lat="44.136845" lon="12.1161967"><ele>108.28571428571428</ele><time>2026-05-06T12:46:52Z</time></trkpt><trkpt lat="44.1368267" lon="12.1162933"><ele>108.85714285714286</ele><time>2026-05-06T12:46:56Z</time></trkpt><trkpt lat="44.1368083" lon="12.1163917"><ele>109.42857142857142</ele><time>2026-05-06T12:47:00.999Z</time></trkpt><trkpt lat="44.1367733" lon="12.1164767"><ele>110.0</ele><time>2026-05-06T12:47:04.999Z</time></trkpt><trkpt lat="44.1367267" lon="12.1165583"><ele>110.85714285714285</ele><time>2026-05-06T12:47:08.999Z</time></trkpt><trkpt lat="44.1367283" lon="12.116655"><ele>111.71428571428572</ele><time>2026-05-06T12:47:13Z</time></trkpt><trkpt lat="44.136735" lon="12.116765"><ele>112.57142857142858</ele><time>2026-05-06T12:47:16.999Z</time></trkpt><trkpt lat="44.13674" lon="12.1168567"><ele>113.42857142857143</ele><time>2026-05-06T12:47:21Z</time></trkpt><trkpt lat="44.136745" lon="12.116945"><ele>114.28571428571429</ele><time>2026-05-06T12:47:25Z</time></trkpt><trkpt lat="44.13678" lon="12.117035"><ele>115.14285714285715</ele><time>2026-05-06T12:47:29Z</time></trkpt><trkpt lat="44.13683" lon="12.1171117"><ele>116.00000000000001</ele><time>2026-05-06T12:47:33Z</time></trkpt><trkpt lat="44.136895" lon="12.1171733"><ele>116.00000000000001</ele><time>2026-05-06T12:47:38Z</time></trkpt><trkpt lat="44.1369567" lon="12.117215"><ele>116.0</ele><time>2026-05-06T12:47:42.999Z</time></trkpt><trkpt lat="44.1370167" lon="12.11727"><ele>116.00000000000001</ele><time>2026-05-06T12:47:46.999Z</time></trkpt><trkpt lat="44.1370617" lon="12.1173333"><ele>116.00000000000001</ele><time>2026-05-06T12:47:51Z</time></trkpt><trkpt lat="44.1371183" lon="12.11742"><ele>116.0</ele><time>2026-05-06T12:47:55.999Z</time></trkpt><trkpt lat="44.1371467" lon="12.1175033"><ele>116.00000000000001</ele><time>2026-05-06T12:47:59.999Z</time></trkpt><trkpt lat="44.13715" lon="12.117595"><ele>116.00000000000001</ele><time>2026-05-06T12:48:05Z</time></trkpt><trkpt lat="44.1371467" lon="12.117685"><ele>117.2857142857143</ele><time>2026-05-06T12:48:09.999Z</time></trkpt><trkpt lat="44.1371483" lon="12.1177867"><ele>118.57142857142858</ele><time>2026-05-06T12:48:14.999Z</time></trkpt><trkpt lat="44.137155" lon="12.11789"><ele>119.85714285714286</ele><time>2026-05-06T12:48:19.999Z</time></trkpt><trkpt lat="44.13715" lon="12.1179883"><ele>121.14285714285715</ele><time>2026-05-06T12:48:24.999Z</time></trkpt><trkpt lat="44.1371633" lon="12.1180883"><ele>122.42857142857144</ele><time>2026-05-06T12:48:30Z</time></trkpt><trkpt lat="44.1371667" lon="12.1181783"><ele>123.71428571428571</ele><time>2026-05-06T12:48:33.999Z</time></trkpt><trkpt lat="44.13718" lon="12.1182667"><ele>125.0</ele><time>2026-05-06T12:48:38Z</time></trkpt><trkpt lat="44.13718" lon="12.1183633"><ele>126.14285714285714</ele><time>2026-05-06T12:48:42.999Z</time></trkpt><trkpt lat="44.1371817" lon="12.118465"><ele>127.28571428571429</ele><time>2026-05-06T12:48:48Z</time></trkpt><trkpt lat="44.1372017" lon="12.1185583"><ele>128.42857142857144</ele><time>2026-05-06T12:48:51.999Z</time></trkpt><trkpt lat="44.13722" lon="12.1186467"><ele>129.57142857142856</ele><time>2026-05-06T12:48:55.999Z</time></trkpt><trkpt lat="44.1372333" lon="12.118735"><ele>130.71428571428572</ele><time>2026-05-06T12:49:00Z</time></trkpt><trkpt lat="44.1372517" lon="12.1188267"><ele>131.85714285714286</ele><time>2026-05-06T12:49:03.999Z</time></trkpt><trkpt lat="44.1372633" lon="12.1189167"><ele>133.0</ele><time>2026-05-06T12:49:08Z</time></trkpt><trkpt lat="44.1372683" lon="12.1190133"><ele>134.0</ele><time>2026-05-06T12:49:12.999Z</time></trkpt><trkpt lat="44.137275" lon="12.1191117"><ele>135.0</ele><time>2026-05-06T12:49:17.999Z</time></trkpt><trkpt lat="44.13727" lon="12.1192117"><ele>136.0</ele><time>2026-05-06T12:49:23Z</time></trkpt><trkpt lat="44.1372883" lon="12.1193033"><ele>137.0</ele><time>2026-05-06T12:49:27.999Z</time></trkpt><trkpt lat="44.1372967" lon="12.1194083"><ele>138.0</ele><time>2026-05-06T12:49:32.999Z</time></trkpt><trkpt lat="44.1373067" lon="12.119505"><ele>139.0</ele><time>2026-05-06T12:49:37.999Z</time></trkpt><trkpt lat="44.137315" lon="12.1195983"><ele>140.0</ele><time>2026-05-06T12:49:42.999Z</time></trkpt><trkpt lat="44.1373117" lon="12.1196983"><ele>140.0</ele><time>2026-05-06T12:49:48Z</time></trkpt><trkpt lat="44.1373267" lon="12.119795"><ele>140.0</ele><time>2026-05-06T12:49:52.999Z</time></trkpt><trkpt lat="44.137335" lon="12.1198867"><ele>140.0</ele><time>2026-05-06T12:49:57.999Z</time></trkpt><trkpt lat="44.137345" lon="12.1199867"><ele>140.0</ele><time>2026-05-06T12:50:03Z</time></trkpt><trkpt lat="44.137345" lon="12.1200817"><ele>140.0</ele><time>2026-05-06T12:50:07.999Z</time></trkpt><trkpt lat="44.1373567" lon="12.1201817"><ele>140.0</ele><time>2026-05-06T12:50:14Z</time></trkpt><trkpt lat="44.137355" lon="12.1202883"><ele>140.0</ele><time>2026-05-06T12:50:18.999Z</time></trkpt><trkpt lat="44.1373317" lon="12.1203783"><ele>141.28571428571428</ele><time>2026-05-06T12:50:23.999Z</time></trkpt><trkpt lat="44.13728" lon="12.1204333"><ele>142.57142857142856</ele><time>2026-05-06T12:50:28.999Z</time></trkpt><trkpt lat="44.1372167" lon="12.120455"><ele>143.85714285714286</ele><time>2026-05-06T12:50:33Z</time></trkpt><trkpt lat="44.1371417" lon="12.120485"><ele>145.14285714285714</ele><time>2026-05-06T12:50:37.999Z</time></trkpt><trkpt lat="44.1370633" lon="12.120505"><ele>146.42857142857142</ele><time>2026-05-06T12:50:43Z</time></trkpt><trkpt lat="44.1369933" lon="12.1205267"><ele>147.71428571428572</ele><time>2026-05-06T12:50:46.999Z</time></trkpt><trkpt lat="44.1369167" lon="12.1205467"><ele>149.0</ele><time>2026-05-06T12:50:50.999Z</time></trkpt><trkpt lat="44.1368433" lon="12.1205733"><ele>149.0</ele><time>2026-05-06T12:50:54.999Z</time></trkpt><trkpt lat="44.1367767" lon="12.12059"><ele>149.0</ele><time>2026-05-06T12:50:59Z</time></trkpt><trkpt lat="44.136705" lon="12.120615"><ele>149.0</ele><time>2026-05-06T12:51:03Z</time></trkpt><trkpt lat="44.136625" lon="12.120635"><ele>149.0</ele><time>2026-05-06T12:51:07Z</time></trkpt><trkpt lat="44.136555" lon="12.1206633"><ele>149.0</ele><time>2026-05-06T12:51:11Z</time></trkpt><trkpt lat="44.1364783" lon="12.12068"><ele>149.0</ele><time>2026-05-06T12:51:15Z</time></trkpt><trkpt lat="44.1364033" lon="12.1207033"><ele>149.16666666666666</ele><time>2026-05-06T12:51:19Z</time></trkpt><trkpt lat="44.1363317" lon="12.1207167"><ele>149.33333333333331</ele><time>2026-05-06T12:51:22.999Z</time></trkpt><trkpt lat="44.1362567" lon="12.1207383"><ele>149.5</ele><time>2026-05-06T12:51:26.999Z</time></trkpt><trkpt lat="44.13618" lon="12.1207633"><ele>149.66666666666666</ele><time>2026-05-06T12:51:30.999Z</time></trkpt><trkpt lat="44.1361083" lon="12.1207967"><ele>149.83333333333334</ele><time>2026-05-06T12:51:34.999Z</time></trkpt><trkpt lat="44.136035" lon="12.1208117"><ele>150.0</ele><time>2026-05-06T12:51:38.999Z</time></trkpt><trkpt lat="44.1359617" lon="12.1208217"><ele>152.33333333333334</ele><time>2026-05-06T12:51:42.999Z</time></trkpt><trkpt lat="44.1358817" lon="12.12084"><ele>154.66666666666666</ele><time>2026-05-06T12:51:46.999Z</time></trkpt><trkpt lat="44.135805" lon="12.1208633"><ele>157.0</ele><time>2026-05-06T12:51:51Z</time></trkpt><trkpt lat="44.1357317" lon="12.1208833"><ele>159.33333333333331</ele><time>2026-05-06T12:51:55Z</time></trkpt><trkpt lat="44.1356517" lon="12.1209067"><ele>161.66666666666666</ele><time>2026-05-06T12:51:58.999Z</time></trkpt><trkpt lat="44.1355883" lon="12.1209267"><ele>164.0</ele><time>2026-05-06T12:52:02Z</time></trkpt><trkpt lat="44.1355067" lon="12.1209417"><ele>165.28571428571428</ele><time>2026-05-06T12:52:06Z</time></trkpt><trkpt lat="44.1354383" lon="12.12096"><ele>166.57142857142856</ele><time>2026-05-06T12:52:09Z</time></trkpt><trkpt lat="44.1353567" lon="12.1209833"><ele>167.85714285714283</ele><time>2026-05-06T12:52:12.999Z</time></trkpt><trkpt lat="44.135295" lon="12.1210017"><ele>169.14285714285714</ele><time>2026-05-06T12:52:15.999Z</time></trkpt><trkpt lat="44.135215" lon="12.1210267"><ele>170.42857142857144</ele><time>2026-05-06T12:52:19.999Z</time></trkpt><trkpt lat="44.13515" lon="12.1210417"><ele>171.7142857142857</ele><time>2026-05-06T12:52:22.999Z</time></trkpt><trkpt lat="44.135085" lon="12.12107"><ele>173.0</ele><time>2026-05-06T12:52:27Z</time></trkpt><trkpt lat="44.135015" lon="12.1210933"><ele>173.0</ele><time>2026-05-06T12:52:31.999Z</time></trkpt><trkpt lat="44.1349517" lon="12.1211083"><ele>173.0</ele><time>2026-05-06T12:52:35.999Z</time></trkpt><trkpt lat="44.134885" lon="12.1211217"><ele>173.0</ele><time>2026-05-06T12:52:38.999Z</time></trkpt><trkpt lat="44.1348183" lon="12.12113"><ele>173.0</ele><time>2026-05-06T12:52:42Z</time></trkpt><trkpt lat="44.1347517" lon="12.12116"><ele>173.0</ele><time>2026-05-06T12:52:45Z</time></trkpt><trkpt lat="44.13469" lon="12.1211833"><ele>173.0</ele><time>2026-05-06T12:52:47.999Z</time></trkpt><trkpt lat="44.134605" lon="12.121205"><ele>173.0</ele><time>2026-05-06T12:52:52Z</time></trkpt><trkpt lat="44.1345317" lon="12.121235"><ele>173.28571428571428</ele><time>2026-05-06T12:52:54.999Z</time></trkpt><trkpt lat="44.1344683" lon="12.12127"><ele>173.57142857142858</ele><time>2026-05-06T12:52:57.999Z</time></trkpt><trkpt lat="44.134395" lon="12.1213267"><ele>173.85714285714286</ele><time>2026-05-06T12:53:01.999Z</time></trkpt><trkpt lat="44.1343367" lon="12.1213667"><ele>174.14285714285714</ele><time>2026-05-06T12:53:05Z</time></trkpt><trkpt lat="44.1342783" lon="12.1214183"><ele>174.42857142857144</ele><time>2026-05-06T12:53:08Z</time></trkpt><trkpt lat="44.1342133" lon="12.1214733"><ele>174.71428571428572</ele><time>2026-05-06T12:53:11Z</time></trkpt><trkpt lat="44.13415" lon="12.1215417"><ele>175.0</ele><time>2026-05-06T12:53:14.999Z</time></trkpt><trkpt lat="44.1340967" lon="12.1216017"><ele>176.0</ele><time>2026-05-06T12:53:18.999Z</time></trkpt><trkpt lat="44.1340367" lon="12.1216617"><ele>177.0</ele><time>2026-05-06T12:53:23Z</time></trkpt><trkpt lat="44.1339817" lon="12.12171"><ele>178.0</ele><time>2026-05-06T12:53:26Z</time></trkpt><trkpt lat="44.1339233" lon="12.1217667"><ele>179.0</ele><time>2026-05-06T12:53:29Z</time></trkpt><trkpt lat="44.13386" lon="12.1218233"><ele>180.0</ele><time>2026-05-06T12:53:31.999Z</time></trkpt><trkpt lat="44.133795" lon="12.1218683"><ele>181.0</ele><time>2026-05-06T12:53:35Z</time></trkpt><trkpt lat="44.13373" lon="12.1219267"><ele>182.0</ele><time>2026-05-06T12:53:37.999Z</time></trkpt><trkpt lat="44.1336717" lon="12.12198"><ele>182.0</ele><time>2026-05-06T12:53:40.999Z</time></trkpt><trkpt lat="44.1336083" lon="12.12205"><ele>182.0</ele><time>2026-05-06T12:53:44.999Z</time></trkpt><trkpt lat="44.1335517" lon="12.1220983"><ele>182.0</ele><time>2026-05-06T12:53:47.999Z</time></trkpt><trkpt lat="44.133485" lon="12.12216"><ele>182.0</ele><time>2026-05-06T12:53:51.999Z</time></trkpt><trkpt lat="44.13343" lon="12.1222083"><ele>182.0</ele><time>2026-05-06T12:53:54.999Z</time></trkpt><trkpt lat="44.1333667" lon="12.1222733"><ele>182.0</ele><time>2026-05-06T12:53:58.999Z</time></trkpt><trkpt lat="44.133305" lon="12.122335"><ele>182.0</ele><time>2026-05-06T12:54:02.999Z</time></trkpt><trkpt lat="44.1332483" lon="12.122395"><ele>182.71428571428572</ele><time>2026-05-06T12:54:07Z</time></trkpt><trkpt lat="44.133185" lon="12.12245"><ele>183.42857142857144</ele><time>2026-05-06T12:54:11Z</time></trkpt><trkpt lat="44.1331317" lon="12.1224983"><ele>184.14285714285714</ele><time>2026-05-06T12:54:14.999Z</time></trkpt><trkpt lat="44.1330683" lon="12.122555"><ele>184.85714285714286</ele><time>2026-05-06T12:54:19Z</time></trkpt><trkpt lat="44.1330117" lon="12.1226067"><ele>185.57142857142858</ele><time>2026-05-06T12:54:22Z</time></trkpt><trkpt lat="44.132955" lon="12.122655"><ele>186.28571428571428</ele><time>2026-05-06T12:54:24.999Z</time></trkpt><trkpt lat="44.132905" lon="12.1227133"><ele>187.0</ele><time>2026-05-06T12:54:28Z</time></trkpt><trkpt lat="44.1328383" lon="12.1227817"><ele>187.0</ele><time>2026-05-06T12:54:32Z</time></trkpt><trkpt lat="44.132785" lon="12.1228367"><ele>187.0</ele><time>2026-05-06T12:54:35Z</time></trkpt><trkpt lat="44.1327183" lon="12.12289"><ele>187.0</ele><time>2026-05-06T12:54:37.999Z</time></trkpt><trkpt lat="44.1326583" lon="12.1229383"><ele>187.0</ele><time>2026-05-06T12:54:40.999Z</time></trkpt><trkpt lat="44.1326017" lon="12.1229917"><ele>187.0</ele><time>2026-05-06T12:54:43.999Z</time></trkpt><trkpt lat="44.13255" lon="12.1230533"><ele>187.0</ele><time>2026-05-06T12:54:47Z</time></trkpt><trkpt lat="44.1324917" lon="12.12311"><ele>187.0</ele><time>2026-05-06T12:54:49.999Z</time></trkpt><trkpt lat="44.1322783" lon="12.1233283"><ele>187.57142857142856</ele><time>2026-05-06T12:54:53.264Z</time></trkpt><trkpt lat="44.1322167" lon="12.1233683"><ele>188.14285714285717</ele><time>2026-05-06T12:55:02.996Z</time></trkpt><trkpt lat="44.132165" lon="12.1234217"><ele>188.71428571428572</ele><time>2026-05-06T12:55:05.996Z</time></trkpt><trkpt lat="44.1321033" lon="12.1234717"><ele>189.28571428571428</ele><time>2026-05-06T12:55:09.996Z</time></trkpt><trkpt lat="44.1320483" lon="12.1235233"><ele>189.85714285714283</ele><time>2026-05-06T12:55:12.997Z</time></trkpt><trkpt lat="44.131995" lon="12.1235783"><ele>190.42857142857144</ele><time>2026-05-06T12:55:15.996Z</time></trkpt><trkpt lat="44.131935" lon="12.12363"><ele>191.0</ele><time>2026-05-06T12:55:18.997Z</time></trkpt><trkpt lat="44.1318783" lon="12.1236883"><ele>191.0</ele><time>2026-05-06T12:55:21.996Z</time></trkpt><trkpt lat="44.13182" lon="12.1237583"><ele>191.0</ele><time>2026-05-06T12:55:25.996Z</time></trkpt><trkpt lat="44.1317617" lon="12.1238067"><ele>191.0</ele><time>2026-05-06T12:55:28.997Z</time></trkpt><trkpt lat="44.131695" lon="12.123875"><ele>191.0</ele><time>2026-05-06T12:55:32.997Z</time></trkpt><trkpt lat="44.1316417" lon="12.123925"><ele>191.0</ele><time>2026-05-06T12:55:35.996Z</time></trkpt><trkpt lat="44.1315733" lon="12.1239917"><ele>191.0</ele><time>2026-05-06T12:55:39.996Z</time></trkpt><trkpt lat="44.1315" lon="12.12405"><ele>193.42857142857144</ele><time>2026-05-06T12:55:43.996Z</time></trkpt><trkpt lat="44.1314283" lon="12.1241033"><ele>195.85714285714283</ele><time>2026-05-06T12:55:47.997Z</time></trkpt><trkpt lat="44.1313717" lon="12.1241417"><ele>198.28571428571428</ele><time>2026-05-06T12:55:50.997Z</time></trkpt><trkpt lat="44.1312983" lon="12.124185"><ele>200.71428571428572</ele><time>2026-05-06T12:55:54.996Z</time></trkpt><trkpt lat="44.1312333" lon="12.1242083"><ele>203.14285714285717</ele><time>2026-05-06T12:55:57.996Z</time></trkpt><trkpt lat="44.1311583" lon="12.1242417"><ele>205.57142857142856</ele><time>2026-05-06T12:56:01.997Z</time></trkpt><trkpt lat="44.1310933" lon="12.1242633"><ele>208.0</ele><time>2026-05-06T12:56:05.996Z</time></trkpt><trkpt lat="44.1310133" lon="12.12429"><ele>208.0</ele><time>2026-05-06T12:56:09.996Z</time></trkpt><trkpt lat="44.1309467" lon="12.1243033"><ele>208.0</ele><time>2026-05-06T12:56:12.996Z</time></trkpt><trkpt lat="44.1308683" lon="12.12432"><ele>208.0</ele><time>2026-05-06T12:56:16.996Z</time></trkpt><trkpt lat="44.13079" lon="12.1243533"><ele>208.0</ele><time>2026-05-06T12:56:20.996Z</time></trkpt><trkpt lat="44.1307267" lon="12.1243667"><ele>208.0</ele><time>2026-05-06T12:56:23.996Z</time></trkpt><trkpt lat="44.1306517" lon="12.1243883"><ele>208.0</ele><time>2026-05-06T12:56:27.996Z</time></trkpt><trkpt lat="44.1305733" lon="12.1244067"><ele>208.0</ele><time>2026-05-06T12:56:31.997Z</time></trkpt><trkpt lat="44.1304967" lon="12.1244417"><ele>207.7142857142857</ele><time>2026-05-06T12:56:35.996Z</time></trkpt><trkpt lat="44.1304333" lon="12.12447"><ele>207.42857142857144</ele><time>2026-05-06T12:56:38.996Z</time></trkpt><trkpt lat="44.1303683" lon="12.124495"><ele>207.14285714285714</ele><time>2026-05-06T12:56:41.996Z</time></trkpt><trkpt lat="44.1303067" lon="12.1245167"><ele>206.85714285714283</ele><time>2026-05-06T12:56:44.996Z</time></trkpt><trkpt lat="44.1302467" lon="12.1245433"><ele>206.57142857142856</ele><time>2026-05-06T12:56:47.997Z</time></trkpt><trkpt lat="44.1301733" lon="12.1245667"><ele>206.28571428571428</ele><time>2026-05-06T12:56:50.996Z</time></trkpt><trkpt lat="44.130095" lon="12.1246"><ele>206.0</ele><time>2026-05-06T12:56:53.996Z</time></trkpt><trkpt lat="44.1300133" lon="12.124645"><ele>206.00000000000003</ele><time>2026-05-06T12:56:56.997Z</time></trkpt><trkpt lat="44.1299383" lon="12.1246983"><ele>206.0</ele><time>2026-05-06T12:56:59.997Z</time></trkpt><trkpt lat="44.1298583" lon="12.124745"><ele>206.0</ele><time>2026-05-06T12:57:02.997Z</time></trkpt><trkpt lat="44.1297867" lon="12.1247883"><ele>206.0</ele><time>2026-05-06T12:57:05.997Z</time></trkpt><trkpt lat="44.129725" lon="12.1248433"><ele>206.00000000000003</ele><time>2026-05-06T12:57:08.996Z</time></trkpt><trkpt lat="44.1296717" lon="12.1248933"><ele>206.0</ele><time>2026-05-06T12:57:10.996Z</time></trkpt><trkpt lat="44.1296133" lon="12.1249633"><ele>208.33333333333334</ele><time>2026-05-06T12:57:13.996Z</time></trkpt><trkpt lat="44.1295633" lon="12.1250483"><ele>210.66666666666669</ele><time>2026-05-06T12:57:16.997Z</time></trkpt><trkpt lat="44.1295217" lon="12.1251417"><ele>213.0</ele><time>2026-05-06T12:57:19.996Z</time></trkpt><trkpt lat="44.12948" lon="12.1252217"><ele>215.33333333333331</ele><time>2026-05-06T12:57:22.997Z</time></trkpt><trkpt lat="44.1294317" lon="12.1253"><ele>217.66666666666666</ele><time>2026-05-06T12:57:25.997Z</time></trkpt><trkpt lat="44.1293683" lon="12.125385"><ele>220.0</ele><time>2026-05-06T12:57:28.997Z</time></trkpt><trkpt lat="44.12932" lon="12.1254767"><ele>219.99999999999997</ele><time>2026-05-06T12:57:31.997Z</time></trkpt><trkpt lat="44.1292633" lon="12.1255767"><ele>220.0</ele><time>2026-05-06T12:57:34.996Z</time></trkpt><trkpt lat="44.1292183" lon="12.1256483"><ele>220.0</ele><time>2026-05-06T12:57:36.997Z</time></trkpt><trkpt lat="44.129165" lon="12.1257533"><ele>220.0</ele><time>2026-05-06T12:57:39.997Z</time></trkpt><trkpt lat="44.1291217" lon="12.1258467"><ele>219.99999999999997</ele><time>2026-05-06T12:57:41.997Z</time></trkpt><trkpt lat="44.12907" lon="12.1259467"><ele>220.0</ele><time>2026-05-06T12:57:43.996Z</time></trkpt><trkpt lat="44.1290183" lon="12.1260517"><ele>217.6</ele><time>2026-05-06T12:57:45.997Z</time></trkpt><trkpt lat="44.1289667" lon="12.126165"><ele>215.2</ele><time>2026-05-06T12:57:47.997Z</time></trkpt><trkpt lat="44.1289183" lon="12.126285"><ele>212.8</ele><time>2026-05-06T12:57:49.997Z</time></trkpt><trkpt lat="44.1288617" lon="12.1264"><ele>210.4</ele><time>2026-05-06T12:57:51.996Z</time></trkpt><trkpt lat="44.128815" lon="12.12652"><ele>208.0</ele><time>2026-05-06T12:57:53.997Z</time></trkpt><trkpt lat="44.1287617" lon="12.1266333"><ele>207.99999999999997</ele><time>2026-05-06T12:57:55.996Z</time></trkpt><trkpt lat="44.1287133" lon="12.1267417"><ele>208.0</ele><time>2026-05-06T12:57:57.996Z</time></trkpt><trkpt lat="44.128665" lon="12.12685"><ele>208.0</ele><time>2026-05-06T12:57:59.996Z</time></trkpt><trkpt lat="44.1286217" lon="12.1269433"><ele>208.0</ele><time>2026-05-06T12:58:01.996Z</time></trkpt><trkpt lat="44.1285817" lon="12.1270267"><ele>207.99999999999997</ele><time>2026-05-06T12:58:03.996Z</time></trkpt><trkpt lat="44.1285417" lon="12.1271067"><ele>208.0</ele><time>2026-05-06T12:58:05.996Z</time></trkpt><trkpt lat="44.1284967" lon="12.1271833"><ele>207.99999999999997</ele><time>2026-05-06T12:58:07.997Z</time></trkpt><trkpt lat="44.12846" lon="12.1272633"><ele>208.0</ele><time>2026-05-06T12:58:09.997Z</time></trkpt><trkpt lat="44.1284283" lon="12.1273417"><ele>208.0</ele><time>2026-05-06T12:58:11.997Z</time></trkpt><trkpt lat="44.1283867" lon="12.1274583"><ele>208.0</ele><time>2026-05-06T12:58:14.996Z</time></trkpt><trkpt lat="44.12835" lon="12.1275683"><ele>207.99999999999997</ele><time>2026-05-06T12:58:17.996Z</time></trkpt><trkpt lat="44.1283283" lon="12.1276783"><ele>208.0</ele><time>2026-05-06T12:58:20.997Z</time></trkpt><trkpt lat="44.128305" lon="12.127785"><ele>209.14285714285714</ele><time>2026-05-06T12:58:23.996Z</time></trkpt><trkpt lat="44.1282967" lon="12.1278883"><ele>210.2857142857143</ele><time>2026-05-06T12:58:26.997Z</time></trkpt><trkpt lat="44.1282933" lon="12.127995"><ele>211.42857142857144</ele><time>2026-05-06T12:58:29.997Z</time></trkpt><trkpt lat="44.1282867" lon="12.1281017"><ele>212.57142857142856</ele><time>2026-05-06T12:58:32.996Z</time></trkpt><trkpt lat="44.1282867" lon="12.1282033"><ele>213.71428571428572</ele><time>2026-05-06T12:58:35.996Z</time></trkpt><trkpt lat="44.1282883" lon="12.1282967"><ele>214.85714285714286</ele><time>2026-05-06T12:58:38.996Z</time></trkpt><trkpt lat="44.12829" lon="12.1283967"><ele>216.0</ele><time>2026-05-06T12:58:42.996Z</time></trkpt><trkpt lat="44.1282883" lon="12.1284867"><ele>216.85714285714286</ele><time>2026-05-06T12:58:46.996Z</time></trkpt><trkpt lat="44.1282817" lon="12.128595"><ele>217.71428571428572</ele><time>2026-05-06T12:58:51.996Z</time></trkpt><trkpt lat="44.1282733" lon="12.1287"><ele>218.57142857142856</ele><time>2026-05-06T12:58:55.996Z</time></trkpt><trkpt lat="44.1282533" lon="12.1287833"><ele>219.42857142857144</ele><time>2026-05-06T12:58:59.996Z</time></trkpt><trkpt lat="44.1281983" lon="12.1288617"><ele>220.2857142857143</ele><time>2026-05-06T12:59:04.996Z</time></trkpt><trkpt lat="44.12814" lon="12.1289183"><ele>221.14285714285714</ele><time>2026-05-06T12:59:09.996Z</time></trkpt><trkpt lat="44.128065" lon="12.1289517"><ele>222.0</ele><time>2026-05-06T12:59:13.996Z</time></trkpt><trkpt lat="44.1279917" lon="12.1289717"><ele>223.0</ele><time>2026-05-06T12:59:17.996Z</time></trkpt><trkpt lat="44.1279167" lon="12.1290033"><ele>224.0</ele><time>2026-05-06T12:59:21.996Z</time></trkpt><trkpt lat="44.127835" lon="12.1290267"><ele>225.0</ele><time>2026-05-06T12:59:25.997Z</time></trkpt><trkpt lat="44.1277583" lon="12.129065"><ele>226.0</ele><time>2026-05-06T12:59:29.997Z</time></trkpt><trkpt lat="44.127685" lon="12.1291033"><ele>227.0</ele><time>2026-05-06T12:59:33.997Z</time></trkpt><trkpt lat="44.1276167" lon="12.12916"><ele>228.0</ele><time>2026-05-06T12:59:37.996Z</time></trkpt><trkpt lat="44.1275633" lon="12.129215"><ele>229.0</ele><time>2026-05-06T12:59:40.996Z</time></trkpt><trkpt lat="44.1275033" lon="12.1292867"><ele>229.99999999999997</ele><time>2026-05-06T12:59:44.996Z</time></trkpt><trkpt lat="44.1274467" lon="12.1293417"><ele>231.0</ele><time>2026-05-06T12:59:48.996Z</time></trkpt><trkpt lat="44.1273867" lon="12.1294033"><ele>232.0</ele><time>2026-05-06T12:59:52.996Z</time></trkpt><trkpt lat="44.12733" lon="12.12946"><ele>232.99999999999997</ele><time>2026-05-06T12:59:56.997Z</time></trkpt><trkpt lat="44.127275" lon="12.12954"><ele>234.0</ele><time>2026-05-06T13:00:00.997Z</time></trkpt><trkpt lat="44.12723" lon="12.1296067"><ele>235.0</ele><time>2026-05-06T13:00:03.997Z</time></trkpt><trkpt lat="44.1271717" lon="12.1296933"><ele>235.66666666666666</ele><time>2026-05-06T13:00:07.996Z</time></trkpt><trkpt lat="44.1271217" lon="12.1297783"><ele>236.33333333333331</ele><time>2026-05-06T13:00:11.997Z</time></trkpt><trkpt lat="44.1270667" lon="12.12986"><ele>237.0</ele><time>2026-05-06T13:00:15.996Z</time></trkpt><trkpt lat="44.1270133" lon="12.129935"><ele>237.66666666666669</ele><time>2026-05-06T13:00:19.996Z</time></trkpt><trkpt lat="44.126955" lon="12.1299983"><ele>238.33333333333334</ele><time>2026-05-06T13:00:23.996Z</time></trkpt><trkpt lat="44.12691" lon="12.13007"><ele>239.0</ele><time>2026-05-06T13:00:26.997Z</time></trkpt><trkpt lat="44.12686" lon="12.130145"><ele>240.16666666666669</ele><time>2026-05-06T13:00:30.996Z</time></trkpt><trkpt lat="44.1268033" lon="12.1302183"><ele>241.33333333333334</ele><time>2026-05-06T13:00:34.997Z</time></trkpt><trkpt lat="44.1267367" lon="12.130285"><ele>242.5</ele><time>2026-05-06T13:00:38.996Z</time></trkpt><trkpt lat="44.12667" lon="12.1303483"><ele>243.66666666666669</ele><time>2026-05-06T13:00:42.996Z</time></trkpt><trkpt lat="44.126605" lon="12.1304167"><ele>244.83333333333334</ele><time>2026-05-06T13:00:46.996Z</time></trkpt><trkpt lat="44.1265517" lon="12.130485"><ele>246.0</ele><time>2026-05-06T13:00:50.996Z</time></trkpt><trkpt lat="44.1264817" lon="12.1305283"><ele>246.0</ele><time>2026-05-06T13:00:54.996Z</time></trkpt><trkpt lat="44.12642" lon="12.1305683"><ele>246.0</ele><time>2026-05-06T13:00:57.996Z</time></trkpt><trkpt lat="44.126345" lon="12.130605"><ele>246.0</ele><time>2026-05-06T13:01:01.996Z</time></trkpt><trkpt lat="44.1262833" lon="12.1306283"><ele>246.0</ele><time>2026-05-06T13:01:03.996Z</time></trkpt><trkpt lat="44.1262" lon="12.1306617"><ele>246.0</ele><time>2026-05-06T13:01:05.996Z</time></trkpt><trkpt lat="44.12607" lon="12.13069"><ele>246.0</ele><time>2026-05-06T13:01:07.996Z</time></trkpt><trkpt lat="44.1260067" lon="12.1307033"><ele>246.0</ele><time>2026-05-06T13:01:08.996Z</time></trkpt><trkpt lat="44.1259167" lon="12.1307233"><ele>246.00000000000003</ele><time>2026-05-06T13:01:09.996Z</time></trkpt><trkpt lat="44.1258267" lon="12.1307483"><ele>246.00000000000003</ele><time>2026-05-06T13:01:10.997Z</time></trkpt><trkpt lat="44.1257267" lon="12.1307867"><ele>246.0</ele><time>2026-05-06T13:01:11.996Z</time></trkpt><trkpt lat="44.1256367" lon="12.1308133"><ele>246.0</ele><time>2026-05-06T13:01:12.997Z</time></trkpt><trkpt lat="44.1255483" lon="12.1308417"><ele>245.0</ele><time>2026-05-06T13:01:13.996Z</time></trkpt><trkpt lat="44.1254583" lon="12.1308717"><ele>244.0</ele><time>2026-05-06T13:01:14.997Z</time></trkpt><trkpt lat="44.1253683" lon="12.1309033"><ele>243.0</ele><time>2026-05-06T13:01:15.996Z</time></trkpt><trkpt lat="44.1252767" lon="12.1309317"><ele>242.0</ele><time>2026-05-06T13:01:16.997Z</time></trkpt><trkpt lat="44.125195" lon="12.1309583"><ele>241.0</ele><time>2026-05-06T13:01:17.997Z</time></trkpt><trkpt lat="44.1251167" lon="12.1309833"><ele>240.0</ele><time>2026-05-06T13:01:18.997Z</time></trkpt><trkpt lat="44.12503" lon="12.1310067"><ele>240.0</ele><time>2026-05-06T13:01:19.996Z</time></trkpt><trkpt lat="44.1249483" lon="12.1310333"><ele>240.0</ele><time>2026-05-06T13:01:20.997Z</time></trkpt><trkpt lat="44.1248717" lon="12.13106"><ele>240.0</ele><time>2026-05-06T13:01:21.997Z</time></trkpt><trkpt lat="44.1247983" lon="12.1310867"><ele>240.0</ele><time>2026-05-06T13:01:22.997Z</time></trkpt><trkpt lat="44.1247317" lon="12.1311067"><ele>240.0</ele><time>2026-05-06T13:01:23.996Z</time></trkpt><trkpt lat="44.12462" lon="12.131145"><ele>240.0</ele><time>2026-05-06T13:01:25.996Z</time></trkpt><trkpt lat="44.1245217" lon="12.1311817"><ele>240.0</ele><time>2026-05-06T13:01:27.996Z</time></trkpt><trkpt lat="44.1244467" lon="12.1312083"><ele>240.0</ele><time>2026-05-06T13:01:29.997Z</time></trkpt><trkpt lat="44.124375" lon="12.13123"><ele>240.0</ele><time>2026-05-06T13:01:31.997Z</time></trkpt><trkpt lat="44.124285" lon="12.131265"><ele>240.0</ele><time>2026-05-06T13:01:34.996Z</time></trkpt><trkpt lat="44.1242" lon="12.131295"><ele>240.0</ele><time>2026-05-06T13:01:37.996Z</time></trkpt><trkpt lat="44.124125" lon="12.1313217"><ele>240.0</ele><time>2026-05-06T13:01:40.997Z</time></trkpt><trkpt lat="44.1240517" lon="12.13134"><ele>240.0</ele><time>2026-05-06T13:01:43.996Z</time></trkpt><trkpt lat="44.1239833" lon="12.1313583"><ele>240.0</ele><time>2026-05-06T13:01:47.996Z</time></trkpt><trkpt lat="44.1239083" lon="12.1313633"><ele>240.0</ele><time>2026-05-06T13:01:50.996Z</time></trkpt><trkpt lat="44.1238283" lon="12.13138"><ele>240.0</ele><time>2026-05-06T13:01:53.996Z</time></trkpt><trkpt lat="44.123745" lon="12.1314033"><ele>240.0</ele><time>2026-05-06T13:01:56.997Z</time></trkpt><trkpt lat="44.1236667" lon="12.131445"><ele>240.0</ele><time>2026-05-06T13:01:59.996Z</time></trkpt><trkpt lat="44.1235983" lon="12.1314717"><ele>240.0</ele><time>2026-05-06T13:02:02.996Z</time></trkpt><trkpt lat="44.1235233" lon="12.131505"><ele>240.0</ele><time>2026-05-06T13:02:05.996Z</time></trkpt><trkpt lat="44.12345" lon="12.131525"><ele>240.0</ele><time>2026-05-06T13:02:08.996Z</time></trkpt><trkpt lat="44.1233633" lon="12.1315667"><ele>240.0</ele><time>2026-05-06T13:02:11.996Z</time></trkpt><trkpt lat="44.1232917" lon="12.1315983"><ele>240.0</ele><time>2026-05-06T13:02:14.996Z</time></trkpt><trkpt lat="44.123225" lon="12.13164"><ele>240.0</ele><time>2026-05-06T13:02:17.996Z</time></trkpt><trkpt lat="44.1231433" lon="12.1316683"><ele>241.28571428571428</ele><time>2026-05-06T13:02:20.996Z</time></trkpt><trkpt lat="44.123075" lon="12.13171"><ele>242.57142857142856</ele><time>2026-05-06T13:02:23.996Z</time></trkpt><trkpt lat="44.1230117" lon="12.1317683"><ele>243.85714285714283</ele><time>2026-05-06T13:02:27.997Z</time></trkpt><trkpt lat="44.12295" lon="12.131805"><ele>245.14285714285714</ele><time>2026-05-06T13:02:30.996Z</time></trkpt><trkpt lat="44.1228917" lon="12.13184"><ele>246.4285714285714</ele><time>2026-05-06T13:02:33.996Z</time></trkpt><trkpt lat="44.1228317" lon="12.1318783"><ele>247.7142857142857</ele><time>2026-05-06T13:02:35.997Z</time></trkpt><trkpt lat="44.1227583" lon="12.13192"><ele>249.0</ele><time>2026-05-06T13:02:37.997Z</time></trkpt><trkpt lat="44.1226817" lon="12.1319833"><ele>249.0</ele><time>2026-05-06T13:02:39.997Z</time></trkpt><trkpt lat="44.1225967" lon="12.132055"><ele>248.99999999999997</ele><time>2026-05-06T13:02:41.996Z</time></trkpt><trkpt lat="44.1225033" lon="12.1321333"><ele>248.99999999999997</ele><time>2026-05-06T13:02:43.996Z</time></trkpt><trkpt lat="44.1224067" lon="12.1322067"><ele>249.0</ele><time>2026-05-06T13:02:45.996Z</time></trkpt><trkpt lat="44.1223" lon="12.13229"><ele>249.0</ele><time>2026-05-06T13:02:47.997Z</time></trkpt><trkpt lat="44.1221867" lon="12.13237"><ele>249.28571428571428</ele><time>2026-05-06T13:02:49.996Z</time></trkpt><trkpt lat="44.1221267" lon="12.1324067"><ele>249.57142857142856</ele><time>2026-05-06T13:02:50.997Z</time></trkpt><trkpt lat="44.1220683" lon="12.1324433"><ele>249.85714285714283</ele><time>2026-05-06T13:02:51.996Z</time></trkpt><trkpt lat="44.1220017" lon="12.132475"><ele>250.1428571428571</ele><time>2026-05-06T13:02:52.997Z</time></trkpt><trkpt lat="44.1219383" lon="12.1324983"><ele>250.42857142857142</ele><time>2026-05-06T13:02:53.996Z</time></trkpt><trkpt lat="44.12187" lon="12.13251"><ele>250.71428571428567</ele><time>2026-05-06T13:02:54.996Z</time></trkpt><trkpt lat="44.1218033" lon="12.1325267"><ele>250.99999999999997</ele><time>2026-05-06T13:02:55.996Z</time></trkpt><trkpt lat="44.121735" lon="12.1325283"><ele>251.00000000000003</ele><time>2026-05-06T13:02:56.997Z</time></trkpt><trkpt lat="44.1216683" lon="12.13253"><ele>251.0</ele><time>2026-05-06T13:02:57.996Z</time></trkpt><trkpt lat="44.121605" lon="12.132525"><ele>251.0</ele><time>2026-05-06T13:02:58.996Z</time></trkpt><trkpt lat="44.121485" lon="12.1325167"><ele>251.0</ele><time>2026-05-06T13:03:00.996Z</time></trkpt><trkpt lat="44.1213883" lon="12.1324967"><ele>251.00000000000003</ele><time>2026-05-06T13:03:02.996Z</time></trkpt><trkpt lat="44.1213017" lon="12.1324683"><ele>251.0</ele><time>2026-05-06T13:03:04.996Z</time></trkpt><trkpt lat="44.1212333" lon="12.13245"><ele>251.33333333333334</ele><time>2026-05-06T13:03:06.997Z</time></trkpt><trkpt lat="44.12117" lon="12.1324283"><ele>251.66666666666669</ele><time>2026-05-06T13:03:08.997Z</time></trkpt><trkpt lat="44.121085" lon="12.1323867"><ele>252.0</ele><time>2026-05-06T13:03:11.997Z</time></trkpt><trkpt lat="44.1210133" lon="12.13235"><ele>252.33333333333331</ele><time>2026-05-06T13:03:14.997Z</time></trkpt><trkpt lat="44.1209483" lon="12.1323033"><ele>252.66666666666666</ele><time>2026-05-06T13:03:17.996Z</time></trkpt><trkpt lat="44.12088" lon="12.1322617"><ele>253.0</ele><time>2026-05-06T13:03:20.996Z</time></trkpt><trkpt lat="44.12081" lon="12.1321933"><ele>252.99999999999997</ele><time>2026-05-06T13:03:24.996Z</time></trkpt><trkpt lat="44.1207567" lon="12.1321133"><ele>253.0</ele><time>2026-05-06T13:03:29.997Z</time></trkpt><trkpt lat="44.1206967" lon="12.1320517"><ele>253.0</ele><time>2026-05-06T13:03:33.997Z</time></trkpt><trkpt lat="44.120635" lon="12.131985"><ele>253.0</ele><time>2026-05-06T13:03:37.996Z</time></trkpt><trkpt lat="44.1205733" lon="12.13192"><ele>252.99999999999997</ele><time>2026-05-06T13:03:41.996Z</time></trkpt><trkpt lat="44.120515" lon="12.131875"><ele>253.0</ele><time>2026-05-06T13:03:44.996Z</time></trkpt><trkpt lat="44.120445" lon="12.1318183"><ele>255.16666666666666</ele><time>2026-05-06T13:03:47.996Z</time></trkpt><trkpt lat="44.120375" lon="12.1317617"><ele>257.3333333333333</ele><time>2026-05-06T13:03:50.997Z</time></trkpt><trkpt lat="44.1202983" lon="12.131715"><ele>259.5</ele><time>2026-05-06T13:03:53.996Z</time></trkpt><trkpt lat="44.120235" lon="12.1316633"><ele>261.6666666666667</ele><time>2026-05-06T13:03:56.996Z</time></trkpt><trkpt lat="44.1201683" lon="12.13163"><ele>263.83333333333337</ele><time>2026-05-06T13:03:59.996Z</time></trkpt><trkpt lat="44.1200933" lon="12.1316"><ele>266.0</ele><time>2026-05-06T13:04:02.996Z</time></trkpt><trkpt lat="44.1200017" lon="12.1315867"><ele>266.0</ele><time>2026-05-06T13:04:05.996Z</time></trkpt><trkpt lat="44.1199117" lon="12.1315883"><ele>266.0</ele><time>2026-05-06T13:04:08.996Z</time></trkpt><trkpt lat="44.119835" lon="12.1316"><ele>266.0</ele><time>2026-05-06T13:04:11.996Z</time></trkpt><trkpt lat="44.11976" lon="12.1316433"><ele>266.0</ele><time>2026-05-06T13:04:14.996Z</time></trkpt><trkpt lat="44.119685" lon="12.1316533"><ele>266.0</ele><time>2026-05-06T13:04:16.996Z</time></trkpt><trkpt lat="44.1196167" lon="12.1316667"><ele>266.0</ele><time>2026-05-06T13:04:18.996Z</time></trkpt><trkpt lat="44.11955" lon="12.13169"><ele>266.42857142857144</ele><time>2026-05-06T13:04:20.996Z</time></trkpt><trkpt lat="44.119485" lon="12.1317283"><ele>266.8571428571429</ele><time>2026-05-06T13:04:22.997Z</time></trkpt><trkpt lat="44.1194233" lon="12.1317583"><ele>267.2857142857143</ele><time>2026-05-06T13:04:24.996Z</time></trkpt><trkpt lat="44.1193617" lon="12.13178"><ele>267.7142857142857</ele><time>2026-05-06T13:04:26.996Z</time></trkpt><trkpt lat="44.119295" lon="12.13179"><ele>268.14285714285717</ele><time>2026-05-06T13:04:28.996Z</time></trkpt><trkpt lat="44.1192283" lon="12.131805"><ele>268.57142857142856</ele><time>2026-05-06T13:04:30.997Z</time></trkpt><trkpt lat="44.1191583" lon="12.131805"><ele>269.0</ele><time>2026-05-06T13:04:32.996Z</time></trkpt><trkpt lat="44.1190867" lon="12.1317883"><ele>270.2</ele><time>2026-05-06T13:04:34.996Z</time></trkpt><trkpt lat="44.1190067" lon="12.1317217"><ele>271.4</ele><time>2026-05-06T13:04:37.996Z</time></trkpt><trkpt lat="44.11895" lon="12.131655"><ele>272.6</ele><time>2026-05-06T13:04:39.997Z</time></trkpt><trkpt lat="44.1188767" lon="12.1315767"><ele>273.8</ele><time>2026-05-06T13:04:41.997Z</time></trkpt><trkpt lat="44.118805" lon="12.1314917"><ele>275.0</ele><time>2026-05-06T13:04:43.996Z</time></trkpt><trkpt lat="44.118725" lon="12.1313867"><ele>272.6</ele><time>2026-05-06T13:04:45.996Z</time></trkpt><trkpt lat="44.1186383" lon="12.131295"><ele>270.2</ele><time>2026-05-06T13:04:47.996Z</time></trkpt><trkpt lat="44.1185567" lon="12.1312117"><ele>267.8</ele><time>2026-05-06T13:04:49.996Z</time></trkpt><trkpt lat="44.1184783" lon="12.13112"><ele>265.4</ele><time>2026-05-06T13:04:51.996Z</time></trkpt><trkpt lat="44.1183983" lon="12.1310333"><ele>263.0</ele><time>2026-05-06T13:04:53.996Z</time></trkpt><trkpt lat="44.1183217" lon="12.1309317"><ele>263.0</ele><time>2026-05-06T13:04:55.997Z</time></trkpt><trkpt lat="44.1182483" lon="12.1308217"><ele>263.0</ele><time>2026-05-06T13:04:57.997Z</time></trkpt><trkpt lat="44.1181717" lon="12.1307083"><ele>263.0</ele><time>2026-05-06T13:04:59.997Z</time></trkpt><trkpt lat="44.11809" lon="12.1306017"><ele>263.0</ele><time>2026-05-06T13:05:01.997Z</time></trkpt><trkpt lat="44.118005" lon="12.1305033"><ele>263.0</ele><time>2026-05-06T13:05:03.997Z</time></trkpt><trkpt lat="44.117915" lon="12.1304783"><ele>262.33333333333337</ele><time>2026-05-06T13:05:05.997Z</time></trkpt><trkpt lat="44.1178483" lon="12.130555"><ele>261.6666666666667</ele><time>2026-05-06T13:05:07.997Z</time></trkpt><trkpt lat="44.1178267" lon="12.1306533"><ele>261.0</ele><time>2026-05-06T13:05:10.997Z</time></trkpt><trkpt lat="44.1178567" lon="12.1305467"><ele>260.3333333333333</ele><time>2026-05-06T13:05:29.997Z</time></trkpt><trkpt lat="44.1179017" lon="12.1304533"><ele>259.66666666666663</ele><time>2026-05-06T13:05:32.997Z</time></trkpt><trkpt lat="44.1179283" lon="12.130365"><ele>259.0</ele><time>2026-05-06T13:05:36.997Z</time></trkpt><trkpt lat="44.1178533" lon="12.1303733"><ele>259.0</ele><time>2026-05-06T13:05:40.996Z</time></trkpt><trkpt lat="44.1178383" lon="12.130475"><ele>259.0</ele><time>2026-05-06T13:05:43.997Z</time></trkpt><trkpt lat="44.117825" lon="12.1306183"><ele>259.0</ele><time>2026-05-06T13:05:48.996Z</time></trkpt><trkpt lat="44.1178133" lon="12.1307133"><ele>259.0</ele><time>2026-05-06T13:05:51.996Z</time></trkpt><trkpt lat="44.1178117" lon="12.1308183"><ele>259.0</ele><time>2026-05-06T13:05:54.997Z</time></trkpt><trkpt lat="44.1178" lon="12.1309067"><ele>259.0</ele><time>2026-05-06T13:05:57.996Z</time></trkpt><trkpt lat="44.117795" lon="12.1310033"><ele>259.16666666666663</ele><time>2026-05-06T13:06:01.996Z</time></trkpt><trkpt lat="44.1178017" lon="12.1311233"><ele>259.3333333333333</ele><time>2026-05-06T13:06:05.996Z</time></trkpt><trkpt lat="44.1177983" lon="12.1312333"><ele>259.5</ele><time>2026-05-06T13:06:08.997Z</time></trkpt><trkpt lat="44.117795" lon="12.13135"><ele>259.6666666666667</ele><time>2026-05-06T13:06:11.996Z</time></trkpt><trkpt lat="44.1177883" lon="12.1314383"><ele>259.83333333333337</ele><time>2026-05-06T13:06:14.996Z</time></trkpt><trkpt lat="44.117795" lon="12.131545"><ele>260.0</ele><time>2026-05-06T13:06:17.996Z</time></trkpt><trkpt lat="44.117805" lon="12.1316483"><ele>261.33333333333337</ele><time>2026-05-06T13:06:20.996Z</time></trkpt><trkpt lat="44.1178033" lon="12.13175"><ele>262.6666666666667</ele><time>2026-05-06T13:06:23.996Z</time></trkpt><trkpt lat="44.11779" lon="12.1318667"><ele>264.0</ele><time>2026-05-06T13:06:26.996Z</time></trkpt><trkpt lat="44.1177683" lon="12.131995"><ele>265.3333333333333</ele><time>2026-05-06T13:06:29.996Z</time></trkpt><trkpt lat="44.1177433" lon="12.1321083"><ele>266.66666666666663</ele><time>2026-05-06T13:06:32.996Z</time></trkpt><trkpt lat="44.1177" lon="12.13219"><ele>268.0</ele><time>2026-05-06T13:06:35.997Z</time></trkpt><trkpt lat="44.11766" lon="12.13226"><ele>268.0</ele><time>2026-05-06T13:06:37.996Z</time></trkpt><trkpt lat="44.1176183" lon="12.1323317"><ele>268.0</ele><time>2026-05-06T13:06:39.996Z</time></trkpt><trkpt lat="44.1175633" lon="12.1323933"><ele>268.0</ele><time>2026-05-06T13:06:41.997Z</time></trkpt><trkpt lat="44.117495" lon="12.1324683"><ele>268.0</ele><time>2026-05-06T13:06:44.996Z</time></trkpt><trkpt lat="44.1174583" lon="12.1325433"><ele>268.0</ele><time>2026-05-06T13:06:46.996Z</time></trkpt><trkpt lat="44.1174167" lon="12.132615"><ele>268.0</ele><time>2026-05-06T13:06:48.997Z</time></trkpt><trkpt lat="44.11738" lon="12.1326983"><ele>268.0</ele><time>2026-05-06T13:06:50.996Z</time></trkpt><trkpt lat="44.1173483" lon="12.1327833"><ele>268.5</ele><time>2026-05-06T13:06:52.997Z</time></trkpt><trkpt lat="44.11728" lon="12.132875"><ele>269.0</ele><time>2026-05-06T13:06:55.996Z</time></trkpt><trkpt lat="44.1171983" lon="12.1329783"><ele>269.5</ele><time>2026-05-06T13:06:58.997Z</time></trkpt><trkpt lat="44.117155" lon="12.1330667"><ele>270.0</ele><time>2026-05-06T13:07:00.996Z</time></trkpt><trkpt lat="44.1171183" lon="12.1331433"><ele>270.5</ele><time>2026-05-06T13:07:02.997Z</time></trkpt><trkpt lat="44.1170667" lon="12.1332283"><ele>271.0</ele><time>2026-05-06T13:07:05.996Z</time></trkpt><trkpt lat="44.1170117" lon="12.1333333"><ele>271.8333333333333</ele><time>2026-05-06T13:07:08.997Z</time></trkpt><trkpt lat="44.11698" lon="12.133415"><ele>272.66666666666663</ele><time>2026-05-06T13:07:10.997Z</time></trkpt><trkpt lat="44.1169283" lon="12.1335183"><ele>273.5</ele><time>2026-05-06T13:07:13.997Z</time></trkpt><trkpt lat="44.116875" lon="12.1336133"><ele>274.3333333333333</ele><time>2026-05-06T13:07:16.996Z</time></trkpt><trkpt lat="44.116815" lon="12.1337217"><ele>275.1666666666667</ele><time>2026-05-06T13:07:19.997Z</time></trkpt><trkpt lat="44.11677" lon="12.133785"><ele>276.0</ele><time>2026-05-06T13:07:21.996Z</time></trkpt><trkpt lat="44.1167233" lon="12.1338667"><ele>276.0</ele><time>2026-05-06T13:07:23.997Z</time></trkpt><trkpt lat="44.11667" lon="12.1339633"><ele>276.0</ele><time>2026-05-06T13:07:25.996Z</time></trkpt><trkpt lat="44.1166117" lon="12.1340767"><ele>276.0</ele><time>2026-05-06T13:07:27.996Z</time></trkpt><trkpt lat="44.1165467" lon="12.134195"><ele>276.0</ele><time>2026-05-06T13:07:29.997Z</time></trkpt><trkpt lat="44.1165033" lon="12.1342617"><ele>276.0</ele><time>2026-05-06T13:07:30.997Z</time></trkpt><trkpt lat="44.11646" lon="12.1343367"><ele>276.0</ele><time>2026-05-06T13:07:31.997Z</time></trkpt><trkpt lat="44.1164183" lon="12.134405"><ele>274.57142857142856</ele><time>2026-05-06T13:07:32.996Z</time></trkpt><trkpt lat="44.1163717" lon="12.1344733"><ele>273.14285714285717</ele><time>2026-05-06T13:07:33.996Z</time></trkpt><trkpt lat="44.116325" lon="12.134555"><ele>271.7142857142857</ele><time>2026-05-06T13:07:34.996Z</time></trkpt><trkpt lat="44.1162783" lon="12.1346383"><ele>270.2857142857143</ele><time>2026-05-06T13:07:35.997Z</time></trkpt><trkpt lat="44.116235" lon="12.1347167"><ele>268.8571428571429</ele><time>2026-05-06T13:07:36.996Z</time></trkpt><trkpt lat="44.1161967" lon="12.1347917"><ele>267.42857142857144</ele><time>2026-05-06T13:07:37.996Z</time></trkpt><trkpt lat="44.11616" lon="12.1348733"><ele>266.0</ele><time>2026-05-06T13:07:38.997Z</time></trkpt><trkpt lat="44.116125" lon="12.1349633"><ele>266.0</ele><time>2026-05-06T13:07:39.996Z</time></trkpt><trkpt lat="44.1160933" lon="12.13504"><ele>266.0</ele><time>2026-05-06T13:07:40.996Z</time></trkpt><trkpt lat="44.116055" lon="12.1351217"><ele>266.0</ele><time>2026-05-06T13:07:41.996Z</time></trkpt><trkpt lat="44.1160217" lon="12.1352017"><ele>266.0</ele><time>2026-05-06T13:07:42.996Z</time></trkpt><trkpt lat="44.1159933" lon="12.1352917"><ele>266.0</ele><time>2026-05-06T13:07:43.997Z</time></trkpt><trkpt lat="44.11597" lon="12.1353783"><ele>266.0</ele><time>2026-05-06T13:07:44.997Z</time></trkpt><trkpt lat="44.11595" lon="12.1354667"><ele>266.0</ele><time>2026-05-06T13:07:45.997Z</time></trkpt><trkpt lat="44.11594" lon="12.1355583"><ele>266.0</ele><time>2026-05-06T13:07:46.996Z</time></trkpt><trkpt lat="44.1159183" lon="12.1356433"><ele>266.0</ele><time>2026-05-06T13:07:47.997Z</time></trkpt><trkpt lat="44.1158867" lon="12.1357983"><ele>266.0</ele><time>2026-05-06T13:07:49.996Z</time></trkpt><trkpt lat="44.1158683" lon="12.135885"><ele>266.0</ele><time>2026-05-06T13:07:50.996Z</time></trkpt><trkpt lat="44.1158417" lon="12.136045"><ele>266.0</ele><time>2026-05-06T13:07:52.997Z</time></trkpt><trkpt lat="44.1158283" lon="12.1362017"><ele>266.6666666666667</ele><time>2026-05-06T13:07:54.997Z</time></trkpt><trkpt lat="44.1158283" lon="12.1363283"><ele>267.33333333333337</ele><time>2026-05-06T13:07:56.997Z</time></trkpt><trkpt lat="44.1158283" lon="12.136445"><ele>268.0</ele><time>2026-05-06T13:07:58.996Z</time></trkpt><trkpt lat="44.1158283" lon="12.1365433"><ele>268.6666666666667</ele><time>2026-05-06T13:08:00.997Z</time></trkpt><trkpt lat="44.1158583" lon="12.1366883"><ele>269.3333333333333</ele><time>2026-05-06T13:08:03.997Z</time></trkpt><trkpt lat="44.1158733" lon="12.1367933"><ele>270.0</ele><time>2026-05-06T13:08:05.997Z</time></trkpt><trkpt lat="44.1158883" lon="12.1368933"><ele>270.57142857142856</ele><time>2026-05-06T13:08:07.996Z</time></trkpt><trkpt lat="44.1158967" lon="12.1369867"><ele>271.1428571428571</ele><time>2026-05-06T13:08:09.996Z</time></trkpt><trkpt lat="44.1159067" lon="12.1371183"><ele>271.7142857142857</ele><time>2026-05-06T13:08:12.996Z</time></trkpt><trkpt lat="44.1159183" lon="12.1372233"><ele>272.2857142857143</ele><time>2026-05-06T13:08:15.996Z</time></trkpt><trkpt lat="44.11592" lon="12.137315"><ele>272.8571428571429</ele><time>2026-05-06T13:08:18.997Z</time></trkpt><trkpt lat="44.1159283" lon="12.1374117"><ele>273.42857142857144</ele><time>2026-05-06T13:08:21.996Z</time></trkpt><trkpt lat="44.1159367" lon="12.1375083"><ele>274.0</ele><time>2026-05-06T13:08:24.996Z</time></trkpt><trkpt lat="44.115935" lon="12.1376017"><ele>275.00000000000006</ele><time>2026-05-06T13:08:27.997Z</time></trkpt><trkpt lat="44.1159267" lon="12.137705"><ele>276.0</ele><time>2026-05-06T13:08:31.996Z</time></trkpt><trkpt lat="44.1159283" lon="12.1378067"><ele>277.0</ele><time>2026-05-06T13:08:34.997Z</time></trkpt><trkpt lat="44.1159333" lon="12.1379067"><ele>278.0</ele><time>2026-05-06T13:08:37.997Z</time></trkpt><trkpt lat="44.1159283" lon="12.138005"><ele>279.0</ele><time>2026-05-06T13:08:40.996Z</time></trkpt><trkpt lat="44.115935" lon="12.1381017"><ele>280.00000000000006</ele><time>2026-05-06T13:08:43.996Z</time></trkpt><trkpt lat="44.1159333" lon="12.1382133"><ele>281.0</ele><time>2026-05-06T13:08:47.996Z</time></trkpt><trkpt lat="44.11592" lon="12.1383083"><ele>281.5714285714286</ele><time>2026-05-06T13:08:50.996Z</time></trkpt><trkpt lat="44.1159083" lon="12.1384067"><ele>282.14285714285717</ele><time>2026-05-06T13:08:53.996Z</time></trkpt><trkpt lat="44.1158967" lon="12.138495"><ele>282.7142857142857</ele><time>2026-05-06T13:08:56.997Z</time></trkpt><trkpt lat="44.1158617" lon="12.1385933"><ele>283.28571428571433</ele><time>2026-05-06T13:09:00.997Z</time></trkpt><trkpt lat="44.115835" lon="12.1386867"><ele>283.8571428571429</ele><time>2026-05-06T13:09:04.996Z</time></trkpt><trkpt lat="44.1158117" lon="12.1387733"><ele>284.42857142857144</ele><time>2026-05-06T13:09:07.996Z</time></trkpt><trkpt lat="44.115775" lon="12.138865"><ele>285.0</ele><time>2026-05-06T13:09:10.996Z</time></trkpt><trkpt lat="44.1157233" lon="12.138965"><ele>285.0</ele><time>2026-05-06T13:09:13.997Z</time></trkpt><trkpt lat="44.1156883" lon="12.1390383"><ele>285.0</ele><time>2026-05-06T13:09:15.996Z</time></trkpt><trkpt lat="44.11565" lon="12.13911"><ele>285.0</ele><time>2026-05-06T13:09:17.996Z</time></trkpt><trkpt lat="44.1156067" lon="12.1391767"><ele>285.0</ele><time>2026-05-06T13:09:19.996Z</time></trkpt><trkpt lat="44.115555" lon="12.1392417"><ele>285.0</ele><time>2026-05-06T13:09:21.996Z</time></trkpt><trkpt lat="44.1154983" lon="12.1393017"><ele>285.0</ele><time>2026-05-06T13:09:23.997Z</time></trkpt><trkpt lat="44.1154367" lon="12.1393617"><ele>285.0</ele><time>2026-05-06T13:09:25.996Z</time></trkpt><trkpt lat="44.1153633" lon="12.1394267"><ele>285.6</ele><time>2026-05-06T13:09:27.996Z</time></trkpt><trkpt lat="44.1152833" lon="12.1395017"><ele>286.2</ele><time>2026-05-06T13:09:29.996Z</time></trkpt><trkpt lat="44.1152" lon="12.13958"><ele>286.8</ele><time>2026-05-06T13:09:31.997Z</time></trkpt><trkpt lat="44.1151133" lon="12.139665"><ele>287.4</ele><time>2026-05-06T13:09:33.997Z</time></trkpt><trkpt lat="44.1150633" lon="12.1397183"><ele>288.0</ele><time>2026-05-06T13:09:34.997Z</time></trkpt><trkpt lat="44.1149717" lon="12.13982"><ele>284.8</ele><time>2026-05-06T13:09:36.996Z</time></trkpt><trkpt lat="44.1148917" lon="12.1399167"><ele>281.6</ele><time>2026-05-06T13:09:38.996Z</time></trkpt><trkpt lat="44.1148167" lon="12.140035"><ele>278.4</ele><time>2026-05-06T13:09:40.996Z</time></trkpt><trkpt lat="44.1147617" lon="12.140165"><ele>275.2</ele><time>2026-05-06T13:09:42.996Z</time></trkpt><trkpt lat="44.1147217" lon="12.1402817"><ele>272.0</ele><time>2026-05-06T13:09:44.996Z</time></trkpt><trkpt lat="44.1147117" lon="12.1403967"><ele>272.0</ele><time>2026-05-06T13:09:46.996Z</time></trkpt><trkpt lat="44.1147283" lon="12.1405283"><ele>272.0</ele><time>2026-05-06T13:09:48.996Z</time></trkpt><trkpt lat="44.1147467" lon="12.1406533"><ele>272.0</ele><time>2026-05-06T13:09:50.997Z</time></trkpt><trkpt lat="44.1147617" lon="12.1407667"><ele>272.0</ele><time>2026-05-06T13:09:52.996Z</time></trkpt><trkpt lat="44.114775" lon="12.140875"><ele>272.0</ele><time>2026-05-06T13:09:54.996Z</time></trkpt><trkpt lat="44.1147833" lon="12.14098"><ele>272.0</ele><time>2026-05-06T13:09:56.996Z</time></trkpt><trkpt lat="44.114775" lon="12.1410917"><ele>275.33333333333337</ele><time>2026-05-06T13:09:58.997Z</time></trkpt><trkpt lat="44.114755" lon="12.1411833"><ele>278.6666666666667</ele><time>2026-05-06T13:10:00.996Z</time></trkpt><trkpt lat="44.11473" lon="12.1412683"><ele>282.0</ele><time>2026-05-06T13:10:02.997Z</time></trkpt><trkpt lat="44.1146883" lon="12.1413817"><ele>285.3333333333333</ele><time>2026-05-06T13:10:05.996Z</time></trkpt><trkpt lat="44.1146517" lon="12.14149"><ele>288.66666666666663</ele><time>2026-05-06T13:10:08.996Z</time></trkpt><trkpt lat="44.1146367" lon="12.1416017"><ele>292.0</ele><time>2026-05-06T13:10:11.996Z</time></trkpt><trkpt lat="44.1146267" lon="12.1417233"><ele>291.8333333333333</ele><time>2026-05-06T13:10:14.997Z</time></trkpt><trkpt lat="44.11463" lon="12.14184"><ele>291.66666666666663</ele><time>2026-05-06T13:10:17.996Z</time></trkpt><trkpt lat="44.1146333" lon="12.14195"><ele>291.5</ele><time>2026-05-06T13:10:20.997Z</time></trkpt><trkpt lat="44.1146333" lon="12.1420617"><ele>291.3333333333333</ele><time>2026-05-06T13:10:23.996Z</time></trkpt><trkpt lat="44.1146217" lon="12.14219"><ele>291.1666666666667</ele><time>2026-05-06T13:10:26.997Z</time></trkpt><trkpt lat="44.1146167" lon="12.1422867"><ele>291.0</ele><time>2026-05-06T13:10:28.997Z</time></trkpt><trkpt lat="44.1146083" lon="12.1424017"><ele>291.0</ele><time>2026-05-06T13:10:31.996Z</time></trkpt><trkpt lat="44.1145983" lon="12.1425083"><ele>291.0</ele><time>2026-05-06T13:10:34.996Z</time></trkpt><trkpt lat="44.1145867" lon="12.1426233"><ele>291.0</ele><time>2026-05-06T13:10:37.996Z</time></trkpt><trkpt lat="44.1145717" lon="12.1427433"><ele>291.0</ele><time>2026-05-06T13:10:40.996Z</time></trkpt><trkpt lat="44.1145583" lon="12.142855"><ele>291.0</ele><time>2026-05-06T13:10:43.996Z</time></trkpt><trkpt lat="44.1145483" lon="12.1429717"><ele>291.0</ele><time>2026-05-06T13:10:46.997Z</time></trkpt><trkpt lat="44.11454" lon="12.1430983"><ele>291.8333333333333</ele><time>2026-05-06T13:10:49.996Z</time></trkpt><trkpt lat="44.1145283" lon="12.1432283"><ele>292.6666666666667</ele><time>2026-05-06T13:10:52.996Z</time></trkpt><trkpt lat="44.11451" lon="12.14335"><ele>293.5</ele><time>2026-05-06T13:10:55.996Z</time></trkpt><trkpt lat="44.1144817" lon="12.14347"><ele>294.33333333333337</ele><time>2026-05-06T13:10:58.997Z</time></trkpt><trkpt lat="44.1144617" lon="12.1435683"><ele>295.1666666666667</ele><time>2026-05-06T13:11:00.996Z</time></trkpt><trkpt lat="44.1144483" lon="12.1436983"><ele>296.0</ele><time>2026-05-06T13:11:02.996Z</time></trkpt><trkpt lat="44.1144833" lon="12.1438567"><ele>296.0</ele><time>2026-05-06T13:11:04.996Z</time></trkpt><trkpt lat="44.1145267" lon="12.1439333"><ele>296.0</ele><time>2026-05-06T13:11:05.996Z</time></trkpt><trkpt lat="44.1145817" lon="12.144005"><ele>296.0</ele><time>2026-05-06T13:11:06.997Z</time></trkpt><trkpt lat="44.1146383" lon="12.1440767"><ele>296.0</ele><time>2026-05-06T13:11:07.996Z</time></trkpt><trkpt lat="44.1147133" lon="12.1441367"><ele>296.0</ele><time>2026-05-06T13:11:08.996Z</time></trkpt><trkpt lat="44.1147883" lon="12.1441933"><ele>296.0</ele><time>2026-05-06T13:11:09.997Z</time></trkpt><trkpt lat="44.114865" lon="12.1442483"><ele>296.5</ele><time>2026-05-06T13:11:10.996Z</time></trkpt><trkpt lat="44.1149467" lon="12.1442983"><ele>297.0</ele><time>2026-05-06T13:11:11.996Z</time></trkpt><trkpt lat="44.1150283" lon="12.1443383"><ele>297.5</ele><time>2026-05-06T13:11:12.996Z</time></trkpt><trkpt lat="44.1150983" lon="12.1443967"><ele>298.0</ele><time>2026-05-06T13:11:13.996Z</time></trkpt><trkpt lat="44.1151683" lon="12.1444583"><ele>298.5</ele><time>2026-05-06T13:11:14.997Z</time></trkpt><trkpt lat="44.1152317" lon="12.1445517"><ele>299.0</ele><time>2026-05-06T13:11:15.997Z</time></trkpt><trkpt lat="44.1152917" lon="12.1446467"><ele>299.0</ele><time>2026-05-06T13:11:16.996Z</time></trkpt><trkpt lat="44.11533" lon="12.144745"><ele>299.0</ele><time>2026-05-06T13:11:17.996Z</time></trkpt><trkpt lat="44.1153617" lon="12.1448567"><ele>299.0</ele><time>2026-05-06T13:11:18.996Z</time></trkpt><trkpt lat="44.1153767" lon="12.1449683"><ele>299.0</ele><time>2026-05-06T13:11:19.997Z</time></trkpt><trkpt lat="44.1153967" lon="12.145095"><ele>299.0</ele><time>2026-05-06T13:11:20.997Z</time></trkpt><trkpt lat="44.1154167" lon="12.145215"><ele>299.0</ele><time>2026-05-06T13:11:21.997Z</time></trkpt><trkpt lat="44.11543" lon="12.1453433"><ele>295.8</ele><time>2026-05-06T13:11:22.997Z</time></trkpt><trkpt lat="44.1154433" lon="12.1454783"><ele>292.59999999999997</ele><time>2026-05-06T13:11:23.996Z</time></trkpt><trkpt lat="44.1154683" lon="12.1456133"><ele>289.4</ele><time>2026-05-06T13:11:24.997Z</time></trkpt><trkpt lat="44.1155" lon="12.145745"><ele>286.2</ele><time>2026-05-06T13:11:25.997Z</time></trkpt><trkpt lat="44.1155267" lon="12.1458633"><ele>283.0</ele><time>2026-05-06T13:11:26.997Z</time></trkpt><trkpt lat="44.11556" lon="12.14597"><ele>284.2</ele><time>2026-05-06T13:11:27.996Z</time></trkpt><trkpt lat="44.1155917" lon="12.1460767"><ele>285.4</ele><time>2026-05-06T13:11:28.997Z</time></trkpt><trkpt lat="44.115625" lon="12.1461617"><ele>286.59999999999997</ele><time>2026-05-06T13:11:29.997Z</time></trkpt><trkpt lat="44.1156633" lon="12.1462383"><ele>287.8</ele><time>2026-05-06T13:11:30.996Z</time></trkpt><trkpt lat="44.115735" lon="12.146365"><ele>289.0</ele><time>2026-05-06T13:11:32.996Z</time></trkpt><trkpt lat="44.1157783" lon="12.146515"><ele>288.3333333333333</ele><time>2026-05-06T13:11:34.997Z</time></trkpt><trkpt lat="44.1157733" lon="12.146665"><ele>287.66666666666663</ele><time>2026-05-06T13:11:36.997Z</time></trkpt><trkpt lat="44.1157717" lon="12.1467933"><ele>287.0</ele><time>2026-05-06T13:11:38.997Z</time></trkpt><trkpt lat="44.1157783" lon="12.14691"><ele>286.3333333333333</ele><time>2026-05-06T13:11:40.997Z</time></trkpt><trkpt lat="44.1157733" lon="12.1470017"><ele>285.6666666666667</ele><time>2026-05-06T13:11:42.996Z</time></trkpt><trkpt lat="44.1157733" lon="12.1470933"><ele>285.0</ele><time>2026-05-06T13:11:44.996Z</time></trkpt><trkpt lat="44.1157883" lon="12.1472133"><ele>285.0</ele><time>2026-05-06T13:11:46.997Z</time></trkpt><trkpt lat="44.115805" lon="12.14733"><ele>285.0</ele><time>2026-05-06T13:11:48.996Z</time></trkpt><trkpt lat="44.1158317" lon="12.1474517"><ele>285.0</ele><time>2026-05-06T13:11:50.996Z</time></trkpt><trkpt lat="44.115855" lon="12.1475583"><ele>285.0</ele><time>2026-05-06T13:11:52.996Z</time></trkpt><trkpt lat="44.1158733" lon="12.147655"><ele>285.0</ele><time>2026-05-06T13:11:54.996Z</time></trkpt><trkpt lat="44.1158933" lon="12.1477517"><ele>285.0</ele><time>2026-05-06T13:11:56.997Z</time></trkpt><trkpt lat="44.1159" lon="12.1478633"><ele>285.0</ele><time>2026-05-06T13:11:58.996Z</time></trkpt><trkpt lat="44.11591" lon="12.14797"><ele>285.0</ele><time>2026-05-06T13:12:00.996Z</time></trkpt><trkpt lat="44.1159217" lon="12.14808"><ele>285.0</ele><time>2026-05-06T13:12:02.996Z</time></trkpt><trkpt lat="44.1159367" lon="12.14818"><ele>285.0</ele><time>2026-05-06T13:12:04.996Z</time></trkpt><trkpt lat="44.11595" lon="12.1482817"><ele>285.0</ele><time>2026-05-06T13:12:06.996Z</time></trkpt><trkpt lat="44.115955" lon="12.1483867"><ele>285.0</ele><time>2026-05-06T13:12:08.997Z</time></trkpt><trkpt lat="44.1159633" lon="12.148495"><ele>285.0</ele><time>2026-05-06T13:12:10.997Z</time></trkpt><trkpt lat="44.1159717" lon="12.1485917"><ele>285.0</ele><time>2026-05-06T13:12:12.996Z</time></trkpt><trkpt lat="44.1159733" lon="12.1486833"><ele>285.0</ele><time>2026-05-06T13:12:14.996Z</time></trkpt><trkpt lat="44.11596" lon="12.14877"><ele>285.0</ele><time>2026-05-06T13:12:16.997Z</time></trkpt><trkpt lat="44.1159367" lon="12.1488567"><ele>285.0</ele><time>2026-05-06T13:12:18.996Z</time></trkpt><trkpt lat="44.1159" lon="12.1489483"><ele>285.0</ele><time>2026-05-06T13:12:20.996Z</time></trkpt><trkpt lat="44.115865" lon="12.1490217"><ele>285.0</ele><time>2026-05-06T13:12:22.996Z</time></trkpt><trkpt lat="44.1158267" lon="12.1490983"><ele>284.3333333333333</ele><time>2026-05-06T13:12:24.996Z</time></trkpt><trkpt lat="44.1157683" lon="12.1491917"><ele>283.6666666666667</ele><time>2026-05-06T13:12:27.996Z</time></trkpt><trkpt lat="44.1157133" lon="12.1492833"><ele>283.0</ele><time>2026-05-06T13:12:30.997Z</time></trkpt><trkpt lat="44.1156783" lon="12.14938"><ele>282.33333333333337</ele><time>2026-05-06T13:12:33.997Z</time></trkpt><trkpt lat="44.1156217" lon="12.1494633"><ele>281.6666666666667</ele><time>2026-05-06T13:12:36.996Z</time></trkpt><trkpt lat="44.115575" lon="12.1495433"><ele>281.0</ele><time>2026-05-06T13:12:39.997Z</time></trkpt><trkpt lat="44.11554" lon="12.1496267"><ele>281.0</ele><time>2026-05-06T13:12:42.996Z</time></trkpt><trkpt lat="44.1155" lon="12.14972"><ele>281.0</ele><time>2026-05-06T13:12:45.997Z</time></trkpt><trkpt lat="44.1154567" lon="12.1498167"><ele>281.0</ele><time>2026-05-06T13:12:48.997Z</time></trkpt><trkpt lat="44.11542" lon="12.14991"><ele>281.0</ele><time>2026-05-06T13:12:51.996Z</time></trkpt><trkpt lat="44.1153783" lon="12.1500067"><ele>281.0</ele><time>2026-05-06T13:12:54.997Z</time></trkpt><trkpt lat="44.1153317" lon="12.15011"><ele>281.0</ele><time>2026-05-06T13:12:57.997Z</time></trkpt><trkpt lat="44.1152817" lon="12.1502167"><ele>282.83333333333337</ele><time>2026-05-06T13:13:00.996Z</time></trkpt><trkpt lat="44.1152317" lon="12.1503217"><ele>284.6666666666667</ele><time>2026-05-06T13:13:03.996Z</time></trkpt><trkpt lat="44.1151767" lon="12.1504217"><ele>286.5</ele><time>2026-05-06T13:13:06.997Z</time></trkpt><trkpt lat="44.115115" lon="12.1505117"><ele>288.3333333333333</ele><time>2026-05-06T13:13:09.997Z</time></trkpt><trkpt lat="44.1150583" lon="12.15059"><ele>290.16666666666663</ele><time>2026-05-06T13:13:12.996Z</time></trkpt><trkpt lat="44.1149983" lon="12.150665"><ele>292.0</ele><time>2026-05-06T13:13:15.996Z</time></trkpt><trkpt lat="44.1149383" lon="12.15074"><ele>290.5</ele><time>2026-05-06T13:13:18.997Z</time></trkpt><trkpt lat="44.1148767" lon="12.150825"><ele>289.0</ele><time>2026-05-06T13:13:21.996Z</time></trkpt><trkpt lat="44.114835" lon="12.1508933"><ele>287.5</ele><time>2026-05-06T13:13:23.996Z</time></trkpt><trkpt lat="44.1147717" lon="12.1509783"><ele>286.0</ele><time>2026-05-06T13:13:26.996Z</time></trkpt><trkpt lat="44.1147017" lon="12.1510533"><ele>284.5</ele><time>2026-05-06T13:13:29.997Z</time></trkpt><trkpt lat="44.11464" lon="12.151135"><ele>283.0</ele><time>2026-05-06T13:13:32.996Z</time></trkpt><trkpt lat="44.1145833" lon="12.15123"><ele>283.0</ele><time>2026-05-06T13:13:35.997Z</time></trkpt><trkpt lat="44.1145367" lon="12.1512983"><ele>283.0</ele><time>2026-05-06T13:13:37.997Z</time></trkpt><trkpt lat="44.1144833" lon="12.151375"><ele>283.0</ele><time>2026-05-06T13:13:39.996Z</time></trkpt><trkpt lat="44.1144233" lon="12.1514533"><ele>283.0</ele><time>2026-05-06T13:13:41.996Z</time></trkpt><trkpt lat="44.11436" lon="12.15155"><ele>283.0</ele><time>2026-05-06T13:13:43.996Z</time></trkpt><trkpt lat="44.1143" lon="12.1516583"><ele>283.0</ele><time>2026-05-06T13:13:45.997Z</time></trkpt><trkpt lat="44.1142333" lon="12.1517533"><ele>285.8</ele><time>2026-05-06T13:13:47.997Z</time></trkpt><trkpt lat="44.1141633" lon="12.151855"><ele>288.6</ele><time>2026-05-06T13:13:49.997Z</time></trkpt><trkpt lat="44.1141067" lon="12.151975"><ele>291.4</ele><time>2026-05-06T13:13:51.996Z</time></trkpt><trkpt lat="44.1140767" lon="12.152125"><ele>294.2</ele><time>2026-05-06T13:13:53.996Z</time></trkpt><trkpt lat="44.1140933" lon="12.15229"><ele>297.0</ele><time>2026-05-06T13:13:55.997Z</time></trkpt><trkpt lat="44.11411" lon="12.152375"><ele>297.1666666666667</ele><time>2026-05-06T13:13:56.996Z</time></trkpt><trkpt lat="44.1141433" lon="12.1525433"><ele>297.3333333333333</ele><time>2026-05-06T13:13:58.996Z</time></trkpt><trkpt lat="44.1141683" lon="12.15263"><ele>297.5</ele><time>2026-05-06T13:13:59.996Z</time></trkpt><trkpt lat="44.1142017" lon="12.152715"><ele>297.66666666666663</ele><time>2026-05-06T13:14:00.996Z</time></trkpt><trkpt lat="44.11424" lon="12.1528117"><ele>297.8333333333333</ele><time>2026-05-06T13:14:01.997Z</time></trkpt><trkpt lat="44.114285" lon="12.1529"><ele>298.0</ele><time>2026-05-06T13:14:02.996Z</time></trkpt><trkpt lat="44.1143367" lon="12.1529867"><ele>298.0</ele><time>2026-05-06T13:14:03.997Z</time></trkpt><trkpt lat="44.1144" lon="12.15306"><ele>298.0</ele><time>2026-05-06T13:14:04.996Z</time></trkpt><trkpt lat="44.1144667" lon="12.1531333"><ele>298.0</ele><time>2026-05-06T13:14:05.996Z</time></trkpt><trkpt lat="44.1145417" lon="12.1531917"><ele>298.0</ele><time>2026-05-06T13:14:06.997Z</time></trkpt><trkpt lat="44.11463" lon="12.15323"><ele>298.0</ele><time>2026-05-06T13:14:07.997Z</time></trkpt><trkpt lat="44.1147167" lon="12.1532617"><ele>298.0</ele><time>2026-05-06T13:14:08.996Z</time></trkpt><trkpt lat="44.1148033" lon="12.1532867"><ele>296.6</ele><time>2026-05-06T13:14:09.997Z</time></trkpt><trkpt lat="44.114895" lon="12.153355"><ele>295.20000000000005</ele><time>2026-05-06T13:14:10.996Z</time></trkpt><trkpt lat="44.1149817" lon="12.1534283"><ele>293.8</ele><time>2026-05-06T13:14:11.996Z</time></trkpt><trkpt lat="44.1150667" lon="12.1534967"><ele>292.40000000000003</ele><time>2026-05-06T13:14:12.996Z</time></trkpt><trkpt lat="44.1151467" lon="12.1535633"><ele>291.0</ele><time>2026-05-06T13:14:13.997Z</time></trkpt><trkpt lat="44.1152233" lon="12.1536383"><ele>291.0</ele><time>2026-05-06T13:14:14.996Z</time></trkpt><trkpt lat="44.1152983" lon="12.1537117"><ele>291.0</ele><time>2026-05-06T13:14:15.996Z</time></trkpt><trkpt lat="44.1153683" lon="12.1537917"><ele>291.0</ele><time>2026-05-06T13:14:16.997Z</time></trkpt><trkpt lat="44.1154317" lon="12.15387"><ele>291.0</ele><time>2026-05-06T13:14:17.997Z</time></trkpt><trkpt lat="44.1154867" lon="12.153945"><ele>291.0</ele><time>2026-05-06T13:14:18.997Z</time></trkpt><trkpt lat="44.1155283" lon="12.154025"><ele>291.0</ele><time>2026-05-06T13:14:19.996Z</time></trkpt><trkpt lat="44.1155733" lon="12.154175"><ele>287.40000000000003</ele><time>2026-05-06T13:14:21.996Z</time></trkpt><trkpt lat="44.115585" lon="12.15434"><ele>283.8</ele><time>2026-05-06T13:14:23.997Z</time></trkpt><trkpt lat="44.115525" lon="12.154475"><ele>280.20000000000005</ele><time>2026-05-06T13:14:25.996Z</time></trkpt><trkpt lat="44.1154733" lon="12.1545483"><ele>276.6</ele><time>2026-05-06T13:14:26.997Z</time></trkpt><trkpt lat="44.1154117" lon="12.1546267"><ele>273.0</ele><time>2026-05-06T13:14:27.997Z</time></trkpt><trkpt lat="44.115345" lon="12.1547033"><ele>273.0</ele><time>2026-05-06T13:14:28.996Z</time></trkpt><trkpt lat="44.115275" lon="12.1547767"><ele>273.0</ele><time>2026-05-06T13:14:29.996Z</time></trkpt><trkpt lat="44.11519" lon="12.1548567"><ele>273.0</ele><time>2026-05-06T13:14:30.996Z</time></trkpt><trkpt lat="44.115105" lon="12.1549417"><ele>273.0</ele><time>2026-05-06T13:14:31.997Z</time></trkpt><trkpt lat="44.115015" lon="12.1550133"><ele>273.0</ele><time>2026-05-06T13:14:32.996Z</time></trkpt><trkpt lat="44.11493" lon="12.1550867"><ele>267.2</ele><time>2026-05-06T13:14:33.996Z</time></trkpt><trkpt lat="44.1148433" lon="12.1551617"><ele>261.4</ele><time>2026-05-06T13:14:34.997Z</time></trkpt><trkpt lat="44.1147767" lon="12.1552383"><ele>255.59999999999997</ele><time>2026-05-06T13:14:35.997Z</time></trkpt><trkpt lat="44.1147267" lon="12.1553383"><ele>249.79999999999998</ele><time>2026-05-06T13:14:36.997Z</time></trkpt><trkpt lat="44.1146933" lon="12.15546"><ele>244.0</ele><time>2026-05-06T13:14:37.996Z</time></trkpt><trkpt lat="44.1146717" lon="12.1555933"><ele>245.33333333333331</ele><time>2026-05-06T13:14:38.996Z</time></trkpt><trkpt lat="44.1146467" lon="12.15572"><ele>246.66666666666666</ele><time>2026-05-06T13:14:39.997Z</time></trkpt><trkpt lat="44.1146167" lon="12.1558317"><ele>248.0</ele><time>2026-05-06T13:14:40.996Z</time></trkpt><trkpt lat="44.1145683" lon="12.1559283"><ele>249.33333333333331</ele><time>2026-05-06T13:14:41.996Z</time></trkpt><trkpt lat="44.1145133" lon="12.1560133"><ele>250.66666666666666</ele><time>2026-05-06T13:14:42.996Z</time></trkpt><trkpt lat="44.1144517" lon="12.1560883"><ele>252.0</ele><time>2026-05-06T13:14:43.996Z</time></trkpt><trkpt lat="44.1144" lon="12.1561483"><ele>252.0</ele><time>2026-05-06T13:14:44.997Z</time></trkpt><trkpt lat="44.1143467" lon="12.1562"><ele>252.0</ele><time>2026-05-06T13:14:45.996Z</time></trkpt><trkpt lat="44.11429" lon="12.1562417"><ele>252.0</ele><time>2026-05-06T13:14:46.996Z</time></trkpt><trkpt lat="44.11422" lon="12.1562817"><ele>252.0</ele><time>2026-05-06T13:14:47.997Z</time></trkpt><trkpt lat="44.114145" lon="12.1563283"><ele>252.0</ele><time>2026-05-06T13:14:48.996Z</time></trkpt><trkpt lat="44.114075" lon="12.1563767"><ele>252.0</ele><time>2026-05-06T13:14:49.997Z</time></trkpt><trkpt lat="44.114015" lon="12.156425"><ele>252.0</ele><time>2026-05-06T13:14:50.997Z</time></trkpt><trkpt lat="44.1139667" lon="12.1564867"><ele>249.0</ele><time>2026-05-06T13:14:51.996Z</time></trkpt><trkpt lat="44.1139283" lon="12.1565667"><ele>246.0</ele><time>2026-05-06T13:14:52.997Z</time></trkpt><trkpt lat="44.11391" lon="12.1566667"><ele>243.0</ele><time>2026-05-06T13:14:53.997Z</time></trkpt><trkpt lat="44.1139117" lon="12.1567717"><ele>240.0</ele><time>2026-05-06T13:14:54.996Z</time></trkpt><trkpt lat="44.113945" lon="12.156875"><ele>237.0</ele><time>2026-05-06T13:14:55.996Z</time></trkpt><trkpt lat="44.113985" lon="12.1569817"><ele>234.0</ele><time>2026-05-06T13:14:56.996Z</time></trkpt><trkpt lat="44.11403" lon="12.1570817"><ele>236.16666666666666</ele><time>2026-05-06T13:14:57.996Z</time></trkpt><trkpt lat="44.1140767" lon="12.1571817"><ele>238.33333333333331</ele><time>2026-05-06T13:14:58.996Z</time></trkpt><trkpt lat="44.1141233" lon="12.1572767"><ele>240.5</ele><time>2026-05-06T13:14:59.996Z</time></trkpt><trkpt lat="44.1141733" lon="12.15738"><ele>242.66666666666666</ele><time>2026-05-06T13:15:00.996Z</time></trkpt><trkpt lat="44.1142167" lon="12.1574867"><ele>244.83333333333331</ele><time>2026-05-06T13:15:01.996Z</time></trkpt><trkpt lat="44.1142583" lon="12.1575933"><ele>247.0</ele><time>2026-05-06T13:15:02.996Z</time></trkpt><trkpt lat="44.1143017" lon="12.1577"><ele>246.99999999999997</ele><time>2026-05-06T13:15:03.996Z</time></trkpt><trkpt lat="44.1143517" lon="12.1578"><ele>247.0</ele><time>2026-05-06T13:15:04.996Z</time></trkpt><trkpt lat="44.1143883" lon="12.157905"><ele>247.0</ele><time>2026-05-06T13:15:05.996Z</time></trkpt><trkpt lat="44.1144167" lon="12.1579983"><ele>247.0</ele><time>2026-05-06T13:15:06.996Z</time></trkpt><trkpt lat="44.1144367" lon="12.1581"><ele>246.99999999999997</ele><time>2026-05-06T13:15:07.997Z</time></trkpt><trkpt lat="44.1144517" lon="12.158215"><ele>247.0</ele><time>2026-05-06T13:15:08.996Z</time></trkpt><trkpt lat="44.1144567" lon="12.1583267"><ele>245.16666666666666</ele><time>2026-05-06T13:15:09.996Z</time></trkpt><trkpt lat="44.1144517" lon="12.158435"><ele>243.33333333333331</ele><time>2026-05-06T13:15:10.997Z</time></trkpt><trkpt lat="44.1144267" lon="12.1585383"><ele>241.5</ele><time>2026-05-06T13:15:11.996Z</time></trkpt><trkpt lat="44.114395" lon="12.1586367"><ele>239.66666666666669</ele><time>2026-05-06T13:15:12.997Z</time></trkpt><trkpt lat="44.1143583" lon="12.1587433"><ele>237.83333333333334</ele><time>2026-05-06T13:15:13.996Z</time></trkpt><trkpt lat="44.1143183" lon="12.158855"><ele>236.0</ele><time>2026-05-06T13:15:14.996Z</time></trkpt><trkpt lat="44.11428" lon="12.158965"><ele>236.0</ele><time>2026-05-06T13:15:15.997Z</time></trkpt><trkpt lat="44.11424" lon="12.1590733"><ele>236.00000000000003</ele><time>2026-05-06T13:15:16.997Z</time></trkpt><trkpt lat="44.1141967" lon="12.1591917"><ele>236.00000000000003</ele><time>2026-05-06T13:15:17.996Z</time></trkpt><trkpt lat="44.1141583" lon="12.159305"><ele>236.0</ele><time>2026-05-06T13:15:18.996Z</time></trkpt><trkpt lat="44.1141217" lon="12.1594183"><ele>236.0</ele><time>2026-05-06T13:15:19.996Z</time></trkpt><trkpt lat="44.1140833" lon="12.1595317"><ele>236.20000000000002</ele><time>2026-05-06T13:15:20.996Z</time></trkpt><trkpt lat="44.11403" lon="12.1596533"><ele>236.40000000000003</ele><time>2026-05-06T13:15:21.996Z</time></trkpt><trkpt lat="44.11398" lon="12.1597817"><ele>236.6</ele><time>2026-05-06T13:15:22.997Z</time></trkpt><trkpt lat="44.1139383" lon="12.159915"><ele>236.8</ele><time>2026-05-06T13:15:23.997Z</time></trkpt><trkpt lat="44.1139083" lon="12.160045"><ele>237.0</ele><time>2026-05-06T13:15:24.996Z</time></trkpt><trkpt lat="44.1138817" lon="12.1601733"><ele>237.0</ele><time>2026-05-06T13:15:25.996Z</time></trkpt><trkpt lat="44.113855" lon="12.1603"><ele>237.0</ele><time>2026-05-06T13:15:26.996Z</time></trkpt><trkpt lat="44.11383" lon="12.1604233"><ele>237.0</ele><time>2026-05-06T13:15:27.997Z</time></trkpt><trkpt lat="44.1137967" lon="12.1605617"><ele>237.0</ele><time>2026-05-06T13:15:28.997Z</time></trkpt><trkpt lat="44.1137683" lon="12.1607017"><ele>237.0</ele><time>2026-05-06T13:15:29.996Z</time></trkpt><trkpt lat="44.113745" lon="12.1608467"><ele>235.39999999999998</ele><time>2026-05-06T13:15:30.996Z</time></trkpt><trkpt lat="44.1137283" lon="12.160985"><ele>233.79999999999998</ele><time>2026-05-06T13:15:31.996Z</time></trkpt><trkpt lat="44.1137083" lon="12.1611183"><ele>232.2</ele><time>2026-05-06T13:15:32.996Z</time></trkpt><trkpt lat="44.1136967" lon="12.1612383"><ele>230.6</ele><time>2026-05-06T13:15:33.996Z</time></trkpt><trkpt lat="44.11369" lon="12.161365"><ele>229.0</ele><time>2026-05-06T13:15:34.996Z</time></trkpt><trkpt lat="44.1136683" lon="12.1614967"><ele>227.79999999999998</ele><time>2026-05-06T13:15:35.996Z</time></trkpt><trkpt lat="44.1136333" lon="12.1616317"><ele>226.59999999999997</ele><time>2026-05-06T13:15:36.996Z</time></trkpt><trkpt lat="44.1135933" lon="12.16176"><ele>225.4</ele><time>2026-05-06T13:15:37.997Z</time></trkpt><trkpt lat="44.1135417" lon="12.16187"><ele>224.2</ele><time>2026-05-06T13:15:38.996Z</time></trkpt><trkpt lat="44.1134867" lon="12.16196"><ele>223.0</ele><time>2026-05-06T13:15:39.996Z</time></trkpt><trkpt lat="44.1134267" lon="12.162035"><ele>222.99999999999997</ele><time>2026-05-06T13:15:40.997Z</time></trkpt><trkpt lat="44.11336" lon="12.1621183"><ele>223.0</ele><time>2026-05-06T13:15:41.997Z</time></trkpt><trkpt lat="44.113295" lon="12.162185"><ele>223.0</ele><time>2026-05-06T13:15:42.997Z</time></trkpt><trkpt lat="44.11323" lon="12.1622417"><ele>223.0</ele><time>2026-05-06T13:15:43.996Z</time></trkpt><trkpt lat="44.1131617" lon="12.1622917"><ele>222.99999999999997</ele><time>2026-05-06T13:15:44.996Z</time></trkpt><trkpt lat="44.1131" lon="12.1623217"><ele>223.0</ele><time>2026-05-06T13:15:45.996Z</time></trkpt><trkpt lat="44.11299" lon="12.1623933"><ele>222.2</ele><time>2026-05-06T13:15:47.996Z</time></trkpt><trkpt lat="44.1128883" lon="12.1624433"><ele>221.4</ele><time>2026-05-06T13:15:49.996Z</time></trkpt><trkpt lat="44.112795" lon="12.1625067"><ele>220.59999999999997</ele><time>2026-05-06T13:15:51.996Z</time></trkpt><trkpt lat="44.1127067" lon="12.1625917"><ele>219.79999999999998</ele><time>2026-05-06T13:15:53.997Z</time></trkpt><trkpt lat="44.1126383" lon="12.1626833"><ele>219.0</ele><time>2026-05-06T13:15:55.996Z</time></trkpt><trkpt lat="44.1125717" lon="12.1627817"><ele>219.0</ele><time>2026-05-06T13:15:57.996Z</time></trkpt><trkpt lat="44.1125133" lon="12.1629"><ele>219.0</ele><time>2026-05-06T13:15:59.997Z</time></trkpt><trkpt lat="44.1124767" lon="12.1630567"><ele>219.0</ele><time>2026-05-06T13:16:01.996Z</time></trkpt><trkpt lat="44.1124733" lon="12.163145"><ele>219.0</ele><time>2026-05-06T13:16:02.996Z</time></trkpt><trkpt lat="44.1124867" lon="12.1632333"><ele>219.0</ele><time>2026-05-06T13:16:03.997Z</time></trkpt><trkpt lat="44.11252" lon="12.1633167"><ele>219.0</ele><time>2026-05-06T13:16:04.997Z</time></trkpt><trkpt lat="44.1125533" lon="12.163405"><ele>219.16666666666666</ele><time>2026-05-06T13:16:05.996Z</time></trkpt><trkpt lat="44.1125983" lon="12.1634933"><ele>219.33333333333331</ele><time>2026-05-06T13:16:06.997Z</time></trkpt><trkpt lat="44.1126433" lon="12.1635783"><ele>219.5</ele><time>2026-05-06T13:16:07.996Z</time></trkpt><trkpt lat="44.112695" lon="12.16366"><ele>219.66666666666666</ele><time>2026-05-06T13:16:08.997Z</time></trkpt><trkpt lat="44.1127467" lon="12.16374"><ele>219.83333333333331</ele><time>2026-05-06T13:16:09.996Z</time></trkpt><trkpt lat="44.1128033" lon="12.163815"><ele>220.0</ele><time>2026-05-06T13:16:10.997Z</time></trkpt><trkpt lat="44.1128633" lon="12.1638867"><ele>219.99999999999997</ele><time>2026-05-06T13:16:11.996Z</time></trkpt><trkpt lat="44.1129283" lon="12.1639517"><ele>220.0</ele><time>2026-05-06T13:16:12.996Z</time></trkpt><trkpt lat="44.1129967" lon="12.1640133"><ele>220.0</ele><time>2026-05-06T13:16:13.996Z</time></trkpt><trkpt lat="44.1130633" lon="12.1640783"><ele>220.0</ele><time>2026-05-06T13:16:14.996Z</time></trkpt><trkpt lat="44.11313" lon="12.1641417"><ele>219.99999999999997</ele><time>2026-05-06T13:16:15.996Z</time></trkpt><trkpt lat="44.113195" lon="12.1642117"><ele>220.0</ele><time>2026-05-06T13:16:16.996Z</time></trkpt><trkpt lat="44.1132617" lon="12.164285"><ele>219.99999999999997</ele><time>2026-05-06T13:16:17.996Z</time></trkpt><trkpt lat="44.1133183" lon="12.1643717"><ele>220.0</ele><time>2026-05-06T13:16:18.997Z</time></trkpt><trkpt lat="44.1133633" lon="12.1644717"><ele>220.0</ele><time>2026-05-06T13:16:19.996Z</time></trkpt><trkpt lat="44.1133967" lon="12.1645683"><ele>220.0</ele><time>2026-05-06T13:16:20.996Z</time></trkpt><trkpt lat="44.1134083" lon="12.1646733"><ele>219.99999999999997</ele><time>2026-05-06T13:16:21.997Z</time></trkpt><trkpt lat="44.1134083" lon="12.1647733"><ele>220.0</ele><time>2026-05-06T13:16:22.996Z</time></trkpt><trkpt lat="44.11339" lon="12.1648733"><ele>219.99999999999997</ele><time>2026-05-06T13:16:23.996Z</time></trkpt><trkpt lat="44.113365" lon="12.1649683"><ele>220.0</ele><time>2026-05-06T13:16:24.996Z</time></trkpt><trkpt lat="44.1133267" lon="12.16506"><ele>220.0</ele><time>2026-05-06T13:16:25.997Z</time></trkpt><trkpt lat="44.1132733" lon="12.1651433"><ele>220.0</ele><time>2026-05-06T13:16:26.996Z</time></trkpt><trkpt lat="44.11322" lon="12.1652167"><ele>220.0</ele><time>2026-05-06T13:16:27.997Z</time></trkpt><trkpt lat="44.113165" lon="12.165285"><ele>219.99999999999997</ele><time>2026-05-06T13:16:28.996Z</time></trkpt><trkpt lat="44.1131133" lon="12.165345"><ele>220.0</ele><time>2026-05-06T13:16:29.996Z</time></trkpt><trkpt lat="44.1130583" lon="12.1653967"><ele>219.16666666666666</ele><time>2026-05-06T13:16:30.997Z</time></trkpt><trkpt lat="44.1129983" lon="12.1654483"><ele>218.33333333333331</ele><time>2026-05-06T13:16:31.996Z</time></trkpt><trkpt lat="44.1129417" lon="12.1655017"><ele>217.5</ele><time>2026-05-06T13:16:32.996Z</time></trkpt><trkpt lat="44.1128817" lon="12.1655483"><ele>216.66666666666669</ele><time>2026-05-06T13:16:33.998Z</time></trkpt><trkpt lat="44.1128267" lon="12.165595"><ele>215.83333333333334</ele><time>2026-05-06T13:16:34.998Z</time></trkpt><trkpt lat="44.112735" lon="12.1657067"><ele>215.0</ele><time>2026-05-06T13:16:36.997Z</time></trkpt><trkpt lat="44.1126833" lon="12.1658617"><ele>215.00000000000003</ele><time>2026-05-06T13:16:38.997Z</time></trkpt><trkpt lat="44.112665" lon="12.16595"><ele>215.0</ele><time>2026-05-06T13:16:39.997Z</time></trkpt><trkpt lat="44.1126633" lon="12.166045"><ele>215.0</ele><time>2026-05-06T13:16:40.998Z</time></trkpt><trkpt lat="44.1126783" lon="12.1661483"><ele>215.0</ele><time>2026-05-06T13:16:41.997Z</time></trkpt><trkpt lat="44.1127067" lon="12.16625"><ele>215.00000000000003</ele><time>2026-05-06T13:16:42.997Z</time></trkpt><trkpt lat="44.112745" lon="12.1663567"><ele>215.0</ele><time>2026-05-06T13:16:43.997Z</time></trkpt><trkpt lat="44.112795" lon="12.16645"><ele>214.0</ele><time>2026-05-06T13:16:44.998Z</time></trkpt><trkpt lat="44.1128433" lon="12.1665617"><ele>213.0</ele><time>2026-05-06T13:16:45.997Z</time></trkpt><trkpt lat="44.1128983" lon="12.1666567"><ele>212.0</ele><time>2026-05-06T13:16:46.998Z</time></trkpt><trkpt lat="44.1129533" lon="12.16677"><ele>211.0</ele><time>2026-05-06T13:16:47.998Z</time></trkpt><trkpt lat="44.1130083" lon="12.1668817"><ele>210.0</ele><time>2026-05-06T13:16:48.998Z</time></trkpt><trkpt lat="44.1130717" lon="12.1669917"><ele>210.0</ele><time>2026-05-06T13:16:49.997Z</time></trkpt><trkpt lat="44.1131367" lon="12.1671117"><ele>210.0</ele><time>2026-05-06T13:16:50.998Z</time></trkpt><trkpt lat="44.1132067" lon="12.1672283"><ele>210.0</ele><time>2026-05-06T13:16:51.997Z</time></trkpt><trkpt lat="44.11327" lon="12.1673433"><ele>210.0</ele><time>2026-05-06T13:16:52.998Z</time></trkpt><trkpt lat="44.1133283" lon="12.1674533"><ele>210.0</ele><time>2026-05-06T13:16:53.997Z</time></trkpt><trkpt lat="44.11338" lon="12.16757"><ele>209.8</ele><time>2026-05-06T13:16:54.998Z</time></trkpt><trkpt lat="44.1134167" lon="12.1677017"><ele>209.6</ele><time>2026-05-06T13:16:55.997Z</time></trkpt><trkpt lat="44.1134383" lon="12.167845"><ele>209.39999999999998</ele><time>2026-05-06T13:16:56.998Z</time></trkpt><trkpt lat="44.1134467" lon="12.1679933"><ele>209.2</ele><time>2026-05-06T13:16:57.998Z</time></trkpt><trkpt lat="44.11344" lon="12.1681483"><ele>209.0</ele><time>2026-05-06T13:16:58.997Z</time></trkpt><trkpt lat="44.1134267" lon="12.1682967"><ele>209.0</ele><time>2026-05-06T13:16:59.997Z</time></trkpt><trkpt lat="44.1134083" lon="12.168435"><ele>209.0</ele><time>2026-05-06T13:17:00.998Z</time></trkpt><trkpt lat="44.1133883" lon="12.168555"><ele>209.0</ele><time>2026-05-06T13:17:01.998Z</time></trkpt><trkpt lat="44.1133667" lon="12.1686917"><ele>209.0</ele><time>2026-05-06T13:17:02.998Z</time></trkpt><trkpt lat="44.1133467" lon="12.16882"><ele>209.0</ele><time>2026-05-06T13:17:03.997Z</time></trkpt><trkpt lat="44.1133317" lon="12.1689383"><ele>209.16666666666669</ele><time>2026-05-06T13:17:04.998Z</time></trkpt><trkpt lat="44.1133267" lon="12.169055"><ele>209.33333333333334</ele><time>2026-05-06T13:17:05.998Z</time></trkpt><trkpt lat="44.1133317" lon="12.169165"><ele>209.5</ele><time>2026-05-06T13:17:06.998Z</time></trkpt><trkpt lat="44.113335" lon="12.1692767"><ele>209.66666666666669</ele><time>2026-05-06T13:17:07.997Z</time></trkpt><trkpt lat="44.113345" lon="12.1693967"><ele>209.83333333333334</ele><time>2026-05-06T13:17:08.997Z</time></trkpt><trkpt lat="44.1133667" lon="12.1695083"><ele>210.0</ele><time>2026-05-06T13:17:09.998Z</time></trkpt><trkpt lat="44.1133817" lon="12.1696167"><ele>210.0</ele><time>2026-05-06T13:17:10.998Z</time></trkpt><trkpt lat="44.1133983" lon="12.1697167"><ele>210.0</ele><time>2026-05-06T13:17:11.997Z</time></trkpt><trkpt lat="44.113415" lon="12.1698133"><ele>210.0</ele><time>2026-05-06T13:17:12.997Z</time></trkpt><trkpt lat="44.1134333" lon="12.1699067"><ele>210.0</ele><time>2026-05-06T13:17:13.997Z</time></trkpt><trkpt lat="44.113465" lon="12.17008"><ele>210.0</ele><time>2026-05-06T13:17:15.998Z</time></trkpt><trkpt lat="44.1134867" lon="12.17023"><ele>210.2</ele><time>2026-05-06T13:17:17.997Z</time></trkpt><trkpt lat="44.1134917" lon="12.17036"><ele>210.4</ele><time>2026-05-06T13:17:19.998Z</time></trkpt><trkpt lat="44.1134883" lon="12.1704883"><ele>210.60000000000002</ele><time>2026-05-06T13:17:21.997Z</time></trkpt><trkpt lat="44.1134717" lon="12.1706133"><ele>210.8</ele><time>2026-05-06T13:17:23.997Z</time></trkpt><trkpt lat="44.113435" lon="12.1707417"><ele>211.0</ele><time>2026-05-06T13:17:25.997Z</time></trkpt><trkpt lat="44.1134217" lon="12.1708817"><ele>211.20000000000002</ele><time>2026-05-06T13:17:27.998Z</time></trkpt><trkpt lat="44.1134017" lon="12.17103"><ele>211.4</ele><time>2026-05-06T13:17:29.997Z</time></trkpt><trkpt lat="44.1133833" lon="12.1711833"><ele>211.6</ele><time>2026-05-06T13:17:31.997Z</time></trkpt><trkpt lat="44.1133717" lon="12.17133"><ele>211.8</ele><time>2026-05-06T13:17:33.997Z</time></trkpt><trkpt lat="44.113375" lon="12.1714683"><ele>212.0</ele><time>2026-05-06T13:17:35.997Z</time></trkpt><trkpt lat="44.1133933" lon="12.1716"><ele>212.2</ele><time>2026-05-06T13:17:37.997Z</time></trkpt><trkpt lat="44.1134117" lon="12.171735"><ele>212.39999999999998</ele><time>2026-05-06T13:17:39.998Z</time></trkpt><trkpt lat="44.1134317" lon="12.17186"><ele>212.60000000000002</ele><time>2026-05-06T13:17:41.997Z</time></trkpt><trkpt lat="44.1134467" lon="12.1719833"><ele>212.8</ele><time>2026-05-06T13:17:43.998Z</time></trkpt><trkpt lat="44.113455" lon="12.1721217"><ele>213.0</ele><time>2026-05-06T13:17:45.997Z</time></trkpt><trkpt lat="44.1134533" lon="12.172255"><ele>213.4</ele><time>2026-05-06T13:17:47.998Z</time></trkpt><trkpt lat="44.1134283" lon="12.1723983"><ele>213.8</ele><time>2026-05-06T13:17:49.998Z</time></trkpt><trkpt lat="44.113355" lon="12.1725283"><ele>214.2</ele><time>2026-05-06T13:17:51.997Z</time></trkpt><trkpt lat="44.1132683" lon="12.1726183"><ele>214.6</ele><time>2026-05-06T13:17:53.998Z</time></trkpt><trkpt lat="44.1132" lon="12.1727133"><ele>215.0</ele><time>2026-05-06T13:17:55.997Z</time></trkpt><trkpt lat="44.1132083" lon="12.1728633"><ele>215.50000000000003</ele><time>2026-05-06T13:17:57.997Z</time></trkpt><trkpt lat="44.1132933" lon="12.1729867"><ele>216.0</ele><time>2026-05-06T13:17:59.997Z</time></trkpt><trkpt lat="44.1133617" lon="12.1730267"><ele>216.5</ele><time>2026-05-06T13:18:00.998Z</time></trkpt><trkpt lat="44.1134433" lon="12.17307"><ele>217.0</ele><time>2026-05-06T13:18:01.998Z</time></trkpt><trkpt lat="44.1135217" lon="12.1731117"><ele>217.50000000000003</ele><time>2026-05-06T13:18:02.997Z</time></trkpt><trkpt lat="44.113585" lon="12.1731633"><ele>218.0</ele><time>2026-05-06T13:18:03.998Z</time></trkpt><trkpt lat="44.11365" lon="12.173215"><ele>215.8</ele><time>2026-05-06T13:18:04.997Z</time></trkpt><trkpt lat="44.11371" lon="12.1733033"><ele>213.60000000000002</ele><time>2026-05-06T13:18:05.998Z</time></trkpt><trkpt lat="44.11377" lon="12.1734067"><ele>211.39999999999998</ele><time>2026-05-06T13:18:06.997Z</time></trkpt><trkpt lat="44.1138233" lon="12.1735267"><ele>209.2</ele><time>2026-05-06T13:18:07.998Z</time></trkpt><trkpt lat="44.1138717" lon="12.1736517"><ele>207.0</ele><time>2026-05-06T13:18:08.998Z</time></trkpt><trkpt lat="44.11392" lon="12.1737767"><ele>207.0</ele><time>2026-05-06T13:18:09.998Z</time></trkpt><trkpt lat="44.1139683" lon="12.1739"><ele>207.0</ele><time>2026-05-06T13:18:10.997Z</time></trkpt><trkpt lat="44.11402" lon="12.1740233"><ele>207.0</ele><time>2026-05-06T13:18:11.997Z</time></trkpt><trkpt lat="44.11408" lon="12.17415"><ele>207.0</ele><time>2026-05-06T13:18:12.997Z</time></trkpt><trkpt lat="44.114145" lon="12.17428"><ele>207.0</ele><time>2026-05-06T13:18:13.998Z</time></trkpt><trkpt lat="44.11423" lon="12.1743717"><ele>204.39999999999998</ele><time>2026-05-06T13:18:14.997Z</time></trkpt><trkpt lat="44.1143233" lon="12.174435"><ele>201.79999999999998</ele><time>2026-05-06T13:18:15.997Z</time></trkpt><trkpt lat="44.11442" lon="12.174485"><ele>199.2</ele><time>2026-05-06T13:18:16.997Z</time></trkpt><trkpt lat="44.1145283" lon="12.1745167"><ele>196.6</ele><time>2026-05-06T13:18:17.997Z</time></trkpt><trkpt lat="44.1146417" lon="12.1745433"><ele>194.0</ele><time>2026-05-06T13:18:18.998Z</time></trkpt><trkpt lat="44.1147517" lon="12.1745667"><ele>194.0</ele><time>2026-05-06T13:18:19.997Z</time></trkpt><trkpt lat="44.1148633" lon="12.1745883"><ele>194.0</ele><time>2026-05-06T13:18:20.997Z</time></trkpt><trkpt lat="44.1149717" lon="12.1746067"><ele>194.0</ele><time>2026-05-06T13:18:21.998Z</time></trkpt><trkpt lat="44.115075" lon="12.1746283"><ele>194.0</ele><time>2026-05-06T13:18:22.997Z</time></trkpt><trkpt lat="44.1151667" lon="12.1746367"><ele>194.0</ele><time>2026-05-06T13:18:23.997Z</time></trkpt><trkpt lat="44.11525" lon="12.1746633"><ele>194.33333333333334</ele><time>2026-05-06T13:18:24.997Z</time></trkpt><trkpt lat="44.1153317" lon="12.174705"><ele>194.66666666666669</ele><time>2026-05-06T13:18:25.997Z</time></trkpt><trkpt lat="44.1154017" lon="12.1747683"><ele>195.0</ele><time>2026-05-06T13:18:26.998Z</time></trkpt><trkpt lat="44.1154517" lon="12.174855"><ele>195.33333333333331</ele><time>2026-05-06T13:18:27.998Z</time></trkpt><trkpt lat="44.1154933" lon="12.17497"><ele>195.66666666666666</ele><time>2026-05-06T13:18:28.997Z</time></trkpt><trkpt lat="44.11554" lon="12.1750783"><ele>196.0</ele><time>2026-05-06T13:18:29.998Z</time></trkpt><trkpt lat="44.1155867" lon="12.1751917"><ele>192.4</ele><time>2026-05-06T13:18:30.998Z</time></trkpt><trkpt lat="44.1156317" lon="12.1753183"><ele>188.8</ele><time>2026-05-06T13:18:31.997Z</time></trkpt><trkpt lat="44.11568" lon="12.1754467"><ele>185.20000000000002</ele><time>2026-05-06T13:18:32.998Z</time></trkpt><trkpt lat="44.1157317" lon="12.1755667"><ele>181.60000000000002</ele><time>2026-05-06T13:18:33.998Z</time></trkpt><trkpt lat="44.1157833" lon="12.1756917"><ele>178.0</ele><time>2026-05-06T13:18:34.997Z</time></trkpt><trkpt lat="44.1158283" lon="12.17582"><ele>177.2</ele><time>2026-05-06T13:18:35.998Z</time></trkpt><trkpt lat="44.115875" lon="12.175945"><ele>176.4</ele><time>2026-05-06T13:18:36.997Z</time></trkpt><trkpt lat="44.1159217" lon="12.1760783"><ele>175.6</ele><time>2026-05-06T13:18:37.997Z</time></trkpt><trkpt lat="44.1159533" lon="12.176205"><ele>174.79999999999998</ele><time>2026-05-06T13:18:38.998Z</time></trkpt><trkpt lat="44.1159733" lon="12.1763333"><ele>174.0</ele><time>2026-05-06T13:18:39.997Z</time></trkpt><trkpt lat="44.11598" lon="12.1764567"><ele>173.16666666666666</ele><time>2026-05-06T13:18:40.997Z</time></trkpt><trkpt lat="44.1159767" lon="12.176575"><ele>172.33333333333334</ele><time>2026-05-06T13:18:41.997Z</time></trkpt><trkpt lat="44.1159733" lon="12.1766867"><ele>171.5</ele><time>2026-05-06T13:18:42.998Z</time></trkpt><trkpt lat="44.115965" lon="12.1767917"><ele>170.66666666666669</ele><time>2026-05-06T13:18:43.998Z</time></trkpt><trkpt lat="44.1159483" lon="12.1768967"><ele>169.83333333333334</ele><time>2026-05-06T13:18:44.997Z</time></trkpt><trkpt lat="44.11592" lon="12.1769983"><ele>169.0</ele><time>2026-05-06T13:18:45.997Z</time></trkpt><trkpt lat="44.1158767" lon="12.1770967"><ele>169.0</ele><time>2026-05-06T13:18:46.997Z</time></trkpt><trkpt lat="44.1158167" lon="12.1772067"><ele>169.0</ele><time>2026-05-06T13:18:47.998Z</time></trkpt><trkpt lat="44.1157717" lon="12.1773167"><ele>169.0</ele><time>2026-05-06T13:18:48.997Z</time></trkpt><trkpt lat="44.11573" lon="12.17745"><ele>169.0</ele><time>2026-05-06T13:18:49.997Z</time></trkpt><trkpt lat="44.1156983" lon="12.1775883"><ele>169.0</ele><time>2026-05-06T13:18:50.997Z</time></trkpt><trkpt lat="44.1156783" lon="12.17773"><ele>165.2</ele><time>2026-05-06T13:18:51.997Z</time></trkpt><trkpt lat="44.115665" lon="12.1778717"><ele>161.39999999999998</ele><time>2026-05-06T13:18:52.998Z</time></trkpt><trkpt lat="44.1156517" lon="12.178015"><ele>157.6</ele><time>2026-05-06T13:18:53.998Z</time></trkpt><trkpt lat="44.1156467" lon="12.1781517"><ele>153.8</ele><time>2026-05-06T13:18:54.997Z</time></trkpt><trkpt lat="44.1156417" lon="12.1782783"><ele>150.0</ele><time>2026-05-06T13:18:55.998Z</time></trkpt><trkpt lat="44.1156333" lon="12.1784033"><ele>150.0</ele><time>2026-05-06T13:18:56.997Z</time></trkpt><trkpt lat="44.1156267" lon="12.1785367"><ele>150.0</ele><time>2026-05-06T13:18:57.997Z</time></trkpt><trkpt lat="44.1156433" lon="12.1786617"><ele>150.0</ele><time>2026-05-06T13:18:58.998Z</time></trkpt><trkpt lat="44.1156683" lon="12.178785"><ele>150.0</ele><time>2026-05-06T13:18:59.997Z</time></trkpt><trkpt lat="44.1157033" lon="12.178895"><ele>150.0</ele><time>2026-05-06T13:19:00.997Z</time></trkpt><trkpt lat="44.11573" lon="12.1790017"><ele>150.0</ele><time>2026-05-06T13:19:01.997Z</time></trkpt><trkpt lat="44.1157417" lon="12.1791033"><ele>150.0</ele><time>2026-05-06T13:19:02.997Z</time></trkpt><trkpt lat="44.1157433" lon="12.1792117"><ele>150.0</ele><time>2026-05-06T13:19:03.998Z</time></trkpt><trkpt lat="44.11573" lon="12.1793233"><ele>150.0</ele><time>2026-05-06T13:19:04.997Z</time></trkpt><trkpt lat="44.1156933" lon="12.179435"><ele>150.0</ele><time>2026-05-06T13:19:05.997Z</time></trkpt><trkpt lat="44.11565" lon="12.179555"><ele>150.0</ele><time>2026-05-06T13:19:06.997Z</time></trkpt><trkpt lat="44.1156033" lon="12.1796733"><ele>150.0</ele><time>2026-05-06T13:19:07.997Z</time></trkpt><trkpt lat="44.1155483" lon="12.179795"><ele>146.6</ele><time>2026-05-06T13:19:08.997Z</time></trkpt><trkpt lat="44.11549" lon="12.1799167"><ele>143.2</ele><time>2026-05-06T13:19:09.998Z</time></trkpt><trkpt lat="44.1154233" lon="12.1800283"><ele>139.8</ele><time>2026-05-06T13:19:10.997Z</time></trkpt><trkpt lat="44.11535" lon="12.1801367"><ele>136.4</ele><time>2026-05-06T13:19:11.997Z</time></trkpt><trkpt lat="44.1152767" lon="12.1802267"><ele>133.0</ele><time>2026-05-06T13:19:12.997Z</time></trkpt><trkpt lat="44.1152083" lon="12.1803133"><ele>133.0</ele><time>2026-05-06T13:19:13.997Z</time></trkpt><trkpt lat="44.1151517" lon="12.180385"><ele>133.0</ele><time>2026-05-06T13:19:14.998Z</time></trkpt><trkpt lat="44.1150983" lon="12.1804433"><ele>133.0</ele><time>2026-05-06T13:19:15.998Z</time></trkpt><trkpt lat="44.1150417" lon="12.1804883"><ele>133.0</ele><time>2026-05-06T13:19:16.998Z</time></trkpt><trkpt lat="44.1149783" lon="12.180505"><ele>133.0</ele><time>2026-05-06T13:19:17.998Z</time></trkpt><trkpt lat="44.1148717" lon="12.1804583"><ele>133.0</ele><time>2026-05-06T13:19:19.998Z</time></trkpt><trkpt lat="44.1148717" lon="12.180365"><ele>133.0</ele><time>2026-05-06T13:19:20.997Z</time></trkpt><trkpt lat="44.1148817" lon="12.1802717"><ele>133.0</ele><time>2026-05-06T13:19:21.998Z</time></trkpt><trkpt lat="44.1149067" lon="12.1801783"><ele>133.0</ele><time>2026-05-06T13:19:22.998Z</time></trkpt><trkpt lat="44.11492" lon="12.1800867"><ele>133.0</ele><time>2026-05-06T13:19:23.998Z</time></trkpt><trkpt lat="44.114935" lon="12.179995"><ele>133.0</ele><time>2026-05-06T13:19:24.997Z</time></trkpt><trkpt lat="44.1149267" lon="12.1799"><ele>133.0</ele><time>2026-05-06T13:19:25.997Z</time></trkpt><trkpt lat="44.114895" lon="12.17981"><ele>133.0</ele><time>2026-05-06T13:19:26.997Z</time></trkpt><trkpt lat="44.1148417" lon="12.179745"><ele>130.66666666666669</ele><time>2026-05-06T13:19:27.997Z</time></trkpt><trkpt lat="44.1147783" lon="12.179695"><ele>128.33333333333334</ele><time>2026-05-06T13:19:28.998Z</time></trkpt><trkpt lat="44.1147067" lon="12.17965"><ele>126.0</ele><time>2026-05-06T13:19:29.998Z</time></trkpt><trkpt lat="44.1146317" lon="12.17961"><ele>123.66666666666666</ele><time>2026-05-06T13:19:30.997Z</time></trkpt><trkpt lat="44.1145483" lon="12.1795683"><ele>121.33333333333333</ele><time>2026-05-06T13:19:31.997Z</time></trkpt><trkpt lat="44.1144583" lon="12.1795367"><ele>119.0</ele><time>2026-05-06T13:19:32.998Z</time></trkpt><trkpt lat="44.114365" lon="12.179515"><ele>118.99999999999999</ele><time>2026-05-06T13:19:33.997Z</time></trkpt><trkpt lat="44.11427" lon="12.1795117"><ele>119.0</ele><time>2026-05-06T13:19:34.997Z</time></trkpt><trkpt lat="44.1141833" lon="12.1795133"><ele>119.0</ele><time>2026-05-06T13:19:35.998Z</time></trkpt><trkpt lat="44.1141033" lon="12.1795283"><ele>119.0</ele><time>2026-05-06T13:19:36.998Z</time></trkpt><trkpt lat="44.1140383" lon="12.1795717"><ele>118.99999999999999</ele><time>2026-05-06T13:19:37.998Z</time></trkpt><trkpt lat="44.113995" lon="12.17965"><ele>119.0</ele><time>2026-05-06T13:19:38.997Z</time></trkpt><trkpt lat="44.11398" lon="12.179745"><ele>115.99999999999999</ele><time>2026-05-06T13:19:39.997Z</time></trkpt><trkpt lat="44.1139883" lon="12.179855"><ele>113.0</ele><time>2026-05-06T13:19:40.997Z</time></trkpt><trkpt lat="44.1140117" lon="12.1799767"><ele>110.0</ele><time>2026-05-06T13:19:41.998Z</time></trkpt><trkpt lat="44.1140217" lon="12.1800983"><ele>107.0</ele><time>2026-05-06T13:19:42.998Z</time></trkpt><trkpt lat="44.1140183" lon="12.1802217"><ele>103.99999999999999</ele><time>2026-05-06T13:19:43.998Z</time></trkpt><trkpt lat="44.1139967" lon="12.1803433"><ele>101.0</ele><time>2026-05-06T13:19:44.997Z</time></trkpt><trkpt lat="44.1139567" lon="12.18045"><ele>101.0</ele><time>2026-05-06T13:19:45.998Z</time></trkpt><trkpt lat="44.1138983" lon="12.1805533"><ele>101.0</ele><time>2026-05-06T13:19:46.997Z</time></trkpt><trkpt lat="44.1138267" lon="12.1806467"><ele>101.0</ele><time>2026-05-06T13:19:47.998Z</time></trkpt><trkpt lat="44.1137417" lon="12.1807233"><ele>101.0</ele><time>2026-05-06T13:19:48.997Z</time></trkpt><trkpt lat="44.1136517" lon="12.1808"><ele>101.0</ele><time>2026-05-06T13:19:49.997Z</time></trkpt><trkpt lat="44.1135767" lon="12.1808817"><ele>100.6</ele><time>2026-05-06T13:19:50.998Z</time></trkpt><trkpt lat="44.1135033" lon="12.181"><ele>100.19999999999999</ele><time>2026-05-06T13:19:51.997Z</time></trkpt><trkpt lat="44.1134483" lon="12.1811267"><ele>99.80000000000001</ele><time>2026-05-06T13:19:52.997Z</time></trkpt><trkpt lat="44.1134067" lon="12.181245"><ele>99.4</ele><time>2026-05-06T13:19:53.997Z</time></trkpt><trkpt lat="44.11337" lon="12.1813667"><ele>99.0</ele><time>2026-05-06T13:19:54.998Z</time></trkpt><trkpt lat="44.1133417" lon="12.1814867"><ele>99.4</ele><time>2026-05-06T13:19:55.998Z</time></trkpt><trkpt lat="44.11332" lon="12.1816067"><ele>99.80000000000001</ele><time>2026-05-06T13:19:56.997Z</time></trkpt><trkpt lat="44.1133167" lon="12.1817433"><ele>100.19999999999999</ele><time>2026-05-06T13:19:57.997Z</time></trkpt><trkpt lat="44.11333" lon="12.1818767"><ele>100.6</ele><time>2026-05-06T13:19:58.997Z</time></trkpt><trkpt lat="44.1133583" lon="12.182005"><ele>101.0</ele><time>2026-05-06T13:19:59.997Z</time></trkpt><trkpt lat="44.113395" lon="12.1821267"><ele>101.0</ele><time>2026-05-06T13:20:00.997Z</time></trkpt><trkpt lat="44.1134283" lon="12.18225"><ele>101.0</ele><time>2026-05-06T13:20:01.998Z</time></trkpt><trkpt lat="44.113465" lon="12.1823767"><ele>101.0</ele><time>2026-05-06T13:20:02.997Z</time></trkpt><trkpt lat="44.113495" lon="12.1825033"><ele>101.0</ele><time>2026-05-06T13:20:03.997Z</time></trkpt><trkpt lat="44.1135133" lon="12.1826283"><ele>101.0</ele><time>2026-05-06T13:20:04.998Z</time></trkpt><trkpt lat="44.1135117" lon="12.1827567"><ele>100.19999999999999</ele><time>2026-05-06T13:20:05.997Z</time></trkpt><trkpt lat="44.1135" lon="12.182885"><ele>99.39999999999999</ele><time>2026-05-06T13:20:06.997Z</time></trkpt><trkpt lat="44.1134867" lon="12.183025"><ele>98.6</ele><time>2026-05-06T13:20:07.997Z</time></trkpt><trkpt lat="44.1134467" lon="12.1831667"><ele>97.8</ele><time>2026-05-06T13:20:08.998Z</time></trkpt><trkpt lat="44.1134117" lon="12.1833033"><ele>97.0</ele><time>2026-05-06T13:20:09.997Z</time></trkpt><trkpt lat="44.1133683" lon="12.1834367"><ele>95.8</ele><time>2026-05-06T13:20:10.997Z</time></trkpt><trkpt lat="44.1133183" lon="12.18358"><ele>94.6</ele><time>2026-05-06T13:20:11.997Z</time></trkpt><trkpt lat="44.113265" lon="12.18372"><ele>93.39999999999999</ele><time>2026-05-06T13:20:12.998Z</time></trkpt><trkpt lat="44.1132267" lon="12.1838517"><ele>92.19999999999999</ele><time>2026-05-06T13:20:13.997Z</time></trkpt><trkpt lat="44.1131833" lon="12.1839883"><ele>91.0</ele><time>2026-05-06T13:20:14.997Z</time></trkpt><trkpt lat="44.1131383" lon="12.184125"><ele>89.6</ele><time>2026-05-06T13:20:15.998Z</time></trkpt><trkpt lat="44.1130917" lon="12.1842617"><ele>88.19999999999999</ele><time>2026-05-06T13:20:16.997Z</time></trkpt><trkpt lat="44.113045" lon="12.184395"><ele>86.80000000000001</ele><time>2026-05-06T13:20:17.998Z</time></trkpt><trkpt lat="44.1129967" lon="12.18453"><ele>85.4</ele><time>2026-05-06T13:20:18.997Z</time></trkpt><trkpt lat="44.112955" lon="12.18466"><ele>84.0</ele><time>2026-05-06T13:20:19.997Z</time></trkpt><trkpt lat="44.11291" lon="12.1847867"><ele>83.4</ele><time>2026-05-06T13:20:20.998Z</time></trkpt><trkpt lat="44.1128617" lon="12.1849183"><ele>82.80000000000001</ele><time>2026-05-06T13:20:21.998Z</time></trkpt><trkpt lat="44.1128117" lon="12.1850533"><ele>82.19999999999999</ele><time>2026-05-06T13:20:22.998Z</time></trkpt><trkpt lat="44.1127683" lon="12.185185"><ele>81.6</ele><time>2026-05-06T13:20:23.997Z</time></trkpt><trkpt lat="44.1127267" lon="12.1853117"><ele>81.0</ele><time>2026-05-06T13:20:24.998Z</time></trkpt><trkpt lat="44.1126817" lon="12.1854383"><ele>81.0</ele><time>2026-05-06T13:20:25.998Z</time></trkpt><trkpt lat="44.112635" lon="12.1855633"><ele>81.0</ele><time>2026-05-06T13:20:26.998Z</time></trkpt><trkpt lat="44.1125883" lon="12.18569"><ele>81.0</ele><time>2026-05-06T13:20:27.997Z</time></trkpt><trkpt lat="44.1125433" lon="12.1858117"><ele>81.0</ele><time>2026-05-06T13:20:28.997Z</time></trkpt><trkpt lat="44.1125033" lon="12.185935"><ele>81.0</ele><time>2026-05-06T13:20:29.997Z</time></trkpt><trkpt lat="44.1124633" lon="12.1860483"><ele>80.85714285714286</ele><time>2026-05-06T13:20:30.997Z</time></trkpt><trkpt lat="44.1124217" lon="12.18615"><ele>80.71428571428571</ele><time>2026-05-06T13:20:31.998Z</time></trkpt><trkpt lat="44.11239" lon="12.1862483"><ele>80.57142857142857</ele><time>2026-05-06T13:20:32.997Z</time></trkpt><trkpt lat="44.112365" lon="12.1863467"><ele>80.42857142857143</ele><time>2026-05-06T13:20:33.998Z</time></trkpt><trkpt lat="44.1123567" lon="12.1864467"><ele>80.28571428571429</ele><time>2026-05-06T13:20:34.997Z</time></trkpt><trkpt lat="44.1123617" lon="12.1865467"><ele>80.14285714285714</ele><time>2026-05-06T13:20:35.997Z</time></trkpt><trkpt lat="44.1123917" lon="12.1866317"><ele>80.0</ele><time>2026-05-06T13:20:36.998Z</time></trkpt><trkpt lat="44.11244" lon="12.1866983"><ele>79.85714285714286</ele><time>2026-05-06T13:20:37.997Z</time></trkpt><trkpt lat="44.1124917" lon="12.1867567"><ele>79.71428571428572</ele><time>2026-05-06T13:20:38.998Z</time></trkpt><trkpt lat="44.1125483" lon="12.1868083"><ele>79.57142857142858</ele><time>2026-05-06T13:20:39.997Z</time></trkpt><trkpt lat="44.112605" lon="12.1868567"><ele>79.42857142857143</ele><time>2026-05-06T13:20:40.998Z</time></trkpt><trkpt lat="44.1126633" lon="12.1868983"><ele>79.28571428571429</ele><time>2026-05-06T13:20:41.998Z</time></trkpt><trkpt lat="44.112725" lon="12.1869483"><ele>79.14285714285715</ele><time>2026-05-06T13:20:42.997Z</time></trkpt><trkpt lat="44.1127833" lon="12.1869867"><ele>79.0</ele><time>2026-05-06T13:20:43.997Z</time></trkpt><trkpt lat="44.112845" lon="12.18703"><ele>79.00000000000001</ele><time>2026-05-06T13:20:44.997Z</time></trkpt><trkpt lat="44.112905" lon="12.1870733"><ele>79.0</ele><time>2026-05-06T13:20:45.997Z</time></trkpt><trkpt lat="44.11296" lon="12.1871233"><ele>79.0</ele><time>2026-05-06T13:20:46.997Z</time></trkpt><trkpt lat="44.1130167" lon="12.1871717"><ele>79.0</ele><time>2026-05-06T13:20:47.997Z</time></trkpt><trkpt lat="44.113075" lon="12.1872133"><ele>79.0</ele><time>2026-05-06T13:20:48.998Z</time></trkpt><trkpt lat="44.1131333" lon="12.1872517"><ele>79.00000000000001</ele><time>2026-05-06T13:20:49.997Z</time></trkpt><trkpt lat="44.1131883" lon="12.1872967"><ele>79.0</ele><time>2026-05-06T13:20:50.997Z</time></trkpt><trkpt lat="44.1132983" lon="12.1873917"><ele>78.5</ele><time>2026-05-06T13:20:52.998Z</time></trkpt><trkpt lat="44.1133533" lon="12.1874383"><ele>78.0</ele><time>2026-05-06T13:20:53.997Z</time></trkpt><trkpt lat="44.1134583" lon="12.1875317"><ele>77.5</ele><time>2026-05-06T13:20:55.998Z</time></trkpt><trkpt lat="44.113515" lon="12.1875717"><ele>77.0</ele><time>2026-05-06T13:20:56.997Z</time></trkpt><trkpt lat="44.113575" lon="12.1876083"><ele>76.5</ele><time>2026-05-06T13:20:57.998Z</time></trkpt><trkpt lat="44.11363" lon="12.18766"><ele>76.0</ele><time>2026-05-06T13:20:58.997Z</time></trkpt><trkpt lat="44.1136867" lon="12.187705"><ele>76.0</ele><time>2026-05-06T13:20:59.997Z</time></trkpt><trkpt lat="44.1138" lon="12.18777"><ele>76.0</ele><time>2026-05-06T13:21:01.997Z</time></trkpt><trkpt lat="44.1139217" lon="12.1878083"><ele>76.0</ele><time>2026-05-06T13:21:03.997Z</time></trkpt><trkpt lat="44.1139867" lon="12.18781"><ele>76.0</ele><time>2026-05-06T13:21:04.997Z</time></trkpt><trkpt lat="44.1140517" lon="12.1878117"><ele>76.0</ele><time>2026-05-06T13:21:05.998Z</time></trkpt><trkpt lat="44.1141717" lon="12.1878133"><ele>75.83333333333333</ele><time>2026-05-06T13:21:07.998Z</time></trkpt><trkpt lat="44.1142717" lon="12.1878367"><ele>75.66666666666666</ele><time>2026-05-06T13:21:09.997Z</time></trkpt><trkpt lat="44.1143433" lon="12.1878767"><ele>75.5</ele><time>2026-05-06T13:21:11.997Z</time></trkpt><trkpt lat="44.1143917" lon="12.187945"><ele>75.33333333333333</ele><time>2026-05-06T13:21:12.997Z</time></trkpt><trkpt lat="44.1144517" lon="12.18802"><ele>75.16666666666667</ele><time>2026-05-06T13:21:13.998Z</time></trkpt><trkpt lat="44.1145117" lon="12.1880933"><ele>75.0</ele><time>2026-05-06T13:21:14.997Z</time></trkpt><trkpt lat="44.114575" lon="12.188175"><ele>74.5</ele><time>2026-05-06T13:21:15.997Z</time></trkpt><trkpt lat="44.1146383" lon="12.1882533"><ele>74.0</ele><time>2026-05-06T13:21:16.997Z</time></trkpt><trkpt lat="44.1147017" lon="12.188335"><ele>73.5</ele><time>2026-05-06T13:21:17.997Z</time></trkpt><trkpt lat="44.11477" lon="12.1884183"><ele>73.0</ele><time>2026-05-06T13:21:18.998Z</time></trkpt><trkpt lat="44.1148333" lon="12.1885"><ele>72.5</ele><time>2026-05-06T13:21:19.998Z</time></trkpt><trkpt lat="44.1148983" lon="12.1885817"><ele>72.0</ele><time>2026-05-06T13:21:20.998Z</time></trkpt><trkpt lat="44.1149617" lon="12.1886583"><ele>71.4</ele><time>2026-05-06T13:21:21.997Z</time></trkpt><trkpt lat="44.1150267" lon="12.1887367"><ele>70.80000000000001</ele><time>2026-05-06T13:21:22.997Z</time></trkpt><trkpt lat="44.1150917" lon="12.188825"><ele>70.2</ele><time>2026-05-06T13:21:23.998Z</time></trkpt><trkpt lat="44.1151667" lon="12.1889117"><ele>69.60000000000001</ele><time>2026-05-06T13:21:24.997Z</time></trkpt><trkpt lat="44.11524" lon="12.1889867"><ele>69.0</ele><time>2026-05-06T13:21:25.998Z</time></trkpt><trkpt lat="44.115325" lon="12.1890533"><ele>68.83333333333333</ele><time>2026-05-06T13:21:26.997Z</time></trkpt><trkpt lat="44.1154083" lon="12.1891233"><ele>68.66666666666667</ele><time>2026-05-06T13:21:27.998Z</time></trkpt><trkpt lat="44.1154933" lon="12.1891917"><ele>68.5</ele><time>2026-05-06T13:21:28.997Z</time></trkpt><trkpt lat="44.1155717" lon="12.1892567"><ele>68.33333333333334</ele><time>2026-05-06T13:21:29.997Z</time></trkpt><trkpt lat="44.1156383" lon="12.18932"><ele>68.16666666666667</ele><time>2026-05-06T13:21:30.997Z</time></trkpt><trkpt lat="44.1157" lon="12.1893833"><ele>68.0</ele><time>2026-05-06T13:21:31.998Z</time></trkpt><trkpt lat="44.11575" lon="12.18945"><ele>67.6</ele><time>2026-05-06T13:21:32.997Z</time></trkpt><trkpt lat="44.1158033" lon="12.18959"><ele>67.19999999999999</ele><time>2026-05-06T13:21:34.997Z</time></trkpt><trkpt lat="44.1158533" lon="12.1897817"><ele>66.8</ele><time>2026-05-06T13:21:36.998Z</time></trkpt><trkpt lat="44.1158883" lon="12.189905"><ele>66.39999999999999</ele><time>2026-05-06T13:21:37.998Z</time></trkpt><trkpt lat="44.11592" lon="12.1900083"><ele>66.0</ele><time>2026-05-06T13:21:38.997Z</time></trkpt><trkpt lat="44.115955" lon="12.1901167"><ele>65.66666666666667</ele><time>2026-05-06T13:21:39.998Z</time></trkpt><trkpt lat="44.1159833" lon="12.1902233"><ele>65.33333333333333</ele><time>2026-05-06T13:21:40.998Z</time></trkpt><trkpt lat="44.1160083" lon="12.1903283"><ele>65.0</ele><time>2026-05-06T13:21:41.997Z</time></trkpt><trkpt lat="44.1160383" lon="12.1904317"><ele>64.66666666666666</ele><time>2026-05-06T13:21:42.997Z</time></trkpt><trkpt lat="44.1160683" lon="12.1905433"><ele>64.33333333333333</ele><time>2026-05-06T13:21:43.997Z</time></trkpt><trkpt lat="44.1161" lon="12.1906533"><ele>64.0</ele><time>2026-05-06T13:21:44.998Z</time></trkpt><trkpt lat="44.11613" lon="12.19076"><ele>63.666666666666664</ele><time>2026-05-06T13:21:45.997Z</time></trkpt><trkpt lat="44.1161617" lon="12.1908717"><ele>63.33333333333333</ele><time>2026-05-06T13:21:46.997Z</time></trkpt><trkpt lat="44.1161917" lon="12.19099"><ele>63.0</ele><time>2026-05-06T13:21:47.997Z</time></trkpt><trkpt lat="44.1162233" lon="12.1911033"><ele>62.66666666666667</ele><time>2026-05-06T13:21:48.998Z</time></trkpt><trkpt lat="44.116255" lon="12.191215"><ele>62.333333333333336</ele><time>2026-05-06T13:21:49.997Z</time></trkpt><trkpt lat="44.1162867" lon="12.1913267"><ele>62.0</ele><time>2026-05-06T13:21:50.997Z</time></trkpt><trkpt lat="44.11632" lon="12.19144"><ele>61.50000000000001</ele><time>2026-05-06T13:21:51.998Z</time></trkpt><trkpt lat="44.11636" lon="12.1915417"><ele>61.0</ele><time>2026-05-06T13:21:52.997Z</time></trkpt><trkpt lat="44.1164017" lon="12.191635"><ele>60.5</ele><time>2026-05-06T13:21:53.997Z</time></trkpt><trkpt lat="44.116445" lon="12.191725"><ele>60.0</ele><time>2026-05-06T13:21:54.998Z</time></trkpt><trkpt lat="44.1164867" lon="12.1918"><ele>59.50000000000001</ele><time>2026-05-06T13:21:55.998Z</time></trkpt><trkpt lat="44.116565" lon="12.1919217"><ele>59.0</ele><time>2026-05-06T13:21:57.997Z</time></trkpt><trkpt lat="44.1166233" lon="12.1920133"><ele>58.57142857142857</ele><time>2026-05-06T13:21:59.998Z</time></trkpt><trkpt lat="44.1166767" lon="12.1920717"><ele>58.142857142857146</ele><time>2026-05-06T13:22:01.997Z</time></trkpt><trkpt lat="44.1167383" lon="12.1920967"><ele>57.714285714285715</ele><time>2026-05-06T13:22:03.997Z</time></trkpt><trkpt lat="44.1167933" lon="12.19204"><ele>57.285714285714285</ele><time>2026-05-06T13:22:05.997Z</time></trkpt><trkpt lat="44.1168333" lon="12.191965"><ele>56.85714285714286</ele><time>2026-05-06T13:22:07.998Z</time></trkpt><trkpt lat="44.1168867" lon="12.19188"><ele>56.42857142857143</ele><time>2026-05-06T13:22:09.997Z</time></trkpt><trkpt lat="44.11693" lon="12.1917933"><ele>56.0</ele><time>2026-05-06T13:22:11.998Z</time></trkpt><trkpt lat="44.1169733" lon="12.19171"><ele>56.00000000000001</ele><time>2026-05-06T13:22:13.998Z</time></trkpt><trkpt lat="44.1170217" lon="12.1916183"><ele>56.0</ele><time>2026-05-06T13:22:15.998Z</time></trkpt><trkpt lat="44.1170733" lon="12.1915183"><ele>56.0</ele><time>2026-05-06T13:22:17.997Z</time></trkpt><trkpt lat="44.1171267" lon="12.1914267"><ele>56.0</ele><time>2026-05-06T13:22:19.997Z</time></trkpt><trkpt lat="44.1171783" lon="12.1913333"><ele>56.00000000000001</ele><time>2026-05-06T13:22:21.997Z</time></trkpt><trkpt lat="44.1172267" lon="12.1912367"><ele>56.0</ele><time>2026-05-06T13:22:23.997Z</time></trkpt><trkpt lat="44.1172783" lon="12.1911367"><ele>56.50000000000001</ele><time>2026-05-06T13:22:25.998Z</time></trkpt><trkpt lat="44.1173333" lon="12.1910367"><ele>57.0</ele><time>2026-05-06T13:22:27.997Z</time></trkpt><trkpt lat="44.1173867" lon="12.1909367"><ele>57.5</ele><time>2026-05-06T13:22:29.997Z</time></trkpt><trkpt lat="44.117435" lon="12.1908417"><ele>58.0</ele><time>2026-05-06T13:22:31.997Z</time></trkpt><trkpt lat="44.117485" lon="12.19075"><ele>58.50000000000001</ele><time>2026-05-06T13:22:33.997Z</time></trkpt><trkpt lat="44.1175383" lon="12.1906517"><ele>59.0</ele><time>2026-05-06T13:22:35.997Z</time></trkpt><trkpt lat="44.1175933" lon="12.1905467"><ele>59.2</ele><time>2026-05-06T13:22:37.997Z</time></trkpt><trkpt lat="44.1176467" lon="12.190445"><ele>59.400000000000006</ele><time>2026-05-06T13:22:39.997Z</time></trkpt><trkpt lat="44.117695" lon="12.1903417"><ele>59.6</ele><time>2026-05-06T13:22:41.998Z</time></trkpt><trkpt lat="44.1177483" lon="12.190235"><ele>59.8</ele><time>2026-05-06T13:22:43.998Z</time></trkpt><trkpt lat="44.1178033" lon="12.1901317"><ele>60.0</ele><time>2026-05-06T13:22:45.998Z</time></trkpt><trkpt lat="44.1178583" lon="12.190025"><ele>60.0</ele><time>2026-05-06T13:22:47.998Z</time></trkpt><trkpt lat="44.117915" lon="12.18992"><ele>60.0</ele><time>2026-05-06T13:22:49.998Z</time></trkpt><trkpt lat="44.1179767" lon="12.1898133"><ele>60.0</ele><time>2026-05-06T13:22:51.998Z</time></trkpt><trkpt lat="44.1180333" lon="12.1897133"><ele>60.0</ele><time>2026-05-06T13:22:53.997Z</time></trkpt><trkpt lat="44.1180983" lon="12.1896267"><ele>60.0</ele><time>2026-05-06T13:22:55.997Z</time></trkpt><trkpt lat="44.1181583" lon="12.189535"><ele>60.0</ele><time>2026-05-06T13:22:57.997Z</time></trkpt><trkpt lat="44.118215" lon="12.1894417"><ele>60.0</ele><time>2026-05-06T13:22:59.998Z</time></trkpt><trkpt lat="44.1182833" lon="12.1893417"><ele>60.0</ele><time>2026-05-06T13:23:01.997Z</time></trkpt><trkpt lat="44.1183533" lon="12.189245"><ele>60.0</ele><time>2026-05-06T13:23:03.997Z</time></trkpt><trkpt lat="44.1184267" lon="12.1891467"><ele>60.0</ele><time>2026-05-06T13:23:05.997Z</time></trkpt><trkpt lat="44.1184967" lon="12.1890633"><ele>60.0</ele><time>2026-05-06T13:23:07.997Z</time></trkpt><trkpt lat="44.11857" lon="12.18899"><ele>60.0</ele><time>2026-05-06T13:23:09.997Z</time></trkpt><trkpt lat="44.1186483" lon="12.1889033"><ele>60.0</ele><time>2026-05-06T13:23:11.997Z</time></trkpt><trkpt lat="44.1187233" lon="12.1888283"><ele>60.0</ele><time>2026-05-06T13:23:13.998Z</time></trkpt><trkpt lat="44.118805" lon="12.1887617"><ele>60.0</ele><time>2026-05-06T13:23:15.997Z</time></trkpt><trkpt lat="44.118885" lon="12.188685"><ele>60.0</ele><time>2026-05-06T13:23:17.997Z</time></trkpt><trkpt lat="44.11896" lon="12.1886133"><ele>60.0</ele><time>2026-05-06T13:23:19.997Z</time></trkpt><trkpt lat="44.1190333" lon="12.188545"><ele>60.0</ele><time>2026-05-06T13:23:21.997Z</time></trkpt><trkpt lat="44.119105" lon="12.1884733"><ele>60.0</ele><time>2026-05-06T13:23:23.997Z</time></trkpt><trkpt lat="44.11918" lon="12.188405"><ele>60.0</ele><time>2026-05-06T13:23:25.997Z</time></trkpt><trkpt lat="44.1192567" lon="12.1883317"><ele>60.0</ele><time>2026-05-06T13:23:27.998Z</time></trkpt><trkpt lat="44.119325" lon="12.188255"><ele>60.0</ele><time>2026-05-06T13:23:29.997Z</time></trkpt><trkpt lat="44.1194033" lon="12.1881783"><ele>60.0</ele><time>2026-05-06T13:23:31.997Z</time></trkpt><trkpt lat="44.119485" lon="12.1881"><ele>60.0</ele><time>2026-05-06T13:23:33.997Z</time></trkpt><trkpt lat="44.1195717" lon="12.1880183"><ele>60.0</ele><time>2026-05-06T13:23:35.997Z</time></trkpt><trkpt lat="44.1196583" lon="12.1879417"><ele>60.2</ele><time>2026-05-06T13:23:37.997Z</time></trkpt><trkpt lat="44.1197467" lon="12.1878667"><ele>60.4</ele><time>2026-05-06T13:23:39.997Z</time></trkpt><trkpt lat="44.119835" lon="12.1877983"><ele>60.599999999999994</ele><time>2026-05-06T13:23:41.997Z</time></trkpt><trkpt lat="44.1199283" lon="12.18775"><ele>60.8</ele><time>2026-05-06T13:23:43.997Z</time></trkpt><trkpt lat="44.1200133" lon="12.1877"><ele>61.0</ele><time>2026-05-06T13:23:45.997Z</time></trkpt><trkpt lat="44.1200917" lon="12.1876617"><ele>61.199999999999996</ele><time>2026-05-06T13:23:47.997Z</time></trkpt><trkpt lat="44.1201733" lon="12.1876117"><ele>61.39999999999999</ele><time>2026-05-06T13:23:49.997Z</time></trkpt><trkpt lat="44.1202633" lon="12.1875483"><ele>61.6</ele><time>2026-05-06T13:23:51.997Z</time></trkpt><trkpt lat="44.120355" lon="12.187495"><ele>61.8</ele><time>2026-05-06T13:23:53.997Z</time></trkpt><trkpt lat="44.120455" lon="12.18743"><ele>62.0</ele><time>2026-05-06T13:23:55.998Z</time></trkpt><trkpt lat="44.1205617" lon="12.1873683"><ele>62.25</ele><time>2026-05-06T13:23:57.998Z</time></trkpt><trkpt lat="44.1206733" lon="12.1872967"><ele>62.5</ele><time>2026-05-06T13:23:59.997Z</time></trkpt><trkpt lat="44.1207783" lon="12.1872217"><ele>62.75</ele><time>2026-05-06T13:24:01.997Z</time></trkpt><trkpt lat="44.120885" lon="12.1871533"><ele>63.0</ele><time>2026-05-06T13:24:03.998Z</time></trkpt><trkpt lat="44.121" lon="12.18711"><ele>62.4</ele><time>2026-05-06T13:24:05.997Z</time></trkpt><trkpt lat="44.121105" lon="12.18706"><ele>61.8</ele><time>2026-05-06T13:24:07.997Z</time></trkpt><trkpt lat="44.12122" lon="12.18706"><ele>61.2</ele><time>2026-05-06T13:24:09.997Z</time></trkpt><trkpt lat="44.1212833" lon="12.187045"><ele>60.6</ele><time>2026-05-06T13:24:10.998Z</time></trkpt><trkpt lat="44.1214083" lon="12.187035"><ele>60.0</ele><time>2026-05-06T13:24:12.997Z</time></trkpt><trkpt lat="44.12153" lon="12.1870367"><ele>60.0</ele><time>2026-05-06T13:24:14.997Z</time></trkpt><trkpt lat="44.1216467" lon="12.1870217"><ele>60.0</ele><time>2026-05-06T13:24:16.997Z</time></trkpt><trkpt lat="44.121765" lon="12.187005"><ele>60.0</ele><time>2026-05-06T13:24:18.998Z</time></trkpt><trkpt lat="44.1218717" lon="12.187005"><ele>60.0</ele><time>2026-05-06T13:24:20.997Z</time></trkpt><trkpt lat="44.121985" lon="12.1869967"><ele>60.0</ele><time>2026-05-06T13:24:22.997Z</time></trkpt><trkpt lat="44.12209" lon="12.1869883"><ele>60.0</ele><time>2026-05-06T13:24:24.997Z</time></trkpt><trkpt lat="44.122195" lon="12.1869817"><ele>60.0</ele><time>2026-05-06T13:24:26.997Z</time></trkpt><trkpt lat="44.1223017" lon="12.18698"><ele>60.0</ele><time>2026-05-06T13:24:28.998Z</time></trkpt><trkpt lat="44.1224017" lon="12.1869583"><ele>60.0</ele><time>2026-05-06T13:24:30.998Z</time></trkpt><trkpt lat="44.1225083" lon="12.1869583"><ele>60.25</ele><time>2026-05-06T13:24:32.997Z</time></trkpt><trkpt lat="44.1226183" lon="12.18696"><ele>60.5</ele><time>2026-05-06T13:24:34.998Z</time></trkpt><trkpt lat="44.12273" lon="12.1869567"><ele>60.75</ele><time>2026-05-06T13:24:36.997Z</time></trkpt><trkpt lat="44.1228483" lon="12.1869583"><ele>61.0</ele><time>2026-05-06T13:24:38.997Z</time></trkpt><trkpt lat="44.1229583" lon="12.1869567"><ele>60.99999999999999</ele><time>2026-05-06T13:24:40.998Z</time></trkpt><trkpt lat="44.1230667" lon="12.1869683"><ele>61.0</ele><time>2026-05-06T13:24:42.997Z</time></trkpt><trkpt lat="44.123185" lon="12.1869633"><ele>61.0</ele><time>2026-05-06T13:24:44.998Z</time></trkpt><trkpt lat="44.1232533" lon="12.1869567"><ele>61.0</ele><time>2026-05-06T13:24:45.998Z</time></trkpt><trkpt lat="44.1233167" lon="12.1869533"><ele>60.99999999999999</ele><time>2026-05-06T13:24:46.997Z</time></trkpt><trkpt lat="44.1233817" lon="12.1869517"><ele>61.0</ele><time>2026-05-06T13:24:47.997Z</time></trkpt><trkpt lat="44.1234467" lon="12.1869433"><ele>61.14285714285714</ele><time>2026-05-06T13:24:48.997Z</time></trkpt><trkpt lat="44.12351" lon="12.18694"><ele>61.285714285714285</ele><time>2026-05-06T13:24:49.998Z</time></trkpt><trkpt lat="44.1235733" lon="12.1869333"><ele>61.42857142857143</ele><time>2026-05-06T13:24:50.998Z</time></trkpt><trkpt lat="44.1236367" lon="12.1869283"><ele>61.57142857142857</ele><time>2026-05-06T13:24:51.997Z</time></trkpt><trkpt lat="44.12376" lon="12.1869233"><ele>61.71428571428572</ele><time>2026-05-06T13:24:53.997Z</time></trkpt><trkpt lat="44.1238233" lon="12.1869167"><ele>61.85714285714286</ele><time>2026-05-06T13:24:54.997Z</time></trkpt><trkpt lat="44.1238867" lon="12.1869083"><ele>62.0</ele><time>2026-05-06T13:24:55.998Z</time></trkpt><trkpt lat="44.12395" lon="12.1869"><ele>61.8</ele><time>2026-05-06T13:24:56.997Z</time></trkpt><trkpt lat="44.1240817" lon="12.18688"><ele>61.6</ele><time>2026-05-06T13:24:58.997Z</time></trkpt><trkpt lat="44.1241467" lon="12.1868683"><ele>61.39999999999999</ele><time>2026-05-06T13:24:59.997Z</time></trkpt><trkpt lat="44.1242133" lon="12.1868533"><ele>61.199999999999996</ele><time>2026-05-06T13:25:00.998Z</time></trkpt><trkpt lat="44.1242767" lon="12.1868317"><ele>61.0</ele><time>2026-05-06T13:25:01.998Z</time></trkpt><trkpt lat="44.1244" lon="12.1867867"><ele>60.99999999999999</ele><time>2026-05-06T13:25:03.998Z</time></trkpt><trkpt lat="44.1244617" lon="12.186765"><ele>61.0</ele><time>2026-05-06T13:25:04.998Z</time></trkpt><trkpt lat="44.12453" lon="12.18674"><ele>60.99999999999999</ele><time>2026-05-06T13:25:05.998Z</time></trkpt><trkpt lat="44.1245983" lon="12.1867167"><ele>60.99999999999999</ele><time>2026-05-06T13:25:06.998Z</time></trkpt><trkpt lat="44.124665" lon="12.1866917"><ele>61.0</ele><time>2026-05-06T13:25:07.998Z</time></trkpt><trkpt lat="44.1247267" lon="12.18667"><ele>60.99999999999999</ele><time>2026-05-06T13:25:08.998Z</time></trkpt><trkpt lat="44.1247867" lon="12.1866433"><ele>60.99999999999999</ele><time>2026-05-06T13:25:09.997Z</time></trkpt><trkpt lat="44.1248517" lon="12.18661"><ele>60.99999999999999</ele><time>2026-05-06T13:25:10.997Z</time></trkpt><trkpt lat="44.1249133" lon="12.186575"><ele>61.0</ele><time>2026-05-06T13:25:11.998Z</time></trkpt><trkpt lat="44.12498" lon="12.1865483"><ele>60.99999999999999</ele><time>2026-05-06T13:25:12.997Z</time></trkpt><trkpt lat="44.1250483" lon="12.1865167"><ele>60.99999999999999</ele><time>2026-05-06T13:25:13.997Z</time></trkpt><trkpt lat="44.1251117" lon="12.1864933"><ele>61.0</ele><time>2026-05-06T13:25:14.997Z</time></trkpt><trkpt lat="44.1251783" lon="12.1864733"><ele>60.99999999999999</ele><time>2026-05-06T13:25:15.997Z</time></trkpt><trkpt lat="44.125245" lon="12.186455"><ele>60.99999999999999</ele><time>2026-05-06T13:25:16.997Z</time></trkpt><trkpt lat="44.1253117" lon="12.186435"><ele>60.99999999999999</ele><time>2026-05-06T13:25:17.998Z</time></trkpt><trkpt lat="44.1253783" lon="12.1864133"><ele>61.0</ele><time>2026-05-06T13:25:18.997Z</time></trkpt><trkpt lat="44.125445" lon="12.1863917"><ele>60.99999999999999</ele><time>2026-05-06T13:25:19.997Z</time></trkpt><trkpt lat="44.1255133" lon="12.1863683"><ele>60.99999999999999</ele><time>2026-05-06T13:25:20.998Z</time></trkpt><trkpt lat="44.1255817" lon="12.1863467"><ele>61.0</ele><time>2026-05-06T13:25:21.997Z</time></trkpt><trkpt lat="44.1256483" lon="12.1863217"><ele>60.99999999999999</ele><time>2026-05-06T13:25:22.997Z</time></trkpt><trkpt lat="44.1257167" lon="12.1862917"><ele>60.99999999999999</ele><time>2026-05-06T13:25:23.997Z</time></trkpt><trkpt lat="44.1257833" lon="12.1862617"><ele>60.71428571428571</ele><time>2026-05-06T13:25:24.998Z</time></trkpt><trkpt lat="44.12585" lon="12.1862367"><ele>60.42857142857143</ele><time>2026-05-06T13:25:25.998Z</time></trkpt><trkpt lat="44.1259167" lon="12.1862033"><ele>60.14285714285714</ele><time>2026-05-06T13:25:26.998Z</time></trkpt><trkpt lat="44.12598" lon="12.18618"><ele>59.857142857142854</ele><time>2026-05-06T13:25:27.997Z</time></trkpt><trkpt lat="44.1260467" lon="12.1861483"><ele>59.57142857142857</ele><time>2026-05-06T13:25:28.998Z</time></trkpt><trkpt lat="44.1261117" lon="12.1861267"><ele>59.285714285714285</ele><time>2026-05-06T13:25:29.998Z</time></trkpt><trkpt lat="44.1261783" lon="12.186095"><ele>59.0</ele><time>2026-05-06T13:25:30.998Z</time></trkpt><trkpt lat="44.12624" lon="12.1860683"><ele>59.00000000000001</ele><time>2026-05-06T13:25:31.997Z</time></trkpt><trkpt lat="44.1263067" lon="12.1860433"><ele>59.0</ele><time>2026-05-06T13:25:32.997Z</time></trkpt><trkpt lat="44.126435" lon="12.1860017"><ele>59.0</ele><time>2026-05-06T13:25:34.998Z</time></trkpt><trkpt lat="44.1265" lon="12.185975"><ele>59.0</ele><time>2026-05-06T13:25:35.998Z</time></trkpt><trkpt lat="44.1265633" lon="12.18595"><ele>59.00000000000001</ele><time>2026-05-06T13:25:36.997Z</time></trkpt><trkpt lat="44.126625" lon="12.1859217"><ele>59.0</ele><time>2026-05-06T13:25:37.998Z</time></trkpt><trkpt lat="44.1266867" lon="12.18589"><ele>58.57142857142857</ele><time>2026-05-06T13:25:38.997Z</time></trkpt><trkpt lat="44.12675" lon="12.1858617"><ele>58.142857142857146</ele><time>2026-05-06T13:25:39.997Z</time></trkpt><trkpt lat="44.126815" lon="12.1858317"><ele>57.714285714285715</ele><time>2026-05-06T13:25:40.998Z</time></trkpt><trkpt lat="44.1268817" lon="12.1858067"><ele>57.285714285714285</ele><time>2026-05-06T13:25:41.998Z</time></trkpt><trkpt lat="44.126945" lon="12.185785"><ele>56.85714285714286</ele><time>2026-05-06T13:25:42.997Z</time></trkpt><trkpt lat="44.1270083" lon="12.1857617"><ele>56.42857142857143</ele><time>2026-05-06T13:25:43.997Z</time></trkpt><trkpt lat="44.1270767" lon="12.1857317"><ele>56.0</ele><time>2026-05-06T13:25:44.997Z</time></trkpt><trkpt lat="44.1271483" lon="12.1857083"><ele>56.00000000000001</ele><time>2026-05-06T13:25:45.997Z</time></trkpt><trkpt lat="44.1272167" lon="12.1856867"><ele>56.0</ele><time>2026-05-06T13:25:46.997Z</time></trkpt><trkpt lat="44.12728" lon="12.18566"><ele>56.0</ele><time>2026-05-06T13:25:47.998Z</time></trkpt><trkpt lat="44.1273933" lon="12.1856167"><ele>56.0</ele><time>2026-05-06T13:25:49.997Z</time></trkpt><trkpt lat="44.1274567" lon="12.1855967"><ele>56.00000000000001</ele><time>2026-05-06T13:25:50.998Z</time></trkpt><trkpt lat="44.1275733" lon="12.1855667"><ele>56.0</ele><time>2026-05-06T13:25:52.998Z</time></trkpt><trkpt lat="44.1276983" lon="12.18554"><ele>56.16666666666667</ele><time>2026-05-06T13:25:54.997Z</time></trkpt><trkpt lat="44.127775" lon="12.1855583"><ele>56.333333333333336</ele><time>2026-05-06T13:25:55.997Z</time></trkpt><trkpt lat="44.1278417" lon="12.1855633"><ele>56.5</ele><time>2026-05-06T13:25:56.998Z</time></trkpt><trkpt lat="44.1279067" lon="12.1855717"><ele>56.66666666666667</ele><time>2026-05-06T13:25:57.998Z</time></trkpt><trkpt lat="44.12797" lon="12.1855733"><ele>56.833333333333336</ele><time>2026-05-06T13:25:58.997Z</time></trkpt><trkpt lat="44.1280917" lon="12.18558"><ele>57.0</ele><time>2026-05-06T13:26:00.997Z</time></trkpt><trkpt lat="44.128155" lon="12.1855817"><ele>57.0</ele><time>2026-05-06T13:26:01.998Z</time></trkpt><trkpt lat="44.12822" lon="12.1855833"><ele>56.99999999999999</ele><time>2026-05-06T13:26:02.998Z</time></trkpt><trkpt lat="44.1282883" lon="12.185585"><ele>57.0</ele><time>2026-05-06T13:26:03.998Z</time></trkpt><trkpt lat="44.1283517" lon="12.18559"><ele>57.0</ele><time>2026-05-06T13:26:04.997Z</time></trkpt><trkpt lat="44.128415" lon="12.1855983"><ele>56.99999999999999</ele><time>2026-05-06T13:26:05.997Z</time></trkpt><trkpt lat="44.1284817" lon="12.1856033"><ele>57.0</ele><time>2026-05-06T13:26:06.998Z</time></trkpt><trkpt lat="44.1285483" lon="12.185615"><ele>57.0</ele><time>2026-05-06T13:26:07.997Z</time></trkpt><trkpt lat="44.1286133" lon="12.1856183"><ele>57.0</ele><time>2026-05-06T13:26:08.998Z</time></trkpt><trkpt lat="44.1286783" lon="12.1856233"><ele>56.99999999999999</ele><time>2026-05-06T13:26:09.998Z</time></trkpt><trkpt lat="44.1287433" lon="12.1856267"><ele>57.0</ele><time>2026-05-06T13:26:10.997Z</time></trkpt><trkpt lat="44.1288067" lon="12.185635"><ele>57.0</ele><time>2026-05-06T13:26:11.998Z</time></trkpt><trkpt lat="44.1288733" lon="12.18564"><ele>56.99999999999999</ele><time>2026-05-06T13:26:12.998Z</time></trkpt><trkpt lat="44.12894" lon="12.18565"><ele>57.0</ele><time>2026-05-06T13:26:13.997Z</time></trkpt><trkpt lat="44.129005" lon="12.1856567"><ele>57.0</ele><time>2026-05-06T13:26:14.998Z</time></trkpt><trkpt lat="44.12907" lon="12.18567"><ele>57.14285714285714</ele><time>2026-05-06T13:26:15.998Z</time></trkpt><trkpt lat="44.129135" lon="12.1856783"><ele>57.28571428571428</ele><time>2026-05-06T13:26:16.998Z</time></trkpt><trkpt lat="44.1292017" lon="12.18569"><ele>57.42857142857143</ele><time>2026-05-06T13:26:17.998Z</time></trkpt><trkpt lat="44.1292683" lon="12.1857017"><ele>57.57142857142857</ele><time>2026-05-06T13:26:18.997Z</time></trkpt><trkpt lat="44.129335" lon="12.1857117"><ele>57.714285714285715</ele><time>2026-05-06T13:26:19.998Z</time></trkpt><trkpt lat="44.1294" lon="12.1857233"><ele>57.85714285714286</ele><time>2026-05-06T13:26:20.997Z</time></trkpt><trkpt lat="44.129465" lon="12.185735"><ele>58.00000000000001</ele><time>2026-05-06T13:26:21.997Z</time></trkpt><trkpt lat="44.129585" lon="12.18575"><ele>57.71428571428572</ele><time>2026-05-06T13:26:23.998Z</time></trkpt><trkpt lat="44.1296483" lon="12.1857717"><ele>57.42857142857143</ele><time>2026-05-06T13:26:24.998Z</time></trkpt><trkpt lat="44.1297083" lon="12.185805"><ele>57.142857142857146</ele><time>2026-05-06T13:26:25.997Z</time></trkpt><trkpt lat="44.1297733" lon="12.1858383"><ele>56.85714285714286</ele><time>2026-05-06T13:26:26.997Z</time></trkpt><trkpt lat="44.1298383" lon="12.1858733"><ele>56.57142857142857</ele><time>2026-05-06T13:26:27.997Z</time></trkpt><trkpt lat="44.129905" lon="12.185905"><ele>56.285714285714285</ele><time>2026-05-06T13:26:28.997Z</time></trkpt><trkpt lat="44.1299717" lon="12.1859317"><ele>56.0</ele><time>2026-05-06T13:26:29.997Z</time></trkpt><trkpt lat="44.1300383" lon="12.18596"><ele>55.66666666666667</ele><time>2026-05-06T13:26:30.998Z</time></trkpt><trkpt lat="44.1300967" lon="12.1860033"><ele>55.333333333333336</ele><time>2026-05-06T13:26:31.997Z</time></trkpt><trkpt lat="44.1301567" lon="12.1860483"><ele>55.0</ele><time>2026-05-06T13:26:32.997Z</time></trkpt><trkpt lat="44.1302167" lon="12.18609"><ele>54.66666666666667</ele><time>2026-05-06T13:26:33.997Z</time></trkpt><trkpt lat="44.130325" lon="12.1861783"><ele>54.333333333333336</ele><time>2026-05-06T13:26:35.997Z</time></trkpt><trkpt lat="44.1303833" lon="12.1862167"><ele>54.0</ele><time>2026-05-06T13:26:36.998Z</time></trkpt><trkpt lat="44.1304467" lon="12.1862567"><ele>54.0</ele><time>2026-05-06T13:26:37.997Z</time></trkpt><trkpt lat="44.1305067" lon="12.186295"><ele>54.0</ele><time>2026-05-06T13:26:38.997Z</time></trkpt><trkpt lat="44.1305967" lon="12.1863133"><ele>54.0</ele><time>2026-05-06T13:26:40.997Z</time></trkpt><trkpt lat="44.1306533" lon="12.18623"><ele>54.0</ele><time>2026-05-06T13:26:42.997Z</time></trkpt><trkpt lat="44.1306367" lon="12.1861267"><ele>54.0</ele><time>2026-05-06T13:26:44.997Z</time></trkpt><trkpt lat="44.130615" lon="12.1860383"><ele>54.0</ele><time>2026-05-06T13:26:46.997Z</time></trkpt><trkpt lat="44.1305983" lon="12.18595"><ele>54.0</ele><time>2026-05-06T13:26:48.997Z</time></trkpt><trkpt lat="44.1305833" lon="12.1858583"><ele>54.0</ele><time>2026-05-06T13:26:50.997Z</time></trkpt><trkpt lat="44.13057" lon="12.1857533"><ele>54.0</ele><time>2026-05-06T13:26:52.997Z</time></trkpt><trkpt lat="44.1305483" lon="12.1856333"><ele>54.0</ele><time>2026-05-06T13:26:54.998Z</time></trkpt><trkpt lat="44.1305183" lon="12.1855067"><ele>54.0</ele><time>2026-05-06T13:26:56.997Z</time></trkpt><trkpt lat="44.130495" lon="12.185395"><ele>54.0</ele><time>2026-05-06T13:26:58.998Z</time></trkpt><trkpt lat="44.13046" lon="12.1852783"><ele>54.0</ele><time>2026-05-06T13:27:00.998Z</time></trkpt><trkpt lat="44.1304267" lon="12.1851617"><ele>54.285714285714285</ele><time>2026-05-06T13:27:02.998Z</time></trkpt><trkpt lat="44.1304033" lon="12.18507"><ele>54.57142857142857</ele><time>2026-05-06T13:27:04.997Z</time></trkpt><trkpt lat="44.1303733" lon="12.184985"><ele>54.85714285714286</ele><time>2026-05-06T13:27:06.998Z</time></trkpt><trkpt lat="44.13035" lon="12.1849033"><ele>55.14285714285714</ele><time>2026-05-06T13:27:08.997Z</time></trkpt><trkpt lat="44.1303233" lon="12.1848233"><ele>55.42857142857143</ele><time>2026-05-06T13:27:10.997Z</time></trkpt><trkpt lat="44.1303033" lon="12.1847033"><ele>55.714285714285715</ele><time>2026-05-06T13:27:13.998Z</time></trkpt><trkpt lat="44.130275" lon="12.18458"><ele>56.0</ele><time>2026-05-06T13:27:16.998Z</time></trkpt><trkpt lat="44.130255" lon="12.1844967"><ele>56.333333333333336</ele><time>2026-05-06T13:27:18.997Z</time></trkpt><trkpt lat="44.1302233" lon="12.1843867"><ele>56.66666666666667</ele><time>2026-05-06T13:27:21.998Z</time></trkpt><trkpt lat="44.130195" lon="12.18427"><ele>57.0</ele><time>2026-05-06T13:27:24.997Z</time></trkpt><trkpt lat="44.1301633" lon="12.18415"><ele>57.33333333333333</ele><time>2026-05-06T13:27:27.997Z</time></trkpt><trkpt lat="44.13014" lon="12.1840267"><ele>57.666666666666664</ele><time>2026-05-06T13:27:30.998Z</time></trkpt><trkpt lat="44.1301133" lon="12.1839083"><ele>58.0</ele><time>2026-05-06T13:27:33.997Z</time></trkpt><trkpt lat="44.1300833" lon="12.1837933"><ele>58.49999999999999</ele><time>2026-05-06T13:27:36.998Z</time></trkpt><trkpt lat="44.1300567" lon="12.1836783"><ele>59.0</ele><time>2026-05-06T13:27:39.997Z</time></trkpt><trkpt lat="44.1300383" lon="12.1835717"><ele>59.5</ele><time>2026-05-06T13:27:42.997Z</time></trkpt><trkpt lat="44.1300233" lon="12.183465"><ele>60.0</ele><time>2026-05-06T13:27:45.998Z</time></trkpt><trkpt lat="44.13001" lon="12.18336"><ele>60.49999999999999</ele><time>2026-05-06T13:27:48.997Z</time></trkpt><trkpt lat="44.1299883" lon="12.1832533"><ele>61.0</ele><time>2026-05-06T13:27:51.998Z</time></trkpt><trkpt lat="44.12996" lon="12.18315"><ele>61.49999999999999</ele><time>2026-05-06T13:27:54.998Z</time></trkpt><trkpt lat="44.1299283" lon="12.1830383"><ele>62.0</ele><time>2026-05-06T13:27:57.997Z</time></trkpt><trkpt lat="44.1298917" lon="12.18293"><ele>62.5</ele><time>2026-05-06T13:28:00.997Z</time></trkpt><trkpt lat="44.12986" lon="12.1828217"><ele>63.0</ele><time>2026-05-06T13:28:03.997Z</time></trkpt><trkpt lat="44.1298183" lon="12.1827167"><ele>63.49999999999999</ele><time>2026-05-06T13:28:06.998Z</time></trkpt><trkpt lat="44.1297967" lon="12.1826067"><ele>64.0</ele><time>2026-05-06T13:28:09.998Z</time></trkpt><trkpt lat="44.1297883" lon="12.182515"><ele>64.0</ele><time>2026-05-06T13:28:12.997Z</time></trkpt><trkpt lat="44.12978" lon="12.1824117"><ele>63.99999999999999</ele><time>2026-05-06T13:28:16.997Z</time></trkpt><trkpt lat="44.1297733" lon="12.1823017"><ele>64.0</ele><time>2026-05-06T13:28:21.998Z</time></trkpt><trkpt lat="44.1297867" lon="12.18221"><ele>64.0</ele><time>2026-05-06T13:28:24.997Z</time></trkpt><trkpt lat="44.1297917" lon="12.18212"><ele>63.99999999999999</ele><time>2026-05-06T13:28:27.998Z</time></trkpt><trkpt lat="44.1298" lon="12.1820317"><ele>64.0</ele><time>2026-05-06T13:28:30.997Z</time></trkpt><trkpt lat="44.1298133" lon="12.1819433"><ele>64.0</ele><time>2026-05-06T13:28:33.998Z</time></trkpt><trkpt lat="44.1298233" lon="12.1818267"><ele>64.42857142857143</ele><time>2026-05-06T13:28:37.997Z</time></trkpt><trkpt lat="44.1298367" lon="12.1817183"><ele>64.85714285714285</ele><time>2026-05-06T13:28:41.997Z</time></trkpt><trkpt lat="44.1298567" lon="12.1816117"><ele>65.28571428571428</ele><time>2026-05-06T13:28:45.997Z</time></trkpt><trkpt lat="44.1298667" lon="12.1815133"><ele>65.71428571428571</ele><time>2026-05-06T13:28:49.997Z</time></trkpt><trkpt lat="44.1298733" lon="12.181425"><ele>66.14285714285714</ele><time>2026-05-06T13:28:53.997Z</time></trkpt><trkpt lat="44.12989" lon="12.1813317"><ele>66.57142857142857</ele><time>2026-05-06T13:28:57.997Z</time></trkpt><trkpt lat="44.129895" lon="12.181235"><ele>67.0</ele><time>2026-05-06T13:29:01.997Z</time></trkpt><trkpt lat="44.1299133" lon="12.1811367"><ele>68.0</ele><time>2026-05-06T13:29:05.998Z</time></trkpt><trkpt lat="44.1299283" lon="12.18104"><ele>69.0</ele><time>2026-05-06T13:29:09.997Z</time></trkpt><trkpt lat="44.1299483" lon="12.1809467"><ele>70.0</ele><time>2026-05-06T13:29:13.997Z</time></trkpt><trkpt lat="44.1299517" lon="12.1808517"><ele>71.0</ele><time>2026-05-06T13:29:17.997Z</time></trkpt><trkpt lat="44.1299483" lon="12.1807483"><ele>72.0</ele><time>2026-05-06T13:29:21.998Z</time></trkpt><trkpt lat="44.12994" lon="12.1806483"><ele>73.0</ele><time>2026-05-06T13:29:25.998Z</time></trkpt><trkpt lat="44.1299367" lon="12.1805467"><ele>74.0</ele><time>2026-05-06T13:29:29.997Z</time></trkpt><trkpt lat="44.1299333" lon="12.18045"><ele>74.85714285714286</ele><time>2026-05-06T13:29:33.998Z</time></trkpt><trkpt lat="44.12993" lon="12.1803533"><ele>75.71428571428571</ele><time>2026-05-06T13:29:37.997Z</time></trkpt><trkpt lat="44.1299333" lon="12.18025"><ele>76.57142857142857</ele><time>2026-05-06T13:29:41.997Z</time></trkpt><trkpt lat="44.1299467" lon="12.1801533"><ele>77.42857142857143</ele><time>2026-05-06T13:29:45.998Z</time></trkpt><trkpt lat="44.1299467" lon="12.1800567"><ele>78.28571428571429</ele><time>2026-05-06T13:29:49.997Z</time></trkpt><trkpt lat="44.1299317" lon="12.17997"><ele>79.14285714285714</ele><time>2026-05-06T13:29:52.997Z</time></trkpt><trkpt lat="44.1299217" lon="12.17986"><ele>80.0</ele><time>2026-05-06T13:29:56.998Z</time></trkpt><trkpt lat="44.1299067" lon="12.1797583"><ele>80.33333333333334</ele><time>2026-05-06T13:30:00.997Z</time></trkpt><trkpt lat="44.129895" lon="12.17967"><ele>80.66666666666667</ele><time>2026-05-06T13:30:03.998Z</time></trkpt><trkpt lat="44.1298767" lon="12.1795583"><ele>81.0</ele><time>2026-05-06T13:30:07.997Z</time></trkpt><trkpt lat="44.1298567" lon="12.1794517"><ele>81.33333333333333</ele><time>2026-05-06T13:30:11.998Z</time></trkpt><trkpt lat="44.129835" lon="12.1793517"><ele>81.66666666666666</ele><time>2026-05-06T13:30:15.997Z</time></trkpt><trkpt lat="44.129795" lon="12.17925"><ele>82.0</ele><time>2026-05-06T13:30:19.997Z</time></trkpt><trkpt lat="44.1297567" lon="12.179155"><ele>82.0</ele><time>2026-05-06T13:30:23.997Z</time></trkpt><trkpt lat="44.1297117" lon="12.17907"><ele>82.0</ele><time>2026-05-06T13:30:27.997Z</time></trkpt><trkpt lat="44.12966" lon="12.1789867"><ele>82.0</ele><time>2026-05-06T13:30:31.998Z</time></trkpt><trkpt lat="44.1296117" lon="12.1789017"><ele>82.0</ele><time>2026-05-06T13:30:35.998Z</time></trkpt><trkpt lat="44.12956" lon="12.1788233"><ele>82.0</ele><time>2026-05-06T13:30:39.997Z</time></trkpt><trkpt lat="44.1295133" lon="12.1787417"><ele>82.0</ele><time>2026-05-06T13:30:43.997Z</time></trkpt><trkpt lat="44.1294717" lon="12.178655"><ele>83.14285714285714</ele><time>2026-05-06T13:30:47.997Z</time></trkpt><trkpt lat="44.1294333" lon="12.1785733"><ele>84.28571428571428</ele><time>2026-05-06T13:30:51.998Z</time></trkpt><trkpt lat="44.1294067" lon="12.1784733"><ele>85.42857142857142</ele><time>2026-05-06T13:30:55.997Z</time></trkpt><trkpt lat="44.1293733" lon="12.178375"><ele>86.57142857142857</ele><time>2026-05-06T13:30:59.998Z</time></trkpt><trkpt lat="44.129345" lon="12.1782933"><ele>87.71428571428572</ele><time>2026-05-06T13:31:02.998Z</time></trkpt><trkpt lat="44.12932" lon="12.1782117"><ele>88.85714285714285</ele><time>2026-05-06T13:31:05.997Z</time></trkpt><trkpt lat="44.129285" lon="12.17811"><ele>90.0</ele><time>2026-05-06T13:31:09.997Z</time></trkpt><trkpt lat="44.1292617" lon="12.177995"><ele>91.0</ele><time>2026-05-06T13:31:13.997Z</time></trkpt><trkpt lat="44.1292467" lon="12.1778867"><ele>92.0</ele><time>2026-05-06T13:31:17.997Z</time></trkpt><trkpt lat="44.1292233" lon="12.1777833"><ele>93.0</ele><time>2026-05-06T13:31:21.998Z</time></trkpt><trkpt lat="44.1292" lon="12.1776883"><ele>94.0</ele><time>2026-05-06T13:31:25.997Z</time></trkpt><trkpt lat="44.12919" lon="12.1776017"><ele>95.0</ele><time>2026-05-06T13:31:28.997Z</time></trkpt><trkpt lat="44.1291783" lon="12.177495"><ele>96.0</ele><time>2026-05-06T13:31:32.997Z</time></trkpt><trkpt lat="44.12917" lon="12.1774067"><ele>97.0</ele><time>2026-05-06T13:31:35.997Z</time></trkpt><trkpt lat="44.129165" lon="12.177315"><ele>97.71428571428571</ele><time>2026-05-06T13:31:38.998Z</time></trkpt><trkpt lat="44.1291633" lon="12.1772117"><ele>98.42857142857143</ele><time>2026-05-06T13:31:42.998Z</time></trkpt><trkpt lat="44.1291683" lon="12.1770983"><ele>99.14285714285714</ele><time>2026-05-06T13:31:46.998Z</time></trkpt><trkpt lat="44.1291833" lon="12.1769867"><ele>99.85714285714286</ele><time>2026-05-06T13:31:50.998Z</time></trkpt><trkpt lat="44.1291917" lon="12.176895"><ele>100.57142857142858</ele><time>2026-05-06T13:31:53.998Z</time></trkpt><trkpt lat="44.12919" lon="12.1768033"><ele>101.28571428571429</ele><time>2026-05-06T13:31:56.997Z</time></trkpt><trkpt lat="44.12918" lon="12.1766983"><ele>102.0</ele><time>2026-05-06T13:32:00.998Z</time></trkpt><trkpt lat="44.1291567" lon="12.1766167"><ele>103.33333333333333</ele><time>2026-05-06T13:32:03.997Z</time></trkpt><trkpt lat="44.129145" lon="12.1765033"><ele>104.66666666666666</ele><time>2026-05-06T13:32:07.997Z</time></trkpt><trkpt lat="44.129135" lon="12.1763917"><ele>106.0</ele><time>2026-05-06T13:32:11.998Z</time></trkpt><trkpt lat="44.1291383" lon="12.176285"><ele>107.33333333333333</ele><time>2026-05-06T13:32:15.998Z</time></trkpt><trkpt lat="44.129145" lon="12.1761667"><ele>108.66666666666666</ele><time>2026-05-06T13:32:19.997Z</time></trkpt><trkpt lat="44.1291233" lon="12.1760583"><ele>110.0</ele><time>2026-05-06T13:32:23.997Z</time></trkpt><trkpt lat="44.12911" lon="12.1759467"><ele>109.99999999999999</ele><time>2026-05-06T13:32:27.997Z</time></trkpt><trkpt lat="44.12909" lon="12.17586"><ele>110.0</ele><time>2026-05-06T13:32:30.998Z</time></trkpt><trkpt lat="44.129065" lon="12.175775"><ele>110.0</ele><time>2026-05-06T13:32:33.997Z</time></trkpt><trkpt lat="44.12904" lon="12.1756867"><ele>110.0</ele><time>2026-05-06T13:32:36.998Z</time></trkpt><trkpt lat="44.1290033" lon="12.1755917"><ele>110.0</ele><time>2026-05-06T13:32:40.998Z</time></trkpt><trkpt lat="44.1289733" lon="12.1755117"><ele>109.99999999999999</ele><time>2026-05-06T13:32:43.998Z</time></trkpt><trkpt lat="44.1289433" lon="12.1754283"><ele>110.0</ele><time>2026-05-06T13:32:46.997Z</time></trkpt><trkpt lat="44.1289083" lon="12.175335"><ele>109.85714285714285</ele><time>2026-05-06T13:32:50.998Z</time></trkpt><trkpt lat="44.1288783" lon="12.17525"><ele>109.71428571428571</ele><time>2026-05-06T13:32:53.997Z</time></trkpt><trkpt lat="44.128845" lon="12.175155"><ele>109.57142857142857</ele><time>2026-05-06T13:32:56.997Z</time></trkpt><trkpt lat="44.12882" lon="12.1750617"><ele>109.42857142857142</ele><time>2026-05-06T13:32:59.998Z</time></trkpt><trkpt lat="44.1287783" lon="12.1749733"><ele>109.28571428571429</ele><time>2026-05-06T13:33:02.997Z</time></trkpt><trkpt lat="44.12873" lon="12.17489"><ele>109.14285714285714</ele><time>2026-05-06T13:33:05.997Z</time></trkpt><trkpt lat="44.1286833" lon="12.1748233"><ele>109.0</ele><time>2026-05-06T13:33:08.998Z</time></trkpt><trkpt lat="44.1286333" lon="12.174755"><ele>109.83333333333334</ele><time>2026-05-06T13:33:11.997Z</time></trkpt><trkpt lat="44.128565" lon="12.17468"><ele>110.66666666666667</ele><time>2026-05-06T13:33:14.997Z</time></trkpt><trkpt lat="44.1284967" lon="12.1746217"><ele>111.5</ele><time>2026-05-06T13:33:17.998Z</time></trkpt><trkpt lat="44.1284367" lon="12.1745433"><ele>112.33333333333334</ele><time>2026-05-06T13:33:20.997Z</time></trkpt><trkpt lat="44.1283883" lon="12.1744867"><ele>113.16666666666667</ele><time>2026-05-06T13:33:22.997Z</time></trkpt><trkpt lat="44.1283433" lon="12.17442"><ele>114.0</ele><time>2026-05-06T13:33:25.997Z</time></trkpt><trkpt lat="44.1283083" lon="12.1743233"><ele>114.0</ele><time>2026-05-06T13:33:29.997Z</time></trkpt><trkpt lat="44.1282683" lon="12.1742533"><ele>113.99999999999999</ele><time>2026-05-06T13:33:32.997Z</time></trkpt><trkpt lat="44.1282317" lon="12.1741733"><ele>114.0</ele><time>2026-05-06T13:33:35.997Z</time></trkpt><trkpt lat="44.1281867" lon="12.1740883"><ele>114.0</ele><time>2026-05-06T13:33:38.998Z</time></trkpt><trkpt lat="44.1281483" lon="12.17401"><ele>113.99999999999999</ele><time>2026-05-06T13:33:41.998Z</time></trkpt><trkpt lat="44.1281083" lon="12.173915"><ele>114.0</ele><time>2026-05-06T13:33:44.997Z</time></trkpt><trkpt lat="44.1280617" lon="12.1738383"><ele>114.0</ele><time>2026-05-06T13:33:47.997Z</time></trkpt><trkpt lat="44.1280083" lon="12.1737717"><ele>116.42857142857142</ele><time>2026-05-06T13:33:50.997Z</time></trkpt><trkpt lat="44.127955" lon="12.17371"><ele>118.85714285714285</ele><time>2026-05-06T13:33:54.997Z</time></trkpt><trkpt lat="44.127905" lon="12.1736433"><ele>121.28571428571428</ele><time>2026-05-06T13:33:58.998Z</time></trkpt><trkpt lat="44.127845" lon="12.1736083"><ele>123.71428571428572</ele><time>2026-05-06T13:34:02.998Z</time></trkpt><trkpt lat="44.1277667" lon="12.1736167"><ele>126.14285714285715</ele><time>2026-05-06T13:34:06.997Z</time></trkpt><trkpt lat="44.1276983" lon="12.1736467"><ele>128.57142857142858</ele><time>2026-05-06T13:34:10.997Z</time></trkpt><trkpt lat="44.1276283" lon="12.1736817"><ele>131.0</ele><time>2026-05-06T13:34:14.998Z</time></trkpt><trkpt lat="44.1275617" lon="12.173725"><ele>131.0</ele><time>2026-05-06T13:34:18.997Z</time></trkpt><trkpt lat="44.1274933" lon="12.173755"><ele>131.0</ele><time>2026-05-06T13:34:22.998Z</time></trkpt><trkpt lat="44.1274333" lon="12.1737917"><ele>131.0</ele><time>2026-05-06T13:34:26.997Z</time></trkpt><trkpt lat="44.1273617" lon="12.17383"><ele>131.0</ele><time>2026-05-06T13:34:30.997Z</time></trkpt><trkpt lat="44.127295" lon="12.173865"><ele>131.0</ele><time>2026-05-06T13:34:34.997Z</time></trkpt><trkpt lat="44.127225" lon="12.1738717"><ele>131.0</ele><time>2026-05-06T13:34:38.997Z</time></trkpt><trkpt lat="44.1271533" lon="12.1738667"><ele>131.0</ele><time>2026-05-06T13:34:42.998Z</time></trkpt><trkpt lat="44.127075" lon="12.173855"><ele>132.0</ele><time>2026-05-06T13:34:46.998Z</time></trkpt><trkpt lat="44.1270083" lon="12.1738583"><ele>133.0</ele><time>2026-05-06T13:34:50.997Z</time></trkpt><trkpt lat="44.1269333" lon="12.173845"><ele>134.0</ele><time>2026-05-06T13:34:54.998Z</time></trkpt><trkpt lat="44.1268667" lon="12.1738267"><ele>135.0</ele><time>2026-05-06T13:34:58.997Z</time></trkpt><trkpt lat="44.126795" lon="12.1738033"><ele>136.0</ele><time>2026-05-06T13:35:02.998Z</time></trkpt><trkpt lat="44.1267233" lon="12.1737833"><ele>137.0</ele><time>2026-05-06T13:35:06.997Z</time></trkpt><trkpt lat="44.1266483" lon="12.1737767"><ele>138.0</ele><time>2026-05-06T13:35:10.997Z</time></trkpt><trkpt lat="44.1265783" lon="12.173775"><ele>137.71428571428572</ele><time>2026-05-06T13:35:14.997Z</time></trkpt><trkpt lat="44.1265083" lon="12.1737817"><ele>137.42857142857144</ele><time>2026-05-06T13:35:18.997Z</time></trkpt><trkpt lat="44.1264333" lon="12.1737833"><ele>137.14285714285714</ele><time>2026-05-06T13:35:22.998Z</time></trkpt><trkpt lat="44.1263667" lon="12.173795"><ele>136.85714285714286</ele><time>2026-05-06T13:35:26.997Z</time></trkpt><trkpt lat="44.1262933" lon="12.1737983"><ele>136.57142857142856</ele><time>2026-05-06T13:35:30.997Z</time></trkpt><trkpt lat="44.12622" lon="12.1737633"><ele>136.28571428571428</ele><time>2026-05-06T13:35:34.998Z</time></trkpt><trkpt lat="44.12617" lon="12.1736867"><ele>136.0</ele><time>2026-05-06T13:35:38.997Z</time></trkpt><trkpt lat="44.12617" lon="12.1735917"><ele>135.99999999999997</ele><time>2026-05-06T13:35:42.997Z</time></trkpt><trkpt lat="44.1262017" lon="12.1735083"><ele>136.0</ele><time>2026-05-06T13:35:46.998Z</time></trkpt><trkpt lat="44.1262433" lon="12.1734283"><ele>136.0</ele><time>2026-05-06T13:35:50.997Z</time></trkpt><trkpt lat="44.1262833" lon="12.173355"><ele>136.0</ele><time>2026-05-06T13:35:54.997Z</time></trkpt><trkpt lat="44.1263167" lon="12.1732733"><ele>136.0</ele><time>2026-05-06T13:35:58.997Z</time></trkpt><trkpt lat="44.1263467" lon="12.1731817"><ele>135.99999999999997</ele><time>2026-05-06T13:36:02.998Z</time></trkpt><trkpt lat="44.126385" lon="12.1731033"><ele>136.0</ele><time>2026-05-06T13:36:06.998Z</time></trkpt><trkpt lat="44.1264433" lon="12.1730317"><ele>136.99999999999997</ele><time>2026-05-06T13:36:10.998Z</time></trkpt><trkpt lat="44.1264883" lon="12.17297"><ele>138.0</ele><time>2026-05-06T13:36:13.997Z</time></trkpt><trkpt lat="44.12655" lon="12.1729067"><ele>139.0</ele><time>2026-05-06T13:36:17.998Z</time></trkpt><trkpt lat="44.126615" lon="12.17284"><ele>140.0</ele><time>2026-05-06T13:36:21.998Z</time></trkpt><trkpt lat="44.1266717" lon="12.1727933"><ele>141.0</ele><time>2026-05-06T13:36:24.998Z</time></trkpt><trkpt lat="44.12673" lon="12.1727417"><ele>141.99999999999997</ele><time>2026-05-06T13:36:28.998Z</time></trkpt><trkpt lat="44.1268017" lon="12.1726833"><ele>143.0</ele><time>2026-05-06T13:36:32.997Z</time></trkpt><trkpt lat="44.1268583" lon="12.1726367"><ele>143.0</ele><time>2026-05-06T13:36:35.997Z</time></trkpt><trkpt lat="44.1269133" lon="12.1725883"><ele>143.0</ele><time>2026-05-06T13:36:38.997Z</time></trkpt><trkpt lat="44.1269883" lon="12.1725267"><ele>143.0</ele><time>2026-05-06T13:36:42.997Z</time></trkpt><trkpt lat="44.1270483" lon="12.1724783"><ele>143.0</ele><time>2026-05-06T13:36:45.997Z</time></trkpt><trkpt lat="44.127105" lon="12.1724267"><ele>143.0</ele><time>2026-05-06T13:36:48.997Z</time></trkpt><trkpt lat="44.1271733" lon="12.1723567"><ele>143.0</ele><time>2026-05-06T13:36:51.997Z</time></trkpt><trkpt lat="44.1272433" lon="12.172295"><ele>142.57142857142856</ele><time>2026-05-06T13:36:54.997Z</time></trkpt><trkpt lat="44.12731" lon="12.1722517"><ele>142.14285714285714</ele><time>2026-05-06T13:36:57.998Z</time></trkpt><trkpt lat="44.12738" lon="12.1722017"><ele>141.71428571428572</ele><time>2026-05-06T13:37:00.997Z</time></trkpt><trkpt lat="44.1274367" lon="12.1721583"><ele>141.28571428571428</ele><time>2026-05-06T13:37:02.997Z</time></trkpt><trkpt lat="44.127495" lon="12.1720983"><ele>140.85714285714286</ele><time>2026-05-06T13:37:04.998Z</time></trkpt><trkpt lat="44.1275583" lon="12.1720317"><ele>140.42857142857142</ele><time>2026-05-06T13:37:06.998Z</time></trkpt><trkpt lat="44.1276183" lon="12.171965"><ele>140.0</ele><time>2026-05-06T13:37:08.997Z</time></trkpt><trkpt lat="44.1276717" lon="12.1718933"><ele>141.66666666666666</ele><time>2026-05-06T13:37:10.997Z</time></trkpt><trkpt lat="44.127735" lon="12.1718183"><ele>143.33333333333331</ele><time>2026-05-06T13:37:12.998Z</time></trkpt><trkpt lat="44.1278017" lon="12.1717417"><ele>145.0</ele><time>2026-05-06T13:37:14.997Z</time></trkpt><trkpt lat="44.1278617" lon="12.1716667"><ele>146.66666666666666</ele><time>2026-05-06T13:37:16.997Z</time></trkpt><trkpt lat="44.12792" lon="12.1715917"><ele>148.33333333333334</ele><time>2026-05-06T13:37:18.998Z</time></trkpt><trkpt lat="44.1279783" lon="12.1715233"><ele>150.0</ele><time>2026-05-06T13:37:20.997Z</time></trkpt><trkpt lat="44.1280333" lon="12.1714567"><ele>149.99999999999997</ele><time>2026-05-06T13:37:22.998Z</time></trkpt><trkpt lat="44.12809" lon="12.171395"><ele>150.0</ele><time>2026-05-06T13:37:24.997Z</time></trkpt><trkpt lat="44.128145" lon="12.17133"><ele>150.0</ele><time>2026-05-06T13:37:26.998Z</time></trkpt><trkpt lat="44.1282033" lon="12.1712733"><ele>150.0</ele><time>2026-05-06T13:37:28.998Z</time></trkpt><trkpt lat="44.1282617" lon="12.1712133"><ele>150.0</ele><time>2026-05-06T13:37:30.997Z</time></trkpt><trkpt lat="44.128315" lon="12.1711533"><ele>149.99999999999997</ele><time>2026-05-06T13:37:32.997Z</time></trkpt><trkpt lat="44.1283617" lon="12.1710883"><ele>150.0</ele><time>2026-05-06T13:37:34.997Z</time></trkpt><trkpt lat="44.128405" lon="12.17102"><ele>150.14285714285714</ele><time>2026-05-06T13:37:36.997Z</time></trkpt><trkpt lat="44.1284467" lon="12.17095"><ele>150.28571428571428</ele><time>2026-05-06T13:37:38.998Z</time></trkpt><trkpt lat="44.1284883" lon="12.1708833"><ele>150.42857142857144</ele><time>2026-05-06T13:37:40.997Z</time></trkpt><trkpt lat="44.12853" lon="12.17081"><ele>150.57142857142856</ele><time>2026-05-06T13:37:42.997Z</time></trkpt><trkpt lat="44.1285867" lon="12.170725"><ele>150.71428571428572</ele><time>2026-05-06T13:37:45.997Z</time></trkpt><trkpt lat="44.12864" lon="12.17064"><ele>150.85714285714286</ele><time>2026-05-06T13:37:48.998Z</time></trkpt><trkpt lat="44.12869" lon="12.1705433"><ele>151.0</ele><time>2026-05-06T13:37:51.997Z</time></trkpt><trkpt lat="44.1287283" lon="12.17046"><ele>151.5</ele><time>2026-05-06T13:37:54.998Z</time></trkpt><trkpt lat="44.1287917" lon="12.1703667"><ele>152.0</ele><time>2026-05-06T13:37:57.998Z</time></trkpt><trkpt lat="44.1288467" lon="12.17027"><ele>152.5</ele><time>2026-05-06T13:38:00.998Z</time></trkpt><trkpt lat="44.128905" lon="12.1701733"><ele>153.0</ele><time>2026-05-06T13:38:03.997Z</time></trkpt><trkpt lat="44.1289467" lon="12.1701"><ele>153.5</ele><time>2026-05-06T13:38:05.997Z</time></trkpt><trkpt lat="44.128995" lon="12.1700317"><ele>154.0</ele><time>2026-05-06T13:38:07.997Z</time></trkpt><trkpt lat="44.1290483" lon="12.1699583"><ele>154.66666666666669</ele><time>2026-05-06T13:38:09.997Z</time></trkpt><trkpt lat="44.1291083" lon="12.1698767"><ele>155.33333333333334</ele><time>2026-05-06T13:38:11.998Z</time></trkpt><trkpt lat="44.12917" lon="12.1697883"><ele>156.0</ele><time>2026-05-06T13:38:13.997Z</time></trkpt><trkpt lat="44.1292333" lon="12.1697017"><ele>156.66666666666666</ele><time>2026-05-06T13:38:15.998Z</time></trkpt><trkpt lat="44.1293" lon="12.1696067"><ele>157.33333333333331</ele><time>2026-05-06T13:38:17.997Z</time></trkpt><trkpt lat="44.1293617" lon="12.1695183"><ele>158.0</ele><time>2026-05-06T13:38:19.998Z</time></trkpt><trkpt lat="44.129415" lon="12.1694317"><ele>156.5</ele><time>2026-05-06T13:38:21.998Z</time></trkpt><trkpt lat="44.1294767" lon="12.1693533"><ele>155.0</ele><time>2026-05-06T13:38:23.997Z</time></trkpt><trkpt lat="44.12954" lon="12.1692833"><ele>153.5</ele><time>2026-05-06T13:38:25.997Z</time></trkpt><trkpt lat="44.1296" lon="12.16921"><ele>152.0</ele><time>2026-05-06T13:38:27.998Z</time></trkpt><trkpt lat="44.1296583" lon="12.1691383"><ele>150.5</ele><time>2026-05-06T13:38:29.997Z</time></trkpt><trkpt lat="44.129715" lon="12.1690583"><ele>149.0</ele><time>2026-05-06T13:38:31.997Z</time></trkpt><trkpt lat="44.1297733" lon="12.1689733"><ele>149.71428571428572</ele><time>2026-05-06T13:38:33.998Z</time></trkpt><trkpt lat="44.1298233" lon="12.168895"><ele>150.42857142857142</ele><time>2026-05-06T13:38:35.998Z</time></trkpt><trkpt lat="44.1298767" lon="12.1688183"><ele>151.14285714285714</ele><time>2026-05-06T13:38:37.997Z</time></trkpt><trkpt lat="44.1299267" lon="12.1687367"><ele>151.85714285714286</ele><time>2026-05-06T13:38:39.997Z</time></trkpt><trkpt lat="44.12997" lon="12.16866"><ele>152.57142857142856</ele><time>2026-05-06T13:38:41.997Z</time></trkpt><trkpt lat="44.1300083" lon="12.1685783"><ele>153.28571428571428</ele><time>2026-05-06T13:38:43.997Z</time></trkpt><trkpt lat="44.130045" lon="12.1685017"><ele>154.0</ele><time>2026-05-06T13:38:45.997Z</time></trkpt><trkpt lat="44.13008" lon="12.1684167"><ele>154.0</ele><time>2026-05-06T13:38:47.998Z</time></trkpt><trkpt lat="44.1301083" lon="12.1683383"><ele>154.0</ele><time>2026-05-06T13:38:49.997Z</time></trkpt><trkpt lat="44.1301417" lon="12.1682583"><ele>154.0</ele><time>2026-05-06T13:38:51.997Z</time></trkpt><trkpt lat="44.1301783" lon="12.1681783"><ele>154.0</ele><time>2026-05-06T13:38:53.997Z</time></trkpt><trkpt lat="44.13022" lon="12.168095"><ele>154.0</ele><time>2026-05-06T13:38:55.998Z</time></trkpt><trkpt lat="44.1302767" lon="12.16799"><ele>154.0</ele><time>2026-05-06T13:38:58.997Z</time></trkpt><trkpt lat="44.1303333" lon="12.16789"><ele>153.0</ele><time>2026-05-06T13:39:01.997Z</time></trkpt><trkpt lat="44.1303783" lon="12.16782"><ele>152.0</ele><time>2026-05-06T13:39:03.997Z</time></trkpt><trkpt lat="44.130425" lon="12.167755"><ele>151.0</ele><time>2026-05-06T13:39:05.997Z</time></trkpt><trkpt lat="44.13048" lon="12.1676883"><ele>150.0</ele><time>2026-05-06T13:39:07.997Z</time></trkpt><trkpt lat="44.1305383" lon="12.1676233"><ele>149.0</ele><time>2026-05-06T13:39:09.998Z</time></trkpt><trkpt lat="44.1305883" lon="12.16756"><ele>148.0</ele><time>2026-05-06T13:39:11.997Z</time></trkpt><trkpt lat="44.1306483" lon="12.1675067"><ele>147.0</ele><time>2026-05-06T13:39:13.998Z</time></trkpt><trkpt lat="44.13071" lon="12.1674483"><ele>148.5</ele><time>2026-05-06T13:39:15.998Z</time></trkpt><trkpt lat="44.1307633" lon="12.1673917"><ele>150.0</ele><time>2026-05-06T13:39:17.998Z</time></trkpt><trkpt lat="44.1308367" lon="12.16732"><ele>151.5</ele><time>2026-05-06T13:39:20.997Z</time></trkpt><trkpt lat="44.1309083" lon="12.1672583"><ele>153.0</ele><time>2026-05-06T13:39:25.996Z</time></trkpt><trkpt lat="44.1309917" lon="12.1672067"><ele>154.5</ele><time>2026-05-06T13:39:28.497Z</time></trkpt><trkpt lat="44.13107" lon="12.1671833"><ele>156.0</ele><time>2026-05-06T13:39:30.997Z</time></trkpt><trkpt lat="44.1311283" lon="12.16712"><ele>156.0</ele><time>2026-05-06T13:39:32.996Z</time></trkpt><trkpt lat="44.1311417" lon="12.1670267"><ele>156.0</ele><time>2026-05-06T13:39:34.996Z</time></trkpt><trkpt lat="44.1311633" lon="12.16693"><ele>156.0</ele><time>2026-05-06T13:39:36.997Z</time></trkpt><trkpt lat="44.1311917" lon="12.1668383"><ele>156.0</ele><time>2026-05-06T13:39:38.997Z</time></trkpt><trkpt lat="44.1312267" lon="12.1667233"><ele>156.0</ele><time>2026-05-06T13:39:40.997Z</time></trkpt><trkpt lat="44.13126" lon="12.16661"><ele>156.0</ele><time>2026-05-06T13:39:42.996Z</time></trkpt><trkpt lat="44.13129" lon="12.1664983"><ele>155.0</ele><time>2026-05-06T13:39:44.996Z</time></trkpt><trkpt lat="44.1313217" lon="12.1663867"><ele>154.0</ele><time>2026-05-06T13:39:46.996Z</time></trkpt><trkpt lat="44.1313567" lon="12.1662667"><ele>153.0</ele><time>2026-05-06T13:39:48.997Z</time></trkpt><trkpt lat="44.1313917" lon="12.1661383"><ele>152.0</ele><time>2026-05-06T13:39:50.996Z</time></trkpt><trkpt lat="44.1314267" lon="12.1660183"><ele>151.0</ele><time>2026-05-06T13:39:52.997Z</time></trkpt><trkpt lat="44.1314617" lon="12.1658983"><ele>151.0</ele><time>2026-05-06T13:39:54.997Z</time></trkpt><trkpt lat="44.1314933" lon="12.1657733"><ele>151.0</ele><time>2026-05-06T13:39:56.997Z</time></trkpt><trkpt lat="44.1315267" lon="12.1656517"><ele>151.0</ele><time>2026-05-06T13:39:58.997Z</time></trkpt><trkpt lat="44.131565" lon="12.1655233"><ele>151.0</ele><time>2026-05-06T13:40:00.996Z</time></trkpt><trkpt lat="44.1316033" lon="12.1653967"><ele>151.0</ele><time>2026-05-06T13:40:02.996Z</time></trkpt><trkpt lat="44.1316433" lon="12.1652783"><ele>151.8</ele><time>2026-05-06T13:40:04.996Z</time></trkpt><trkpt lat="44.13168" lon="12.165165"><ele>152.6</ele><time>2026-05-06T13:40:06.996Z</time></trkpt><trkpt lat="44.1317233" lon="12.1650533"><ele>153.4</ele><time>2026-05-06T13:40:08.997Z</time></trkpt><trkpt lat="44.131775" lon="12.1649433"><ele>154.2</ele><time>2026-05-06T13:40:10.997Z</time></trkpt><trkpt lat="44.131825" lon="12.1648367"><ele>155.0</ele><time>2026-05-06T13:40:12.997Z</time></trkpt><trkpt lat="44.1318817" lon="12.1647267"><ele>155.0</ele><time>2026-05-06T13:40:14.997Z</time></trkpt><trkpt lat="44.13194" lon="12.1646067"><ele>155.0</ele><time>2026-05-06T13:40:16.996Z</time></trkpt><trkpt lat="44.1320017" lon="12.1644733"><ele>155.0</ele><time>2026-05-06T13:40:18.996Z</time></trkpt><trkpt lat="44.1320667" lon="12.1643317"><ele>155.0</ele><time>2026-05-06T13:40:20.996Z</time></trkpt><trkpt lat="44.1321" lon="12.164255"><ele>155.0</ele><time>2026-05-06T13:40:21.996Z</time></trkpt><trkpt lat="44.1321367" lon="12.1641767"><ele>155.0</ele><time>2026-05-06T13:40:22.996Z</time></trkpt><trkpt lat="44.13217" lon="12.1640883"><ele>155.0</ele><time>2026-05-06T13:40:23.997Z</time></trkpt><trkpt lat="44.1322433" lon="12.1639233"><ele>155.0</ele><time>2026-05-06T13:40:25.996Z</time></trkpt><trkpt lat="44.1322817" lon="12.1638267"><ele>155.0</ele><time>2026-05-06T13:40:26.997Z</time></trkpt><trkpt lat="44.1323117" lon="12.1637183"><ele>155.0</ele><time>2026-05-06T13:40:27.997Z</time></trkpt><trkpt lat="44.1323433" lon="12.1636017"><ele>154.66666666666666</ele><time>2026-05-06T13:40:28.996Z</time></trkpt><trkpt lat="44.1323767" lon="12.1634817"><ele>154.33333333333331</ele><time>2026-05-06T13:40:29.997Z</time></trkpt><trkpt lat="44.1323983" lon="12.1633633"><ele>154.0</ele><time>2026-05-06T13:40:30.997Z</time></trkpt><trkpt lat="44.132415" lon="12.1632483"><ele>153.66666666666666</ele><time>2026-05-06T13:40:31.996Z</time></trkpt><trkpt lat="44.1324267" lon="12.1631283"><ele>153.33333333333334</ele><time>2026-05-06T13:40:32.996Z</time></trkpt><trkpt lat="44.13244" lon="12.162995"><ele>153.0</ele><time>2026-05-06T13:40:33.996Z</time></trkpt><trkpt lat="44.1324467" lon="12.1628617"><ele>152.20000000000002</ele><time>2026-05-06T13:40:34.996Z</time></trkpt><trkpt lat="44.1324533" lon="12.1627283"><ele>151.4</ele><time>2026-05-06T13:40:35.997Z</time></trkpt><trkpt lat="44.132465" lon="12.1625967"><ele>150.60000000000002</ele><time>2026-05-06T13:40:36.996Z</time></trkpt><trkpt lat="44.132475" lon="12.162465"><ele>149.8</ele><time>2026-05-06T13:40:37.997Z</time></trkpt><trkpt lat="44.1324833" lon="12.1623267"><ele>149.0</ele><time>2026-05-06T13:40:38.996Z</time></trkpt><trkpt lat="44.1324917" lon="12.1622"><ele>149.0</ele><time>2026-05-06T13:40:39.996Z</time></trkpt><trkpt lat="44.1325017" lon="12.1620783"><ele>149.0</ele><time>2026-05-06T13:40:40.997Z</time></trkpt><trkpt lat="44.132515" lon="12.1619583"><ele>149.0</ele><time>2026-05-06T13:40:41.996Z</time></trkpt><trkpt lat="44.1325317" lon="12.16183"><ele>149.0</ele><time>2026-05-06T13:40:42.996Z</time></trkpt><trkpt lat="44.13255" lon="12.16171"><ele>149.0</ele><time>2026-05-06T13:40:43.996Z</time></trkpt><trkpt lat="44.1325733" lon="12.1615917"><ele>149.0</ele><time>2026-05-06T13:40:44.997Z</time></trkpt><trkpt lat="44.1325917" lon="12.1614817"><ele>149.57142857142856</ele><time>2026-05-06T13:40:45.997Z</time></trkpt><trkpt lat="44.13262" lon="12.1613717"><ele>150.14285714285714</ele><time>2026-05-06T13:40:46.997Z</time></trkpt><trkpt lat="44.1326533" lon="12.1612717"><ele>150.71428571428572</ele><time>2026-05-06T13:40:47.996Z</time></trkpt><trkpt lat="44.1326817" lon="12.1611783"><ele>151.28571428571428</ele><time>2026-05-06T13:40:48.997Z</time></trkpt><trkpt lat="44.1327067" lon="12.161095"><ele>151.85714285714286</ele><time>2026-05-06T13:40:49.996Z</time></trkpt><trkpt lat="44.1327333" lon="12.161015"><ele>152.42857142857142</ele><time>2026-05-06T13:40:50.996Z</time></trkpt><trkpt lat="44.13276" lon="12.1609267"><ele>153.0</ele><time>2026-05-06T13:40:51.996Z</time></trkpt><trkpt lat="44.1327933" lon="12.1608483"><ele>153.0</ele><time>2026-05-06T13:40:52.997Z</time></trkpt><trkpt lat="44.132825" lon="12.16077"><ele>153.0</ele><time>2026-05-06T13:40:53.996Z</time></trkpt><trkpt lat="44.1328767" lon="12.1606317"><ele>153.0</ele><time>2026-05-06T13:40:55.997Z</time></trkpt><trkpt lat="44.1329117" lon="12.160505"><ele>153.0</ele><time>2026-05-06T13:40:57.997Z</time></trkpt><trkpt lat="44.1329567" lon="12.160405"><ele>153.0</ele><time>2026-05-06T13:40:59.997Z</time></trkpt><trkpt lat="44.1329933" lon="12.1602967"><ele>153.0</ele><time>2026-05-06T13:41:01.997Z</time></trkpt><trkpt lat="44.1330267" lon="12.1601783"><ele>152.8</ele><time>2026-05-06T13:41:03.996Z</time></trkpt><trkpt lat="44.1330567" lon="12.160075"><ele>152.60000000000002</ele><time>2026-05-06T13:41:05.996Z</time></trkpt><trkpt lat="44.13309" lon="12.1599583"><ele>152.39999999999998</ele><time>2026-05-06T13:41:07.997Z</time></trkpt><trkpt lat="44.1331283" lon="12.15984"><ele>152.2</ele><time>2026-05-06T13:41:09.996Z</time></trkpt><trkpt lat="44.1331767" lon="12.159705"><ele>152.0</ele><time>2026-05-06T13:41:11.996Z</time></trkpt><trkpt lat="44.133225" lon="12.159555"><ele>152.4</ele><time>2026-05-06T13:41:13.996Z</time></trkpt><trkpt lat="44.13327" lon="12.1594133"><ele>152.79999999999998</ele><time>2026-05-06T13:41:15.997Z</time></trkpt><trkpt lat="44.13331" lon="12.15928"><ele>153.2</ele><time>2026-05-06T13:41:17.997Z</time></trkpt><trkpt lat="44.1333367" lon="12.1591567"><ele>153.6</ele><time>2026-05-06T13:41:19.996Z</time></trkpt><trkpt lat="44.1333717" lon="12.1590533"><ele>154.0</ele><time>2026-05-06T13:41:21.997Z</time></trkpt><trkpt lat="44.133405" lon="12.15896"><ele>154.16666666666669</ele><time>2026-05-06T13:41:23.996Z</time></trkpt><trkpt lat="44.1334367" lon="12.1588683"><ele>154.33333333333334</ele><time>2026-05-06T13:41:25.996Z</time></trkpt><trkpt lat="44.1334783" lon="12.1587533"><ele>154.5</ele><time>2026-05-06T13:41:28.996Z</time></trkpt><trkpt lat="44.1335083" lon="12.1586633"><ele>154.66666666666666</ele><time>2026-05-06T13:41:30.997Z</time></trkpt><trkpt lat="44.1335433" lon="12.15856"><ele>154.83333333333331</ele><time>2026-05-06T13:41:32.996Z</time></trkpt><trkpt lat="44.13357" lon="12.15847"><ele>155.0</ele><time>2026-05-06T13:41:34.996Z</time></trkpt><trkpt lat="44.1335967" lon="12.1583767"><ele>155.0</ele><time>2026-05-06T13:41:36.997Z</time></trkpt><trkpt lat="44.1336283" lon="12.1582867"><ele>155.0</ele><time>2026-05-06T13:41:38.996Z</time></trkpt><trkpt lat="44.1336633" lon="12.1581767"><ele>155.0</ele><time>2026-05-06T13:41:41.996Z</time></trkpt><trkpt lat="44.1336883" lon="12.1580733"><ele>155.0</ele><time>2026-05-06T13:41:44.997Z</time></trkpt><trkpt lat="44.13372" lon="12.1579767"><ele>155.0</ele><time>2026-05-06T13:41:47.996Z</time></trkpt><trkpt lat="44.1337517" lon="12.1578733"><ele>155.0</ele><time>2026-05-06T13:41:50.997Z</time></trkpt><trkpt lat="44.13379" lon="12.1577717"><ele>154.66666666666666</ele><time>2026-05-06T13:41:53.997Z</time></trkpt><trkpt lat="44.1338267" lon="12.1576617"><ele>154.33333333333331</ele><time>2026-05-06T13:41:56.996Z</time></trkpt><trkpt lat="44.1338567" lon="12.1575583"><ele>154.0</ele><time>2026-05-06T13:41:59.996Z</time></trkpt><trkpt lat="44.1338833" lon="12.157455"><ele>153.66666666666666</ele><time>2026-05-06T13:42:02.997Z</time></trkpt><trkpt lat="44.13392" lon="12.1573567"><ele>153.33333333333334</ele><time>2026-05-06T13:42:05.996Z</time></trkpt><trkpt lat="44.1339467" lon="12.1572717"><ele>153.0</ele><time>2026-05-06T13:42:08.997Z</time></trkpt><trkpt lat="44.1339867" lon="12.157185"><ele>152.66666666666666</ele><time>2026-05-06T13:42:11.996Z</time></trkpt><trkpt lat="44.1340167" lon="12.1570917"><ele>152.33333333333334</ele><time>2026-05-06T13:42:15.996Z</time></trkpt><trkpt lat="44.1340417" lon="12.1570083"><ele>152.0</ele><time>2026-05-06T13:42:18.996Z</time></trkpt><trkpt lat="44.1340733" lon="12.1569083"><ele>151.66666666666669</ele><time>2026-05-06T13:42:22.996Z</time></trkpt><trkpt lat="44.1341017" lon="12.156805"><ele>151.33333333333334</ele><time>2026-05-06T13:42:26.996Z</time></trkpt><trkpt lat="44.1341317" lon="12.156705"><ele>151.0</ele><time>2026-05-06T13:42:30.996Z</time></trkpt><trkpt lat="44.1341633" lon="12.1566033"><ele>154.14285714285717</ele><time>2026-05-06T13:42:34.997Z</time></trkpt><trkpt lat="44.1341867" lon="12.15652"><ele>157.28571428571428</ele><time>2026-05-06T13:42:37.997Z</time></trkpt><trkpt lat="44.1342083" lon="12.1564317"><ele>160.42857142857144</ele><time>2026-05-06T13:42:40.996Z</time></trkpt><trkpt lat="44.13423" lon="12.1563483"><ele>163.57142857142858</ele><time>2026-05-06T13:42:43.996Z</time></trkpt><trkpt lat="44.1342467" lon="12.156255"><ele>166.71428571428572</ele><time>2026-05-06T13:42:46.996Z</time></trkpt><trkpt lat="44.1342433" lon="12.1561483"><ele>169.85714285714286</ele><time>2026-05-06T13:42:50.997Z</time></trkpt><trkpt lat="44.13422" lon="12.1560517"><ele>173.0</ele><time>2026-05-06T13:42:54.997Z</time></trkpt><trkpt lat="44.1341833" lon="12.1559533"><ele>173.0</ele><time>2026-05-06T13:42:58.997Z</time></trkpt><trkpt lat="44.1341483" lon="12.1558717"><ele>173.0</ele><time>2026-05-06T13:43:01.996Z</time></trkpt><trkpt lat="44.13412" lon="12.155785"><ele>173.0</ele><time>2026-05-06T13:43:04.996Z</time></trkpt><trkpt lat="44.1340867" lon="12.1557"><ele>173.0</ele><time>2026-05-06T13:43:07.997Z</time></trkpt><trkpt lat="44.1340533" lon="12.1556133"><ele>173.0</ele><time>2026-05-06T13:43:10.997Z</time></trkpt><trkpt lat="44.1340233" lon="12.15551"><ele>173.0</ele><time>2026-05-06T13:43:13.996Z</time></trkpt><trkpt lat="44.1339933" lon="12.1554167"><ele>173.0</ele><time>2026-05-06T13:43:16.997Z</time></trkpt><trkpt lat="44.1339583" lon="12.15531"><ele>173.83333333333331</ele><time>2026-05-06T13:43:19.996Z</time></trkpt><trkpt lat="44.1339217" lon="12.1552083"><ele>174.66666666666666</ele><time>2026-05-06T13:43:22.997Z</time></trkpt><trkpt lat="44.13389" lon="12.1551183"><ele>175.5</ele><time>2026-05-06T13:43:25.996Z</time></trkpt><trkpt lat="44.1338567" lon="12.155015"><ele>176.33333333333334</ele><time>2026-05-06T13:43:28.997Z</time></trkpt><trkpt lat="44.1338217" lon="12.1549217"><ele>177.16666666666669</ele><time>2026-05-06T13:43:31.996Z</time></trkpt><trkpt lat="44.1337883" lon="12.1548333"><ele>178.0</ele><time>2026-05-06T13:43:34.997Z</time></trkpt><trkpt lat="44.1337617" lon="12.1547367"><ele>178.0</ele><time>2026-05-06T13:43:37.997Z</time></trkpt><trkpt lat="44.1337267" lon="12.15462"><ele>178.0</ele><time>2026-05-06T13:43:41.997Z</time></trkpt><trkpt lat="44.1336983" lon="12.1545217"><ele>178.0</ele><time>2026-05-06T13:43:44.997Z</time></trkpt><trkpt lat="44.1336667" lon="12.1544317"><ele>178.0</ele><time>2026-05-06T13:43:47.996Z</time></trkpt><trkpt lat="44.1336283" lon="12.1543483"><ele>178.0</ele><time>2026-05-06T13:43:50.996Z</time></trkpt><trkpt lat="44.1335883" lon="12.154255"><ele>178.0</ele><time>2026-05-06T13:43:53.997Z</time></trkpt><trkpt lat="44.1335533" lon="12.154145"><ele>178.66666666666669</ele><time>2026-05-06T13:43:56.997Z</time></trkpt><trkpt lat="44.13352" lon="12.1540383"><ele>179.33333333333334</ele><time>2026-05-06T13:43:59.996Z</time></trkpt><trkpt lat="44.13349" lon="12.153935"><ele>180.0</ele><time>2026-05-06T13:44:02.997Z</time></trkpt><trkpt lat="44.13345" lon="12.153835"><ele>180.66666666666666</ele><time>2026-05-06T13:44:05.997Z</time></trkpt><trkpt lat="44.1334183" lon="12.1537333"><ele>181.33333333333331</ele><time>2026-05-06T13:44:08.996Z</time></trkpt><trkpt lat="44.1333967" lon="12.153635"><ele>182.0</ele><time>2026-05-06T13:44:11.996Z</time></trkpt><trkpt lat="44.1333533" lon="12.1535317"><ele>182.0</ele><time>2026-05-06T13:44:14.996Z</time></trkpt><trkpt lat="44.133315" lon="12.15342"><ele>182.0</ele><time>2026-05-06T13:44:17.997Z</time></trkpt><trkpt lat="44.1332833" lon="12.1533017"><ele>182.0</ele><time>2026-05-06T13:44:20.996Z</time></trkpt><trkpt lat="44.1332467" lon="12.153195"><ele>182.0</ele><time>2026-05-06T13:44:23.997Z</time></trkpt><trkpt lat="44.1332117" lon="12.1530917"><ele>182.0</ele><time>2026-05-06T13:44:26.997Z</time></trkpt><trkpt lat="44.1331717" lon="12.1529933"><ele>182.0</ele><time>2026-05-06T13:44:29.997Z</time></trkpt><trkpt lat="44.1331317" lon="12.152895"><ele>184.16666666666666</ele><time>2026-05-06T13:44:32.996Z</time></trkpt><trkpt lat="44.1330917" lon="12.1528"><ele>186.33333333333331</ele><time>2026-05-06T13:44:35.997Z</time></trkpt><trkpt lat="44.13305" lon="12.1527017"><ele>188.5</ele><time>2026-05-06T13:44:38.996Z</time></trkpt><trkpt lat="44.133005" lon="12.1526033"><ele>190.66666666666666</ele><time>2026-05-06T13:44:41.997Z</time></trkpt><trkpt lat="44.1329667" lon="12.1525"><ele>192.83333333333334</ele><time>2026-05-06T13:44:44.997Z</time></trkpt><trkpt lat="44.1329333" lon="12.1524033"><ele>195.0</ele><time>2026-05-06T13:44:47.996Z</time></trkpt><trkpt lat="44.1329017" lon="12.15232"><ele>196.0</ele><time>2026-05-06T13:44:50.996Z</time></trkpt><trkpt lat="44.1328933" lon="12.1522217"><ele>197.0</ele><time>2026-05-06T13:44:53.996Z</time></trkpt><trkpt lat="44.132885" lon="12.15212"><ele>198.0</ele><time>2026-05-06T13:44:56.997Z</time></trkpt><trkpt lat="44.1328683" lon="12.1520117"><ele>199.0</ele><time>2026-05-06T13:44:59.996Z</time></trkpt><trkpt lat="44.1328567" lon="12.1519217"><ele>200.0</ele><time>2026-05-06T13:45:02.996Z</time></trkpt><trkpt lat="44.132855" lon="12.15181"><ele>201.0</ele><time>2026-05-06T13:45:05.997Z</time></trkpt><trkpt lat="44.1328467" lon="12.1516983"><ele>201.0</ele><time>2026-05-06T13:45:08.996Z</time></trkpt><trkpt lat="44.1328333" lon="12.151595"><ele>201.0</ele><time>2026-05-06T13:45:11.996Z</time></trkpt><trkpt lat="44.13282" lon="12.1514933"><ele>201.0</ele><time>2026-05-06T13:45:14.996Z</time></trkpt><trkpt lat="44.1328117" lon="12.1514"><ele>201.0</ele><time>2026-05-06T13:45:17.996Z</time></trkpt><trkpt lat="44.132805" lon="12.1512967"><ele>201.0</ele><time>2026-05-06T13:45:20.996Z</time></trkpt><trkpt lat="44.1327883" lon="12.1511783"><ele>201.0</ele><time>2026-05-06T13:45:23.996Z</time></trkpt><trkpt lat="44.1327817" lon="12.1510667"><ele>201.16666666666666</ele><time>2026-05-06T13:45:26.996Z</time></trkpt><trkpt lat="44.132785" lon="12.1509567"><ele>201.33333333333331</ele><time>2026-05-06T13:45:29.996Z</time></trkpt><trkpt lat="44.1328017" lon="12.1508583"><ele>201.5</ele><time>2026-05-06T13:45:32.996Z</time></trkpt><trkpt lat="44.132825" lon="12.15075"><ele>201.66666666666666</ele><time>2026-05-06T13:45:35.996Z</time></trkpt><trkpt lat="44.13285" lon="12.1506333"><ele>201.83333333333331</ele><time>2026-05-06T13:45:38.996Z</time></trkpt><trkpt lat="44.13288" lon="12.1505133"><ele>202.0</ele><time>2026-05-06T13:45:41.996Z</time></trkpt><trkpt lat="44.1329117" lon="12.1504367"><ele>201.49999999999997</ele><time>2026-05-06T13:45:43.996Z</time></trkpt><trkpt lat="44.13295" lon="12.15035"><ele>201.0</ele><time>2026-05-06T13:45:45.996Z</time></trkpt><trkpt lat="44.1329867" lon="12.1502533"><ele>200.5</ele><time>2026-05-06T13:45:47.997Z</time></trkpt><trkpt lat="44.133035" lon="12.1501433"><ele>200.0</ele><time>2026-05-06T13:45:49.997Z</time></trkpt><trkpt lat="44.13308" lon="12.150025"><ele>199.49999999999997</ele><time>2026-05-06T13:45:51.996Z</time></trkpt><trkpt lat="44.1331333" lon="12.1499017"><ele>199.0</ele><time>2026-05-06T13:45:53.997Z</time></trkpt><trkpt lat="44.1331917" lon="12.1497683"><ele>197.39999999999998</ele><time>2026-05-06T13:45:55.996Z</time></trkpt><trkpt lat="44.13325" lon="12.1496483"><ele>195.8</ele><time>2026-05-06T13:45:57.997Z</time></trkpt><trkpt lat="44.133315" lon="12.1495367"><ele>194.2</ele><time>2026-05-06T13:45:59.997Z</time></trkpt><trkpt lat="44.1333833" lon="12.1494233"><ele>192.60000000000002</ele><time>2026-05-06T13:46:01.996Z</time></trkpt><trkpt lat="44.1334533" lon="12.1493267"><ele>191.0</ele><time>2026-05-06T13:46:03.996Z</time></trkpt><trkpt lat="44.133525" lon="12.149225"><ele>191.0</ele><time>2026-05-06T13:46:05.996Z</time></trkpt><trkpt lat="44.1335983" lon="12.1491317"><ele>191.0</ele><time>2026-05-06T13:46:07.997Z</time></trkpt><trkpt lat="44.13367" lon="12.1490333"><ele>191.0</ele><time>2026-05-06T13:46:09.996Z</time></trkpt><trkpt lat="44.1337367" lon="12.1489383"><ele>191.0</ele><time>2026-05-06T13:46:11.996Z</time></trkpt><trkpt lat="44.1337983" lon="12.1488517"><ele>191.0</ele><time>2026-05-06T13:46:13.996Z</time></trkpt><trkpt lat="44.13386" lon="12.148765"><ele>190.33333333333331</ele><time>2026-05-06T13:46:15.997Z</time></trkpt><trkpt lat="44.1339183" lon="12.148685"><ele>189.66666666666666</ele><time>2026-05-06T13:46:17.996Z</time></trkpt><trkpt lat="44.1339733" lon="12.1486183"><ele>189.0</ele><time>2026-05-06T13:46:19.996Z</time></trkpt><trkpt lat="44.134025" lon="12.1485517"><ele>188.33333333333334</ele><time>2026-05-06T13:46:21.996Z</time></trkpt><trkpt lat="44.1340767" lon="12.1484783"><ele>187.66666666666669</ele><time>2026-05-06T13:46:23.997Z</time></trkpt><trkpt lat="44.1341317" lon="12.1483867"><ele>187.0</ele><time>2026-05-06T13:46:26.996Z</time></trkpt><trkpt lat="44.1341867" lon="12.1483067"><ele>187.83333333333334</ele><time>2026-05-06T13:46:29.997Z</time></trkpt><trkpt lat="44.1342517" lon="12.148215"><ele>188.66666666666669</ele><time>2026-05-06T13:46:32.996Z</time></trkpt><trkpt lat="44.134305" lon="12.1481567"><ele>189.5</ele><time>2026-05-06T13:46:34.997Z</time></trkpt><trkpt lat="44.1343683" lon="12.1480967"><ele>190.33333333333334</ele><time>2026-05-06T13:46:36.997Z</time></trkpt><trkpt lat="44.1344317" lon="12.14805"><ele>191.16666666666666</ele><time>2026-05-06T13:46:38.996Z</time></trkpt><trkpt lat="44.1345017" lon="12.1479967"><ele>192.0</ele><time>2026-05-06T13:46:40.997Z</time></trkpt><trkpt lat="44.1345767" lon="12.147935"><ele>192.0</ele><time>2026-05-06T13:46:42.997Z</time></trkpt><trkpt lat="44.1346583" lon="12.14788"><ele>192.0</ele><time>2026-05-06T13:46:44.997Z</time></trkpt><trkpt lat="44.1347433" lon="12.1478367"><ele>192.0</ele><time>2026-05-06T13:46:46.997Z</time></trkpt><trkpt lat="44.13484" lon="12.1478"><ele>192.0</ele><time>2026-05-06T13:46:48.997Z</time></trkpt><trkpt lat="44.1349333" lon="12.1477483"><ele>192.0</ele><time>2026-05-06T13:46:50.997Z</time></trkpt><trkpt lat="44.1350333" lon="12.1476867"><ele>192.2</ele><time>2026-05-06T13:46:52.997Z</time></trkpt><trkpt lat="44.13514" lon="12.147625"><ele>192.39999999999998</ele><time>2026-05-06T13:46:54.996Z</time></trkpt><trkpt lat="44.13523" lon="12.1475517"><ele>192.60000000000002</ele><time>2026-05-06T13:46:56.996Z</time></trkpt><trkpt lat="44.1353183" lon="12.14749"><ele>192.8</ele><time>2026-05-06T13:46:58.997Z</time></trkpt><trkpt lat="44.1354033" lon="12.1474283"><ele>193.0</ele><time>2026-05-06T13:47:00.996Z</time></trkpt><trkpt lat="44.13549" lon="12.14736"><ele>193.0</ele><time>2026-05-06T13:47:02.996Z</time></trkpt><trkpt lat="44.13557" lon="12.1472967"><ele>193.0</ele><time>2026-05-06T13:47:04.997Z</time></trkpt><trkpt lat="44.1356483" lon="12.14722"><ele>193.0</ele><time>2026-05-06T13:47:06.996Z</time></trkpt><trkpt lat="44.1357283" lon="12.147135"><ele>193.0</ele><time>2026-05-06T13:47:08.996Z</time></trkpt><trkpt lat="44.1358" lon="12.1470533"><ele>193.0</ele><time>2026-05-06T13:47:10.996Z</time></trkpt><trkpt lat="44.1358783" lon="12.1469667"><ele>193.4</ele><time>2026-05-06T13:47:12.997Z</time></trkpt><trkpt lat="44.13595" lon="12.146875"><ele>193.8</ele><time>2026-05-06T13:47:14.997Z</time></trkpt><trkpt lat="44.1360183" lon="12.1467717"><ele>194.2</ele><time>2026-05-06T13:47:16.996Z</time></trkpt><trkpt lat="44.13609" lon="12.1466583"><ele>194.6</ele><time>2026-05-06T13:47:18.997Z</time></trkpt><trkpt lat="44.136165" lon="12.1465417"><ele>195.0</ele><time>2026-05-06T13:47:20.997Z</time></trkpt><trkpt lat="44.1362317" lon="12.1464083"><ele>195.0</ele><time>2026-05-06T13:47:22.996Z</time></trkpt><trkpt lat="44.1363033" lon="12.1463"><ele>195.0</ele><time>2026-05-06T13:47:24.996Z</time></trkpt><trkpt lat="44.1363817" lon="12.1462017"><ele>195.0</ele><time>2026-05-06T13:47:26.996Z</time></trkpt><trkpt lat="44.1364633" lon="12.14611"><ele>195.0</ele><time>2026-05-06T13:47:28.996Z</time></trkpt><trkpt lat="44.13654" lon="12.14604"><ele>195.0</ele><time>2026-05-06T13:47:30.997Z</time></trkpt><trkpt lat="44.13662" lon="12.1459833"><ele>195.16666666666666</ele><time>2026-05-06T13:47:32.997Z</time></trkpt><trkpt lat="44.1366867" lon="12.1459167"><ele>195.33333333333331</ele><time>2026-05-06T13:47:34.996Z</time></trkpt><trkpt lat="44.1367517" lon="12.1458533"><ele>195.5</ele><time>2026-05-06T13:47:36.996Z</time></trkpt><trkpt lat="44.1368233" lon="12.1457983"><ele>195.66666666666666</ele><time>2026-05-06T13:47:38.996Z</time></trkpt><trkpt lat="44.1368933" lon="12.1457533"><ele>195.83333333333331</ele><time>2026-05-06T13:47:40.996Z</time></trkpt><trkpt lat="44.136965" lon="12.1456917"><ele>196.0</ele><time>2026-05-06T13:47:42.996Z</time></trkpt><trkpt lat="44.13704" lon="12.1456533"><ele>196.49999999999997</ele><time>2026-05-06T13:47:44.996Z</time></trkpt><trkpt lat="44.13711" lon="12.1456083"><ele>197.0</ele><time>2026-05-06T13:47:46.996Z</time></trkpt><trkpt lat="44.1371767" lon="12.1455667"><ele>197.5</ele><time>2026-05-06T13:47:48.997Z</time></trkpt><trkpt lat="44.1372517" lon="12.1455433"><ele>198.0</ele><time>2026-05-06T13:47:50.996Z</time></trkpt><trkpt lat="44.1373317" lon="12.1455267"><ele>198.49999999999997</ele><time>2026-05-06T13:47:52.996Z</time></trkpt><trkpt lat="44.1374067" lon="12.145495"><ele>199.0</ele><time>2026-05-06T13:47:54.997Z</time></trkpt><trkpt lat="44.1374867" lon="12.1454583"><ele>200.42857142857142</ele><time>2026-05-06T13:47:56.996Z</time></trkpt><trkpt lat="44.1375567" lon="12.1454167"><ele>201.85714285714286</ele><time>2026-05-06T13:47:58.996Z</time></trkpt><trkpt lat="44.13763" lon="12.1453933"><ele>203.28571428571428</ele><time>2026-05-06T13:48:00.996Z</time></trkpt><trkpt lat="44.1377" lon="12.145365"><ele>204.71428571428572</ele><time>2026-05-06T13:48:02.997Z</time></trkpt><trkpt lat="44.13777" lon="12.14534"><ele>206.14285714285714</ele><time>2026-05-06T13:48:04.996Z</time></trkpt><trkpt lat="44.1378433" lon="12.1453067"><ele>207.57142857142856</ele><time>2026-05-06T13:48:06.996Z</time></trkpt><trkpt lat="44.1379067" lon="12.1452767"><ele>209.0</ele><time>2026-05-06T13:48:08.996Z</time></trkpt><trkpt lat="44.137975" lon="12.14525"><ele>209.00000000000003</ele><time>2026-05-06T13:48:10.996Z</time></trkpt><trkpt lat="44.1380683" lon="12.145235"><ele>209.0</ele><time>2026-05-06T13:48:13.996Z</time></trkpt><trkpt lat="44.138135" lon="12.1452117"><ele>209.0</ele><time>2026-05-06T13:48:15.996Z</time></trkpt><trkpt lat="44.1382267" lon="12.145215"><ele>209.0</ele><time>2026-05-06T13:48:17.997Z</time></trkpt><trkpt lat="44.1383117" lon="12.14521"><ele>209.00000000000003</ele><time>2026-05-06T13:48:19.997Z</time></trkpt><trkpt lat="44.1383983" lon="12.1452117"><ele>209.0</ele><time>2026-05-06T13:48:21.996Z</time></trkpt><trkpt lat="44.13848" lon="12.1452067"><ele>208.83333333333334</ele><time>2026-05-06T13:48:23.997Z</time></trkpt><trkpt lat="44.1385617" lon="12.14521"><ele>208.66666666666669</ele><time>2026-05-06T13:48:25.997Z</time></trkpt><trkpt lat="44.13865" lon="12.1452117"><ele>208.5</ele><time>2026-05-06T13:48:27.996Z</time></trkpt><trkpt lat="44.1387333" lon="12.1451933"><ele>208.33333333333331</ele><time>2026-05-06T13:48:29.996Z</time></trkpt><trkpt lat="44.138825" lon="12.1451883"><ele>208.16666666666666</ele><time>2026-05-06T13:48:31.997Z</time></trkpt><trkpt lat="44.1389067" lon="12.1451917"><ele>208.0</ele><time>2026-05-06T13:48:33.997Z</time></trkpt><trkpt lat="44.1389933" lon="12.1451917"><ele>207.60000000000002</ele><time>2026-05-06T13:48:35.996Z</time></trkpt><trkpt lat="44.13908" lon="12.1451917"><ele>207.20000000000002</ele><time>2026-05-06T13:48:37.996Z</time></trkpt><trkpt lat="44.1391717" lon="12.1451967"><ele>206.8</ele><time>2026-05-06T13:48:39.997Z</time></trkpt><trkpt lat="44.1392683" lon="12.1451933"><ele>206.4</ele><time>2026-05-06T13:48:41.997Z</time></trkpt><trkpt lat="44.13936" lon="12.145185"><ele>206.0</ele><time>2026-05-06T13:48:43.997Z</time></trkpt><trkpt lat="44.139445" lon="12.1451767"><ele>206.0</ele><time>2026-05-06T13:48:45.997Z</time></trkpt><trkpt lat="44.139535" lon="12.1451517"><ele>206.0</ele><time>2026-05-06T13:48:47.996Z</time></trkpt><trkpt lat="44.1396267" lon="12.1451333"><ele>206.0</ele><time>2026-05-06T13:48:49.996Z</time></trkpt><trkpt lat="44.1397233" lon="12.1451167"><ele>206.0</ele><time>2026-05-06T13:48:51.996Z</time></trkpt><trkpt lat="44.1398183" lon="12.1450783"><ele>206.0</ele><time>2026-05-06T13:48:53.997Z</time></trkpt><trkpt lat="44.13991" lon="12.1450433"><ele>205.8</ele><time>2026-05-06T13:48:55.996Z</time></trkpt><trkpt lat="44.139995" lon="12.1450167"><ele>205.60000000000002</ele><time>2026-05-06T13:48:57.996Z</time></trkpt><trkpt lat="44.140085" lon="12.14496"><ele>205.4</ele><time>2026-05-06T13:48:59.996Z</time></trkpt><trkpt lat="44.1401767" lon="12.14491"><ele>205.2</ele><time>2026-05-06T13:49:01.996Z</time></trkpt><trkpt lat="44.1402667" lon="12.14487"><ele>205.0</ele><time>2026-05-06T13:49:03.997Z</time></trkpt><trkpt lat="44.1403567" lon="12.1448417"><ele>207.0</ele><time>2026-05-06T13:49:05.996Z</time></trkpt><trkpt lat="44.1404383" lon="12.1448083"><ele>209.0</ele><time>2026-05-06T13:49:07.996Z</time></trkpt><trkpt lat="44.140515" lon="12.1447717"><ele>211.0</ele><time>2026-05-06T13:49:09.996Z</time></trkpt><trkpt lat="44.1406083" lon="12.144725"><ele>213.0</ele><time>2026-05-06T13:49:11.997Z</time></trkpt><trkpt lat="44.140705" lon="12.14467"><ele>215.0</ele><time>2026-05-06T13:49:13.996Z</time></trkpt><trkpt lat="44.1407833" lon="12.1446217"><ele>215.0</ele><time>2026-05-06T13:49:15.996Z</time></trkpt><trkpt lat="44.1408667" lon="12.144585"><ele>215.0</ele><time>2026-05-06T13:49:17.996Z</time></trkpt><trkpt lat="44.1409767" lon="12.1445417"><ele>215.0</ele><time>2026-05-06T13:49:19.997Z</time></trkpt><trkpt lat="44.141085" lon="12.144495"><ele>215.0</ele><time>2026-05-06T13:49:21.996Z</time></trkpt><trkpt lat="44.1411767" lon="12.1444483"><ele>215.0</ele><time>2026-05-06T13:49:23.996Z</time></trkpt><trkpt lat="44.14126" lon="12.1444017"><ele>215.0</ele><time>2026-05-06T13:49:25.996Z</time></trkpt><trkpt lat="44.1413517" lon="12.1443583"><ele>215.0</ele><time>2026-05-06T13:49:27.996Z</time></trkpt><trkpt lat="44.141445" lon="12.1443117"><ele>215.0</ele><time>2026-05-06T13:49:29.997Z</time></trkpt><trkpt lat="44.141535" lon="12.1442633"><ele>215.0</ele><time>2026-05-06T13:49:31.996Z</time></trkpt><trkpt lat="44.14163" lon="12.1442183"><ele>215.0</ele><time>2026-05-06T13:49:33.996Z</time></trkpt><trkpt lat="44.1417233" lon="12.144165"><ele>214.6</ele><time>2026-05-06T13:49:35.997Z</time></trkpt><trkpt lat="44.1418117" lon="12.1441183"><ele>214.2</ele><time>2026-05-06T13:49:37.997Z</time></trkpt><trkpt lat="44.1418983" lon="12.1440717"><ele>213.8</ele><time>2026-05-06T13:49:39.996Z</time></trkpt><trkpt lat="44.1419867" lon="12.1440167"><ele>213.4</ele><time>2026-05-06T13:49:41.997Z</time></trkpt><trkpt lat="44.142075" lon="12.1439517"><ele>213.0</ele><time>2026-05-06T13:49:43.997Z</time></trkpt><trkpt lat="44.1421517" lon="12.1438817"><ele>213.60000000000002</ele><time>2026-05-06T13:49:45.997Z</time></trkpt><trkpt lat="44.14223" lon="12.143785"><ele>214.20000000000002</ele><time>2026-05-06T13:49:47.997Z</time></trkpt><trkpt lat="44.1423067" lon="12.1436667"><ele>214.8</ele><time>2026-05-06T13:49:49.996Z</time></trkpt><trkpt lat="44.14235" lon="12.1435983"><ele>215.4</ele><time>2026-05-06T13:49:50.996Z</time></trkpt><trkpt lat="44.14242" lon="12.143485"><ele>216.0</ele><time>2026-05-06T13:49:52.996Z</time></trkpt><trkpt lat="44.1424683" lon="12.14336"><ele>216.0</ele><time>2026-05-06T13:49:54.996Z</time></trkpt><trkpt lat="44.1425183" lon="12.1432383"><ele>216.00000000000003</ele><time>2026-05-06T13:49:56.996Z</time></trkpt><trkpt lat="44.1425883" lon="12.1431017"><ele>216.00000000000003</ele><time>2026-05-06T13:49:58.997Z</time></trkpt><trkpt lat="44.1426267" lon="12.1430217"><ele>216.0</ele><time>2026-05-06T13:49:59.997Z</time></trkpt><trkpt lat="44.1426667" lon="12.1429383"><ele>216.0</ele><time>2026-05-06T13:50:00.997Z</time></trkpt><trkpt lat="44.142725" lon="12.142805"><ele>217.4</ele><time>2026-05-06T13:50:02.996Z</time></trkpt><trkpt lat="44.1427817" lon="12.1426817"><ele>218.8</ele><time>2026-05-06T13:50:04.997Z</time></trkpt><trkpt lat="44.1428383" lon="12.142555"><ele>220.20000000000002</ele><time>2026-05-06T13:50:06.996Z</time></trkpt><trkpt lat="44.142905" lon="12.1424267"><ele>221.60000000000002</ele><time>2026-05-06T13:50:08.997Z</time></trkpt><trkpt lat="44.1429767" lon="12.14229"><ele>223.0</ele><time>2026-05-06T13:50:10.996Z</time></trkpt><trkpt lat="44.1430533" lon="12.1421433"><ele>223.49999999999997</ele><time>2026-05-06T13:50:12.997Z</time></trkpt><trkpt lat="44.1430933" lon="12.1420683"><ele>224.0</ele><time>2026-05-06T13:50:13.996Z</time></trkpt><trkpt lat="44.1431317" lon="12.1419967"><ele>224.5</ele><time>2026-05-06T13:50:14.997Z</time></trkpt><trkpt lat="44.1432017" lon="12.1418667"><ele>225.0</ele><time>2026-05-06T13:50:16.996Z</time></trkpt><trkpt lat="44.1432583" lon="12.1417533"><ele>225.49999999999997</ele><time>2026-05-06T13:50:18.997Z</time></trkpt><trkpt lat="44.1433183" lon="12.1416517"><ele>226.0</ele><time>2026-05-06T13:50:20.997Z</time></trkpt><trkpt lat="44.1433833" lon="12.1415417"><ele>226.0</ele><time>2026-05-06T13:50:22.996Z</time></trkpt><trkpt lat="44.1434467" lon="12.1414167"><ele>226.00000000000003</ele><time>2026-05-06T13:50:24.997Z</time></trkpt><trkpt lat="44.14351" lon="12.1412917"><ele>226.00000000000003</ele><time>2026-05-06T13:50:26.996Z</time></trkpt><trkpt lat="44.1435483" lon="12.14122"><ele>226.0</ele><time>2026-05-06T13:50:27.997Z</time></trkpt><trkpt lat="44.1435867" lon="12.14115"><ele>226.0</ele><time>2026-05-06T13:50:28.996Z</time></trkpt><trkpt lat="44.14365" lon="12.14101"><ele>225.99999999999997</ele><time>2026-05-06T13:50:30.996Z</time></trkpt><trkpt lat="44.1437267" lon="12.14086"><ele>226.0</ele><time>2026-05-06T13:50:32.996Z</time></trkpt><trkpt lat="44.1437733" lon="12.140775"><ele>226.0</ele><time>2026-05-06T13:50:33.996Z</time></trkpt><trkpt lat="44.143815" lon="12.1407"><ele>226.0</ele><time>2026-05-06T13:50:34.997Z</time></trkpt><trkpt lat="44.1438533" lon="12.1406267"><ele>225.99999999999997</ele><time>2026-05-06T13:50:35.996Z</time></trkpt><trkpt lat="44.14389" lon="12.140555"><ele>226.0</ele><time>2026-05-06T13:50:36.996Z</time></trkpt><trkpt lat="44.143965" lon="12.1404283"><ele>225.83333333333331</ele><time>2026-05-06T13:50:38.997Z</time></trkpt><trkpt lat="44.14401" lon="12.14035"><ele>225.66666666666666</ele><time>2026-05-06T13:50:39.996Z</time></trkpt><trkpt lat="44.1440467" lon="12.140265"><ele>225.5</ele><time>2026-05-06T13:50:40.997Z</time></trkpt><trkpt lat="44.1441133" lon="12.14012"><ele>225.33333333333331</ele><time>2026-05-06T13:50:42.996Z</time></trkpt><trkpt lat="44.1441517" lon="12.14005"><ele>225.16666666666666</ele><time>2026-05-06T13:50:43.997Z</time></trkpt><trkpt lat="44.1442167" lon="12.1399183"><ele>225.0</ele><time>2026-05-06T13:50:45.996Z</time></trkpt><trkpt lat="44.1442883" lon="12.1397917"><ele>225.0</ele><time>2026-05-06T13:50:47.996Z</time></trkpt><trkpt lat="44.14433" lon="12.1397217"><ele>225.0</ele><time>2026-05-06T13:50:48.996Z</time></trkpt><trkpt lat="44.1444067" lon="12.1395883"><ele>225.0</ele><time>2026-05-06T13:50:50.996Z</time></trkpt><trkpt lat="44.1444817" lon="12.1394683"><ele>225.0</ele><time>2026-05-06T13:50:52.997Z</time></trkpt><trkpt lat="44.14455" lon="12.1393567"><ele>225.0</ele><time>2026-05-06T13:50:54.996Z</time></trkpt><trkpt lat="44.1446233" lon="12.139225"><ele>225.0</ele><time>2026-05-06T13:50:56.996Z</time></trkpt><trkpt lat="44.1446867" lon="12.1391167"><ele>225.0</ele><time>2026-05-06T13:50:58.996Z</time></trkpt><trkpt lat="44.1447683" lon="12.1389867"><ele>225.0</ele><time>2026-05-06T13:51:00.996Z</time></trkpt><trkpt lat="44.1448017" lon="12.13891"><ele>225.0</ele><time>2026-05-06T13:51:01.996Z</time></trkpt><trkpt lat="44.1448567" lon="12.1387767"><ele>225.0</ele><time>2026-05-06T13:51:03.996Z</time></trkpt><trkpt lat="44.1449083" lon="12.1386517"><ele>225.8</ele><time>2026-05-06T13:51:05.997Z</time></trkpt><trkpt lat="44.1449567" lon="12.1385233"><ele>226.6</ele><time>2026-05-06T13:51:07.997Z</time></trkpt><trkpt lat="44.1450067" lon="12.13839"><ele>227.39999999999998</ele><time>2026-05-06T13:51:09.997Z</time></trkpt><trkpt lat="44.1450617" lon="12.1382517"><ele>228.2</ele><time>2026-05-06T13:51:11.996Z</time></trkpt><trkpt lat="44.1451117" lon="12.1381167"><ele>229.0</ele><time>2026-05-06T13:51:13.997Z</time></trkpt><trkpt lat="44.1451517" lon="12.1379917"><ele>229.0</ele><time>2026-05-06T13:51:15.996Z</time></trkpt><trkpt lat="44.1451983" lon="12.1378517"><ele>229.0</ele><time>2026-05-06T13:51:17.996Z</time></trkpt><trkpt lat="44.1452433" lon="12.137705"><ele>229.0</ele><time>2026-05-06T13:51:19.997Z</time></trkpt><trkpt lat="44.1452917" lon="12.137565"><ele>229.0</ele><time>2026-05-06T13:51:21.996Z</time></trkpt><trkpt lat="44.14534" lon="12.1374167"><ele>231.0</ele><time>2026-05-06T13:51:23.996Z</time></trkpt><trkpt lat="44.1453783" lon="12.1372683"><ele>232.99999999999997</ele><time>2026-05-06T13:51:25.997Z</time></trkpt><trkpt lat="44.1454233" lon="12.137125"><ele>234.99999999999997</ele><time>2026-05-06T13:51:27.997Z</time></trkpt><trkpt lat="44.1454633" lon="12.1369767"><ele>237.0</ele><time>2026-05-06T13:51:29.997Z</time></trkpt><trkpt lat="44.145495" lon="12.136855"><ele>239.0</ele><time>2026-05-06T13:51:31.997Z</time></trkpt><trkpt lat="44.1455333" lon="12.1367317"><ele>239.0</ele><time>2026-05-06T13:51:33.996Z</time></trkpt><trkpt lat="44.1455767" lon="12.1366033"><ele>238.99999999999997</ele><time>2026-05-06T13:51:35.997Z</time></trkpt><trkpt lat="44.1456283" lon="12.136455"><ele>238.99999999999997</ele><time>2026-05-06T13:51:37.996Z</time></trkpt><trkpt lat="44.1456733" lon="12.1363033"><ele>239.0</ele><time>2026-05-06T13:51:39.996Z</time></trkpt><trkpt lat="44.1457183" lon="12.1361817"><ele>239.0</ele><time>2026-05-06T13:51:41.996Z</time></trkpt><trkpt lat="44.1457633" lon="12.13606"><ele>235.0</ele><time>2026-05-06T13:51:43.997Z</time></trkpt><trkpt lat="44.14581" lon="12.135925"><ele>230.99999999999997</ele><time>2026-05-06T13:51:45.996Z</time></trkpt><trkpt lat="44.1458783" lon="12.1357367"><ele>226.99999999999997</ele><time>2026-05-06T13:51:48.997Z</time></trkpt><trkpt lat="44.14593" lon="12.1356217"><ele>223.0</ele><time>2026-05-06T13:51:50.996Z</time></trkpt><trkpt lat="44.146005" lon="12.13561"><ele>219.0</ele><time>2026-05-06T13:51:54.996Z</time></trkpt><trkpt lat="44.1460333" lon="12.13572"><ele>218.33333333333334</ele><time>2026-05-06T13:51:56.997Z</time></trkpt><trkpt lat="44.1460433" lon="12.1358983"><ele>217.66666666666669</ele><time>2026-05-06T13:51:58.996Z</time></trkpt><trkpt lat="44.1460533" lon="12.1359933"><ele>217.0</ele><time>2026-05-06T13:51:59.996Z</time></trkpt><trkpt lat="44.1460617" lon="12.1360883"><ele>216.33333333333334</ele><time>2026-05-06T13:52:00.996Z</time></trkpt><trkpt lat="44.1460683" lon="12.1361883"><ele>215.66666666666669</ele><time>2026-05-06T13:52:01.997Z</time></trkpt><trkpt lat="44.14608" lon="12.1362917"><ele>215.0</ele><time>2026-05-06T13:52:02.997Z</time></trkpt><trkpt lat="44.14609" lon="12.1363883"><ele>215.0</ele><time>2026-05-06T13:52:03.996Z</time></trkpt><trkpt lat="44.1460967" lon="12.1364767"><ele>215.0</ele><time>2026-05-06T13:52:04.997Z</time></trkpt><trkpt lat="44.1461083" lon="12.136625"><ele>215.0</ele><time>2026-05-06T13:52:06.997Z</time></trkpt><trkpt lat="44.1461233" lon="12.136735"><ele>215.0</ele><time>2026-05-06T13:52:08.996Z</time></trkpt><trkpt lat="44.1461817" lon="12.1368317"><ele>215.0</ele><time>2026-05-06T13:52:10.997Z</time></trkpt><trkpt lat="44.146295" lon="12.1368467"><ele>214.00000000000003</ele><time>2026-05-06T13:52:12.996Z</time></trkpt><trkpt lat="44.1463633" lon="12.1368267"><ele>213.0</ele><time>2026-05-06T13:52:13.997Z</time></trkpt><trkpt lat="44.14644" lon="12.1367983"><ele>212.0</ele><time>2026-05-06T13:52:14.996Z</time></trkpt><trkpt lat="44.1465167" lon="12.1367617"><ele>211.0</ele><time>2026-05-06T13:52:15.997Z</time></trkpt><trkpt lat="44.1466017" lon="12.136715"><ele>210.00000000000003</ele><time>2026-05-06T13:52:16.996Z</time></trkpt><trkpt lat="44.1466933" lon="12.13668"><ele>209.0</ele><time>2026-05-06T13:52:17.996Z</time></trkpt><trkpt lat="44.1467867" lon="12.1366483"><ele>208.0</ele><time>2026-05-06T13:52:18.997Z</time></trkpt><trkpt lat="44.1468767" lon="12.1366183"><ele>207.0</ele><time>2026-05-06T13:52:19.996Z</time></trkpt><trkpt lat="44.14697" lon="12.13658"><ele>206.0</ele><time>2026-05-06T13:52:20.997Z</time></trkpt><trkpt lat="44.1470717" lon="12.1365433"><ele>205.0</ele><time>2026-05-06T13:52:21.996Z</time></trkpt><trkpt lat="44.1471667" lon="12.1365133"><ele>204.0</ele><time>2026-05-06T13:52:22.996Z</time></trkpt><trkpt lat="44.1472567" lon="12.1364883"><ele>204.0</ele><time>2026-05-06T13:52:23.996Z</time></trkpt><trkpt lat="44.147335" lon="12.136475"><ele>204.0</ele><time>2026-05-06T13:52:24.997Z</time></trkpt><trkpt lat="44.1474017" lon="12.1364683"><ele>204.0</ele><time>2026-05-06T13:52:25.997Z</time></trkpt><trkpt lat="44.1474667" lon="12.13648"><ele>204.0</ele><time>2026-05-06T13:52:26.997Z</time></trkpt><trkpt lat="44.1475917" lon="12.1365183"><ele>204.0</ele><time>2026-05-06T13:52:28.996Z</time></trkpt><trkpt lat="44.1476617" lon="12.1365367"><ele>204.0</ele><time>2026-05-06T13:52:29.997Z</time></trkpt><trkpt lat="44.1477333" lon="12.1365617"><ele>200.33333333333334</ele><time>2026-05-06T13:52:30.997Z</time></trkpt><trkpt lat="44.147815" lon="12.1365867"><ele>196.66666666666666</ele><time>2026-05-06T13:52:31.997Z</time></trkpt><trkpt lat="44.1478983" lon="12.1366083"><ele>193.0</ele><time>2026-05-06T13:52:32.997Z</time></trkpt><trkpt lat="44.1479783" lon="12.1366267"><ele>189.33333333333331</ele><time>2026-05-06T13:52:33.997Z</time></trkpt><trkpt lat="44.1480667" lon="12.1366483"><ele>185.66666666666666</ele><time>2026-05-06T13:52:34.996Z</time></trkpt><trkpt lat="44.148155" lon="12.1366683"><ele>182.0</ele><time>2026-05-06T13:52:35.997Z</time></trkpt><trkpt lat="44.1482417" lon="12.1366883"><ele>181.83333333333331</ele><time>2026-05-06T13:52:36.996Z</time></trkpt><trkpt lat="44.148325" lon="12.13671"><ele>181.66666666666666</ele><time>2026-05-06T13:52:37.996Z</time></trkpt><trkpt lat="44.1484" lon="12.1367383"><ele>181.5</ele><time>2026-05-06T13:52:38.996Z</time></trkpt><trkpt lat="44.1484733" lon="12.1367767"><ele>181.33333333333334</ele><time>2026-05-06T13:52:39.997Z</time></trkpt><trkpt lat="44.148545" lon="12.13681"><ele>181.16666666666669</ele><time>2026-05-06T13:52:40.997Z</time></trkpt><trkpt lat="44.14861" lon="12.13685"><ele>181.0</ele><time>2026-05-06T13:52:41.997Z</time></trkpt><trkpt lat="44.14868" lon="12.13689"><ele>181.0</ele><time>2026-05-06T13:52:42.996Z</time></trkpt><trkpt lat="44.1487533" lon="12.1369283"><ele>181.0</ele><time>2026-05-06T13:52:43.996Z</time></trkpt><trkpt lat="44.1488183" lon="12.1369783"><ele>181.0</ele><time>2026-05-06T13:52:44.997Z</time></trkpt><trkpt lat="44.1488817" lon="12.137035"><ele>181.0</ele><time>2026-05-06T13:52:45.996Z</time></trkpt><trkpt lat="44.1489433" lon="12.1370817"><ele>181.0</ele><time>2026-05-06T13:52:46.997Z</time></trkpt><trkpt lat="44.149005" lon="12.1371283"><ele>181.0</ele><time>2026-05-06T13:52:47.997Z</time></trkpt><trkpt lat="44.1490683" lon="12.1371917"><ele>181.0</ele><time>2026-05-06T13:52:48.996Z</time></trkpt><trkpt lat="44.149125" lon="12.13726"><ele>180.71428571428572</ele><time>2026-05-06T13:52:49.997Z</time></trkpt><trkpt lat="44.1491883" lon="12.13732"><ele>180.42857142857142</ele><time>2026-05-06T13:52:50.997Z</time></trkpt><trkpt lat="44.1492467" lon="12.1373683"><ele>180.14285714285717</ele><time>2026-05-06T13:52:51.997Z</time></trkpt><trkpt lat="44.1493083" lon="12.137415"><ele>179.85714285714286</ele><time>2026-05-06T13:52:52.996Z</time></trkpt><trkpt lat="44.1493667" lon="12.13747"><ele>179.57142857142858</ele><time>2026-05-06T13:52:53.996Z</time></trkpt><trkpt lat="44.149425" lon="12.1375317"><ele>179.2857142857143</ele><time>2026-05-06T13:52:54.997Z</time></trkpt><trkpt lat="44.1494883" lon="12.1375917"><ele>179.0</ele><time>2026-05-06T13:52:55.997Z</time></trkpt><trkpt lat="44.149545" lon="12.1376633"><ele>177.83333333333331</ele><time>2026-05-06T13:52:56.997Z</time></trkpt><trkpt lat="44.1496067" lon="12.13773"><ele>176.66666666666666</ele><time>2026-05-06T13:52:57.997Z</time></trkpt><trkpt lat="44.1496733" lon="12.1378017"><ele>175.5</ele><time>2026-05-06T13:52:58.996Z</time></trkpt><trkpt lat="44.1497417" lon="12.13787"><ele>174.33333333333334</ele><time>2026-05-06T13:52:59.997Z</time></trkpt><trkpt lat="44.1498117" lon="12.13794"><ele>173.16666666666669</ele><time>2026-05-06T13:53:00.996Z</time></trkpt><trkpt lat="44.149875" lon="12.1380083"><ele>172.0</ele><time>2026-05-06T13:53:01.997Z</time></trkpt><trkpt lat="44.14995" lon="12.1380717"><ele>172.0</ele><time>2026-05-06T13:53:02.996Z</time></trkpt><trkpt lat="44.1500183" lon="12.1381417"><ele>172.0</ele><time>2026-05-06T13:53:03.996Z</time></trkpt><trkpt lat="44.1500833" lon="12.1382133"><ele>172.0</ele><time>2026-05-06T13:53:04.996Z</time></trkpt><trkpt lat="44.1501517" lon="12.138285"><ele>172.0</ele><time>2026-05-06T13:53:05.996Z</time></trkpt><trkpt lat="44.1502183" lon="12.1383667"><ele>172.0</ele><time>2026-05-06T13:53:06.996Z</time></trkpt><trkpt lat="44.1502833" lon="12.13844"><ele>172.0</ele><time>2026-05-06T13:53:07.997Z</time></trkpt><trkpt lat="44.1503583" lon="12.1385133"><ele>171.5</ele><time>2026-05-06T13:53:08.996Z</time></trkpt><trkpt lat="44.1504317" lon="12.1385783"><ele>171.0</ele><time>2026-05-06T13:53:09.996Z</time></trkpt><trkpt lat="44.1505" lon="12.1386567"><ele>170.5</ele><time>2026-05-06T13:53:10.997Z</time></trkpt><trkpt lat="44.1505667" lon="12.1387233"><ele>170.0</ele><time>2026-05-06T13:53:11.997Z</time></trkpt><trkpt lat="44.150635" lon="12.1387917"><ele>169.5</ele><time>2026-05-06T13:53:12.996Z</time></trkpt><trkpt lat="44.1507033" lon="12.13886"><ele>169.0</ele><time>2026-05-06T13:53:13.996Z</time></trkpt><trkpt lat="44.15077" lon="12.1389167"><ele>169.0</ele><time>2026-05-06T13:53:14.996Z</time></trkpt><trkpt lat="44.15083" lon="12.1389783"><ele>169.0</ele><time>2026-05-06T13:53:15.996Z</time></trkpt><trkpt lat="44.1508917" lon="12.1390267"><ele>169.0</ele><time>2026-05-06T13:53:16.996Z</time></trkpt><trkpt lat="44.1509467" lon="12.1390883"><ele>169.0</ele><time>2026-05-06T13:53:17.997Z</time></trkpt><trkpt lat="44.1510083" lon="12.1391433"><ele>169.0</ele><time>2026-05-06T13:53:18.996Z</time></trkpt><trkpt lat="44.1510767" lon="12.13917"><ele>169.0</ele><time>2026-05-06T13:53:19.997Z</time></trkpt><trkpt lat="44.1511917" lon="12.1391517"><ele>167.6</ele><time>2026-05-06T13:53:21.997Z</time></trkpt><trkpt lat="44.1512733" lon="12.139105"><ele>166.2</ele><time>2026-05-06T13:53:23.996Z</time></trkpt><trkpt lat="44.1513433" lon="12.139085"><ele>164.79999999999998</ele><time>2026-05-06T13:53:26.996Z</time></trkpt><trkpt lat="44.1513817" lon="12.1391767"><ele>163.39999999999998</ele><time>2026-05-06T13:53:39.996Z</time></trkpt><trkpt lat="44.151415" lon="12.1392967"><ele>162.0</ele><time>2026-05-06T13:53:41.997Z</time></trkpt><trkpt lat="44.1514717" lon="12.1394617"><ele>162.0</ele><time>2026-05-06T13:53:43.997Z</time></trkpt><trkpt lat="44.151485" lon="12.1395617"><ele>162.0</ele><time>2026-05-06T13:53:44.997Z</time></trkpt><trkpt lat="44.1515117" lon="12.13968"><ele>162.0</ele><time>2026-05-06T13:53:45.996Z</time></trkpt><trkpt lat="44.1515233" lon="12.1397967"><ele>162.0</ele><time>2026-05-06T13:53:46.997Z</time></trkpt><trkpt lat="44.1515317" lon="12.1399183"><ele>162.0</ele><time>2026-05-06T13:53:47.997Z</time></trkpt><trkpt lat="44.1515417" lon="12.1400267"><ele>162.0</ele><time>2026-05-06T13:53:48.996Z</time></trkpt><trkpt lat="44.1515467" lon="12.14013"><ele>161.66666666666666</ele><time>2026-05-06T13:53:49.997Z</time></trkpt><trkpt lat="44.1515517" lon="12.1402333"><ele>161.33333333333334</ele><time>2026-05-06T13:53:50.996Z</time></trkpt><trkpt lat="44.1515617" lon="12.1403233"><ele>161.0</ele><time>2026-05-06T13:53:51.996Z</time></trkpt><trkpt lat="44.1515917" lon="12.1404817"><ele>160.66666666666669</ele><time>2026-05-06T13:53:53.997Z</time></trkpt><trkpt lat="44.1516367" lon="12.1406317"><ele>160.33333333333334</ele><time>2026-05-06T13:53:55.996Z</time></trkpt><trkpt lat="44.1516583" lon="12.1407167"><ele>160.0</ele><time>2026-05-06T13:53:56.997Z</time></trkpt><trkpt lat="44.1516833" lon="12.1408083"><ele>158.85714285714286</ele><time>2026-05-06T13:53:57.996Z</time></trkpt><trkpt lat="44.1517067" lon="12.140895"><ele>157.71428571428572</ele><time>2026-05-06T13:53:58.997Z</time></trkpt><trkpt lat="44.15172" lon="12.140985"><ele>156.57142857142856</ele><time>2026-05-06T13:53:59.997Z</time></trkpt><trkpt lat="44.1517383" lon="12.1410733"><ele>155.42857142857144</ele><time>2026-05-06T13:54:00.997Z</time></trkpt><trkpt lat="44.1517633" lon="12.141165"><ele>154.2857142857143</ele><time>2026-05-06T13:54:01.996Z</time></trkpt><trkpt lat="44.1517917" lon="12.141255"><ele>153.14285714285714</ele><time>2026-05-06T13:54:02.996Z</time></trkpt><trkpt lat="44.1518217" lon="12.1413467"><ele>152.0</ele><time>2026-05-06T13:54:03.997Z</time></trkpt><trkpt lat="44.15185" lon="12.1414467"><ele>152.0</ele><time>2026-05-06T13:54:04.996Z</time></trkpt><trkpt lat="44.15188" lon="12.1415383"><ele>152.0</ele><time>2026-05-06T13:54:05.996Z</time></trkpt><trkpt lat="44.1519017" lon="12.1416333"><ele>152.0</ele><time>2026-05-06T13:54:06.996Z</time></trkpt><trkpt lat="44.1519217" lon="12.1417333"><ele>152.0</ele><time>2026-05-06T13:54:07.997Z</time></trkpt><trkpt lat="44.1519317" lon="12.141825"><ele>152.0</ele><time>2026-05-06T13:54:08.997Z</time></trkpt><trkpt lat="44.151945" lon="12.1419183"><ele>152.0</ele><time>2026-05-06T13:54:09.996Z</time></trkpt><trkpt lat="44.15196" lon="12.142015"><ele>152.0</ele><time>2026-05-06T13:54:10.996Z</time></trkpt><trkpt lat="44.1519717" lon="12.1421067"><ele>150.0</ele><time>2026-05-06T13:54:11.996Z</time></trkpt><trkpt lat="44.151985" lon="12.1422783"><ele>148.0</ele><time>2026-05-06T13:54:13.997Z</time></trkpt><trkpt lat="44.15201" lon="12.1424567"><ele>146.0</ele><time>2026-05-06T13:54:15.996Z</time></trkpt><trkpt lat="44.1520267" lon="12.1425483"><ele>144.0</ele><time>2026-05-06T13:54:16.996Z</time></trkpt><trkpt lat="44.15204" lon="12.1426467"><ele>142.0</ele><time>2026-05-06T13:54:17.996Z</time></trkpt><trkpt lat="44.15205" lon="12.14275"><ele>140.0</ele><time>2026-05-06T13:54:18.996Z</time></trkpt><trkpt lat="44.1520683" lon="12.1428567"><ele>138.0</ele><time>2026-05-06T13:54:19.996Z</time></trkpt><trkpt lat="44.1520783" lon="12.14297"><ele>136.0</ele><time>2026-05-06T13:54:20.996Z</time></trkpt><trkpt lat="44.1520817" lon="12.1430867"><ele>134.0</ele><time>2026-05-06T13:54:21.997Z</time></trkpt><trkpt lat="44.1520883" lon="12.1432017"><ele>132.0</ele><time>2026-05-06T13:54:22.997Z</time></trkpt><trkpt lat="44.152105" lon="12.1433183"><ele>130.0</ele><time>2026-05-06T13:54:23.996Z</time></trkpt><trkpt lat="44.1521117" lon="12.1434267"><ele>129.16666666666669</ele><time>2026-05-06T13:54:24.996Z</time></trkpt><trkpt lat="44.1521217" lon="12.1435417"><ele>128.33333333333334</ele><time>2026-05-06T13:54:25.996Z</time></trkpt><trkpt lat="44.1521367" lon="12.1436517"><ele>127.5</ele><time>2026-05-06T13:54:26.997Z</time></trkpt><trkpt lat="44.15215" lon="12.143765"><ele>126.66666666666666</ele><time>2026-05-06T13:54:27.997Z</time></trkpt><trkpt lat="44.1521733" lon="12.1438717"><ele>125.83333333333333</ele><time>2026-05-06T13:54:28.997Z</time></trkpt><trkpt lat="44.1522033" lon="12.1439817"><ele>125.0</ele><time>2026-05-06T13:54:29.996Z</time></trkpt><trkpt lat="44.1522417" lon="12.144095"><ele>124.4</ele><time>2026-05-06T13:54:30.996Z</time></trkpt><trkpt lat="44.152275" lon="12.1442167"><ele>123.8</ele><time>2026-05-06T13:54:31.996Z</time></trkpt><trkpt lat="44.1523167" lon="12.1443517"><ele>123.19999999999999</ele><time>2026-05-06T13:54:32.996Z</time></trkpt><trkpt lat="44.1523617" lon="12.1444783"><ele>122.6</ele><time>2026-05-06T13:54:33.996Z</time></trkpt><trkpt lat="44.1524033" lon="12.1446133"><ele>122.0</ele><time>2026-05-06T13:54:34.996Z</time></trkpt><trkpt lat="44.1524467" lon="12.14475"><ele>121.0</ele><time>2026-05-06T13:54:35.997Z</time></trkpt><trkpt lat="44.1524833" lon="12.144885"><ele>119.99999999999999</ele><time>2026-05-06T13:54:36.996Z</time></trkpt><trkpt lat="44.1525267" lon="12.14502"><ele>118.99999999999999</ele><time>2026-05-06T13:54:37.996Z</time></trkpt><trkpt lat="44.152565" lon="12.1451533"><ele>118.0</ele><time>2026-05-06T13:54:38.996Z</time></trkpt><trkpt lat="44.152605" lon="12.1452767"><ele>117.0</ele><time>2026-05-06T13:54:39.997Z</time></trkpt><trkpt lat="44.1526433" lon="12.1453967"><ele>117.0</ele><time>2026-05-06T13:54:40.997Z</time></trkpt><trkpt lat="44.15268" lon="12.1455317"><ele>116.99999999999999</ele><time>2026-05-06T13:54:41.997Z</time></trkpt><trkpt lat="44.152715" lon="12.1456567"><ele>116.99999999999999</ele><time>2026-05-06T13:54:42.997Z</time></trkpt><trkpt lat="44.1527483" lon="12.1457767"><ele>117.0</ele><time>2026-05-06T13:54:43.996Z</time></trkpt><trkpt lat="44.152785" lon="12.1458983"><ele>117.0</ele><time>2026-05-06T13:54:44.996Z</time></trkpt><trkpt lat="44.152825" lon="12.1460283"><ele>116.0</ele><time>2026-05-06T13:54:45.997Z</time></trkpt><trkpt lat="44.1528667" lon="12.146175"><ele>114.99999999999999</ele><time>2026-05-06T13:54:46.997Z</time></trkpt><trkpt lat="44.1529117" lon="12.146315"><ele>113.99999999999999</ele><time>2026-05-06T13:54:47.997Z</time></trkpt><trkpt lat="44.1529533" lon="12.1464583"><ele>113.0</ele><time>2026-05-06T13:54:48.997Z</time></trkpt><trkpt lat="44.1529933" lon="12.1466"><ele>112.0</ele><time>2026-05-06T13:54:49.996Z</time></trkpt><trkpt lat="44.1530233" lon="12.14675"><ele>110.5</ele><time>2026-05-06T13:54:50.996Z</time></trkpt><trkpt lat="44.1530567" lon="12.1469"><ele>109.0</ele><time>2026-05-06T13:54:51.996Z</time></trkpt><trkpt lat="44.1530883" lon="12.1470533"><ele>107.5</ele><time>2026-05-06T13:54:52.996Z</time></trkpt><trkpt lat="44.153125" lon="12.1472117"><ele>106.0</ele><time>2026-05-06T13:54:53.996Z</time></trkpt><trkpt lat="44.153165" lon="12.1473517"><ele>105.0</ele><time>2026-05-06T13:54:54.996Z</time></trkpt><trkpt lat="44.1532" lon="12.1474867"><ele>104.0</ele><time>2026-05-06T13:54:55.996Z</time></trkpt><trkpt lat="44.1532383" lon="12.147615"><ele>103.0</ele><time>2026-05-06T13:54:56.996Z</time></trkpt><trkpt lat="44.15327" lon="12.1477467"><ele>102.0</ele><time>2026-05-06T13:54:57.996Z</time></trkpt><trkpt lat="44.1533017" lon="12.1478783"><ele>101.0</ele><time>2026-05-06T13:54:58.996Z</time></trkpt><trkpt lat="44.1533367" lon="12.1480117"><ele>99.0</ele><time>2026-05-06T13:54:59.996Z</time></trkpt><trkpt lat="44.1533683" lon="12.1481517"><ele>97.0</ele><time>2026-05-06T13:55:00.996Z</time></trkpt><trkpt lat="44.1534" lon="12.1482933"><ele>95.0</ele><time>2026-05-06T13:55:01.996Z</time></trkpt><trkpt lat="44.1534417" lon="12.1484333"><ele>93.0</ele><time>2026-05-06T13:55:02.997Z</time></trkpt><trkpt lat="44.15348" lon="12.1485767"><ele>91.0</ele><time>2026-05-06T13:55:03.997Z</time></trkpt><trkpt lat="44.1535167" lon="12.1487183"><ele>90.0</ele><time>2026-05-06T13:55:04.997Z</time></trkpt><trkpt lat="44.1535517" lon="12.14886"><ele>89.0</ele><time>2026-05-06T13:55:05.997Z</time></trkpt><trkpt lat="44.1535883" lon="12.1490017"><ele>88.0</ele><time>2026-05-06T13:55:06.997Z</time></trkpt><trkpt lat="44.1536217" lon="12.1491467"><ele>87.0</ele><time>2026-05-06T13:55:07.997Z</time></trkpt><trkpt lat="44.1536533" lon="12.1492967"><ele>86.0</ele><time>2026-05-06T13:55:08.996Z</time></trkpt><trkpt lat="44.1536883" lon="12.14945"><ele>84.5</ele><time>2026-05-06T13:55:09.996Z</time></trkpt><trkpt lat="44.153725" lon="12.1496"><ele>83.0</ele><time>2026-05-06T13:55:10.997Z</time></trkpt><trkpt lat="44.1537617" lon="12.1497533"><ele>81.5</ele><time>2026-05-06T13:55:11.997Z</time></trkpt><trkpt lat="44.1537983" lon="12.1499067"><ele>80.0</ele><time>2026-05-06T13:55:12.996Z</time></trkpt><trkpt lat="44.15384" lon="12.1500533"><ele>78.8</ele><time>2026-05-06T13:55:13.997Z</time></trkpt><trkpt lat="44.1538767" lon="12.1501967"><ele>77.6</ele><time>2026-05-06T13:55:14.997Z</time></trkpt><trkpt lat="44.1539117" lon="12.1503417"><ele>76.4</ele><time>2026-05-06T13:55:15.997Z</time></trkpt><trkpt lat="44.1539467" lon="12.1504883"><ele>75.2</ele><time>2026-05-06T13:55:16.996Z</time></trkpt><trkpt lat="44.1539817" lon="12.15063"><ele>74.0</ele><time>2026-05-06T13:55:17.996Z</time></trkpt><trkpt lat="44.1540167" lon="12.15077"><ele>71.25</ele><time>2026-05-06T13:55:18.997Z</time></trkpt><trkpt lat="44.1540533" lon="12.1509083"><ele>68.5</ele><time>2026-05-06T13:55:19.997Z</time></trkpt><trkpt lat="44.154105" lon="12.151055"><ele>65.75</ele><time>2026-05-06T13:55:20.996Z</time></trkpt><trkpt lat="44.1541567" lon="12.151205"><ele>63.0</ele><time>2026-05-06T13:55:21.996Z</time></trkpt><trkpt lat="44.1542183" lon="12.1513583"><ele>63.0</ele><time>2026-05-06T13:55:22.996Z</time></trkpt><trkpt lat="44.1542783" lon="12.151515"><ele>63.0</ele><time>2026-05-06T13:55:23.996Z</time></trkpt><trkpt lat="44.154345" lon="12.1516667"><ele>63.0</ele><time>2026-05-06T13:55:24.997Z</time></trkpt><trkpt lat="44.1544133" lon="12.1518133"><ele>63.0</ele><time>2026-05-06T13:55:25.996Z</time></trkpt><trkpt lat="44.1544867" lon="12.1519583"><ele>61.5</ele><time>2026-05-06T13:55:26.996Z</time></trkpt><trkpt lat="44.1545533" lon="12.1521033"><ele>60.0</ele><time>2026-05-06T13:55:27.996Z</time></trkpt><trkpt lat="44.1546317" lon="12.1522367"><ele>58.5</ele><time>2026-05-06T13:55:28.996Z</time></trkpt><trkpt lat="44.154695" lon="12.1523867"><ele>57.0</ele><time>2026-05-06T13:55:29.996Z</time></trkpt><trkpt lat="44.1547633" lon="12.1525383"><ele>55.5</ele><time>2026-05-06T13:55:30.997Z</time></trkpt><trkpt lat="44.154835" lon="12.1527"><ele>54.0</ele><time>2026-05-06T13:55:31.997Z</time></trkpt><trkpt lat="44.1549083" lon="12.15285"><ele>52.5</ele><time>2026-05-06T13:55:32.997Z</time></trkpt><trkpt lat="44.1549783" lon="12.153005"><ele>51.0</ele><time>2026-05-06T13:55:33.996Z</time></trkpt><trkpt lat="44.1550517" lon="12.153155"><ele>49.75</ele><time>2026-05-06T13:55:34.996Z</time></trkpt><trkpt lat="44.15512" lon="12.1533067"><ele>48.5</ele><time>2026-05-06T13:55:35.997Z</time></trkpt><trkpt lat="44.1551883" lon="12.15346"><ele>47.25</ele><time>2026-05-06T13:55:36.996Z</time></trkpt><trkpt lat="44.1552567" lon="12.153615"><ele>46.0</ele><time>2026-05-06T13:55:37.996Z</time></trkpt><trkpt lat="44.155325" lon="12.1537617"><ele>46.0</ele><time>2026-05-06T13:55:38.996Z</time></trkpt><trkpt lat="44.1554" lon="12.15391"><ele>46.0</ele><time>2026-05-06T13:55:39.996Z</time></trkpt><trkpt lat="44.1554733" lon="12.1540667"><ele>46.0</ele><time>2026-05-06T13:55:40.996Z</time></trkpt><trkpt lat="44.155545" lon="12.1542117"><ele>46.0</ele><time>2026-05-06T13:55:41.996Z</time></trkpt><trkpt lat="44.1556183" lon="12.1543517"><ele>45.25</ele><time>2026-05-06T13:55:42.996Z</time></trkpt><trkpt lat="44.15569" lon="12.1545033"><ele>44.5</ele><time>2026-05-06T13:55:43.996Z</time></trkpt><trkpt lat="44.15576" lon="12.154655"><ele>43.75</ele><time>2026-05-06T13:55:44.997Z</time></trkpt><trkpt lat="44.155825" lon="12.154805"><ele>43.0</ele><time>2026-05-06T13:55:45.996Z</time></trkpt><trkpt lat="44.1558983" lon="12.154945"><ele>42.5</ele><time>2026-05-06T13:55:46.996Z</time></trkpt><trkpt lat="44.1559667" lon="12.1550933"><ele>42.0</ele><time>2026-05-06T13:55:47.997Z</time></trkpt><trkpt lat="44.1560383" lon="12.1552383"><ele>41.5</ele><time>2026-05-06T13:55:48.996Z</time></trkpt><trkpt lat="44.1561067" lon="12.1553833"><ele>41.0</ele><time>2026-05-06T13:55:49.996Z</time></trkpt><trkpt lat="44.156175" lon="12.155525"><ele>41.0</ele><time>2026-05-06T13:55:50.996Z</time></trkpt><trkpt lat="44.1562417" lon="12.1556617"><ele>41.0</ele><time>2026-05-06T13:55:51.997Z</time></trkpt><trkpt lat="44.1563" lon="12.1557983"><ele>41.0</ele><time>2026-05-06T13:55:52.997Z</time></trkpt><trkpt lat="44.156355" lon="12.1559467"><ele>41.0</ele><time>2026-05-06T13:55:53.996Z</time></trkpt><trkpt lat="44.1563983" lon="12.1560833"><ele>40.4</ele><time>2026-05-06T13:55:54.996Z</time></trkpt><trkpt lat="44.156425" lon="12.1562217"><ele>39.8</ele><time>2026-05-06T13:55:55.997Z</time></trkpt><trkpt lat="44.1564283" lon="12.1563583"><ele>39.199999999999996</ele><time>2026-05-06T13:55:56.997Z</time></trkpt><trkpt lat="44.1564133" lon="12.1564933"><ele>38.599999999999994</ele><time>2026-05-06T13:55:57.997Z</time></trkpt><trkpt lat="44.1563867" lon="12.1566267"><ele>38.0</ele><time>2026-05-06T13:55:58.996Z</time></trkpt><trkpt lat="44.1563583" lon="12.1567483"><ele>38.0</ele><time>2026-05-06T13:55:59.996Z</time></trkpt><trkpt lat="44.156325" lon="12.1568683"><ele>38.0</ele><time>2026-05-06T13:56:00.996Z</time></trkpt><trkpt lat="44.156295" lon="12.1569817"><ele>38.0</ele><time>2026-05-06T13:56:01.996Z</time></trkpt><trkpt lat="44.156265" lon="12.157085"><ele>38.0</ele><time>2026-05-06T13:56:02.996Z</time></trkpt><trkpt lat="44.1562367" lon="12.1571867"><ele>38.0</ele><time>2026-05-06T13:56:03.997Z</time></trkpt><trkpt lat="44.1562133" lon="12.1572867"><ele>38.0</ele><time>2026-05-06T13:56:04.996Z</time></trkpt><trkpt lat="44.156195" lon="12.1573883"><ele>38.0</ele><time>2026-05-06T13:56:05.997Z</time></trkpt><trkpt lat="44.1561733" lon="12.1574867"><ele>38.0</ele><time>2026-05-06T13:56:06.996Z</time></trkpt><trkpt lat="44.1561567" lon="12.15758"><ele>38.0</ele><time>2026-05-06T13:56:07.997Z</time></trkpt><trkpt lat="44.156135" lon="12.1576717"><ele>38.0</ele><time>2026-05-06T13:56:08.997Z</time></trkpt><trkpt lat="44.1561183" lon="12.1577617"><ele>38.0</ele><time>2026-05-06T13:56:09.997Z</time></trkpt><trkpt lat="44.15611" lon="12.157855"><ele>38.0</ele><time>2026-05-06T13:56:10.996Z</time></trkpt><trkpt lat="44.156095" lon="12.1580217"><ele>38.0</ele><time>2026-05-06T13:56:12.996Z</time></trkpt><trkpt lat="44.156085" lon="12.1581783"><ele>38.0</ele><time>2026-05-06T13:56:14.997Z</time></trkpt><trkpt lat="44.1560783" lon="12.1583183"><ele>38.0</ele><time>2026-05-06T13:56:16.996Z</time></trkpt><trkpt lat="44.1560667" lon="12.1584667"><ele>38.0</ele><time>2026-05-06T13:56:18.997Z</time></trkpt><trkpt lat="44.1560533" lon="12.1586117"><ele>38.0</ele><time>2026-05-06T13:56:20.996Z</time></trkpt><trkpt lat="44.156045" lon="12.158765"><ele>38.199999999999996</ele><time>2026-05-06T13:56:22.996Z</time></trkpt><trkpt lat="44.1560333" lon="12.158915"><ele>38.4</ele><time>2026-05-06T13:56:24.996Z</time></trkpt><trkpt lat="44.1560233" lon="12.15907"><ele>38.599999999999994</ele><time>2026-05-06T13:56:26.997Z</time></trkpt><trkpt lat="44.1560217" lon="12.1592267"><ele>38.8</ele><time>2026-05-06T13:56:28.996Z</time></trkpt><trkpt lat="44.1560233" lon="12.15939"><ele>39.0</ele><time>2026-05-06T13:56:30.996Z</time></trkpt><trkpt lat="44.1560383" lon="12.1595467"><ele>39.0</ele><time>2026-05-06T13:56:32.996Z</time></trkpt><trkpt lat="44.1560533" lon="12.1596933"><ele>39.0</ele><time>2026-05-06T13:56:34.997Z</time></trkpt><trkpt lat="44.15607" lon="12.1598283"><ele>39.0</ele><time>2026-05-06T13:56:36.996Z</time></trkpt><trkpt lat="44.1560867" lon="12.15996"><ele>39.0</ele><time>2026-05-06T13:56:38.996Z</time></trkpt><trkpt lat="44.1561033" lon="12.1600767"><ele>39.0</ele><time>2026-05-06T13:56:40.997Z</time></trkpt><trkpt lat="44.156125" lon="12.1601983"><ele>39.6</ele><time>2026-05-06T13:56:42.997Z</time></trkpt><trkpt lat="44.1561467" lon="12.1603017"><ele>40.2</ele><time>2026-05-06T13:56:44.996Z</time></trkpt><trkpt lat="44.1561817" lon="12.1604"><ele>40.800000000000004</ele><time>2026-05-06T13:56:46.997Z</time></trkpt><trkpt lat="44.1562583" lon="12.1604717"><ele>41.4</ele><time>2026-05-06T13:56:48.997Z</time></trkpt><trkpt lat="44.156365" lon="12.1605233"><ele>42.0</ele><time>2026-05-06T13:56:50.997Z</time></trkpt><trkpt lat="44.1564883" lon="12.16057"><ele>41.333333333333336</ele><time>2026-05-06T13:56:52.996Z</time></trkpt><trkpt lat="44.1566167" lon="12.1606083"><ele>40.666666666666664</ele><time>2026-05-06T13:56:54.996Z</time></trkpt><trkpt lat="44.1566783" lon="12.160635"><ele>40.0</ele><time>2026-05-06T13:56:55.996Z</time></trkpt><trkpt lat="44.15674" lon="12.1606667"><ele>39.33333333333333</ele><time>2026-05-06T13:56:56.997Z</time></trkpt><trkpt lat="44.1568033" lon="12.1606933"><ele>38.666666666666664</ele><time>2026-05-06T13:56:57.996Z</time></trkpt><trkpt lat="44.1568683" lon="12.1607167"><ele>38.0</ele><time>2026-05-06T13:56:58.996Z</time></trkpt><trkpt lat="44.1569367" lon="12.16074"><ele>38.0</ele><time>2026-05-06T13:56:59.997Z</time></trkpt><trkpt lat="44.1570067" lon="12.160765"><ele>38.0</ele><time>2026-05-06T13:57:00.997Z</time></trkpt><trkpt lat="44.157075" lon="12.1607917"><ele>38.0</ele><time>2026-05-06T13:57:01.996Z</time></trkpt><trkpt lat="44.1571433" lon="12.160815"><ele>38.0</ele><time>2026-05-06T13:57:02.996Z</time></trkpt><trkpt lat="44.1572133" lon="12.1608333"><ele>38.0</ele><time>2026-05-06T13:57:03.997Z</time></trkpt><trkpt lat="44.1572817" lon="12.16085"><ele>38.0</ele><time>2026-05-06T13:57:04.996Z</time></trkpt><trkpt lat="44.15735" lon="12.1608667"><ele>38.0</ele><time>2026-05-06T13:57:05.996Z</time></trkpt><trkpt lat="44.157415" lon="12.16089"><ele>37.83333333333333</ele><time>2026-05-06T13:57:06.997Z</time></trkpt><trkpt lat="44.15748" lon="12.1609117"><ele>37.666666666666664</ele><time>2026-05-06T13:57:07.996Z</time></trkpt><trkpt lat="44.157545" lon="12.1609283"><ele>37.5</ele><time>2026-05-06T13:57:08.996Z</time></trkpt><trkpt lat="44.1576167" lon="12.1609467"><ele>37.333333333333336</ele><time>2026-05-06T13:57:09.996Z</time></trkpt><trkpt lat="44.15768" lon="12.1609683"><ele>37.16666666666667</ele><time>2026-05-06T13:57:10.997Z</time></trkpt><trkpt lat="44.1578017" lon="12.1610033"><ele>37.0</ele><time>2026-05-06T13:57:12.997Z</time></trkpt><trkpt lat="44.157925" lon="12.16103"><ele>37.0</ele><time>2026-05-06T13:57:14.996Z</time></trkpt><trkpt lat="44.1579917" lon="12.1610467"><ele>37.0</ele><time>2026-05-06T13:57:15.997Z</time></trkpt><trkpt lat="44.1580583" lon="12.1610583"><ele>37.0</ele><time>2026-05-06T13:57:16.996Z</time></trkpt><trkpt lat="44.158125" lon="12.1610767"><ele>37.0</ele><time>2026-05-06T13:57:17.996Z</time></trkpt><trkpt lat="44.1581917" lon="12.1611017"><ele>37.0</ele><time>2026-05-06T13:57:18.997Z</time></trkpt><trkpt lat="44.15826" lon="12.1611183"><ele>37.0</ele><time>2026-05-06T13:57:19.996Z</time></trkpt><trkpt lat="44.1583283" lon="12.1611417"><ele>37.0</ele><time>2026-05-06T13:57:20.997Z</time></trkpt><trkpt lat="44.158395" lon="12.1611733"><ele>36.85714285714286</ele><time>2026-05-06T13:57:21.996Z</time></trkpt><trkpt lat="44.1584633" lon="12.1612067"><ele>36.714285714285715</ele><time>2026-05-06T13:57:22.996Z</time></trkpt><trkpt lat="44.1585317" lon="12.1612417"><ele>36.57142857142857</ele><time>2026-05-06T13:57:23.996Z</time></trkpt><trkpt lat="44.1586017" lon="12.161285"><ele>36.42857142857143</ele><time>2026-05-06T13:57:24.996Z</time></trkpt><trkpt lat="44.1586683" lon="12.1613217"><ele>36.285714285714285</ele><time>2026-05-06T13:57:25.997Z</time></trkpt><trkpt lat="44.1587417" lon="12.1613583"><ele>36.142857142857146</ele><time>2026-05-06T13:57:26.997Z</time></trkpt><trkpt lat="44.15881" lon="12.1614"><ele>36.0</ele><time>2026-05-06T13:57:27.996Z</time></trkpt><trkpt lat="44.1588817" lon="12.1614433"><ele>36.0</ele><time>2026-05-06T13:57:28.996Z</time></trkpt><trkpt lat="44.1589533" lon="12.161485"><ele>36.0</ele><time>2026-05-06T13:57:29.996Z</time></trkpt><trkpt lat="44.1590283" lon="12.1615233"><ele>36.0</ele><time>2026-05-06T13:57:30.996Z</time></trkpt><trkpt lat="44.1591" lon="12.1615667"><ele>36.0</ele><time>2026-05-06T13:57:31.996Z</time></trkpt><trkpt lat="44.1591717" lon="12.16161"><ele>36.0</ele><time>2026-05-06T13:57:32.996Z</time></trkpt><trkpt lat="44.1592417" lon="12.16165"><ele>36.0</ele><time>2026-05-06T13:57:33.996Z</time></trkpt><trkpt lat="44.1593117" lon="12.1616833"><ele>35.833333333333336</ele><time>2026-05-06T13:57:34.996Z</time></trkpt><trkpt lat="44.1593817" lon="12.161725"><ele>35.666666666666664</ele><time>2026-05-06T13:57:35.997Z</time></trkpt><trkpt lat="44.15945" lon="12.1617733"><ele>35.5</ele><time>2026-05-06T13:57:36.996Z</time></trkpt><trkpt lat="44.1595217" lon="12.1618167"><ele>35.33333333333333</ele><time>2026-05-06T13:57:37.996Z</time></trkpt><trkpt lat="44.159595" lon="12.161855"><ele>35.166666666666664</ele><time>2026-05-06T13:57:38.996Z</time></trkpt><trkpt lat="44.159665" lon="12.1618983"><ele>35.0</ele><time>2026-05-06T13:57:39.997Z</time></trkpt><trkpt lat="44.159735" lon="12.1619383"><ele>35.0</ele><time>2026-05-06T13:57:40.996Z</time></trkpt><trkpt lat="44.1598033" lon="12.16198"><ele>35.0</ele><time>2026-05-06T13:57:41.996Z</time></trkpt><trkpt lat="44.1598733" lon="12.1620183"><ele>35.0</ele><time>2026-05-06T13:57:42.997Z</time></trkpt><trkpt lat="44.159945" lon="12.1620583"><ele>35.0</ele><time>2026-05-06T13:57:43.997Z</time></trkpt><trkpt lat="44.1600117" lon="12.1620967"><ele>35.0</ele><time>2026-05-06T13:57:44.996Z</time></trkpt><trkpt lat="44.1600733" lon="12.1621383"><ele>35.0</ele><time>2026-05-06T13:57:45.996Z</time></trkpt><trkpt lat="44.1601383" lon="12.1621733"><ele>35.0</ele><time>2026-05-06T13:57:46.996Z</time></trkpt><trkpt lat="44.1602067" lon="12.1622067"><ele>34.57142857142857</ele><time>2026-05-06T13:57:47.997Z</time></trkpt><trkpt lat="44.1602733" lon="12.1622383"><ele>34.14285714285714</ele><time>2026-05-06T13:57:48.997Z</time></trkpt><trkpt lat="44.16034" lon="12.162265"><ele>33.714285714285715</ele><time>2026-05-06T13:57:49.996Z</time></trkpt><trkpt lat="44.1604083" lon="12.162295"><ele>33.285714285714285</ele><time>2026-05-06T13:57:50.996Z</time></trkpt><trkpt lat="44.160475" lon="12.16233"><ele>32.857142857142854</ele><time>2026-05-06T13:57:51.996Z</time></trkpt><trkpt lat="44.16054" lon="12.16237"><ele>32.42857142857143</ele><time>2026-05-06T13:57:52.997Z</time></trkpt><trkpt lat="44.1606033" lon="12.1624117"><ele>32.0</ele><time>2026-05-06T13:57:53.997Z</time></trkpt><trkpt lat="44.1606683" lon="12.1624533"><ele>31.666666666666664</ele><time>2026-05-06T13:57:54.997Z</time></trkpt><trkpt lat="44.1607333" lon="12.1624883"><ele>31.333333333333332</ele><time>2026-05-06T13:57:55.997Z</time></trkpt><trkpt lat="44.1608" lon="12.1625233"><ele>31.0</ele><time>2026-05-06T13:57:56.996Z</time></trkpt><trkpt lat="44.1608667" lon="12.1625583"><ele>30.666666666666664</ele><time>2026-05-06T13:57:57.996Z</time></trkpt><trkpt lat="44.1609867" lon="12.16263"><ele>30.333333333333332</ele><time>2026-05-06T13:57:59.996Z</time></trkpt><trkpt lat="44.16105" lon="12.162655"><ele>30.0</ele><time>2026-05-06T13:58:00.997Z</time></trkpt><trkpt lat="44.161105" lon="12.1626983"><ele>30.0</ele><time>2026-05-06T13:58:01.996Z</time></trkpt><trkpt lat="44.1611667" lon="12.1627367"><ele>30.0</ele><time>2026-05-06T13:58:02.996Z</time></trkpt><trkpt lat="44.1612267" lon="12.1627733"><ele>30.0</ele><time>2026-05-06T13:58:03.997Z</time></trkpt><trkpt lat="44.16129" lon="12.1628083"><ele>30.0</ele><time>2026-05-06T13:58:04.997Z</time></trkpt><trkpt lat="44.16135" lon="12.16284"><ele>30.0</ele><time>2026-05-06T13:58:05.996Z</time></trkpt><trkpt lat="44.1614117" lon="12.1628717"><ele>30.0</ele><time>2026-05-06T13:58:06.997Z</time></trkpt><trkpt lat="44.16147" lon="12.1629067"><ele>30.0</ele><time>2026-05-06T13:58:07.997Z</time></trkpt><trkpt lat="44.1615283" lon="12.1629433"><ele>30.166666666666668</ele><time>2026-05-06T13:58:08.996Z</time></trkpt><trkpt lat="44.16159" lon="12.1629767"><ele>30.333333333333336</ele><time>2026-05-06T13:58:09.997Z</time></trkpt><trkpt lat="44.1617017" lon="12.1630333"><ele>30.5</ele><time>2026-05-06T13:58:11.996Z</time></trkpt><trkpt lat="44.1618067" lon="12.1630983"><ele>30.666666666666668</ele><time>2026-05-06T13:58:13.997Z</time></trkpt><trkpt lat="44.1618667" lon="12.1631267"><ele>30.833333333333336</ele><time>2026-05-06T13:58:14.996Z</time></trkpt><trkpt lat="44.1619283" lon="12.16316"><ele>31.0</ele><time>2026-05-06T13:58:15.997Z</time></trkpt><trkpt lat="44.1620433" lon="12.1632233"><ele>31.0</ele><time>2026-05-06T13:58:17.996Z</time></trkpt><trkpt lat="44.162155" lon="12.16329"><ele>31.0</ele><time>2026-05-06T13:58:19.996Z</time></trkpt><trkpt lat="44.162255" lon="12.163355"><ele>31.0</ele><time>2026-05-06T13:58:21.996Z</time></trkpt><trkpt lat="44.1623567" lon="12.1634167"><ele>31.0</ele><time>2026-05-06T13:58:23.997Z</time></trkpt><trkpt lat="44.162455" lon="12.1634817"><ele>30.5</ele><time>2026-05-06T13:58:25.996Z</time></trkpt><trkpt lat="44.1625667" lon="12.1635383"><ele>30.0</ele><time>2026-05-06T13:58:27.996Z</time></trkpt><trkpt lat="44.1626733" lon="12.1635933"><ele>29.5</ele><time>2026-05-06T13:58:29.996Z</time></trkpt><trkpt lat="44.1627817" lon="12.1636483"><ele>29.0</ele><time>2026-05-06T13:58:31.996Z</time></trkpt><trkpt lat="44.1628867" lon="12.1637117"><ele>29.0</ele><time>2026-05-06T13:58:33.996Z</time></trkpt><trkpt lat="44.1629967" lon="12.163765"><ele>29.0</ele><time>2026-05-06T13:58:35.997Z</time></trkpt><trkpt lat="44.1631" lon="12.1638183"><ele>29.0</ele><time>2026-05-06T13:58:37.997Z</time></trkpt><trkpt lat="44.1631967" lon="12.16388"><ele>29.0</ele><time>2026-05-06T13:58:39.996Z</time></trkpt><trkpt lat="44.1632983" lon="12.1639367"><ele>29.0</ele><time>2026-05-06T13:58:41.997Z</time></trkpt><trkpt lat="44.1634017" lon="12.1639967"><ele>29.0</ele><time>2026-05-06T13:58:43.997Z</time></trkpt><trkpt lat="44.1635083" lon="12.1640517"><ele>29.0</ele><time>2026-05-06T13:58:45.996Z</time></trkpt><trkpt lat="44.1636167" lon="12.16409"><ele>29.0</ele><time>2026-05-06T13:58:47.996Z</time></trkpt><trkpt lat="44.1637267" lon="12.1641283"><ele>29.0</ele><time>2026-05-06T13:58:49.996Z</time></trkpt><trkpt lat="44.1638267" lon="12.1641867"><ele>29.0</ele><time>2026-05-06T13:58:51.996Z</time></trkpt><trkpt lat="44.1639283" lon="12.1642517"><ele>28.999999999999996</ele><time>2026-05-06T13:58:53.996Z</time></trkpt><trkpt lat="44.1640267" lon="12.1643017"><ele>29.0</ele><time>2026-05-06T13:58:55.997Z</time></trkpt><trkpt lat="44.16411" lon="12.1643167"><ele>29.0</ele><time>2026-05-06T13:58:57.996Z</time></trkpt><trkpt lat="44.16416" lon="12.16424"><ele>29.0</ele><time>2026-05-06T13:58:59.996Z</time></trkpt><trkpt lat="44.1641833" lon="12.1641317"><ele>28.999999999999996</ele><time>2026-05-06T13:59:01.996Z</time></trkpt><trkpt lat="44.1641983" lon="12.1640183"><ele>29.0</ele><time>2026-05-06T13:59:03.997Z</time></trkpt><trkpt lat="44.16421" lon="12.163895"><ele>28.799999999999997</ele><time>2026-05-06T13:59:05.996Z</time></trkpt><trkpt lat="44.1642117" lon="12.16377"><ele>28.599999999999998</ele><time>2026-05-06T13:59:07.997Z</time></trkpt><trkpt lat="44.1642117" lon="12.1636483"><ele>28.4</ele><time>2026-05-06T13:59:09.996Z</time></trkpt><trkpt lat="44.16422" lon="12.1635117"><ele>28.2</ele><time>2026-05-06T13:59:11.996Z</time></trkpt><trkpt lat="44.1642367" lon="12.1633667"><ele>28.0</ele><time>2026-05-06T13:59:13.997Z</time></trkpt><trkpt lat="44.1642383" lon="12.16322"><ele>28.2</ele><time>2026-05-06T13:59:15.996Z</time></trkpt><trkpt lat="44.16425" lon="12.1630783"><ele>28.4</ele><time>2026-05-06T13:59:17.996Z</time></trkpt><trkpt lat="44.164255" lon="12.16294"><ele>28.599999999999998</ele><time>2026-05-06T13:59:19.996Z</time></trkpt><trkpt lat="44.16426" lon="12.1628017"><ele>28.799999999999997</ele><time>2026-05-06T13:59:21.997Z</time></trkpt><trkpt lat="44.164255" lon="12.162665"><ele>29.0</ele><time>2026-05-06T13:59:23.996Z</time></trkpt><trkpt lat="44.164235" lon="12.1625267"><ele>29.0</ele><time>2026-05-06T13:59:25.996Z</time></trkpt><trkpt lat="44.164205" lon="12.1623717"><ele>29.0</ele><time>2026-05-06T13:59:27.997Z</time></trkpt><trkpt lat="44.164175" lon="12.1622283"><ele>29.0</ele><time>2026-05-06T13:59:29.997Z</time></trkpt><trkpt lat="44.1641267" lon="12.162085"><ele>29.0</ele><time>2026-05-06T13:59:31.997Z</time></trkpt><trkpt lat="44.1640767" lon="12.161975"><ele>29.0</ele><time>2026-05-06T13:59:33.997Z</time></trkpt><trkpt lat="44.1640167" lon="12.1618467"><ele>28.75</ele><time>2026-05-06T13:59:35.996Z</time></trkpt><trkpt lat="44.1639633" lon="12.16171"><ele>28.5</ele><time>2026-05-06T13:59:37.996Z</time></trkpt><trkpt lat="44.1639217" lon="12.16157"><ele>28.25</ele><time>2026-05-06T13:59:39.996Z</time></trkpt><trkpt lat="44.1638983" lon="12.161415"><ele>28.0</ele><time>2026-05-06T13:59:41.996Z</time></trkpt><trkpt lat="44.163905" lon="12.1612517"><ele>28.0</ele><time>2026-05-06T13:59:43.996Z</time></trkpt><trkpt lat="44.1639117" lon="12.1610917"><ele>27.999999999999996</ele><time>2026-05-06T13:59:45.996Z</time></trkpt><trkpt lat="44.16391" lon="12.1609483"><ele>27.999999999999996</ele><time>2026-05-06T13:59:47.996Z</time></trkpt><trkpt lat="44.1639133" lon="12.1608017"><ele>28.0</ele><time>2026-05-06T13:59:49.997Z</time></trkpt><trkpt lat="44.1639167" lon="12.1606617"><ele>28.0</ele><time>2026-05-06T13:59:51.997Z</time></trkpt><trkpt lat="44.163915" lon="12.16052"><ele>28.0</ele><time>2026-05-06T13:59:53.996Z</time></trkpt><trkpt lat="44.16393" lon="12.1603783"><ele>27.999999999999996</ele><time>2026-05-06T13:59:55.997Z</time></trkpt><trkpt lat="44.1639667" lon="12.16023"><ele>27.999999999999996</ele><time>2026-05-06T13:59:57.997Z</time></trkpt><trkpt lat="44.164005" lon="12.1600817"><ele>28.0</ele><time>2026-05-06T13:59:59.996Z</time></trkpt><trkpt lat="44.1640417" lon="12.1599367"><ele>28.0</ele><time>2026-05-06T14:00:01.996Z</time></trkpt><trkpt lat="44.1640783" lon="12.159795"><ele>28.0</ele><time>2026-05-06T14:00:03.997Z</time></trkpt><trkpt lat="44.1641233" lon="12.1596583"><ele>27.999999999999996</ele><time>2026-05-06T14:00:05.996Z</time></trkpt><trkpt lat="44.1641917" lon="12.1595733"><ele>27.999999999999996</ele><time>2026-05-06T14:00:07.996Z</time></trkpt><trkpt lat="44.164285" lon="12.1595983"><ele>28.0</ele><time>2026-05-06T14:00:09.997Z</time></trkpt><trkpt lat="44.1643917" lon="12.1596683"><ele>28.0</ele><time>2026-05-06T14:00:11.996Z</time></trkpt><trkpt lat="44.16445" lon="12.1597033"><ele>28.000000000000004</ele><time>2026-05-06T14:00:12.996Z</time></trkpt><trkpt lat="44.16451" lon="12.1597367"><ele>28.0</ele><time>2026-05-06T14:00:13.997Z</time></trkpt><trkpt lat="44.1645733" lon="12.159765"><ele>28.0</ele><time>2026-05-06T14:00:14.997Z</time></trkpt><trkpt lat="44.1646333" lon="12.159795"><ele>28.0</ele><time>2026-05-06T14:00:15.997Z</time></trkpt><trkpt lat="44.1647467" lon="12.1598383"><ele>28.000000000000004</ele><time>2026-05-06T14:00:17.997Z</time></trkpt><trkpt lat="44.1648083" lon="12.1598683"><ele>28.0</ele><time>2026-05-06T14:00:18.996Z</time></trkpt><trkpt lat="44.1649233" lon="12.1599183"><ele>28.000000000000004</ele><time>2026-05-06T14:00:20.996Z</time></trkpt><trkpt lat="44.1650367" lon="12.1599583"><ele>28.0</ele><time>2026-05-06T14:00:22.996Z</time></trkpt><trkpt lat="44.1651583" lon="12.1600033"><ele>28.0</ele><time>2026-05-06T14:00:24.996Z</time></trkpt><trkpt lat="44.16522" lon="12.1600283"><ele>28.0</ele><time>2026-05-06T14:00:25.996Z</time></trkpt><trkpt lat="44.1652867" lon="12.16005"><ele>28.000000000000004</ele><time>2026-05-06T14:00:26.996Z</time></trkpt><trkpt lat="44.1653533" lon="12.1600783"><ele>28.0</ele><time>2026-05-06T14:00:27.996Z</time></trkpt><trkpt lat="44.16542" lon="12.1601033"><ele>28.0</ele><time>2026-05-06T14:00:28.996Z</time></trkpt><trkpt lat="44.165485" lon="12.160125"><ele>28.0</ele><time>2026-05-06T14:00:29.996Z</time></trkpt><trkpt lat="44.1655517" lon="12.1601433"><ele>28.0</ele><time>2026-05-06T14:00:30.997Z</time></trkpt><trkpt lat="44.1656167" lon="12.1601617"><ele>28.0</ele><time>2026-05-06T14:00:31.997Z</time></trkpt><trkpt lat="44.1656817" lon="12.1601867"><ele>28.0</ele><time>2026-05-06T14:00:32.996Z</time></trkpt><trkpt lat="44.1657433" lon="12.1602067"><ele>28.0</ele><time>2026-05-06T14:00:33.997Z</time></trkpt><trkpt lat="44.1658083" lon="12.1602217"><ele>28.0</ele><time>2026-05-06T14:00:34.996Z</time></trkpt><trkpt lat="44.165875" lon="12.16024"><ele>28.0</ele><time>2026-05-06T14:00:35.996Z</time></trkpt><trkpt lat="44.16594" lon="12.1602517"><ele>28.0</ele><time>2026-05-06T14:00:36.996Z</time></trkpt><trkpt lat="44.1660067" lon="12.16026"><ele>28.0</ele><time>2026-05-06T14:00:37.997Z</time></trkpt><trkpt lat="44.1660733" lon="12.16027"><ele>28.0</ele><time>2026-05-06T14:00:38.996Z</time></trkpt><trkpt lat="44.16614" lon="12.1602767"><ele>28.0</ele><time>2026-05-06T14:00:39.997Z</time></trkpt><trkpt lat="44.166205" lon="12.1602883"><ele>28.0</ele><time>2026-05-06T14:00:40.997Z</time></trkpt><trkpt lat="44.1662717" lon="12.160295"><ele>28.0</ele><time>2026-05-06T14:00:41.996Z</time></trkpt><trkpt lat="44.1663383" lon="12.1603"><ele>28.0</ele><time>2026-05-06T14:00:42.997Z</time></trkpt><trkpt lat="44.1664067" lon="12.1602967"><ele>28.0</ele><time>2026-05-06T14:00:43.997Z</time></trkpt><trkpt lat="44.1664717" lon="12.1602933"><ele>28.0</ele><time>2026-05-06T14:00:44.996Z</time></trkpt><trkpt lat="44.1665383" lon="12.1602967"><ele>28.0</ele><time>2026-05-06T14:00:45.997Z</time></trkpt><trkpt lat="44.1666033" lon="12.1603017"><ele>28.0</ele><time>2026-05-06T14:00:46.996Z</time></trkpt><trkpt lat="44.1666667" lon="12.1603117"><ele>28.0</ele><time>2026-05-06T14:00:47.997Z</time></trkpt><trkpt lat="44.1667367" lon="12.160315"><ele>28.0</ele><time>2026-05-06T14:00:48.996Z</time></trkpt><trkpt lat="44.1668033" lon="12.160325"><ele>27.666666666666668</ele><time>2026-05-06T14:00:49.997Z</time></trkpt><trkpt lat="44.16687" lon="12.1603333"><ele>27.333333333333336</ele><time>2026-05-06T14:00:50.996Z</time></trkpt><trkpt lat="44.1669367" lon="12.1603317"><ele>27.0</ele><time>2026-05-06T14:00:51.997Z</time></trkpt><trkpt lat="44.1670017" lon="12.1603283"><ele>26.666666666666664</ele><time>2026-05-06T14:00:52.996Z</time></trkpt><trkpt lat="44.1671267" lon="12.1603233"><ele>26.333333333333332</ele><time>2026-05-06T14:00:54.996Z</time></trkpt><trkpt lat="44.1671917" lon="12.16032"><ele>26.0</ele><time>2026-05-06T14:00:55.996Z</time></trkpt><trkpt lat="44.167255" lon="12.16032"><ele>26.0</ele><time>2026-05-06T14:00:56.996Z</time></trkpt><trkpt lat="44.1673283" lon="12.1603317"><ele>26.0</ele><time>2026-05-06T14:00:57.996Z</time></trkpt><trkpt lat="44.167395" lon="12.1603333"><ele>26.0</ele><time>2026-05-06T14:00:58.996Z</time></trkpt><trkpt lat="44.1674633" lon="12.1603367"><ele>26.0</ele><time>2026-05-06T14:00:59.997Z</time></trkpt><trkpt lat="44.1675333" lon="12.1603467"><ele>26.0</ele><time>2026-05-06T14:01:00.996Z</time></trkpt><trkpt lat="44.1675967" lon="12.1603533"><ele>26.0</ele><time>2026-05-06T14:01:01.997Z</time></trkpt><trkpt lat="44.1676683" lon="12.1603633"><ele>26.0</ele><time>2026-05-06T14:01:02.997Z</time></trkpt><trkpt lat="44.167735" lon="12.1603717"><ele>25.833333333333332</ele><time>2026-05-06T14:01:03.997Z</time></trkpt><trkpt lat="44.1678017" lon="12.160385"><ele>25.666666666666664</ele><time>2026-05-06T14:01:04.997Z</time></trkpt><trkpt lat="44.1678717" lon="12.1603983"><ele>25.5</ele><time>2026-05-06T14:01:05.997Z</time></trkpt><trkpt lat="44.1679383" lon="12.1604133"><ele>25.333333333333336</ele><time>2026-05-06T14:01:06.996Z</time></trkpt><trkpt lat="44.1680033" lon="12.1604283"><ele>25.166666666666668</ele><time>2026-05-06T14:01:07.996Z</time></trkpt><trkpt lat="44.1680667" lon="12.16044"><ele>25.0</ele><time>2026-05-06T14:01:08.997Z</time></trkpt><trkpt lat="44.1681917" lon="12.1604617"><ele>25.166666666666668</ele><time>2026-05-06T14:01:10.996Z</time></trkpt><trkpt lat="44.1682533" lon="12.1604817"><ele>25.333333333333336</ele><time>2026-05-06T14:01:11.996Z</time></trkpt><trkpt lat="44.16832" lon="12.1605"><ele>25.5</ele><time>2026-05-06T14:01:12.997Z</time></trkpt><trkpt lat="44.1684433" lon="12.1605233"><ele>25.666666666666664</ele><time>2026-05-06T14:01:14.997Z</time></trkpt><trkpt lat="44.1685067" lon="12.16053"><ele>25.833333333333332</ele><time>2026-05-06T14:01:15.996Z</time></trkpt><trkpt lat="44.1686283" lon="12.1605367"><ele>26.0</ele><time>2026-05-06T14:01:17.997Z</time></trkpt><trkpt lat="44.1687417" lon="12.1605167"><ele>26.0</ele><time>2026-05-06T14:01:19.997Z</time></trkpt><trkpt lat="44.168835" lon="12.160515"><ele>26.0</ele><time>2026-05-06T14:01:21.997Z</time></trkpt><trkpt lat="44.168915" lon="12.160485"><ele>26.0</ele><time>2026-05-06T14:01:23.996Z</time></trkpt><trkpt lat="44.1689967" lon="12.1604367"><ele>26.0</ele><time>2026-05-06T14:01:25.997Z</time></trkpt><trkpt lat="44.1690817" lon="12.1603817"><ele>26.0</ele><time>2026-05-06T14:01:27.996Z</time></trkpt><trkpt lat="44.1691683" lon="12.1603067"><ele>26.25</ele><time>2026-05-06T14:01:29.996Z</time></trkpt><trkpt lat="44.1692633" lon="12.160215"><ele>26.5</ele><time>2026-05-06T14:01:31.996Z</time></trkpt><trkpt lat="44.1693533" lon="12.1601233"><ele>26.75</ele><time>2026-05-06T14:01:33.996Z</time></trkpt><trkpt lat="44.169445" lon="12.1600333"><ele>27.0</ele><time>2026-05-06T14:01:35.996Z</time></trkpt><trkpt lat="44.16953" lon="12.15992"><ele>27.25</ele><time>2026-05-06T14:01:37.997Z</time></trkpt><trkpt lat="44.169615" lon="12.1598133"><ele>27.5</ele><time>2026-05-06T14:01:39.997Z</time></trkpt><trkpt lat="44.16971" lon="12.1597167"><ele>27.75</ele><time>2026-05-06T14:01:41.996Z</time></trkpt><trkpt lat="44.1697983" lon="12.1596267"><ele>28.0</ele><time>2026-05-06T14:01:43.996Z</time></trkpt><trkpt lat="44.1698917" lon="12.159535"><ele>28.000000000000004</ele><time>2026-05-06T14:01:45.996Z</time></trkpt><trkpt lat="44.1699867" lon="12.1594383"><ele>28.0</ele><time>2026-05-06T14:01:47.996Z</time></trkpt><trkpt lat="44.17007" lon="12.1593633"><ele>28.0</ele><time>2026-05-06T14:01:49.996Z</time></trkpt><trkpt lat="44.1701383" lon="12.159305"><ele>28.0</ele><time>2026-05-06T14:01:51.996Z</time></trkpt><trkpt lat="44.1701867" lon="12.1592383"><ele>28.000000000000004</ele><time>2026-05-06T14:01:54.997Z</time></trkpt><trkpt lat="44.1702617" lon="12.15926"><ele>28.0</ele><time>2026-05-06T14:01:59.997Z</time></trkpt><trkpt lat="44.170325" lon="12.159265"><ele>28.000000000000004</ele><time>2026-05-06T14:02:02.996Z</time></trkpt><trkpt lat="44.1703033" lon="12.1591533"><ele>28.0</ele><time>2026-05-06T14:02:05.996Z</time></trkpt><trkpt lat="44.1702517" lon="12.1591017"><ele>28.0</ele><time>2026-05-06T14:02:07.996Z</time></trkpt><trkpt lat="44.1701867" lon="12.1590467"><ele>28.0</ele><time>2026-05-06T14:02:09.996Z</time></trkpt><trkpt lat="44.1701117" lon="12.1589717"><ele>28.000000000000004</ele><time>2026-05-06T14:02:11.997Z</time></trkpt><trkpt lat="44.1700267" lon="12.1588817"><ele>28.0</ele><time>2026-05-06T14:02:13.996Z</time></trkpt><trkpt lat="44.1699417" lon="12.1588083"><ele>28.0</ele><time>2026-05-06T14:02:15.996Z</time></trkpt><trkpt lat="44.16986" lon="12.1587317"><ele>27.999999999999996</ele><time>2026-05-06T14:02:17.996Z</time></trkpt><trkpt lat="44.169785" lon="12.1586533"><ele>27.999999999999996</ele><time>2026-05-06T14:02:19.997Z</time></trkpt><trkpt lat="44.16971" lon="12.1585833"><ele>28.0</ele><time>2026-05-06T14:02:21.997Z</time></trkpt><trkpt lat="44.1696367" lon="12.1585"><ele>28.0</ele><time>2026-05-06T14:02:23.997Z</time></trkpt><trkpt lat="44.1695583" lon="12.15841"><ele>28.4</ele><time>2026-05-06T14:02:25.996Z</time></trkpt><trkpt lat="44.1694717" lon="12.15833"><ele>28.799999999999997</ele><time>2026-05-06T14:02:27.997Z</time></trkpt><trkpt lat="44.1693817" lon="12.158255"><ele>29.2</ele><time>2026-05-06T14:02:29.996Z</time></trkpt><trkpt lat="44.1692983" lon="12.1581783"><ele>29.6</ele><time>2026-05-06T14:02:31.996Z</time></trkpt><trkpt lat="44.1692117" lon="12.158105"><ele>30.0</ele><time>2026-05-06T14:02:33.997Z</time></trkpt><trkpt lat="44.1691283" lon="12.1580217"><ele>30.0</ele><time>2026-05-06T14:02:35.996Z</time></trkpt><trkpt lat="44.16904" lon="12.1579233"><ele>30.0</ele><time>2026-05-06T14:02:37.996Z</time></trkpt><trkpt lat="44.1689867" lon="12.157875"><ele>30.0</ele><time>2026-05-06T14:02:38.996Z</time></trkpt><trkpt lat="44.1689" lon="12.1578133"><ele>30.0</ele><time>2026-05-06T14:02:40.996Z</time></trkpt><trkpt lat="44.1688233" lon="12.1577333"><ele>30.0</ele><time>2026-05-06T14:02:42.996Z</time></trkpt><trkpt lat="44.1687383" lon="12.157645"><ele>30.2</ele><time>2026-05-06T14:02:44.996Z</time></trkpt><trkpt lat="44.1686183" lon="12.1575217"><ele>30.4</ele><time>2026-05-06T14:02:47.997Z</time></trkpt><trkpt lat="44.1685367" lon="12.1574433"><ele>30.6</ele><time>2026-05-06T14:02:49.996Z</time></trkpt><trkpt lat="44.168455" lon="12.1573667"><ele>30.8</ele><time>2026-05-06T14:02:51.996Z</time></trkpt><trkpt lat="44.1683767" lon="12.1572883"><ele>31.0</ele><time>2026-05-06T14:02:53.996Z</time></trkpt><trkpt lat="44.1682833" lon="12.1572067"><ele>31.0</ele><time>2026-05-06T14:02:55.996Z</time></trkpt><trkpt lat="44.1681933" lon="12.157105"><ele>31.0</ele><time>2026-05-06T14:02:57.997Z</time></trkpt><trkpt lat="44.1680983" lon="12.157015"><ele>31.0</ele><time>2026-05-06T14:02:59.997Z</time></trkpt><trkpt lat="44.16801" lon="12.156935"><ele>31.0</ele><time>2026-05-06T14:03:01.996Z</time></trkpt><trkpt lat="44.1679183" lon="12.1568417"><ele>31.0</ele><time>2026-05-06T14:03:03.997Z</time></trkpt><trkpt lat="44.1678283" lon="12.15675"><ele>31.0</ele><time>2026-05-06T14:03:05.997Z</time></trkpt><trkpt lat="44.1677367" lon="12.1566617"><ele>31.0</ele><time>2026-05-06T14:03:07.997Z</time></trkpt><trkpt lat="44.1676367" lon="12.15658"><ele>31.0</ele><time>2026-05-06T14:03:09.996Z</time></trkpt><trkpt lat="44.16755" lon="12.1564983"><ele>31.0</ele><time>2026-05-06T14:03:11.997Z</time></trkpt><trkpt lat="44.16746" lon="12.15641"><ele>31.0</ele><time>2026-05-06T14:03:13.996Z</time></trkpt><trkpt lat="44.1673733" lon="12.1563233"><ele>31.0</ele><time>2026-05-06T14:03:15.996Z</time></trkpt><trkpt lat="44.1673" lon="12.1562517"><ele>31.0</ele><time>2026-05-06T14:03:17.996Z</time></trkpt><trkpt lat="44.1672133" lon="12.156165"><ele>31.0</ele><time>2026-05-06T14:03:19.996Z</time></trkpt><trkpt lat="44.1671283" lon="12.1560817"><ele>31.0</ele><time>2026-05-06T14:03:21.996Z</time></trkpt><trkpt lat="44.1670517" lon="12.1560067"><ele>31.333333333333336</ele><time>2026-05-06T14:03:23.997Z</time></trkpt><trkpt lat="44.1669883" lon="12.15593"><ele>31.666666666666668</ele><time>2026-05-06T14:03:25.996Z</time></trkpt><trkpt lat="44.1669233" lon="12.15587"><ele>32.0</ele><time>2026-05-06T14:03:27.996Z</time></trkpt><trkpt lat="44.1668617" lon="12.1558133"><ele>32.333333333333336</ele><time>2026-05-06T14:03:29.997Z</time></trkpt><trkpt lat="44.1667933" lon="12.1557683"><ele>32.666666666666664</ele><time>2026-05-06T14:03:31.997Z</time></trkpt><trkpt lat="44.1667317" lon="12.1557017"><ele>33.0</ele><time>2026-05-06T14:03:33.997Z</time></trkpt><trkpt lat="44.1666717" lon="12.155655"><ele>33.57142857142857</ele><time>2026-05-06T14:03:35.997Z</time></trkpt><trkpt lat="44.1666167" lon="12.15559"><ele>34.142857142857146</ele><time>2026-05-06T14:03:37.996Z</time></trkpt><trkpt lat="44.1665633" lon="12.1555317"><ele>34.714285714285715</ele><time>2026-05-06T14:03:39.997Z</time></trkpt><trkpt lat="44.166505" lon="12.1554733"><ele>35.285714285714285</ele><time>2026-05-06T14:03:41.996Z</time></trkpt><trkpt lat="44.166445" lon="12.1554133"><ele>35.857142857142854</ele><time>2026-05-06T14:03:43.996Z</time></trkpt><trkpt lat="44.1663883" lon="12.1553617"><ele>36.42857142857143</ele><time>2026-05-06T14:03:45.996Z</time></trkpt><trkpt lat="44.1663283" lon="12.1553133"><ele>37.0</ele><time>2026-05-06T14:03:47.997Z</time></trkpt><trkpt lat="44.1662717" lon="12.15526"><ele>37.0</ele><time>2026-05-06T14:03:49.996Z</time></trkpt><trkpt lat="44.1662167" lon="12.1552033"><ele>37.0</ele><time>2026-05-06T14:03:51.996Z</time></trkpt><trkpt lat="44.1661633" lon="12.155145"><ele>37.0</ele><time>2026-05-06T14:03:53.996Z</time></trkpt><trkpt lat="44.16611" lon="12.1550933"><ele>37.0</ele><time>2026-05-06T14:03:55.997Z</time></trkpt><trkpt lat="44.166055" lon="12.1550433"><ele>37.0</ele><time>2026-05-06T14:03:57.997Z</time></trkpt><trkpt lat="44.1660033" lon="12.1549917"><ele>37.0</ele><time>2026-05-06T14:03:59.996Z</time></trkpt><trkpt lat="44.1659317" lon="12.15491"><ele>37.0</ele><time>2026-05-06T14:04:02.996Z</time></trkpt><trkpt lat="44.1658533" lon="12.15484"><ele>38.0</ele><time>2026-05-06T14:04:05.996Z</time></trkpt><trkpt lat="44.1657783" lon="12.1547767"><ele>39.0</ele><time>2026-05-06T14:04:08.996Z</time></trkpt><trkpt lat="44.1657117" lon="12.154715"><ele>40.0</ele><time>2026-05-06T14:04:11.996Z</time></trkpt><trkpt lat="44.1656417" lon="12.1546317"><ele>41.0</ele><time>2026-05-06T14:04:14.997Z</time></trkpt><trkpt lat="44.165575" lon="12.15456"><ele>42.0</ele><time>2026-05-06T14:04:17.997Z</time></trkpt><trkpt lat="44.1655167" lon="12.15449"><ele>43.0</ele><time>2026-05-06T14:04:20.996Z</time></trkpt><trkpt lat="44.1654467" lon="12.15443"><ele>43.0</ele><time>2026-05-06T14:04:23.996Z</time></trkpt><trkpt lat="44.1653783" lon="12.15438"><ele>43.0</ele><time>2026-05-06T14:04:26.997Z</time></trkpt><trkpt lat="44.1653083" lon="12.1543083"><ele>43.0</ele><time>2026-05-06T14:04:29.997Z</time></trkpt><trkpt lat="44.165235" lon="12.1542417"><ele>43.0</ele><time>2026-05-06T14:04:32.996Z</time></trkpt><trkpt lat="44.1651667" lon="12.1541783"><ele>43.0</ele><time>2026-05-06T14:04:35.997Z</time></trkpt><trkpt lat="44.1650933" lon="12.1541167"><ele>43.0</ele><time>2026-05-06T14:04:38.996Z</time></trkpt><trkpt lat="44.1650283" lon="12.1540517"><ele>43.333333333333336</ele><time>2026-05-06T14:04:41.997Z</time></trkpt><trkpt lat="44.1649633" lon="12.1539783"><ele>43.66666666666667</ele><time>2026-05-06T14:04:44.997Z</time></trkpt><trkpt lat="44.16491" lon="12.153915"><ele>44.0</ele><time>2026-05-06T14:04:47.996Z</time></trkpt><trkpt lat="44.1648417" lon="12.1538517"><ele>44.333333333333336</ele><time>2026-05-06T14:04:50.996Z</time></trkpt><trkpt lat="44.1647867" lon="12.153795"><ele>44.666666666666664</ele><time>2026-05-06T14:04:52.996Z</time></trkpt><trkpt lat="44.164715" lon="12.15371"><ele>45.0</ele><time>2026-05-06T14:04:55.997Z</time></trkpt><trkpt lat="44.1646367" lon="12.153645"><ele>45.0</ele><time>2026-05-06T14:04:58.997Z</time></trkpt><trkpt lat="44.1645833" lon="12.153595"><ele>45.0</ele><time>2026-05-06T14:05:00.996Z</time></trkpt><trkpt lat="44.1645317" lon="12.1535383"><ele>45.0</ele><time>2026-05-06T14:05:02.996Z</time></trkpt><trkpt lat="44.164465" lon="12.15345"><ele>45.0</ele><time>2026-05-06T14:05:05.997Z</time></trkpt><trkpt lat="44.1644217" lon="12.1533833"><ele>45.0</ele><time>2026-05-06T14:05:07.997Z</time></trkpt><trkpt lat="44.1643633" lon="12.1532883"><ele>45.0</ele><time>2026-05-06T14:05:10.996Z</time></trkpt><trkpt lat="44.1643117" lon="12.153185"><ele>46.14285714285714</ele><time>2026-05-06T14:05:13.997Z</time></trkpt><trkpt lat="44.16427" lon="12.15311"><ele>47.28571428571429</ele><time>2026-05-06T14:05:15.996Z</time></trkpt><trkpt lat="44.1642417" lon="12.153025"><ele>48.42857142857143</ele><time>2026-05-06T14:05:17.996Z</time></trkpt><trkpt lat="44.164215" lon="12.152935"><ele>49.57142857142857</ele><time>2026-05-06T14:05:19.996Z</time></trkpt><trkpt lat="44.1641867" lon="12.152845"><ele>50.71428571428571</ele><time>2026-05-06T14:05:21.997Z</time></trkpt><trkpt lat="44.1641633" lon="12.1527633"><ele>51.85714285714286</ele><time>2026-05-06T14:05:23.997Z</time></trkpt><trkpt lat="44.1641433" lon="12.1526767"><ele>53.0</ele><time>2026-05-06T14:05:25.996Z</time></trkpt><trkpt lat="44.1641233" lon="12.1525933"><ele>53.00000000000001</ele><time>2026-05-06T14:05:27.996Z</time></trkpt><trkpt lat="44.1640967" lon="12.1524783"><ele>53.0</ele><time>2026-05-06T14:05:30.996Z</time></trkpt><trkpt lat="44.16408" lon="12.1523683"><ele>53.0</ele><time>2026-05-06T14:05:33.996Z</time></trkpt><trkpt lat="44.1640467" lon="12.1522633"><ele>53.0</ele><time>2026-05-06T14:05:36.997Z</time></trkpt><trkpt lat="44.1640067" lon="12.1521517"><ele>53.00000000000001</ele><time>2026-05-06T14:05:39.996Z</time></trkpt><trkpt lat="44.16398" lon="12.1520417"><ele>53.0</ele><time>2026-05-06T14:05:42.997Z</time></trkpt><trkpt lat="44.163955" lon="12.1519267"><ele>53.00000000000001</ele><time>2026-05-06T14:05:45.996Z</time></trkpt><trkpt lat="44.1639283" lon="12.15181"><ele>53.0</ele><time>2026-05-06T14:05:48.997Z</time></trkpt><trkpt lat="44.163905" lon="12.1517033"><ele>53.0</ele><time>2026-05-06T14:05:51.997Z</time></trkpt><trkpt lat="44.163885" lon="12.15162"><ele>53.0</ele><time>2026-05-06T14:05:53.996Z</time></trkpt><trkpt lat="44.1638617" lon="12.15151"><ele>53.00000000000001</ele><time>2026-05-06T14:05:56.996Z</time></trkpt><trkpt lat="44.16383" lon="12.1513967"><ele>53.0</ele><time>2026-05-06T14:05:59.997Z</time></trkpt><trkpt lat="44.16383" lon="12.1512833"><ele>52.66666666666667</ele><time>2026-05-06T14:06:02.997Z</time></trkpt><trkpt lat="44.163895" lon="12.151225"><ele>52.333333333333336</ele><time>2026-05-06T14:06:05.997Z</time></trkpt><trkpt lat="44.1639817" lon="12.1512633"><ele>52.0</ele><time>2026-05-06T14:06:08.997Z</time></trkpt><trkpt lat="44.1640467" lon="12.1513033"><ele>51.66666666666667</ele><time>2026-05-06T14:06:10.996Z</time></trkpt><trkpt lat="44.1641133" lon="12.15134"><ele>51.333333333333336</ele><time>2026-05-06T14:06:12.996Z</time></trkpt><trkpt lat="44.164185" lon="12.1513583"><ele>51.0</ele><time>2026-05-06T14:06:14.996Z</time></trkpt><trkpt lat="44.1642533" lon="12.1513783"><ele>51.0</ele><time>2026-05-06T14:06:16.997Z</time></trkpt><trkpt lat="44.1643233" lon="12.151405"><ele>51.0</ele><time>2026-05-06T14:06:18.997Z</time></trkpt><trkpt lat="44.164395" lon="12.1514317"><ele>51.0</ele><time>2026-05-06T14:06:20.997Z</time></trkpt><trkpt lat="44.1644717" lon="12.1514617"><ele>51.0</ele><time>2026-05-06T14:06:22.996Z</time></trkpt><trkpt lat="44.1645433" lon="12.1514883"><ele>51.0</ele><time>2026-05-06T14:06:24.996Z</time></trkpt><trkpt lat="44.164615" lon="12.151525"><ele>51.0</ele><time>2026-05-06T14:06:26.996Z</time></trkpt><trkpt lat="44.1646867" lon="12.1515583"><ele>51.714285714285715</ele><time>2026-05-06T14:06:28.996Z</time></trkpt><trkpt lat="44.164755" lon="12.1515933"><ele>52.42857142857143</ele><time>2026-05-06T14:06:30.996Z</time></trkpt><trkpt lat="44.1648233" lon="12.1516283"><ele>53.14285714285714</ele><time>2026-05-06T14:06:32.997Z</time></trkpt><trkpt lat="44.1648933" lon="12.1516617"><ele>53.85714285714286</ele><time>2026-05-06T14:06:34.996Z</time></trkpt><trkpt lat="44.1649633" lon="12.15169"><ele>54.57142857142857</ele><time>2026-05-06T14:06:36.996Z</time></trkpt><trkpt lat="44.1650333" lon="12.15173"><ele>55.285714285714285</ele><time>2026-05-06T14:06:38.997Z</time></trkpt><trkpt lat="44.165095" lon="12.1517617"><ele>56.0</ele><time>2026-05-06T14:06:40.997Z</time></trkpt><trkpt lat="44.1651567" lon="12.1517867"><ele>56.57142857142857</ele><time>2026-05-06T14:06:42.996Z</time></trkpt><trkpt lat="44.165225" lon="12.1518133"><ele>57.14285714285714</ele><time>2026-05-06T14:06:44.996Z</time></trkpt><trkpt lat="44.1652933" lon="12.15185"><ele>57.714285714285715</ele><time>2026-05-06T14:06:46.996Z</time></trkpt><trkpt lat="44.165355" lon="12.15189"><ele>58.285714285714285</ele><time>2026-05-06T14:06:48.996Z</time></trkpt><trkpt lat="44.1654417" lon="12.1519333"><ele>58.857142857142854</ele><time>2026-05-06T14:06:51.996Z</time></trkpt><trkpt lat="44.1655083" lon="12.1519617"><ele>59.42857142857143</ele><time>2026-05-06T14:06:53.997Z</time></trkpt><trkpt lat="44.1655683" lon="12.1519983"><ele>60.0</ele><time>2026-05-06T14:06:55.997Z</time></trkpt><trkpt lat="44.1656317" lon="12.1520333"><ele>60.142857142857146</ele><time>2026-05-06T14:06:57.997Z</time></trkpt><trkpt lat="44.1656983" lon="12.1520717"><ele>60.28571428571428</ele><time>2026-05-06T14:06:59.997Z</time></trkpt><trkpt lat="44.165765" lon="12.15212"><ele>60.42857142857142</ele><time>2026-05-06T14:07:01.997Z</time></trkpt><trkpt lat="44.1658233" lon="12.1521767"><ele>60.57142857142857</ele><time>2026-05-06T14:07:03.997Z</time></trkpt><trkpt lat="44.1658867" lon="12.152225"><ele>60.71428571428571</ele><time>2026-05-06T14:07:05.996Z</time></trkpt><trkpt lat="44.1659483" lon="12.1522617"><ele>60.85714285714285</ele><time>2026-05-06T14:07:07.996Z</time></trkpt><trkpt lat="44.166015" lon="12.1522967"><ele>60.99999999999999</ele><time>2026-05-06T14:07:09.996Z</time></trkpt><trkpt lat="44.166085" lon="12.15233"><ele>60.99999999999999</ele><time>2026-05-06T14:07:11.996Z</time></trkpt><trkpt lat="44.1661783" lon="12.1523633"><ele>61.0</ele><time>2026-05-06T14:07:13.996Z</time></trkpt><trkpt lat="44.1662967" lon="12.1523483"><ele>61.0</ele><time>2026-05-06T14:07:15.996Z</time></trkpt><trkpt lat="44.16636" lon="12.1523233"><ele>61.0</ele><time>2026-05-06T14:07:16.997Z</time></trkpt><trkpt lat="44.1664217" lon="12.15229"><ele>60.99999999999999</ele><time>2026-05-06T14:07:17.996Z</time></trkpt><trkpt lat="44.1664783" lon="12.15225"><ele>61.0</ele><time>2026-05-06T14:07:18.997Z</time></trkpt><trkpt lat="44.1665367" lon="12.15221"><ele>60.99999999999999</ele><time>2026-05-06T14:07:19.997Z</time></trkpt><trkpt lat="44.1665967" lon="12.152155"><ele>61.0</ele><time>2026-05-06T14:07:20.996Z</time></trkpt><trkpt lat="44.1666633" lon="12.1520967"><ele>61.0</ele><time>2026-05-06T14:07:21.997Z</time></trkpt><trkpt lat="44.166735" lon="12.1520333"><ele>61.0</ele><time>2026-05-06T14:07:22.997Z</time></trkpt><trkpt lat="44.1668133" lon="12.151965"><ele>60.99999999999999</ele><time>2026-05-06T14:07:23.996Z</time></trkpt><trkpt lat="44.16689" lon="12.1518917"><ele>61.0</ele><time>2026-05-06T14:07:24.997Z</time></trkpt><trkpt lat="44.1669683" lon="12.1518167"><ele>61.0</ele><time>2026-05-06T14:07:25.997Z</time></trkpt><trkpt lat="44.1670533" lon="12.1517317"><ele>60.99999999999999</ele><time>2026-05-06T14:07:26.996Z</time></trkpt><trkpt lat="44.1671333" lon="12.1516567"><ele>60.99999999999999</ele><time>2026-05-06T14:07:27.997Z</time></trkpt><trkpt lat="44.16722" lon="12.15159"><ele>61.0</ele><time>2026-05-06T14:07:28.996Z</time></trkpt><trkpt lat="44.167305" lon="12.1515217"><ele>61.0</ele><time>2026-05-06T14:07:29.996Z</time></trkpt><trkpt lat="44.1673883" lon="12.1514517"><ele>58.199999999999996</ele><time>2026-05-06T14:07:30.996Z</time></trkpt><trkpt lat="44.1674733" lon="12.151375"><ele>55.39999999999999</ele><time>2026-05-06T14:07:31.997Z</time></trkpt><trkpt lat="44.1675517" lon="12.151295"><ele>52.6</ele><time>2026-05-06T14:07:32.997Z</time></trkpt><trkpt lat="44.1676417" lon="12.1512067"><ele>49.8</ele><time>2026-05-06T14:07:33.996Z</time></trkpt><trkpt lat="44.1677283" lon="12.1511233"><ele>47.0</ele><time>2026-05-06T14:07:34.996Z</time></trkpt><trkpt lat="44.167805" lon="12.15106"><ele>47.0</ele><time>2026-05-06T14:07:35.996Z</time></trkpt><trkpt lat="44.1678883" lon="12.150995"><ele>47.0</ele><time>2026-05-06T14:07:36.997Z</time></trkpt><trkpt lat="44.1679767" lon="12.1509217"><ele>47.0</ele><time>2026-05-06T14:07:37.997Z</time></trkpt><trkpt lat="44.1680633" lon="12.1508433"><ele>47.0</ele><time>2026-05-06T14:07:38.996Z</time></trkpt><trkpt lat="44.1681533" lon="12.150765"><ele>47.0</ele><time>2026-05-06T14:07:39.997Z</time></trkpt><trkpt lat="44.1682383" lon="12.150685"><ele>44.6</ele><time>2026-05-06T14:07:40.997Z</time></trkpt><trkpt lat="44.1683283" lon="12.1506117"><ele>42.2</ele><time>2026-05-06T14:07:41.996Z</time></trkpt><trkpt lat="44.1684217" lon="12.1505283"><ele>39.8</ele><time>2026-05-06T14:07:42.997Z</time></trkpt><trkpt lat="44.1685133" lon="12.1504483"><ele>37.4</ele><time>2026-05-06T14:07:43.996Z</time></trkpt><trkpt lat="44.1686133" lon="12.150365"><ele>35.0</ele><time>2026-05-06T14:07:44.996Z</time></trkpt><trkpt lat="44.1687117" lon="12.150285"><ele>35.0</ele><time>2026-05-06T14:07:45.996Z</time></trkpt><trkpt lat="44.1688033" lon="12.1502083"><ele>35.0</ele><time>2026-05-06T14:07:46.997Z</time></trkpt><trkpt lat="44.1688917" lon="12.1501267"><ele>35.0</ele><time>2026-05-06T14:07:47.996Z</time></trkpt><trkpt lat="44.168975" lon="12.1500517"><ele>35.0</ele><time>2026-05-06T14:07:48.996Z</time></trkpt><trkpt lat="44.1690533" lon="12.1499817"><ele>35.0</ele><time>2026-05-06T14:07:49.996Z</time></trkpt><trkpt lat="44.1691317" lon="12.1499167"><ele>33.666666666666664</ele><time>2026-05-06T14:07:50.997Z</time></trkpt><trkpt lat="44.1692083" lon="12.14984"><ele>32.33333333333333</ele><time>2026-05-06T14:07:51.996Z</time></trkpt><trkpt lat="44.1692883" lon="12.1497683"><ele>31.0</ele><time>2026-05-06T14:07:52.997Z</time></trkpt><trkpt lat="44.169365" lon="12.149705"><ele>29.666666666666664</ele><time>2026-05-06T14:07:53.996Z</time></trkpt><trkpt lat="44.1694333" lon="12.149645"><ele>28.333333333333332</ele><time>2026-05-06T14:07:54.997Z</time></trkpt><trkpt lat="44.1694983" lon="12.1495867"><ele>27.0</ele><time>2026-05-06T14:07:55.996Z</time></trkpt><trkpt lat="44.169565" lon="12.14953"><ele>27.0</ele><time>2026-05-06T14:07:56.997Z</time></trkpt><trkpt lat="44.1696333" lon="12.1494717"><ele>27.0</ele><time>2026-05-06T14:07:57.996Z</time></trkpt><trkpt lat="44.1696933" lon="12.149415"><ele>27.0</ele><time>2026-05-06T14:07:58.996Z</time></trkpt><trkpt lat="44.1697483" lon="12.1493617"><ele>27.0</ele><time>2026-05-06T14:07:59.996Z</time></trkpt><trkpt lat="44.1698017" lon="12.14931"><ele>27.0</ele><time>2026-05-06T14:08:00.996Z</time></trkpt><trkpt lat="44.1699117" lon="12.1492517"><ele>27.0</ele><time>2026-05-06T14:08:02.996Z</time></trkpt><trkpt lat="44.1700117" lon="12.1492267"><ele>27.0</ele><time>2026-05-06T14:08:04.997Z</time></trkpt><trkpt lat="44.1700967" lon="12.1492033"><ele>27.0</ele><time>2026-05-06T14:08:06.997Z</time></trkpt><trkpt lat="44.17018" lon="12.1491983"><ele>27.0</ele><time>2026-05-06T14:08:08.997Z</time></trkpt><trkpt lat="44.1702583" lon="12.1491933"><ele>27.0</ele><time>2026-05-06T14:08:10.996Z</time></trkpt><trkpt lat="44.17035" lon="12.1491967"><ele>27.0</ele><time>2026-05-06T14:08:12.996Z</time></trkpt><trkpt lat="44.170455" lon="12.1491867"><ele>27.0</ele><time>2026-05-06T14:08:14.996Z</time></trkpt><trkpt lat="44.1705583" lon="12.149155"><ele>27.0</ele><time>2026-05-06T14:08:16.997Z</time></trkpt><trkpt lat="44.170655" lon="12.149085"><ele>27.0</ele><time>2026-05-06T14:08:18.996Z</time></trkpt><trkpt lat="44.1707633" lon="12.1490183"><ele>27.0</ele><time>2026-05-06T14:08:20.997Z</time></trkpt><trkpt lat="44.170875" lon="12.1489933"><ele>27.0</ele><time>2026-05-06T14:08:22.996Z</time></trkpt><trkpt lat="44.1709967" lon="12.1489917"><ele>26.400000000000002</ele><time>2026-05-06T14:08:24.996Z</time></trkpt><trkpt lat="44.171105" lon="12.1490083"><ele>25.800000000000004</ele><time>2026-05-06T14:08:26.996Z</time></trkpt><trkpt lat="44.1712167" lon="12.149005"><ele>25.2</ele><time>2026-05-06T14:08:28.997Z</time></trkpt><trkpt lat="44.1713283" lon="12.1489967"><ele>24.6</ele><time>2026-05-06T14:08:30.996Z</time></trkpt><trkpt lat="44.1713917" lon="12.1489967"><ele>24.0</ele><time>2026-05-06T14:08:31.997Z</time></trkpt><trkpt lat="44.1715067" lon="12.14899"><ele>24.0</ele><time>2026-05-06T14:08:33.997Z</time></trkpt><trkpt lat="44.1716167" lon="12.14899"><ele>24.0</ele><time>2026-05-06T14:08:35.996Z</time></trkpt><trkpt lat="44.1717333" lon="12.1489983"><ele>24.0</ele><time>2026-05-06T14:08:37.997Z</time></trkpt><trkpt lat="44.17184" lon="12.1489983"><ele>24.0</ele><time>2026-05-06T14:08:39.996Z</time></trkpt><trkpt lat="44.17194" lon="12.1489917"><ele>24.0</ele><time>2026-05-06T14:08:41.997Z</time></trkpt><trkpt lat="44.1720417" lon="12.1489767"><ele>24.0</ele><time>2026-05-06T14:08:43.997Z</time></trkpt><trkpt lat="44.1721383" lon="12.1489467"><ele>24.0</ele><time>2026-05-06T14:08:45.997Z</time></trkpt><trkpt lat="44.1722033" lon="12.1488417"><ele>24.0</ele><time>2026-05-06T14:08:47.996Z</time></trkpt><trkpt lat="44.1722017" lon="12.148705"><ele>24.0</ele><time>2026-05-06T14:08:49.997Z</time></trkpt><trkpt lat="44.1721833" lon="12.148575"><ele>24.0</ele><time>2026-05-06T14:08:51.996Z</time></trkpt><trkpt lat="44.1722017" lon="12.1484433"><ele>24.0</ele><time>2026-05-06T14:08:53.996Z</time></trkpt><trkpt lat="44.1722117" lon="12.1483117"><ele>24.0</ele><time>2026-05-06T14:08:55.997Z</time></trkpt><trkpt lat="44.172215" lon="12.14817"><ele>24.0</ele><time>2026-05-06T14:08:57.997Z</time></trkpt><trkpt lat="44.1722117" lon="12.148025"><ele>24.0</ele><time>2026-05-06T14:08:59.996Z</time></trkpt><trkpt lat="44.17221" lon="12.1478883"><ele>24.0</ele><time>2026-05-06T14:09:01.996Z</time></trkpt><trkpt lat="44.17221" lon="12.1477383"><ele>24.25</ele><time>2026-05-06T14:09:03.997Z</time></trkpt><trkpt lat="44.1722017" lon="12.1475783"><ele>24.5</ele><time>2026-05-06T14:09:05.997Z</time></trkpt><trkpt lat="44.172195" lon="12.1474217"><ele>24.75</ele><time>2026-05-06T14:09:07.996Z</time></trkpt><trkpt lat="44.1721933" lon="12.14726"><ele>25.0</ele><time>2026-05-06T14:09:09.997Z</time></trkpt><trkpt lat="44.17219" lon="12.1470967"><ele>25.25</ele><time>2026-05-06T14:09:11.997Z</time></trkpt><trkpt lat="44.1721933" lon="12.1469417"><ele>25.5</ele><time>2026-05-06T14:09:13.997Z</time></trkpt><trkpt lat="44.1721967" lon="12.1467867"><ele>25.75</ele><time>2026-05-06T14:09:15.996Z</time></trkpt><trkpt lat="44.172205" lon="12.1466367"><ele>26.0</ele><time>2026-05-06T14:09:17.997Z</time></trkpt><trkpt lat="44.1722033" lon="12.14646"><ele>26.0</ele><time>2026-05-06T14:09:19.996Z</time></trkpt><trkpt lat="44.1721983" lon="12.146295"><ele>26.0</ele><time>2026-05-06T14:09:21.996Z</time></trkpt><trkpt lat="44.1721983" lon="12.1461367"><ele>26.0</ele><time>2026-05-06T14:09:23.997Z</time></trkpt><trkpt lat="44.1721967" lon="12.1459667"><ele>26.0</ele><time>2026-05-06T14:09:25.996Z</time></trkpt><trkpt lat="44.172195" lon="12.1458783"><ele>26.0</ele><time>2026-05-06T14:09:26.996Z</time></trkpt><trkpt lat="44.1721967" lon="12.1457067"><ele>26.0</ele><time>2026-05-06T14:09:28.996Z</time></trkpt><trkpt lat="44.172195" lon="12.1456183"><ele>26.0</ele><time>2026-05-06T14:09:29.996Z</time></trkpt><trkpt lat="44.1721883" lon="12.1454567"><ele>26.0</ele><time>2026-05-06T14:09:31.996Z</time></trkpt><trkpt lat="44.1721817" lon="12.1452967"><ele>26.0</ele><time>2026-05-06T14:09:33.997Z</time></trkpt><trkpt lat="44.17218" lon="12.14514"><ele>26.0</ele><time>2026-05-06T14:09:35.996Z</time></trkpt><trkpt lat="44.1721783" lon="12.14499"><ele>26.0</ele><time>2026-05-06T14:09:37.997Z</time></trkpt><trkpt lat="44.1721783" lon="12.1448317"><ele>26.0</ele><time>2026-05-06T14:09:39.997Z</time></trkpt><trkpt lat="44.1721833" lon="12.14466"><ele>26.0</ele><time>2026-05-06T14:09:41.996Z</time></trkpt><trkpt lat="44.1721817" lon="12.1444967"><ele>26.0</ele><time>2026-05-06T14:09:43.997Z</time></trkpt><trkpt lat="44.1721817" lon="12.1443383"><ele>26.0</ele><time>2026-05-06T14:09:45.997Z</time></trkpt><trkpt lat="44.1721767" lon="12.1441883"><ele>26.0</ele><time>2026-05-06T14:09:47.996Z</time></trkpt><trkpt lat="44.1721683" lon="12.144045"><ele>26.0</ele><time>2026-05-06T14:09:49.996Z</time></trkpt><trkpt lat="44.1721617" lon="12.1439067"><ele>26.0</ele><time>2026-05-06T14:09:51.997Z</time></trkpt><trkpt lat="44.1721633" lon="12.1437617"><ele>26.0</ele><time>2026-05-06T14:09:53.996Z</time></trkpt><trkpt lat="44.1721767" lon="12.143615"><ele>25.75</ele><time>2026-05-06T14:09:55.996Z</time></trkpt><trkpt lat="44.1721833" lon="12.143455"><ele>25.5</ele><time>2026-05-06T14:09:57.996Z</time></trkpt><trkpt lat="44.1721867" lon="12.1432967"><ele>25.25</ele><time>2026-05-06T14:09:59.996Z</time></trkpt><trkpt lat="44.172195" lon="12.14313"><ele>25.0</ele><time>2026-05-06T14:10:01.996Z</time></trkpt><trkpt lat="44.1721833" lon="12.1429733"><ele>25.0</ele><time>2026-05-06T14:10:03.997Z</time></trkpt><trkpt lat="44.17216" lon="12.1428183"><ele>25.0</ele><time>2026-05-06T14:10:05.996Z</time></trkpt><trkpt lat="44.17217" lon="12.1426783"><ele>25.0</ele><time>2026-05-06T14:10:07.996Z</time></trkpt><trkpt lat="44.172185" lon="12.1425383"><ele>25.0</ele><time>2026-05-06T14:10:09.997Z</time></trkpt><trkpt lat="44.1721867" lon="12.1424067"><ele>25.0</ele><time>2026-05-06T14:10:11.996Z</time></trkpt><trkpt lat="44.1721783" lon="12.1422483"><ele>25.0</ele><time>2026-05-06T14:10:13.996Z</time></trkpt><trkpt lat="44.17217" lon="12.142095"><ele>25.0</ele><time>2026-05-06T14:10:15.997Z</time></trkpt><trkpt lat="44.1721733" lon="12.14195"><ele>25.0</ele><time>2026-05-06T14:10:17.996Z</time></trkpt><trkpt lat="44.1721667" lon="12.1418117"><ele>25.0</ele><time>2026-05-06T14:10:19.996Z</time></trkpt><trkpt lat="44.172155" lon="12.14166"><ele>25.0</ele><time>2026-05-06T14:10:21.997Z</time></trkpt><trkpt lat="44.1721483" lon="12.141515"><ele>25.6</ele><time>2026-05-06T14:10:23.996Z</time></trkpt><trkpt lat="44.1721467" lon="12.141375"><ele>26.2</ele><time>2026-05-06T14:10:25.997Z</time></trkpt><trkpt lat="44.172135" lon="12.1412483"><ele>26.799999999999997</ele><time>2026-05-06T14:10:27.996Z</time></trkpt><trkpt lat="44.1721267" lon="12.1411267"><ele>27.4</ele><time>2026-05-06T14:10:29.996Z</time></trkpt><trkpt lat="44.17212" lon="12.141005"><ele>28.0</ele><time>2026-05-06T14:10:31.996Z</time></trkpt><trkpt lat="44.172115" lon="12.1408817"><ele>28.0</ele><time>2026-05-06T14:10:33.996Z</time></trkpt><trkpt lat="44.1721117" lon="12.1407467"><ele>27.999999999999996</ele><time>2026-05-06T14:10:35.997Z</time></trkpt><trkpt lat="44.172115" lon="12.1406067"><ele>27.999999999999996</ele><time>2026-05-06T14:10:37.996Z</time></trkpt><trkpt lat="44.1721183" lon="12.14046"><ele>28.0</ele><time>2026-05-06T14:10:39.996Z</time></trkpt><trkpt lat="44.1721217" lon="12.1403067"><ele>28.0</ele><time>2026-05-06T14:10:41.996Z</time></trkpt><trkpt lat="44.1721167" lon="12.14015"><ele>28.0</ele><time>2026-05-06T14:10:43.996Z</time></trkpt><trkpt lat="44.1721083" lon="12.1399867"><ele>28.0</ele><time>2026-05-06T14:10:45.997Z</time></trkpt><trkpt lat="44.1721017" lon="12.1398267"><ele>28.0</ele><time>2026-05-06T14:10:47.996Z</time></trkpt><trkpt lat="44.172095" lon="12.13966"><ele>28.0</ele><time>2026-05-06T14:10:49.996Z</time></trkpt><trkpt lat="44.1720883" lon="12.13949"><ele>28.0</ele><time>2026-05-06T14:10:51.996Z</time></trkpt><trkpt lat="44.1720817" lon="12.1393217"><ele>27.999999999999996</ele><time>2026-05-06T14:10:53.996Z</time></trkpt><trkpt lat="44.17207" lon="12.1391483"><ele>27.999999999999996</ele><time>2026-05-06T14:10:55.996Z</time></trkpt><trkpt lat="44.172065" lon="12.1389767"><ele>28.0</ele><time>2026-05-06T14:10:57.996Z</time></trkpt><trkpt lat="44.172065" lon="12.1388883"><ele>28.0</ele><time>2026-05-06T14:10:58.996Z</time></trkpt><trkpt lat="44.1720733" lon="12.13872"><ele>28.25</ele><time>2026-05-06T14:11:00.997Z</time></trkpt><trkpt lat="44.1720767" lon="12.1385467"><ele>28.5</ele><time>2026-05-06T14:11:02.997Z</time></trkpt><trkpt lat="44.1720833" lon="12.1383767"><ele>28.75</ele><time>2026-05-06T14:11:04.997Z</time></trkpt><trkpt lat="44.172085" lon="12.13821"><ele>29.0</ele><time>2026-05-06T14:11:06.997Z</time></trkpt><trkpt lat="44.1720817" lon="12.13805"><ele>28.799999999999997</ele><time>2026-05-06T14:11:08.996Z</time></trkpt><trkpt lat="44.172085" lon="12.1379017"><ele>28.599999999999998</ele><time>2026-05-06T14:11:10.997Z</time></trkpt><trkpt lat="44.1720883" lon="12.1377433"><ele>28.4</ele><time>2026-05-06T14:11:12.996Z</time></trkpt><trkpt lat="44.1720883" lon="12.1375667"><ele>28.2</ele><time>2026-05-06T14:11:14.996Z</time></trkpt><trkpt lat="44.17209" lon="12.137475"><ele>28.0</ele><time>2026-05-06T14:11:15.996Z</time></trkpt><trkpt lat="44.1720833" lon="12.137385"><ele>28.0</ele><time>2026-05-06T14:11:16.996Z</time></trkpt><trkpt lat="44.1720733" lon="12.137215"><ele>27.999999999999996</ele><time>2026-05-06T14:11:18.996Z</time></trkpt><trkpt lat="44.1720667" lon="12.1370417"><ele>27.999999999999996</ele><time>2026-05-06T14:11:20.996Z</time></trkpt><trkpt lat="44.1720733" lon="12.1368817"><ele>28.0</ele><time>2026-05-06T14:11:22.996Z</time></trkpt><trkpt lat="44.172075" lon="12.1367917"><ele>28.0</ele><time>2026-05-06T14:11:23.997Z</time></trkpt><trkpt lat="44.1720767" lon="12.136625"><ele>28.0</ele><time>2026-05-06T14:11:25.996Z</time></trkpt><trkpt lat="44.1720733" lon="12.13646"><ele>27.999999999999996</ele><time>2026-05-06T14:11:27.996Z</time></trkpt><trkpt lat="44.1720767" lon="12.1362883"><ele>27.999999999999996</ele><time>2026-05-06T14:11:29.996Z</time></trkpt><trkpt lat="44.1720717" lon="12.1361217"><ele>28.0</ele><time>2026-05-06T14:11:31.996Z</time></trkpt><trkpt lat="44.17207" lon="12.1360333"><ele>28.0</ele><time>2026-05-06T14:11:32.996Z</time></trkpt><trkpt lat="44.17207" lon="12.13587"><ele>28.25</ele><time>2026-05-06T14:11:34.997Z</time></trkpt><trkpt lat="44.172065" lon="12.1357117"><ele>28.5</ele><time>2026-05-06T14:11:36.997Z</time></trkpt><trkpt lat="44.1720617" lon="12.135545"><ele>28.75</ele><time>2026-05-06T14:11:38.996Z</time></trkpt><trkpt lat="44.1720583" lon="12.1353717"><ele>29.0</ele><time>2026-05-06T14:11:40.997Z</time></trkpt><trkpt lat="44.1720567" lon="12.135195"><ele>29.0</ele><time>2026-05-06T14:11:42.996Z</time></trkpt><trkpt lat="44.17206" lon="12.1350333"><ele>29.0</ele><time>2026-05-06T14:11:44.997Z</time></trkpt><trkpt lat="44.1720617" lon="12.1348733"><ele>29.0</ele><time>2026-05-06T14:11:46.996Z</time></trkpt><trkpt lat="44.1720667" lon="12.1347"><ele>29.0</ele><time>2026-05-06T14:11:48.997Z</time></trkpt><trkpt lat="44.1720717" lon="12.13461"><ele>29.0</ele><time>2026-05-06T14:11:49.997Z</time></trkpt><trkpt lat="44.1720933" lon="12.1344383"><ele>28.999999999999996</ele><time>2026-05-06T14:11:51.996Z</time></trkpt><trkpt lat="44.1721117" lon="12.1343517"><ele>29.0</ele><time>2026-05-06T14:11:52.996Z</time></trkpt><trkpt lat="44.17213" lon="12.1342667"><ele>29.0</ele><time>2026-05-06T14:11:53.997Z</time></trkpt><trkpt lat="44.1721667" lon="12.1340967"><ele>29.0</ele><time>2026-05-06T14:11:55.996Z</time></trkpt><trkpt lat="44.1721783" lon="12.1340083"><ele>28.999999999999996</ele><time>2026-05-06T14:11:56.996Z</time></trkpt><trkpt lat="44.17219" lon="12.1339183"><ele>29.0</ele><time>2026-05-06T14:11:57.997Z</time></trkpt><trkpt lat="44.1721983" lon="12.13383"><ele>28.833333333333332</ele><time>2026-05-06T14:11:58.997Z</time></trkpt><trkpt lat="44.1722117" lon="12.1336533"><ele>28.666666666666664</ele><time>2026-05-06T14:12:00.997Z</time></trkpt><trkpt lat="44.172215" lon="12.133485"><ele>28.5</ele><time>2026-05-06T14:12:02.996Z</time></trkpt><trkpt lat="44.1722183" lon="12.1333967"><ele>28.333333333333336</ele><time>2026-05-06T14:12:03.997Z</time></trkpt><trkpt lat="44.1722217" lon="12.1333033"><ele>28.166666666666668</ele><time>2026-05-06T14:12:04.996Z</time></trkpt><trkpt lat="44.1722217" lon="12.133215"><ele>28.0</ele><time>2026-05-06T14:12:05.996Z</time></trkpt><trkpt lat="44.1722217" lon="12.1331217"><ele>28.000000000000004</ele><time>2026-05-06T14:12:06.996Z</time></trkpt><trkpt lat="44.1722217" lon="12.1330333"><ele>28.0</ele><time>2026-05-06T14:12:07.996Z</time></trkpt><trkpt lat="44.17222" lon="12.1329367"><ele>28.0</ele><time>2026-05-06T14:12:08.997Z</time></trkpt><trkpt lat="44.172225" lon="12.132845"><ele>28.0</ele><time>2026-05-06T14:12:09.997Z</time></trkpt><trkpt lat="44.172225" lon="12.1326733"><ele>28.000000000000004</ele><time>2026-05-06T14:12:11.996Z</time></trkpt><trkpt lat="44.1722283" lon="12.1325"><ele>28.0</ele><time>2026-05-06T14:12:13.997Z</time></trkpt><trkpt lat="44.1722367" lon="12.1323267"><ele>28.2</ele><time>2026-05-06T14:12:15.996Z</time></trkpt><trkpt lat="44.1722433" lon="12.13216"><ele>28.4</ele><time>2026-05-06T14:12:17.996Z</time></trkpt><trkpt lat="44.172255" lon="12.1320733"><ele>28.599999999999998</ele><time>2026-05-06T14:12:18.996Z</time></trkpt><trkpt lat="44.1722633" lon="12.131905"><ele>28.799999999999997</ele><time>2026-05-06T14:12:20.997Z</time></trkpt><trkpt lat="44.1722683" lon="12.131815"><ele>29.0</ele><time>2026-05-06T14:12:21.997Z</time></trkpt><trkpt lat="44.1722783" lon="12.1316483"><ele>29.0</ele><time>2026-05-06T14:12:23.997Z</time></trkpt><trkpt lat="44.1722867" lon="12.1314733"><ele>29.0</ele><time>2026-05-06T14:12:25.997Z</time></trkpt><trkpt lat="44.1722917" lon="12.131305"><ele>29.0</ele><time>2026-05-06T14:12:27.996Z</time></trkpt><trkpt lat="44.1722967" lon="12.13114"><ele>29.0</ele><time>2026-05-06T14:12:29.997Z</time></trkpt><trkpt lat="44.1723083" lon="12.1309783"><ele>29.0</ele><time>2026-05-06T14:12:31.996Z</time></trkpt><trkpt lat="44.172315" lon="12.1308117"><ele>29.0</ele><time>2026-05-06T14:12:33.996Z</time></trkpt><trkpt lat="44.1723167" lon="12.1306433"><ele>29.0</ele><time>2026-05-06T14:12:35.997Z</time></trkpt><trkpt lat="44.1723233" lon="12.13048"><ele>29.0</ele><time>2026-05-06T14:12:37.996Z</time></trkpt><trkpt lat="44.1723233" lon="12.1303283"><ele>29.6</ele><time>2026-05-06T14:12:39.997Z</time></trkpt><trkpt lat="44.1723367" lon="12.1301767"><ele>30.2</ele><time>2026-05-06T14:12:41.996Z</time></trkpt><trkpt lat="44.1723417" lon="12.1300283"><ele>30.800000000000004</ele><time>2026-05-06T14:12:43.996Z</time></trkpt><trkpt lat="44.17234" lon="12.129885"><ele>31.400000000000002</ele><time>2026-05-06T14:12:45.996Z</time></trkpt><trkpt lat="44.1723417" lon="12.129745"><ele>32.0</ele><time>2026-05-06T14:12:47.996Z</time></trkpt><trkpt lat="44.172345" lon="12.12961"><ele>31.999999999999996</ele><time>2026-05-06T14:12:49.996Z</time></trkpt><trkpt lat="44.1723433" lon="12.1294833"><ele>32.0</ele><time>2026-05-06T14:12:51.996Z</time></trkpt><trkpt lat="44.1723467" lon="12.1293533"><ele>32.0</ele><time>2026-05-06T14:12:53.996Z</time></trkpt><trkpt lat="44.17235" lon="12.1292483"><ele>32.0</ele><time>2026-05-06T14:12:55.996Z</time></trkpt><trkpt lat="44.1723667" lon="12.1291567"><ele>31.999999999999996</ele><time>2026-05-06T14:12:57.997Z</time></trkpt><trkpt lat="44.17246" lon="12.1291433"><ele>32.0</ele><time>2026-05-06T14:13:00.996Z</time></trkpt><trkpt lat="44.1725517" lon="12.1291883"><ele>31.999999999999996</ele><time>2026-05-06T14:13:02.996Z</time></trkpt><trkpt lat="44.172655" lon="12.12923"><ele>32.0</ele><time>2026-05-06T14:13:04.996Z</time></trkpt><trkpt lat="44.1727667" lon="12.129275"><ele>32.0</ele><time>2026-05-06T14:13:06.997Z</time></trkpt><trkpt lat="44.1728267" lon="12.1293033"><ele>32.0</ele><time>2026-05-06T14:13:07.996Z</time></trkpt><trkpt lat="44.1728867" lon="12.1293333"><ele>31.999999999999996</ele><time>2026-05-06T14:13:08.996Z</time></trkpt><trkpt lat="44.1729467" lon="12.129365"><ele>32.0</ele><time>2026-05-06T14:13:09.997Z</time></trkpt><trkpt lat="44.1730133" lon="12.1293967"><ele>31.999999999999996</ele><time>2026-05-06T14:13:10.996Z</time></trkpt><trkpt lat="44.1731283" lon="12.1294467"><ele>32.0</ele><time>2026-05-06T14:13:12.997Z</time></trkpt><trkpt lat="44.1732467" lon="12.1294983"><ele>32.0</ele><time>2026-05-06T14:13:14.997Z</time></trkpt><trkpt lat="44.1733067" lon="12.1295267"><ele>32.0</ele><time>2026-05-06T14:13:15.997Z</time></trkpt><trkpt lat="44.17337" lon="12.1295583"><ele>31.999999999999996</ele><time>2026-05-06T14:13:16.997Z</time></trkpt><trkpt lat="44.173435" lon="12.1295867"><ele>32.0</ele><time>2026-05-06T14:13:17.996Z</time></trkpt><trkpt lat="44.1735017" lon="12.1296267"><ele>31.666666666666664</ele><time>2026-05-06T14:13:18.997Z</time></trkpt><trkpt lat="44.17357" lon="12.1296617"><ele>31.333333333333332</ele><time>2026-05-06T14:13:19.997Z</time></trkpt><trkpt lat="44.17364" lon="12.129695"><ele>31.0</ele><time>2026-05-06T14:13:20.996Z</time></trkpt><trkpt lat="44.1737083" lon="12.1297283"><ele>30.666666666666664</ele><time>2026-05-06T14:13:21.996Z</time></trkpt><trkpt lat="44.1737783" lon="12.129765"><ele>30.333333333333332</ele><time>2026-05-06T14:13:22.996Z</time></trkpt><trkpt lat="44.1738517" lon="12.1298067"><ele>30.0</ele><time>2026-05-06T14:13:23.996Z</time></trkpt><trkpt lat="44.173925" lon="12.1298517"><ele>30.0</ele><time>2026-05-06T14:13:24.996Z</time></trkpt><trkpt lat="44.174" lon="12.1298917"><ele>30.0</ele><time>2026-05-06T14:13:25.996Z</time></trkpt><trkpt lat="44.17407" lon="12.129925"><ele>30.0</ele><time>2026-05-06T14:13:26.997Z</time></trkpt><trkpt lat="44.174135" lon="12.1299683"><ele>30.0</ele><time>2026-05-06T14:13:27.997Z</time></trkpt><trkpt lat="44.1741983" lon="12.1300083"><ele>30.0</ele><time>2026-05-06T14:13:28.996Z</time></trkpt><trkpt lat="44.17426" lon="12.1300533"><ele>30.0</ele><time>2026-05-06T14:13:29.997Z</time></trkpt><trkpt lat="44.1743183" lon="12.1301"><ele>30.0</ele><time>2026-05-06T14:13:30.996Z</time></trkpt><trkpt lat="44.1743783" lon="12.1301417"><ele>29.833333333333332</ele><time>2026-05-06T14:13:31.997Z</time></trkpt><trkpt lat="44.1744417" lon="12.1301833"><ele>29.666666666666664</ele><time>2026-05-06T14:13:32.997Z</time></trkpt><trkpt lat="44.1745583" lon="12.13026"><ele>29.5</ele><time>2026-05-06T14:13:34.996Z</time></trkpt><trkpt lat="44.1746217" lon="12.1303017"><ele>29.333333333333332</ele><time>2026-05-06T14:13:35.997Z</time></trkpt><trkpt lat="44.1746817" lon="12.130345"><ele>29.166666666666664</ele><time>2026-05-06T14:13:36.996Z</time></trkpt><trkpt lat="44.1747383" lon="12.13039"><ele>29.0</ele><time>2026-05-06T14:13:37.996Z</time></trkpt><trkpt lat="44.1748517" lon="12.1304733"><ele>29.000000000000004</ele><time>2026-05-06T14:13:39.997Z</time></trkpt><trkpt lat="44.17491" lon="12.1305233"><ele>29.0</ele><time>2026-05-06T14:13:40.996Z</time></trkpt><trkpt lat="44.17497" lon="12.13056"><ele>29.000000000000004</ele><time>2026-05-06T14:13:41.996Z</time></trkpt><trkpt lat="44.1750317" lon="12.1306033"><ele>29.000000000000004</ele><time>2026-05-06T14:13:42.996Z</time></trkpt><trkpt lat="44.1750967" lon="12.13065"><ele>29.0</ele><time>2026-05-06T14:13:43.997Z</time></trkpt><trkpt lat="44.1751667" lon="12.1306983"><ele>29.000000000000004</ele><time>2026-05-06T14:13:44.997Z</time></trkpt><trkpt lat="44.1752383" lon="12.130745"><ele>29.000000000000004</ele><time>2026-05-06T14:13:45.997Z</time></trkpt><trkpt lat="44.1753067" lon="12.1307767"><ele>29.285714285714292</ele><time>2026-05-06T14:13:46.996Z</time></trkpt><trkpt lat="44.1753683" lon="12.1308267"><ele>29.571428571428573</ele><time>2026-05-06T14:13:47.996Z</time></trkpt><trkpt lat="44.1754283" lon="12.1308783"><ele>29.85714285714286</ele><time>2026-05-06T14:13:48.996Z</time></trkpt><trkpt lat="44.1754883" lon="12.130925"><ele>30.142857142857146</ele><time>2026-05-06T14:13:49.997Z</time></trkpt><trkpt lat="44.175545" lon="12.1309683"><ele>30.42857142857143</ele><time>2026-05-06T14:13:50.996Z</time></trkpt><trkpt lat="44.1756067" lon="12.131015"><ele>30.714285714285715</ele><time>2026-05-06T14:13:51.997Z</time></trkpt><trkpt lat="44.17567" lon="12.1310567"><ele>31.0</ele><time>2026-05-06T14:13:52.996Z</time></trkpt><trkpt lat="44.1757383" lon="12.1311083"><ele>31.000000000000004</ele><time>2026-05-06T14:13:53.996Z</time></trkpt><trkpt lat="44.175815" lon="12.1311617"><ele>31.0</ele><time>2026-05-06T14:13:54.996Z</time></trkpt><trkpt lat="44.175885" lon="12.1312183"><ele>31.0</ele><time>2026-05-06T14:13:55.997Z</time></trkpt><trkpt lat="44.1759533" lon="12.131255"><ele>31.0</ele><time>2026-05-06T14:13:56.996Z</time></trkpt><trkpt lat="44.1760217" lon="12.1313"><ele>31.000000000000004</ele><time>2026-05-06T14:13:57.996Z</time></trkpt><trkpt lat="44.17609" lon="12.1313467"><ele>31.0</ele><time>2026-05-06T14:13:58.996Z</time></trkpt><trkpt lat="44.17615" lon="12.1313933"><ele>31.0</ele><time>2026-05-06T14:13:59.997Z</time></trkpt><trkpt lat="44.1762183" lon="12.1314333"><ele>31.000000000000004</ele><time>2026-05-06T14:14:00.997Z</time></trkpt><trkpt lat="44.1762883" lon="12.1314833"><ele>31.0</ele><time>2026-05-06T14:14:01.996Z</time></trkpt><trkpt lat="44.1763583" lon="12.131525"><ele>31.0</ele><time>2026-05-06T14:14:02.996Z</time></trkpt><trkpt lat="44.1764233" lon="12.1315667"><ele>31.000000000000004</ele><time>2026-05-06T14:14:03.996Z</time></trkpt><trkpt lat="44.1764867" lon="12.131615"><ele>31.0</ele><time>2026-05-06T14:14:04.996Z</time></trkpt><trkpt lat="44.17655" lon="12.1316583"><ele>31.0</ele><time>2026-05-06T14:14:05.996Z</time></trkpt><trkpt lat="44.176615" lon="12.131705"><ele>30.714285714285715</ele><time>2026-05-06T14:14:06.996Z</time></trkpt><trkpt lat="44.176675" lon="12.1317467"><ele>30.42857142857143</ele><time>2026-05-06T14:14:07.996Z</time></trkpt><trkpt lat="44.1767383" lon="12.1317933"><ele>30.142857142857146</ele><time>2026-05-06T14:14:08.997Z</time></trkpt><trkpt lat="44.176805" lon="12.1318417"><ele>29.85714285714286</ele><time>2026-05-06T14:14:09.996Z</time></trkpt><trkpt lat="44.176875" lon="12.1318833"><ele>29.571428571428573</ele><time>2026-05-06T14:14:10.997Z</time></trkpt><trkpt lat="44.1769417" lon="12.1319217"><ele>29.285714285714292</ele><time>2026-05-06T14:14:11.996Z</time></trkpt><trkpt lat="44.177" lon="12.1319667"><ele>29.000000000000004</ele><time>2026-05-06T14:14:12.996Z</time></trkpt><trkpt lat="44.17706" lon="12.1320083"><ele>29.000000000000004</ele><time>2026-05-06T14:14:13.997Z</time></trkpt><trkpt lat="44.17712" lon="12.1320517"><ele>29.0</ele><time>2026-05-06T14:14:14.996Z</time></trkpt><trkpt lat="44.177185" lon="12.132095"><ele>29.000000000000004</ele><time>2026-05-06T14:14:15.996Z</time></trkpt><trkpt lat="44.17725" lon="12.13214"><ele>29.000000000000004</ele><time>2026-05-06T14:14:16.997Z</time></trkpt><trkpt lat="44.177315" lon="12.132185"><ele>29.0</ele><time>2026-05-06T14:14:17.997Z</time></trkpt><trkpt lat="44.17738" lon="12.1322267"><ele>29.000000000000004</ele><time>2026-05-06T14:14:18.997Z</time></trkpt><trkpt lat="44.1774433" lon="12.1322667"><ele>29.000000000000004</ele><time>2026-05-06T14:14:19.996Z</time></trkpt><trkpt lat="44.1775133" lon="12.1323017"><ele>29.000000000000004</ele><time>2026-05-06T14:14:20.996Z</time></trkpt><trkpt lat="44.177575" lon="12.1323467"><ele>29.0</ele><time>2026-05-06T14:14:21.997Z</time></trkpt><trkpt lat="44.1776383" lon="12.132395"><ele>29.000000000000004</ele><time>2026-05-06T14:14:22.997Z</time></trkpt><trkpt lat="44.1777" lon="12.1324333"><ele>29.000000000000004</ele><time>2026-05-06T14:14:23.996Z</time></trkpt><trkpt lat="44.1777633" lon="12.1324717"><ele>29.0</ele><time>2026-05-06T14:14:24.997Z</time></trkpt><trkpt lat="44.1778183" lon="12.1325183"><ele>29.000000000000004</ele><time>2026-05-06T14:14:25.996Z</time></trkpt><trkpt lat="44.1778783" lon="12.1325717"><ele>29.000000000000004</ele><time>2026-05-06T14:14:26.996Z</time></trkpt><trkpt lat="44.1779433" lon="12.1326233"><ele>29.000000000000004</ele><time>2026-05-06T14:14:27.996Z</time></trkpt><trkpt lat="44.1780083" lon="12.1326683"><ele>29.0</ele><time>2026-05-06T14:14:28.996Z</time></trkpt><trkpt lat="44.178075" lon="12.1327133"><ele>29.000000000000004</ele><time>2026-05-06T14:14:29.996Z</time></trkpt><trkpt lat="44.1781433" lon="12.1327567"><ele>29.000000000000004</ele><time>2026-05-06T14:14:30.996Z</time></trkpt><trkpt lat="44.1782117" lon="12.1328017"><ele>29.0</ele><time>2026-05-06T14:14:31.996Z</time></trkpt><trkpt lat="44.1782783" lon="12.1328517"><ele>29.000000000000004</ele><time>2026-05-06T14:14:32.997Z</time></trkpt><trkpt lat="44.1783433" lon="12.1328967"><ele>29.000000000000004</ele><time>2026-05-06T14:14:33.996Z</time></trkpt><trkpt lat="44.1784117" lon="12.13294"><ele>28.999999999999996</ele><time>2026-05-06T14:14:34.997Z</time></trkpt><trkpt lat="44.1784817" lon="12.1329933"><ele>29.0</ele><time>2026-05-06T14:14:35.996Z</time></trkpt><trkpt lat="44.1785533" lon="12.133045"><ele>29.0</ele><time>2026-05-06T14:14:36.997Z</time></trkpt><trkpt lat="44.1786233" lon="12.1330933"><ele>29.0</ele><time>2026-05-06T14:14:37.996Z</time></trkpt><trkpt lat="44.17869" lon="12.133145"><ele>28.999999999999996</ele><time>2026-05-06T14:14:38.996Z</time></trkpt><trkpt lat="44.1787533" lon="12.13319"><ele>29.0</ele><time>2026-05-06T14:14:39.997Z</time></trkpt><trkpt lat="44.1788167" lon="12.133235"><ele>28.85714285714286</ele><time>2026-05-06T14:14:40.997Z</time></trkpt><trkpt lat="44.178885" lon="12.1332783"><ele>28.714285714285715</ele><time>2026-05-06T14:14:41.997Z</time></trkpt><trkpt lat="44.1789517" lon="12.13332"><ele>28.571428571428573</ele><time>2026-05-06T14:14:42.996Z</time></trkpt><trkpt lat="44.179015" lon="12.133365"><ele>28.42857142857143</ele><time>2026-05-06T14:14:43.997Z</time></trkpt><trkpt lat="44.17908" lon="12.1334083"><ele>28.285714285714285</ele><time>2026-05-06T14:14:44.996Z</time></trkpt><trkpt lat="44.1791467" lon="12.1334583"><ele>28.142857142857142</ele><time>2026-05-06T14:14:45.996Z</time></trkpt><trkpt lat="44.1792067" lon="12.1335083"><ele>28.0</ele><time>2026-05-06T14:14:46.996Z</time></trkpt><trkpt lat="44.1792733" lon="12.133555"><ele>28.000000000000004</ele><time>2026-05-06T14:14:47.996Z</time></trkpt><trkpt lat="44.179335" lon="12.1335983"><ele>28.0</ele><time>2026-05-06T14:14:48.997Z</time></trkpt><trkpt lat="44.1794017" lon="12.1336533"><ele>28.0</ele><time>2026-05-06T14:14:49.996Z</time></trkpt><trkpt lat="44.1794667" lon="12.13371"><ele>28.0</ele><time>2026-05-06T14:14:50.997Z</time></trkpt><trkpt lat="44.1795317" lon="12.1337683"><ele>28.000000000000004</ele><time>2026-05-06T14:14:51.996Z</time></trkpt><trkpt lat="44.1796" lon="12.1338233"><ele>28.0</ele><time>2026-05-06T14:14:52.997Z</time></trkpt><trkpt lat="44.1796633" lon="12.1338767"><ele>28.000000000000004</ele><time>2026-05-06T14:14:53.997Z</time></trkpt><trkpt lat="44.17973" lon="12.133935"><ele>28.0</ele><time>2026-05-06T14:14:54.996Z</time></trkpt><trkpt lat="44.179795" lon="12.133995"><ele>28.0</ele><time>2026-05-06T14:14:55.996Z</time></trkpt><trkpt lat="44.1798567" lon="12.134055"><ele>28.0</ele><time>2026-05-06T14:14:56.996Z</time></trkpt><trkpt lat="44.17992" lon="12.1341183"><ele>28.000000000000004</ele><time>2026-05-06T14:14:57.996Z</time></trkpt><trkpt lat="44.179985" lon="12.13417"><ele>28.0</ele><time>2026-05-06T14:14:58.996Z</time></trkpt><trkpt lat="44.1800433" lon="12.1342333"><ele>28.142857142857142</ele><time>2026-05-06T14:14:59.996Z</time></trkpt><trkpt lat="44.1801017" lon="12.1342817"><ele>28.285714285714285</ele><time>2026-05-06T14:15:00.996Z</time></trkpt><trkpt lat="44.1801617" lon="12.1343333"><ele>28.42857142857143</ele><time>2026-05-06T14:15:01.996Z</time></trkpt><trkpt lat="44.1802217" lon="12.13438"><ele>28.571428571428573</ele><time>2026-05-06T14:15:02.996Z</time></trkpt><trkpt lat="44.1802833" lon="12.134435"><ele>28.714285714285715</ele><time>2026-05-06T14:15:03.997Z</time></trkpt><trkpt lat="44.18034" lon="12.1344933"><ele>28.85714285714286</ele><time>2026-05-06T14:15:04.996Z</time></trkpt><trkpt lat="44.1804017" lon="12.1345467"><ele>29.000000000000004</ele><time>2026-05-06T14:15:05.996Z</time></trkpt><trkpt lat="44.1804633" lon="12.134595"><ele>29.000000000000004</ele><time>2026-05-06T14:15:06.996Z</time></trkpt><trkpt lat="44.1805267" lon="12.13465"><ele>29.0</ele><time>2026-05-06T14:15:07.996Z</time></trkpt><trkpt lat="44.1805883" lon="12.1347067"><ele>29.000000000000004</ele><time>2026-05-06T14:15:08.997Z</time></trkpt><trkpt lat="44.18065" lon="12.134755"><ele>29.000000000000004</ele><time>2026-05-06T14:15:09.996Z</time></trkpt><trkpt lat="44.180715" lon="12.1348017"><ele>29.0</ele><time>2026-05-06T14:15:10.997Z</time></trkpt><trkpt lat="44.1807833" lon="12.1348467"><ele>29.000000000000004</ele><time>2026-05-06T14:15:11.997Z</time></trkpt><trkpt lat="44.1808517" lon="12.1348883"><ele>29.000000000000004</ele><time>2026-05-06T14:15:12.997Z</time></trkpt><trkpt lat="44.1809183" lon="12.1349317"><ele>28.85714285714286</ele><time>2026-05-06T14:15:13.996Z</time></trkpt><trkpt lat="44.1809833" lon="12.1349667"><ele>28.714285714285715</ele><time>2026-05-06T14:15:14.996Z</time></trkpt><trkpt lat="44.1810433" lon="12.135"><ele>28.571428571428573</ele><time>2026-05-06T14:15:15.996Z</time></trkpt><trkpt lat="44.1811017" lon="12.13504"><ele>28.42857142857143</ele><time>2026-05-06T14:15:16.996Z</time></trkpt><trkpt lat="44.1811633" lon="12.135085"><ele>28.285714285714285</ele><time>2026-05-06T14:15:17.996Z</time></trkpt><trkpt lat="44.18123" lon="12.13513"><ele>28.142857142857142</ele><time>2026-05-06T14:15:18.996Z</time></trkpt><trkpt lat="44.18129" lon="12.135175"><ele>28.0</ele><time>2026-05-06T14:15:19.997Z</time></trkpt><trkpt lat="44.1813533" lon="12.1352133"><ele>28.000000000000004</ele><time>2026-05-06T14:15:20.996Z</time></trkpt><trkpt lat="44.181415" lon="12.13525"><ele>28.0</ele><time>2026-05-06T14:15:21.996Z</time></trkpt><trkpt lat="44.1814733" lon="12.135285"><ele>28.0</ele><time>2026-05-06T14:15:22.997Z</time></trkpt><trkpt lat="44.1815317" lon="12.135325"><ele>28.0</ele><time>2026-05-06T14:15:23.997Z</time></trkpt><trkpt lat="44.1815917" lon="12.135365"><ele>28.000000000000004</ele><time>2026-05-06T14:15:24.996Z</time></trkpt><trkpt lat="44.18165" lon="12.1354017"><ele>28.0</ele><time>2026-05-06T14:15:25.997Z</time></trkpt><trkpt lat="44.181765" lon="12.1354767"><ele>28.2</ele><time>2026-05-06T14:15:27.997Z</time></trkpt><trkpt lat="44.1818233" lon="12.1355133"><ele>28.4</ele><time>2026-05-06T14:15:28.997Z</time></trkpt><trkpt lat="44.181935" lon="12.1355817"><ele>28.599999999999998</ele><time>2026-05-06T14:15:30.996Z</time></trkpt><trkpt lat="44.18205" lon="12.1356583"><ele>28.799999999999997</ele><time>2026-05-06T14:15:32.997Z</time></trkpt><trkpt lat="44.1821133" lon="12.1357"><ele>29.0</ele><time>2026-05-06T14:15:33.996Z</time></trkpt><trkpt lat="44.1822183" lon="12.1357533"><ele>29.0</ele><time>2026-05-06T14:15:35.997Z</time></trkpt><trkpt lat="44.1823167" lon="12.1358267"><ele>29.0</ele><time>2026-05-06T14:15:37.996Z</time></trkpt><trkpt lat="44.182395" lon="12.1359267"><ele>29.0</ele><time>2026-05-06T14:15:39.997Z</time></trkpt><trkpt lat="44.18246" lon="12.1359933"><ele>29.0</ele><time>2026-05-06T14:15:41.997Z</time></trkpt><trkpt lat="44.182535" lon="12.136025"><ele>29.0</ele><time>2026-05-06T14:15:44.997Z</time></trkpt><trkpt lat="44.182615" lon="12.1360017"><ele>28.999999999999996</ele><time>2026-05-06T14:15:47.996Z</time></trkpt><trkpt lat="44.1826717" lon="12.13594"><ele>29.0</ele><time>2026-05-06T14:15:49.996Z</time></trkpt><trkpt lat="44.1827133" lon="12.1358483"><ele>29.0</ele><time>2026-05-06T14:15:51.996Z</time></trkpt><trkpt lat="44.1827633" lon="12.1357517"><ele>29.0</ele><time>2026-05-06T14:15:53.996Z</time></trkpt><trkpt lat="44.18282" lon="12.1356383"><ele>28.999999999999996</ele><time>2026-05-06T14:15:55.996Z</time></trkpt><trkpt lat="44.1828883" lon="12.135515"><ele>29.0</ele><time>2026-05-06T14:15:57.996Z</time></trkpt><trkpt lat="44.1829733" lon="12.1353967"><ele>29.2</ele><time>2026-05-06T14:15:59.996Z</time></trkpt><trkpt lat="44.1830617" lon="12.1353117"><ele>29.4</ele><time>2026-05-06T14:16:01.996Z</time></trkpt><trkpt lat="44.1831617" lon="12.13526"><ele>29.6</ele><time>2026-05-06T14:16:03.996Z</time></trkpt><trkpt lat="44.1832683" lon="12.135235"><ele>29.8</ele><time>2026-05-06T14:16:05.996Z</time></trkpt><trkpt lat="44.1833783" lon="12.135205"><ele>30.0</ele><time>2026-05-06T14:16:07.997Z</time></trkpt><trkpt lat="44.1834983" lon="12.1352017"><ele>29.6</ele><time>2026-05-06T14:16:09.996Z</time></trkpt><trkpt lat="44.1836217" lon="12.1352317"><ele>29.2</ele><time>2026-05-06T14:16:11.997Z</time></trkpt><trkpt lat="44.1836867" lon="12.135245"><ele>28.799999999999997</ele><time>2026-05-06T14:16:12.997Z</time></trkpt><trkpt lat="44.1837533" lon="12.13525"><ele>28.4</ele><time>2026-05-06T14:16:13.996Z</time></trkpt><trkpt lat="44.1838217" lon="12.135265"><ele>28.0</ele><time>2026-05-06T14:16:14.996Z</time></trkpt><trkpt lat="44.183945" lon="12.1352917"><ele>27.833333333333336</ele><time>2026-05-06T14:16:16.996Z</time></trkpt><trkpt lat="44.184065" lon="12.1353183"><ele>27.666666666666668</ele><time>2026-05-06T14:16:18.997Z</time></trkpt><trkpt lat="44.1841283" lon="12.1353283"><ele>27.5</ele><time>2026-05-06T14:16:19.996Z</time></trkpt><trkpt lat="44.1841917" lon="12.13534"><ele>27.333333333333336</ele><time>2026-05-06T14:16:20.996Z</time></trkpt><trkpt lat="44.1843117" lon="12.1353683"><ele>27.166666666666668</ele><time>2026-05-06T14:16:22.996Z</time></trkpt><trkpt lat="44.1843767" lon="12.1353867"><ele>27.0</ele><time>2026-05-06T14:16:23.996Z</time></trkpt><trkpt lat="44.184505" lon="12.1354167"><ele>27.0</ele><time>2026-05-06T14:16:25.997Z</time></trkpt><trkpt lat="44.1845683" lon="12.13543"><ele>27.0</ele><time>2026-05-06T14:16:26.997Z</time></trkpt><trkpt lat="44.1846917" lon="12.1354583"><ele>27.0</ele><time>2026-05-06T14:16:28.997Z</time></trkpt><trkpt lat="44.184815" lon="12.1354817"><ele>27.0</ele><time>2026-05-06T14:16:30.996Z</time></trkpt><trkpt lat="44.18488" lon="12.13549"><ele>27.0</ele><time>2026-05-06T14:16:31.996Z</time></trkpt><trkpt lat="44.1849467" lon="12.135495"><ele>27.0</ele><time>2026-05-06T14:16:32.997Z</time></trkpt><trkpt lat="44.1850117" lon="12.1355033"><ele>26.833333333333332</ele><time>2026-05-06T14:16:33.997Z</time></trkpt><trkpt lat="44.185075" lon="12.1355133"><ele>26.666666666666664</ele><time>2026-05-06T14:16:34.996Z</time></trkpt><trkpt lat="44.1851967" lon="12.1355433"><ele>26.5</ele><time>2026-05-06T14:16:36.996Z</time></trkpt><trkpt lat="44.1852617" lon="12.1355567"><ele>26.333333333333332</ele><time>2026-05-06T14:16:37.997Z</time></trkpt><trkpt lat="44.1853267" lon="12.13557"><ele>26.166666666666664</ele><time>2026-05-06T14:16:38.996Z</time></trkpt><trkpt lat="44.1854" lon="12.1355867"><ele>26.0</ele><time>2026-05-06T14:16:39.996Z</time></trkpt><trkpt lat="44.1854633" lon="12.1355917"><ele>26.0</ele><time>2026-05-06T14:16:40.996Z</time></trkpt><trkpt lat="44.1855867" lon="12.1355983"><ele>26.0</ele><time>2026-05-06T14:16:42.997Z</time></trkpt><trkpt lat="44.18565" lon="12.1356"><ele>26.0</ele><time>2026-05-06T14:16:43.996Z</time></trkpt><trkpt lat="44.185715" lon="12.1356017"><ele>26.0</ele><time>2026-05-06T14:16:44.996Z</time></trkpt><trkpt lat="44.1857783" lon="12.1356"><ele>26.0</ele><time>2026-05-06T14:16:45.997Z</time></trkpt><trkpt lat="44.1858433" lon="12.1356033"><ele>26.0</ele><time>2026-05-06T14:16:46.996Z</time></trkpt><trkpt lat="44.1859067" lon="12.1356083"><ele>26.0</ele><time>2026-05-06T14:16:47.996Z</time></trkpt><trkpt lat="44.1859717" lon="12.1356133"><ele>26.142857142857142</ele><time>2026-05-06T14:16:48.996Z</time></trkpt><trkpt lat="44.1860433" lon="12.1356167"><ele>26.28571428571429</ele><time>2026-05-06T14:16:49.996Z</time></trkpt><trkpt lat="44.1861133" lon="12.1356233"><ele>26.42857142857143</ele><time>2026-05-06T14:16:50.996Z</time></trkpt><trkpt lat="44.1861817" lon="12.13563"><ele>26.57142857142857</ele><time>2026-05-06T14:16:51.996Z</time></trkpt><trkpt lat="44.1862467" lon="12.13563"><ele>26.714285714285715</ele><time>2026-05-06T14:16:52.996Z</time></trkpt><trkpt lat="44.1863133" lon="12.1356283"><ele>26.857142857142858</ele><time>2026-05-06T14:16:53.997Z</time></trkpt><trkpt lat="44.18638" lon="12.1356333"><ele>27.0</ele><time>2026-05-06T14:16:54.996Z</time></trkpt><trkpt lat="44.186445" lon="12.135635"><ele>27.0</ele><time>2026-05-06T14:16:55.997Z</time></trkpt><trkpt lat="44.1865083" lon="12.13563"><ele>27.0</ele><time>2026-05-06T14:16:56.996Z</time></trkpt><trkpt lat="44.1865767" lon="12.1356433"><ele>27.0</ele><time>2026-05-06T14:16:57.996Z</time></trkpt><trkpt lat="44.1866433" lon="12.135645"><ele>27.0</ele><time>2026-05-06T14:16:58.996Z</time></trkpt><trkpt lat="44.1867167" lon="12.1356433"><ele>27.0</ele><time>2026-05-06T14:16:59.996Z</time></trkpt><trkpt lat="44.1867883" lon="12.1356433"><ele>27.0</ele><time>2026-05-06T14:17:00.996Z</time></trkpt><trkpt lat="44.1868583" lon="12.135645"><ele>27.0</ele><time>2026-05-06T14:17:01.997Z</time></trkpt><trkpt lat="44.1869233" lon="12.1356467"><ele>27.0</ele><time>2026-05-06T14:17:02.996Z</time></trkpt><trkpt lat="44.1869883" lon="12.1356567"><ele>27.0</ele><time>2026-05-06T14:17:03.997Z</time></trkpt><trkpt lat="44.1870533" lon="12.1356633"><ele>27.0</ele><time>2026-05-06T14:17:04.996Z</time></trkpt><trkpt lat="44.1871233" lon="12.1356667"><ele>27.0</ele><time>2026-05-06T14:17:05.996Z</time></trkpt><trkpt lat="44.1871883" lon="12.135675"><ele>27.0</ele><time>2026-05-06T14:17:06.996Z</time></trkpt><trkpt lat="44.1872567" lon="12.1356767"><ele>27.0</ele><time>2026-05-06T14:17:07.996Z</time></trkpt><trkpt lat="44.1873267" lon="12.1356767"><ele>27.0</ele><time>2026-05-06T14:17:08.996Z</time></trkpt><trkpt lat="44.1873933" lon="12.1356717"><ele>27.0</ele><time>2026-05-06T14:17:09.997Z</time></trkpt><trkpt lat="44.1874567" lon="12.135665"><ele>27.0</ele><time>2026-05-06T14:17:10.996Z</time></trkpt><trkpt lat="44.1875217" lon="12.1356633"><ele>27.0</ele><time>2026-05-06T14:17:11.996Z</time></trkpt><trkpt lat="44.187585" lon="12.135675"><ele>27.0</ele><time>2026-05-06T14:17:12.996Z</time></trkpt><trkpt lat="44.18767" lon="12.1357633"><ele>27.0</ele><time>2026-05-06T14:17:14.996Z</time></trkpt><trkpt lat="44.1876917" lon="12.1359067"><ele>27.0</ele><time>2026-05-06T14:17:16.997Z</time></trkpt><trkpt lat="44.1877217" lon="12.136045"><ele>27.0</ele><time>2026-05-06T14:17:18.996Z</time></trkpt><trkpt lat="44.1877967" lon="12.1361083"><ele>27.0</ele><time>2026-05-06T14:17:20.996Z</time></trkpt><trkpt lat="44.187885" lon="12.1360383"><ele>27.0</ele><time>2026-05-06T14:17:22.997Z</time></trkpt><trkpt lat="44.1879333" lon="12.135885"><ele>27.0</ele><time>2026-05-06T14:17:24.996Z</time></trkpt><trkpt lat="44.1879467" lon="12.1357983"><ele>27.0</ele><time>2026-05-06T14:17:25.996Z</time></trkpt><trkpt lat="44.1879583" lon="12.1357083"><ele>27.0</ele><time>2026-05-06T14:17:26.996Z</time></trkpt><trkpt lat="44.187975" lon="12.13562"><ele>27.0</ele><time>2026-05-06T14:17:27.996Z</time></trkpt><trkpt lat="44.1879917" lon="12.1355333"><ele>27.0</ele><time>2026-05-06T14:17:28.996Z</time></trkpt><trkpt lat="44.1880017" lon="12.1353633"><ele>27.0</ele><time>2026-05-06T14:17:30.996Z</time></trkpt><trkpt lat="44.188" lon="12.135275"><ele>27.0</ele><time>2026-05-06T14:17:31.997Z</time></trkpt><trkpt lat="44.1879983" lon="12.1351833"><ele>27.0</ele><time>2026-05-06T14:17:32.996Z</time></trkpt><trkpt lat="44.1879967" lon="12.13501"><ele>27.0</ele><time>2026-05-06T14:17:34.996Z</time></trkpt><trkpt lat="44.1879967" lon="12.1349167"><ele>27.0</ele><time>2026-05-06T14:17:35.997Z</time></trkpt><trkpt lat="44.1879967" lon="12.1348167"><ele>27.0</ele><time>2026-05-06T14:17:36.996Z</time></trkpt><trkpt lat="44.1879933" lon="12.134715"><ele>27.0</ele><time>2026-05-06T14:17:37.996Z</time></trkpt><trkpt lat="44.1879933" lon="12.1346183"><ele>27.0</ele><time>2026-05-06T14:17:38.997Z</time></trkpt><trkpt lat="44.18799" lon="12.1345233"><ele>27.0</ele><time>2026-05-06T14:17:39.996Z</time></trkpt><trkpt lat="44.1879833" lon="12.1344217"><ele>27.0</ele><time>2026-05-06T14:17:40.996Z</time></trkpt><trkpt lat="44.1879867" lon="12.134325"><ele>27.0</ele><time>2026-05-06T14:17:41.997Z</time></trkpt><trkpt lat="44.187995" lon="12.1342367"><ele>27.0</ele><time>2026-05-06T14:17:42.996Z</time></trkpt><trkpt lat="44.1879933" lon="12.1341467"><ele>27.0</ele><time>2026-05-06T14:17:43.996Z</time></trkpt><trkpt lat="44.18799" lon="12.134055"><ele>27.0</ele><time>2026-05-06T14:17:44.997Z</time></trkpt><trkpt lat="44.1879917" lon="12.133965"><ele>27.0</ele><time>2026-05-06T14:17:45.996Z</time></trkpt><trkpt lat="44.1879867" lon="12.1338667"><ele>27.0</ele><time>2026-05-06T14:17:46.997Z</time></trkpt><trkpt lat="44.18798" lon="12.133775"><ele>27.0</ele><time>2026-05-06T14:17:47.997Z</time></trkpt><trkpt lat="44.18797" lon="12.1336083"><ele>27.0</ele><time>2026-05-06T14:17:49.996Z</time></trkpt><trkpt lat="44.1879533" lon="12.1334533"><ele>27.000000000000004</ele><time>2026-05-06T14:17:51.997Z</time></trkpt><trkpt lat="44.1879333" lon="12.1333033"><ele>27.000000000000004</ele><time>2026-05-06T14:17:53.997Z</time></trkpt><trkpt lat="44.18792" lon="12.1331567"><ele>27.0</ele><time>2026-05-06T14:17:55.996Z</time></trkpt><trkpt lat="44.1879117" lon="12.1330117"><ele>27.0</ele><time>2026-05-06T14:17:57.996Z</time></trkpt><trkpt lat="44.1879067" lon="12.1329233"><ele>27.166666666666668</ele><time>2026-05-06T14:17:59.996Z</time></trkpt><trkpt lat="44.18797" lon="12.1328767"><ele>27.333333333333336</ele><time>2026-05-06T14:18:02.996Z</time></trkpt><trkpt lat="44.1880533" lon="12.132875"><ele>27.5</ele><time>2026-05-06T14:18:04.996Z</time></trkpt><trkpt lat="44.188135" lon="12.1328717"><ele>27.666666666666668</ele><time>2026-05-06T14:18:06.996Z</time></trkpt><trkpt lat="44.18822" lon="12.132875"><ele>27.833333333333336</ele><time>2026-05-06T14:18:08.996Z</time></trkpt><trkpt lat="44.1883167" lon="12.13287"><ele>28.0</ele><time>2026-05-06T14:18:10.996Z</time></trkpt><trkpt lat="44.1884383" lon="12.1328967"><ele>28.0</ele><time>2026-05-06T14:18:12.996Z</time></trkpt><trkpt lat="44.188555" lon="12.1329167"><ele>27.999999999999996</ele><time>2026-05-06T14:18:14.997Z</time></trkpt><trkpt lat="44.1886217" lon="12.1329217"><ele>27.999999999999996</ele><time>2026-05-06T14:18:15.996Z</time></trkpt><trkpt lat="44.188735" lon="12.1329567"><ele>28.0</ele><time>2026-05-06T14:18:17.997Z</time></trkpt><trkpt lat="44.1888617" lon="12.1329583"><ele>28.0</ele><time>2026-05-06T14:18:19.997Z</time></trkpt><trkpt lat="44.1889283" lon="12.13296"><ele>28.000000000000004</ele><time>2026-05-06T14:18:20.997Z</time></trkpt><trkpt lat="44.188995" lon="12.13296"><ele>28.0</ele><time>2026-05-06T14:18:21.997Z</time></trkpt><trkpt lat="44.1890583" lon="12.1329583"><ele>28.0</ele><time>2026-05-06T14:18:22.996Z</time></trkpt><trkpt lat="44.189125" lon="12.1329483"><ele>28.0</ele><time>2026-05-06T14:18:23.997Z</time></trkpt><trkpt lat="44.1892483" lon="12.13292"><ele>28.000000000000004</ele><time>2026-05-06T14:18:25.996Z</time></trkpt><trkpt lat="44.18937" lon="12.1328967"><ele>28.0</ele><time>2026-05-06T14:18:27.996Z</time></trkpt><trkpt lat="44.1894333" lon="12.1328817"><ele>28.0</ele><time>2026-05-06T14:18:28.996Z</time></trkpt><trkpt lat="44.1894983" lon="12.1328517"><ele>28.0</ele><time>2026-05-06T14:18:29.996Z</time></trkpt><trkpt lat="44.1895633" lon="12.1328217"><ele>28.0</ele><time>2026-05-06T14:18:30.996Z</time></trkpt><trkpt lat="44.1896283" lon="12.1327867"><ele>28.0</ele><time>2026-05-06T14:18:31.996Z</time></trkpt><trkpt lat="44.1896933" lon="12.1327517"><ele>28.0</ele><time>2026-05-06T14:18:32.997Z</time></trkpt><trkpt lat="44.1897517" lon="12.1327167"><ele>28.0</ele><time>2026-05-06T14:18:33.996Z</time></trkpt><trkpt lat="44.189815" lon="12.1327"><ele>28.0</ele><time>2026-05-06T14:18:34.996Z</time></trkpt><trkpt lat="44.1898783" lon="12.13268"><ele>27.799999999999997</ele><time>2026-05-06T14:18:35.997Z</time></trkpt><trkpt lat="44.189995" lon="12.132665"><ele>27.599999999999998</ele><time>2026-05-06T14:18:37.996Z</time></trkpt><trkpt lat="44.190065" lon="12.1326633"><ele>27.400000000000002</ele><time>2026-05-06T14:18:38.996Z</time></trkpt><trkpt lat="44.190135" lon="12.1326617"><ele>27.200000000000003</ele><time>2026-05-06T14:18:39.996Z</time></trkpt><trkpt lat="44.190265" lon="12.1326483"><ele>27.0</ele><time>2026-05-06T14:18:41.997Z</time></trkpt><trkpt lat="44.1903317" lon="12.1326417"><ele>27.0</ele><time>2026-05-06T14:18:42.996Z</time></trkpt><trkpt lat="44.1904583" lon="12.1326233"><ele>27.000000000000004</ele><time>2026-05-06T14:18:44.997Z</time></trkpt><trkpt lat="44.1905733" lon="12.132615"><ele>27.000000000000004</ele><time>2026-05-06T14:18:46.997Z</time></trkpt><trkpt lat="44.1906533" lon="12.1325767"><ele>27.0</ele><time>2026-05-06T14:18:48.996Z</time></trkpt><trkpt lat="44.1906767" lon="12.1324617"><ele>27.0</ele><time>2026-05-06T14:18:50.997Z</time></trkpt><trkpt lat="44.1906883" lon="12.1323167"><ele>27.0</ele><time>2026-05-06T14:18:52.997Z</time></trkpt><trkpt lat="44.1906967" lon="12.1321817"><ele>27.000000000000004</ele><time>2026-05-06T14:18:54.996Z</time></trkpt><trkpt lat="44.190695" lon="12.132045"><ele>27.000000000000004</ele><time>2026-05-06T14:18:56.997Z</time></trkpt><trkpt lat="44.1907017" lon="12.1319"><ele>27.0</ele><time>2026-05-06T14:18:58.996Z</time></trkpt><trkpt lat="44.1907083" lon="12.1317567"><ele>27.0</ele><time>2026-05-06T14:19:00.996Z</time></trkpt><trkpt lat="44.1907067" lon="12.13159"><ele>27.25</ele><time>2026-05-06T14:19:02.996Z</time></trkpt><trkpt lat="44.19072" lon="12.1314367"><ele>27.5</ele><time>2026-05-06T14:19:04.997Z</time></trkpt><trkpt lat="44.1907217" lon="12.1312883"><ele>27.75</ele><time>2026-05-06T14:19:06.997Z</time></trkpt><trkpt lat="44.1907283" lon="12.1311183"><ele>28.0</ele><time>2026-05-06T14:19:08.997Z</time></trkpt><trkpt lat="44.190725" lon="12.130955"><ele>28.0</ele><time>2026-05-06T14:19:10.997Z</time></trkpt><trkpt lat="44.19073" lon="12.13079"><ele>28.0</ele><time>2026-05-06T14:19:12.997Z</time></trkpt><trkpt lat="44.190725" lon="12.1306283"><ele>28.0</ele><time>2026-05-06T14:19:14.997Z</time></trkpt><trkpt lat="44.1907233" lon="12.1304617"><ele>28.0</ele><time>2026-05-06T14:19:16.996Z</time></trkpt><trkpt lat="44.1907367" lon="12.130295"><ele>28.25</ele><time>2026-05-06T14:19:18.997Z</time></trkpt><trkpt lat="44.1907417" lon="12.1301217"><ele>28.5</ele><time>2026-05-06T14:19:20.996Z</time></trkpt><trkpt lat="44.1907333" lon="12.1299583"><ele>28.75</ele><time>2026-05-06T14:19:22.996Z</time></trkpt><trkpt lat="44.1907367" lon="12.1298"><ele>29.0</ele><time>2026-05-06T14:19:24.996Z</time></trkpt><trkpt lat="44.1907483" lon="12.1296483"><ele>29.0</ele><time>2026-05-06T14:19:26.996Z</time></trkpt><trkpt lat="44.190765" lon="12.1294883"><ele>29.0</ele><time>2026-05-06T14:19:28.996Z</time></trkpt><trkpt lat="44.19077" lon="12.12933"><ele>29.0</ele><time>2026-05-06T14:19:30.997Z</time></trkpt><trkpt lat="44.1907783" lon="12.1291933"><ele>29.0</ele><time>2026-05-06T14:19:32.996Z</time></trkpt><trkpt lat="44.19077" lon="12.129085"><ele>29.0</ele><time>2026-05-06T14:19:34.996Z</time></trkpt><trkpt lat="44.1908367" lon="12.1290183"><ele>28.999999999999996</ele><time>2026-05-06T14:19:37.996Z</time></trkpt><trkpt lat="44.1909233" lon="12.1290333"><ele>29.0</ele><time>2026-05-06T14:19:39.997Z</time></trkpt><trkpt lat="44.191015" lon="12.1290467"><ele>29.0</ele><time>2026-05-06T14:19:41.997Z</time></trkpt><trkpt lat="44.191105" lon="12.1290583"><ele>29.0</ele><time>2026-05-06T14:19:43.996Z</time></trkpt><trkpt lat="44.1911833" lon="12.1290683"><ele>28.999999999999996</ele><time>2026-05-06T14:19:45.997Z</time></trkpt><trkpt lat="44.191275" lon="12.12909"><ele>29.0</ele><time>2026-05-06T14:19:47.996Z</time></trkpt><trkpt lat="44.191385" lon="12.12909"><ele>29.0</ele><time>2026-05-06T14:19:49.996Z</time></trkpt><trkpt lat="44.1914917" lon="12.129155"><ele>29.0</ele><time>2026-05-06T14:19:51.997Z</time></trkpt><trkpt lat="44.1916" lon="12.129195"><ele>29.0</ele><time>2026-05-06T14:19:53.996Z</time></trkpt><trkpt lat="44.191705" lon="12.129215"><ele>29.0</ele><time>2026-05-06T14:19:55.996Z</time></trkpt><trkpt lat="44.1917733" lon="12.129215"><ele>29.0</ele><time>2026-05-06T14:19:57.997Z</time></trkpt><trkpt lat="44.1918133" lon="12.1291117"><ele>29.25</ele><time>2026-05-06T14:20:01.996Z</time></trkpt><trkpt lat="44.1918333" lon="12.1289733"><ele>29.5</ele><time>2026-05-06T14:20:03.996Z</time></trkpt><trkpt lat="44.1918517" lon="12.1288067"><ele>29.75</ele><time>2026-05-06T14:20:05.996Z</time></trkpt><trkpt lat="44.1918733" lon="12.1286317"><ele>30.0</ele><time>2026-05-06T14:20:07.997Z</time></trkpt><trkpt lat="44.19189" lon="12.1284783"><ele>30.0</ele><time>2026-05-06T14:20:09.996Z</time></trkpt><trkpt lat="44.1919017" lon="12.1283217"><ele>30.0</ele><time>2026-05-06T14:20:11.996Z</time></trkpt><trkpt lat="44.1919167" lon="12.12816"><ele>30.0</ele><time>2026-05-06T14:20:13.996Z</time></trkpt><trkpt lat="44.191945" lon="12.1280183"><ele>30.0</ele><time>2026-05-06T14:20:15.996Z</time></trkpt><trkpt lat="44.1919633" lon="12.12789"><ele>30.0</ele><time>2026-05-06T14:20:17.996Z</time></trkpt><trkpt lat="44.1919783" lon="12.1277767"><ele>30.0</ele><time>2026-05-06T14:20:19.997Z</time></trkpt><trkpt lat="44.1919717" lon="12.1276767"><ele>30.0</ele><time>2026-05-06T14:20:21.997Z</time></trkpt><trkpt lat="44.1919533" lon="12.1275767"><ele>30.0</ele><time>2026-05-06T14:20:24.997Z</time></trkpt><trkpt lat="44.1918833" lon="12.1274817"><ele>30.0</ele><time>2026-05-06T14:20:27.996Z</time></trkpt><trkpt lat="44.1918117" lon="12.127425"><ele>30.0</ele><time>2026-05-06T14:20:29.996Z</time></trkpt><trkpt lat="44.19172" lon="12.1273883"><ele>30.0</ele><time>2026-05-06T14:20:31.996Z</time></trkpt><trkpt lat="44.1916267" lon="12.12736"><ele>30.0</ele><time>2026-05-06T14:20:33.996Z</time></trkpt><trkpt lat="44.1915183" lon="12.1273317"><ele>30.0</ele><time>2026-05-06T14:20:35.996Z</time></trkpt><trkpt lat="44.1914067" lon="12.1273117"><ele>30.0</ele><time>2026-05-06T14:20:37.996Z</time></trkpt><trkpt lat="44.1912983" lon="12.1272867"><ele>30.0</ele><time>2026-05-06T14:20:39.997Z</time></trkpt><trkpt lat="44.191195" lon="12.12726"><ele>30.0</ele><time>2026-05-06T14:20:41.997Z</time></trkpt><trkpt lat="44.1910817" lon="12.1272367"><ele>30.0</ele><time>2026-05-06T14:20:43.997Z</time></trkpt><trkpt lat="44.1909717" lon="12.127205"><ele>30.0</ele><time>2026-05-06T14:20:45.997Z</time></trkpt><trkpt lat="44.1908783" lon="12.1271817"><ele>30.0</ele><time>2026-05-06T14:20:47.996Z</time></trkpt><trkpt lat="44.1908317" lon="12.1271133"><ele>30.0</ele><time>2026-05-06T14:20:49.997Z</time></trkpt><trkpt lat="44.1908483" lon="12.126995"><ele>30.0</ele><time>2026-05-06T14:20:51.996Z</time></trkpt><trkpt lat="44.1908733" lon="12.1268433"><ele>30.0</ele><time>2026-05-06T14:20:53.996Z</time></trkpt><trkpt lat="44.1908833" lon="12.1266983"><ele>30.0</ele><time>2026-05-06T14:20:55.996Z</time></trkpt><trkpt lat="44.190905" lon="12.1265633"><ele>30.0</ele><time>2026-05-06T14:20:57.997Z</time></trkpt><trkpt lat="44.1909317" lon="12.126425"><ele>30.0</ele><time>2026-05-06T14:20:59.996Z</time></trkpt><trkpt lat="44.190955" lon="12.1262783"><ele>30.0</ele><time>2026-05-06T14:21:01.997Z</time></trkpt><trkpt lat="44.1909533" lon="12.12612"><ele>30.0</ele><time>2026-05-06T14:21:03.997Z</time></trkpt><trkpt lat="44.1909817" lon="12.1259683"><ele>30.0</ele><time>2026-05-06T14:21:05.996Z</time></trkpt><trkpt lat="44.1910217" lon="12.1258217"><ele>30.0</ele><time>2026-05-06T14:21:07.996Z</time></trkpt><trkpt lat="44.191015" lon="12.1256767"><ele>30.0</ele><time>2026-05-06T14:21:09.996Z</time></trkpt><trkpt lat="44.1909333" lon="12.125565"><ele>30.0</ele><time>2026-05-06T14:21:11.996Z</time></trkpt><trkpt lat="44.190815" lon="12.1255183"><ele>30.0</ele><time>2026-05-06T14:21:13.996Z</time></trkpt><trkpt lat="44.1907017" lon="12.1254917"><ele>30.0</ele><time>2026-05-06T14:21:15.996Z</time></trkpt><trkpt lat="44.190605" lon="12.1254683"><ele>30.0</ele><time>2026-05-06T14:21:17.996Z</time></trkpt><trkpt lat="44.1905067" lon="12.1254417"><ele>30.0</ele><time>2026-05-06T14:21:19.997Z</time></trkpt><trkpt lat="44.190415" lon="12.12541"><ele>30.0</ele><time>2026-05-06T14:21:21.997Z</time></trkpt><trkpt lat="44.19036" lon="12.1253133"><ele>30.0</ele><time>2026-05-06T14:21:23.996Z</time></trkpt><trkpt lat="44.1903617" lon="12.1251717"><ele>30.0</ele><time>2026-05-06T14:21:25.997Z</time></trkpt><trkpt lat="44.1903883" lon="12.125005"><ele>30.0</ele><time>2026-05-06T14:21:27.997Z</time></trkpt><trkpt lat="44.1904" lon="12.1248483"><ele>30.0</ele><time>2026-05-06T14:21:29.997Z</time></trkpt><trkpt lat="44.19041" lon="12.12469"><ele>29.5</ele><time>2026-05-06T14:21:31.997Z</time></trkpt><trkpt lat="44.1904283" lon="12.1245367"><ele>29.0</ele><time>2026-05-06T14:21:33.996Z</time></trkpt><trkpt lat="44.190465" lon="12.12438"><ele>28.5</ele><time>2026-05-06T14:21:35.996Z</time></trkpt><trkpt lat="44.19049" lon="12.124225"><ele>28.0</ele><time>2026-05-06T14:21:37.997Z</time></trkpt><trkpt lat="44.1904917" lon="12.124065"><ele>28.000000000000004</ele><time>2026-05-06T14:21:39.996Z</time></trkpt><trkpt lat="44.190495" lon="12.1239767"><ele>28.0</ele><time>2026-05-06T14:21:40.996Z</time></trkpt><trkpt lat="44.1905083" lon="12.1238833"><ele>28.0</ele><time>2026-05-06T14:21:41.996Z</time></trkpt><trkpt lat="44.1905333" lon="12.1237233"><ele>28.0</ele><time>2026-05-06T14:21:43.997Z</time></trkpt><trkpt lat="44.19056" lon="12.12355"><ele>28.000000000000004</ele><time>2026-05-06T14:21:45.997Z</time></trkpt><trkpt lat="44.1905683" lon="12.12346"><ele>28.0</ele><time>2026-05-06T14:21:46.996Z</time></trkpt><trkpt lat="44.1905767" lon="12.123365"><ele>28.0</ele><time>2026-05-06T14:21:47.997Z</time></trkpt><trkpt lat="44.19058" lon="12.1231917"><ele>27.999999999999996</ele><time>2026-05-06T14:21:49.996Z</time></trkpt><trkpt lat="44.19053" lon="12.123045"><ele>27.999999999999996</ele><time>2026-05-06T14:21:51.996Z</time></trkpt><trkpt lat="44.19043" lon="12.1229467"><ele>28.0</ele><time>2026-05-06T14:21:53.997Z</time></trkpt><trkpt lat="44.1903683" lon="12.1229067"><ele>28.0</ele><time>2026-05-06T14:21:54.996Z</time></trkpt><trkpt lat="44.1903033" lon="12.122865"><ele>28.0</ele><time>2026-05-06T14:21:55.996Z</time></trkpt><trkpt lat="44.190245" lon="12.1228217"><ele>28.0</ele><time>2026-05-06T14:21:56.997Z</time></trkpt><trkpt lat="44.1901867" lon="12.1227767"><ele>28.0</ele><time>2026-05-06T14:21:57.996Z</time></trkpt><trkpt lat="44.1901283" lon="12.1227367"><ele>28.0</ele><time>2026-05-06T14:21:58.997Z</time></trkpt><trkpt lat="44.19007" lon="12.1226983"><ele>28.0</ele><time>2026-05-06T14:21:59.997Z</time></trkpt><trkpt lat="44.1900117" lon="12.1226633"><ele>28.0</ele><time>2026-05-06T14:22:00.997Z</time></trkpt><trkpt lat="44.1899" lon="12.1225917"><ele>28.0</ele><time>2026-05-06T14:22:02.996Z</time></trkpt><trkpt lat="44.189785" lon="12.122515"><ele>28.2</ele><time>2026-05-06T14:22:04.997Z</time></trkpt><trkpt lat="44.1896783" lon="12.122435"><ele>28.4</ele><time>2026-05-06T14:22:06.997Z</time></trkpt><trkpt lat="44.1896183" lon="12.1224067"><ele>28.599999999999998</ele><time>2026-05-06T14:22:07.997Z</time></trkpt><trkpt lat="44.1895033" lon="12.12234"><ele>28.799999999999997</ele><time>2026-05-06T14:22:09.996Z</time></trkpt><trkpt lat="44.1894067" lon="12.1222633"><ele>29.0</ele><time>2026-05-06T14:22:11.996Z</time></trkpt><trkpt lat="44.1893067" lon="12.12219"><ele>29.0</ele><time>2026-05-06T14:22:13.996Z</time></trkpt><trkpt lat="44.1892133" lon="12.1221267"><ele>29.0</ele><time>2026-05-06T14:22:15.997Z</time></trkpt><trkpt lat="44.1891217" lon="12.1220717"><ele>29.0</ele><time>2026-05-06T14:22:17.997Z</time></trkpt><trkpt lat="44.1890183" lon="12.1220067"><ele>29.0</ele><time>2026-05-06T14:22:19.997Z</time></trkpt><trkpt lat="44.188915" lon="12.12195"><ele>29.0</ele><time>2026-05-06T14:22:21.996Z</time></trkpt><trkpt lat="44.1888533" lon="12.1219317"><ele>29.2</ele><time>2026-05-06T14:22:22.996Z</time></trkpt><trkpt lat="44.1887433" lon="12.1218683"><ele>29.4</ele><time>2026-05-06T14:22:24.997Z</time></trkpt><trkpt lat="44.1886467" lon="12.1217933"><ele>29.6</ele><time>2026-05-06T14:22:26.997Z</time></trkpt><trkpt lat="44.1885617" lon="12.12172"><ele>29.8</ele><time>2026-05-06T14:22:28.996Z</time></trkpt><trkpt lat="44.1884767" lon="12.12165"><ele>30.0</ele><time>2026-05-06T14:22:30.996Z</time></trkpt><trkpt lat="44.188375" lon="12.1216067"><ele>30.0</ele><time>2026-05-06T14:22:32.996Z</time></trkpt><trkpt lat="44.1882733" lon="12.12158"><ele>30.0</ele><time>2026-05-06T14:22:34.996Z</time></trkpt><trkpt lat="44.18817" lon="12.1215867"><ele>30.0</ele><time>2026-05-06T14:22:36.996Z</time></trkpt><trkpt lat="44.1880667" lon="12.1215833"><ele>30.0</ele><time>2026-05-06T14:22:38.996Z</time></trkpt><trkpt lat="44.1880167" lon="12.1214717"><ele>30.0</ele><time>2026-05-06T14:22:40.996Z</time></trkpt><trkpt lat="44.1879967" lon="12.1213533"><ele>30.0</ele><time>2026-05-06T14:22:42.997Z</time></trkpt><trkpt lat="44.187945" lon="12.1212467"><ele>30.0</ele><time>2026-05-06T14:22:44.996Z</time></trkpt><trkpt lat="44.1878483" lon="12.121185"><ele>30.0</ele><time>2026-05-06T14:22:46.997Z</time></trkpt><trkpt lat="44.18773" lon="12.121115"><ele>30.0</ele><time>2026-05-06T14:22:48.997Z</time></trkpt><trkpt lat="44.1876683" lon="12.12108"><ele>30.0</ele><time>2026-05-06T14:22:49.996Z</time></trkpt><trkpt lat="44.1875517" lon="12.12103"><ele>30.0</ele><time>2026-05-06T14:22:51.996Z</time></trkpt><trkpt lat="44.1874417" lon="12.1209567"><ele>30.0</ele><time>2026-05-06T14:22:53.996Z</time></trkpt><trkpt lat="44.18735" lon="12.12089"><ele>30.0</ele><time>2026-05-06T14:22:55.997Z</time></trkpt><trkpt lat="44.1872517" lon="12.1208183"><ele>30.0</ele><time>2026-05-06T14:22:57.996Z</time></trkpt><trkpt lat="44.1871767" lon="12.1207367"><ele>30.0</ele><time>2026-05-06T14:22:59.997Z</time></trkpt><trkpt lat="44.1871467" lon="12.1205717"><ele>29.833333333333332</ele><time>2026-05-06T14:23:01.996Z</time></trkpt><trkpt lat="44.1871317" lon="12.1204833"><ele>29.666666666666664</ele><time>2026-05-06T14:23:02.997Z</time></trkpt><trkpt lat="44.1871133" lon="12.1203967"><ele>29.5</ele><time>2026-05-06T14:23:03.996Z</time></trkpt><trkpt lat="44.1870717" lon="12.120225"><ele>29.333333333333332</ele><time>2026-05-06T14:23:05.996Z</time></trkpt><trkpt lat="44.1870533" lon="12.120135"><ele>29.166666666666664</ele><time>2026-05-06T14:23:06.997Z</time></trkpt><trkpt lat="44.1870317" lon="12.1200417"><ele>29.0</ele><time>2026-05-06T14:23:07.996Z</time></trkpt><trkpt lat="44.1870117" lon="12.1199583"><ele>29.0</ele><time>2026-05-06T14:23:08.997Z</time></trkpt><trkpt lat="44.1869933" lon="12.1198733"><ele>29.0</ele><time>2026-05-06T14:23:09.997Z</time></trkpt><trkpt lat="44.1869517" lon="12.1197117"><ele>29.0</ele><time>2026-05-06T14:23:11.997Z</time></trkpt><trkpt lat="44.1868967" lon="12.1195633"><ele>29.0</ele><time>2026-05-06T14:23:13.997Z</time></trkpt><trkpt lat="44.186835" lon="12.11943"><ele>29.0</ele><time>2026-05-06T14:23:15.996Z</time></trkpt><trkpt lat="44.186765" lon="12.1193117"><ele>29.0</ele><time>2026-05-06T14:23:17.996Z</time></trkpt><trkpt lat="44.1867183" lon="12.1192483"><ele>29.0</ele><time>2026-05-06T14:23:18.996Z</time></trkpt><trkpt lat="44.1866717" lon="12.119185"><ele>29.0</ele><time>2026-05-06T14:23:19.996Z</time></trkpt><trkpt lat="44.1865867" lon="12.1190817"><ele>29.0</ele><time>2026-05-06T14:23:21.997Z</time></trkpt><trkpt lat="44.1864967" lon="12.1189683"><ele>29.0</ele><time>2026-05-06T14:23:23.997Z</time></trkpt><trkpt lat="44.186435" lon="12.1188367"><ele>28.999999999999996</ele><time>2026-05-06T14:23:25.996Z</time></trkpt><trkpt lat="44.1864083" lon="12.1186767"><ele>29.0</ele><time>2026-05-06T14:23:27.996Z</time></trkpt><trkpt lat="44.1864167" lon="12.1185117"><ele>29.0</ele><time>2026-05-06T14:23:29.996Z</time></trkpt><trkpt lat="44.1864283" lon="12.1184233"><ele>29.0</ele><time>2026-05-06T14:23:30.997Z</time></trkpt><trkpt lat="44.1864367" lon="12.11833"><ele>28.999999999999996</ele><time>2026-05-06T14:23:31.996Z</time></trkpt><trkpt lat="44.1864467" lon="12.1182417"><ele>29.0</ele><time>2026-05-06T14:23:32.996Z</time></trkpt><trkpt lat="44.186455" lon="12.1181533"><ele>28.999999999999996</ele><time>2026-05-06T14:23:33.996Z</time></trkpt><trkpt lat="44.1864817" lon="12.1179883"><ele>29.0</ele><time>2026-05-06T14:23:35.996Z</time></trkpt><trkpt lat="44.1864933" lon="12.1179017"><ele>29.0</ele><time>2026-05-06T14:23:36.996Z</time></trkpt><trkpt lat="44.1865083" lon="12.1178133"><ele>29.0</ele><time>2026-05-06T14:23:37.996Z</time></trkpt><trkpt lat="44.1865267" lon="12.117725"><ele>28.999999999999996</ele><time>2026-05-06T14:23:38.997Z</time></trkpt><trkpt lat="44.1865383" lon="12.1176333"><ele>29.0</ele><time>2026-05-06T14:23:39.996Z</time></trkpt><trkpt lat="44.18655" lon="12.1175367"><ele>29.000000000000004</ele><time>2026-05-06T14:23:40.996Z</time></trkpt><trkpt lat="44.1865667" lon="12.1174417"><ele>29.0</ele><time>2026-05-06T14:23:41.997Z</time></trkpt><trkpt lat="44.1865783" lon="12.1173483"><ele>29.000000000000004</ele><time>2026-05-06T14:23:42.997Z</time></trkpt><trkpt lat="44.186585" lon="12.1172517"><ele>29.000000000000004</ele><time>2026-05-06T14:23:43.996Z</time></trkpt><trkpt lat="44.1866" lon="12.117155"><ele>29.0</ele><time>2026-05-06T14:23:44.996Z</time></trkpt><trkpt lat="44.18663" lon="12.11706"><ele>29.000000000000004</ele><time>2026-05-06T14:23:45.997Z</time></trkpt><trkpt lat="44.1866517" lon="12.1169617"><ele>29.000000000000004</ele><time>2026-05-06T14:23:46.996Z</time></trkpt><trkpt lat="44.186685" lon="12.1168767"><ele>28.85714285714286</ele><time>2026-05-06T14:23:47.997Z</time></trkpt><trkpt lat="44.18671" lon="12.1167833"><ele>28.714285714285715</ele><time>2026-05-06T14:23:48.996Z</time></trkpt><trkpt lat="44.1867367" lon="12.116695"><ele>28.571428571428573</ele><time>2026-05-06T14:23:49.996Z</time></trkpt><trkpt lat="44.186775" lon="12.1166167"><ele>28.42857142857143</ele><time>2026-05-06T14:23:50.996Z</time></trkpt><trkpt lat="44.1868117" lon="12.1165367"><ele>28.285714285714285</ele><time>2026-05-06T14:23:51.996Z</time></trkpt><trkpt lat="44.18684" lon="12.1164533"><ele>28.142857142857142</ele><time>2026-05-06T14:23:52.997Z</time></trkpt><trkpt lat="44.1868717" lon="12.1163733"><ele>28.0</ele><time>2026-05-06T14:23:53.996Z</time></trkpt><trkpt lat="44.1869017" lon="12.1162917"><ele>28.000000000000004</ele><time>2026-05-06T14:23:54.996Z</time></trkpt><trkpt lat="44.1869333" lon="12.1162067"><ele>28.0</ele><time>2026-05-06T14:23:55.997Z</time></trkpt><trkpt lat="44.1869633" lon="12.1161217"><ele>28.0</ele><time>2026-05-06T14:23:56.997Z</time></trkpt><trkpt lat="44.186995" lon="12.1160333"><ele>28.0</ele><time>2026-05-06T14:23:57.996Z</time></trkpt><trkpt lat="44.1870283" lon="12.115955"><ele>28.000000000000004</ele><time>2026-05-06T14:23:58.996Z</time></trkpt><trkpt lat="44.1870667" lon="12.1158783"><ele>28.0</ele><time>2026-05-06T14:23:59.996Z</time></trkpt><trkpt lat="44.1871183" lon="12.1157283"><ele>28.000000000000004</ele><time>2026-05-06T14:24:01.996Z</time></trkpt><trkpt lat="44.1871267" lon="12.11564"><ele>28.0</ele><time>2026-05-06T14:24:02.997Z</time></trkpt><trkpt lat="44.187125" lon="12.1154733"><ele>28.0</ele><time>2026-05-06T14:24:04.997Z</time></trkpt><trkpt lat="44.18705" lon="12.11534"><ele>28.0</ele><time>2026-05-06T14:24:06.997Z</time></trkpt><trkpt lat="44.186995" lon="12.1152917"><ele>28.000000000000004</ele><time>2026-05-06T14:24:07.997Z</time></trkpt><trkpt lat="44.1869467" lon="12.1152333"><ele>28.0</ele><time>2026-05-06T14:24:08.997Z</time></trkpt><trkpt lat="44.1868917" lon="12.115175"><ele>28.0</ele><time>2026-05-06T14:24:09.996Z</time></trkpt><trkpt lat="44.1868333" lon="12.1151183"><ele>27.999999999999996</ele><time>2026-05-06T14:24:10.996Z</time></trkpt><trkpt lat="44.1867283" lon="12.1150367"><ele>27.999999999999996</ele><time>2026-05-06T14:24:12.997Z</time></trkpt><trkpt lat="44.1866717" lon="12.1149917"><ele>28.0</ele><time>2026-05-06T14:24:13.997Z</time></trkpt><trkpt lat="44.186565" lon="12.1149167"><ele>28.0</ele><time>2026-05-06T14:24:15.997Z</time></trkpt><trkpt lat="44.18647" lon="12.1148333"><ele>28.0</ele><time>2026-05-06T14:24:17.997Z</time></trkpt><trkpt lat="44.1863717" lon="12.1147567"><ele>27.999999999999996</ele><time>2026-05-06T14:24:19.996Z</time></trkpt><trkpt lat="44.1862817" lon="12.114685"><ele>27.999999999999996</ele><time>2026-05-06T14:24:21.996Z</time></trkpt><trkpt lat="44.1861867" lon="12.1146267"><ele>28.0</ele><time>2026-05-06T14:24:23.997Z</time></trkpt><trkpt lat="44.1861017" lon="12.1145517"><ele>28.0</ele><time>2026-05-06T14:24:25.996Z</time></trkpt><trkpt lat="44.1860183" lon="12.11448"><ele>28.0</ele><time>2026-05-06T14:24:27.996Z</time></trkpt><trkpt lat="44.18592" lon="12.114395"><ele>28.0</ele><time>2026-05-06T14:24:29.997Z</time></trkpt><trkpt lat="44.1858317" lon="12.1143167"><ele>28.0</ele><time>2026-05-06T14:24:31.996Z</time></trkpt><trkpt lat="44.1857267" lon="12.1142517"><ele>28.0</ele><time>2026-05-06T14:24:33.996Z</time></trkpt><trkpt lat="44.185625" lon="12.114175"><ele>28.0</ele><time>2026-05-06T14:24:35.996Z</time></trkpt><trkpt lat="44.1855233" lon="12.1140917"><ele>27.999999999999996</ele><time>2026-05-06T14:24:37.996Z</time></trkpt><trkpt lat="44.185425" lon="12.1140183"><ele>27.999999999999996</ele><time>2026-05-06T14:24:39.996Z</time></trkpt><trkpt lat="44.1853283" lon="12.1139617"><ele>28.0</ele><time>2026-05-06T14:24:41.996Z</time></trkpt><trkpt lat="44.185235" lon="12.1138817"><ele>28.0</ele><time>2026-05-06T14:24:43.997Z</time></trkpt><trkpt lat="44.185135" lon="12.1138517"><ele>28.0</ele><time>2026-05-06T14:24:45.997Z</time></trkpt><trkpt lat="44.18504" lon="12.113885"><ele>27.999999999999996</ele><time>2026-05-06T14:24:47.996Z</time></trkpt><trkpt lat="44.1849633" lon="12.1139833"><ele>27.999999999999996</ele><time>2026-05-06T14:24:49.996Z</time></trkpt><trkpt lat="44.1849167" lon="12.1140933"><ele>28.0</ele><time>2026-05-06T14:24:51.996Z</time></trkpt><trkpt lat="44.1848667" lon="12.11427"><ele>28.0</ele><time>2026-05-06T14:24:54.997Z</time></trkpt><trkpt lat="44.1849083" lon="12.1143683"><ele>28.000000000000004</ele><time>2026-05-06T14:24:56.996Z</time></trkpt><trkpt lat="44.1849767" lon="12.11443"><ele>28.0</ele><time>2026-05-06T14:24:58.996Z</time></trkpt><trkpt lat="44.185035" lon="12.114495"><ele>28.0</ele><time>2026-05-06T14:25:00.997Z</time></trkpt><trkpt lat="44.18506" lon="12.1146067"><ele>28.0</ele><time>2026-05-06T14:25:03.997Z</time></trkpt><trkpt lat="44.1850117" lon="12.114715"><ele>28.000000000000004</ele><time>2026-05-06T14:25:06.997Z</time></trkpt><trkpt lat="44.1849783" lon="12.1148233"><ele>28.0</ele><time>2026-05-06T14:25:09.996Z</time></trkpt><trkpt lat="44.1849938" lon="12.11494"><ele>29.0</ele><time>2026-05-06T14:25:40.991Z</time></trkpt></trkseg></trk></gpx>